# Wetter Temperatur Luftdruck Luftfeuchtigkeit Sichtweite Windgeschwindigkeit Windrichtung Zeit
1 Clouds 7 1008 100 10000 1.54 270 07:33 16.05.2021
2 Clouds 6 1010 95 10000 1.21 157 06:55 16.05.2021
3 Clouds 6 1011 93 10000 1.32 176 03:35 16.05.2021
4 Clouds 6 1010 100 10000 3.09 120 00:46 16.05.2021
5 Clouds 7 1010 100 10000 2.06 110 23:56 15.05.2021
6 Clouds 7 1010 100 10000 3.09 90 23:21 15.05.2021
7 Clouds 7 1010 100 10000 1.54 180 22:45 15.05.2021
8 Clouds 8 1010 93 10000 3.09 280 22:22 15.05.2021
9 Rain 8 1009 93 8000 4.63 280 21:39 15.05.2021
10 Rain 8 1009 100 9000 2.06 310 21:20 15.05.2021
11 Rain 9 1008 100 9000 1.03 0 20:38 15.05.2021
12 Rain 9 1008 100 10000 1.03 0 20:18 15.05.2021
13 Clouds 9 1008 100 10000 1.03 110 19:35 15.05.2021
14 Clouds 9 1008 100 6000 1.54 0 18:25 15.05.2021
15 Rain 9 1009 100 6000 2.06 330 17:59 15.05.2021
16 Rain 9 1008 93 10000 2.57 330 17:24 15.05.2021
17 Rain 9 1009 93 10000 2.06 330 16:45 15.05.2021
18 Rain 10 1009 87 10000 3.09 280 16:25 15.05.2021
19 Rain 10 1009 87 10000 1.54 310 15:57 15.05.2021
20 Rain 10 1009 81 10000 3.09 290 14:59 15.05.2021
21 Rain 11 1009 62 10000 4.12 270 14:29 15.05.2021
22 Rain 11 1009 54 10000 3.6 270 13:54 15.05.2021
23 Rain 12 1009 54 10000 3.6 270 13:29 15.05.2021
24 Clouds 12 1009 62 10000 0.51 0 12:29 15.05.2021
25 Clouds 12 1010 71 10000 2.06 0 11:49 15.05.2021
26 Rain 11 1010 81 10000 1.54 0 10:54 15.05.2021
27 Rain 9 1010 87 10000 2.06 90 09:59 15.05.2021
28 Rain 8 1012 76 10000 1.79 120 09:23 15.05.2021
29 Clouds 7 1011 100 10000 2.57 110 08:23 15.05.2021
30 Clouds 6 1012 79 10000 1.28 155 07:26 15.05.2021
31 Clouds 5 1011 100 10000 2.57 100 06:54 15.05.2021
32 Clouds 5 1011 100 10000 2.57 100 06:34 15.05.2021
33 Clouds 5 1012 100 10000 1.54 0 04:22 15.05.2021
34 Clouds 6 1013 100 10000 2.57 140 01:30 15.05.2021
35 Clouds 6 1014 100 10000 1.03 0 23:49 14.05.2021
36 Clouds 7 1013 100 10000 1.54 80 22:58 14.05.2021
37 Clouds 8 1013 100 10000 2.06 80 22:25 14.05.2021
38 Clouds 8 1013 100 10000 2.06 90 21:41 14.05.2021
39 Clouds 9 1012 93 10000 2.06 130 21:18 14.05.2021
40 Clouds 9 1012 81 10000 1.03 0 20:35 14.05.2021
41 Clouds 10 1012 93 10000 2.06 110 19:51 14.05.2021
42 Clouds 10 1012 93 10000 2.06 110 19:31 14.05.2021
43 Clouds 10 1012 100 10000 0.51 0 18:57 14.05.2021
44 Rain 10 1012 100 10000 0.51 0 18:35 14.05.2021
45 Rain 11 1011 87 10000 3.6 140 17:49 14.05.2021
46 Clouds 11 1011 82 10000 1.03 0 17:25 14.05.2021
47 Clouds 12 1011 71 10000 3.09 260 16:59 14.05.2021
48 Clouds 12 1011 71 10000 3.09 260 16:41 14.05.2021
49 Rain 11 1011 71 10000 3.09 320 16:22 14.05.2021
50 Rain 11 1010 66 10000 9.77 260 15:20 14.05.2021
51 Rain 14 1009 47 10000 3.6 280 14:40 14.05.2021
52 Clouds 14 1009 51 10000 3.09 270 13:46 14.05.2021
53 Clouds 14 1009 51 10000 3.09 270 13:27 14.05.2021
54 Clouds 14 1009 44 10000 3.09 0 12:37 14.05.2021
55 Clouds 14 1009 47 10000 1.54 300 12:18 14.05.2021
56 Clear 13 1009 54 10000 1.54 270 11:26 14.05.2021
57 Clear 13 1009 66 10000 1.03 0 10:43 14.05.2021
58 Clear 12 1009 62 10000 1.03 0 10:24 14.05.2021
59 Clear 11 1009 71 10000 1.54 120 09:44 14.05.2021
60 Clear 10 1009 71 10000 3.09 120 09:25 14.05.2021
61 Clear 8 1009 81 10000 2.57 110 08:34 14.05.2021
62 Clear 5 1009 93 10000 2.06 130 07:35 14.05.2021
63 Clear 3 1009 100 10000 1.03 170 06:43 14.05.2021
64 Clear 5 1011 64 10000 1.41 171 02:46 14.05.2021
65 Clear 6 1010 100 10000 2.06 120 00:59 14.05.2021
66 Clouds 7 1010 100 10000 0.51 0 23:54 13.05.2021
67 Clouds 7 1010 100 10000 0.51 0 23:32 13.05.2021
68 Clouds 7 1010 93 10000 1.03 0 22:59 13.05.2021
69 Clouds 7 1010 93 10000 1.03 0 22:39 13.05.2021
70 Clouds 8 1010 87 10000 1.03 300 22:21 13.05.2021
71 Clouds 12 1009 76 10000 1.03 0 21:41 13.05.2021
72 Clouds 11 1010 66 10000 0.51 0 21:22 13.05.2021
73 Clouds 15 1009 62 10000 1.54 270 20:46 13.05.2021
74 Clouds 14 1010 53 10000 1.54 280 19:56 13.05.2021
75 Clouds 14 1010 50 10000 1.54 280 19:37 13.05.2021
76 Clouds 14 1010 49 10000 2.06 280 19:19 13.05.2021
77 Clouds 14 1010 49 10000 1.54 0 18:45 13.05.2021
78 Clouds 14 1011 50 10000 1.79 285 18:22 13.05.2021
79 Clouds 14 1011 48 10000 2.68 280 17:41 13.05.2021
80 Clouds 14 1011 49 10000 0.89 275 17:22 13.05.2021
81 Clouds 14 1011 49 10000 4.02 270 16:48 13.05.2021
82 Clouds 13 1012 53 10000 0.45 290 16:19 13.05.2021
83 Clouds 13 1012 52 10000 2.68 295 15:56 13.05.2021
84 Clouds 13 1012 53 10000 4.02 280 15:25 13.05.2021
85 Clouds 13 1012 53 10000 6.71 280 14:57 13.05.2021
86 Clouds 12 1012 54 10000 6.71 305 14:38 13.05.2021
87 Clouds 12 1012 57 10000 6.26 275 14:20 13.05.2021
88 Clouds 11 1012 62 10000 5.81 285 13:43 13.05.2021
89 Clouds 11 1012 59 10000 6.26 275 13:24 13.05.2021
90 Clouds 11 1012 66 10000 5.81 265 12:41 13.05.2021
91 Clouds 10 1012 70 10000 8.49 270 12:18 13.05.2021
92 Clouds 10 1012 77 10000 4.92 300 11:39 13.05.2021
93 Clouds 9 1012 72 6412 4.02 280 10:55 13.05.2021
94 Clouds 5 1012 72 10000 3.13 285 10:36 13.05.2021
95 Clouds 6 1011 80 10000 1.79 295 09:51 13.05.2021
96 Clouds 6 1011 81 10000 0.89 275 09:29 13.05.2021
97 Clouds 5 1010 80 10000 1.03 120 08:37 13.05.2021
98 Clouds 5 1010 83 10000 0 0 07:59 13.05.2021
99 Clouds 4 1010 83 10000 0.89 285 07:20 13.05.2021
100 Rain 4 1010 82 10000 0 0 05:51 13.05.2021
101 Clouds 4 1011 80 10000 0.51 0 02:39 13.05.2021
102 Clouds 4 1011 89 10000 0.51 0 00:51 13.05.2021
103 Clouds 5 1012 88 10000 0.51 0 23:43 12.05.2021
104 Clouds 6 1012 73 10000 1.03 0 22:56 12.05.2021
105 Clouds 6 1012 73 10000 1.03 0 22:56 12.05.2021
106 Clouds 6 1012 80 10000 0.51 0 22:21 12.05.2021
107 Clouds 7 1012 68 10000 1.03 0 21:53 12.05.2021
108 Clouds 7 1012 63 10000 1.54 330 21:18 12.05.2021
109 Clouds 8 1011 58 10000 1.54 350 20:48 12.05.2021
110 Clouds 9 1011 52 10000 2.06 80 19:52 12.05.2021
111 Clouds 11 1011 49 10000 0.89 125 18:58 12.05.2021
112 Clouds 11 1011 49 10000 0.45 105 18:27 12.05.2021
113 Clouds 11 1012 51 10000 1.34 110 17:55 12.05.2021
114 Clouds 11 1012 51 10000 1.34 110 17:55 12.05.2021
115 Clouds 11 1012 52 10000 1.79 115 17:34 12.05.2021
116 Clouds 11 1012 53 10000 2.57 90 16:53 12.05.2021
117 Clouds 11 1012 53 10000 2.68 125 16:26 12.05.2021
118 Clouds 14 1011 58 10000 3.09 80 15:42 12.05.2021
119 Clouds 14 1011 58 10000 1.03 10 15:19 12.05.2021
120 Clouds 13 1011 54 10000 2.57 110 14:36 12.05.2021
121 Clouds 13 1012 54 10000 1.03 20 13:53 12.05.2021
122 Clouds 13 1012 54 10000 1.03 20 13:33 12.05.2021
123 Clouds 12 1013 58 10000 1.03 0 12:37 12.05.2021
124 Clouds 12 1013 71 10000 2.06 140 11:52 12.05.2021
125 Clouds 12 1013 66 10000 1.54 90 11:32 12.05.2021
126 Clouds 11 1014 76 10000 1.54 130 10:59 12.05.2021
127 Clouds 11 1014 81 10000 2.06 120 10:29 12.05.2021
128 Clouds 10 1015 93 10000 2.57 120 09:46 12.05.2021
129 Clouds 10 1015 93 10000 2.06 120 09:27 12.05.2021
130 Clouds 10 1015 93 10000 2.06 120 09:27 12.05.2021
131 Clouds 9 1015 100 10000 2.57 100 08:52 12.05.2021
132 Clouds 8 1015 93 10000 1.03 0 08:29 12.05.2021
133 Clouds 8 1015 93 10000 2.06 120 07:33 12.05.2021
134 Clouds 7 1015 93 10000 3.09 120 06:24 12.05.2021
135 Clouds 8 1015 87 10000 3.6 260 00:55 12.05.2021
136 Clouds 8 1015 87 10000 3.6 260 00:55 12.05.2021
137 Rain 9 1015 87 10000 5.14 260 00:35 12.05.2021
138 Drizzle 9 1015 100 10000 1.03 0 23:47 11.05.2021
139 Drizzle 9 1015 100 10000 1.54 0 23:28 11.05.2021
140 Rain 9 1015 100 10000 3.09 140 22:49 11.05.2021
141 Rain 9 1014 100 10000 2.06 110 22:21 11.05.2021
142 Rain 9 1014 100 10000 1.54 110 21:55 11.05.2021
143 Rain 9 1014 100 10000 1.54 110 21:36 11.05.2021
144 Rain 9 1013 100 10000 1.54 140 21:18 11.05.2021
145 Rain 9 1013 93 10000 3.09 240 20:43 11.05.2021
146 Rain 9 1012 100 10000 2.57 140 20:23 11.05.2021
147 Rain 10 1012 100 10000 3.09 100 19:43 11.05.2021
148 Rain 10 1011 100 7000 3.09 150 19:21 11.05.2021
149 Rain 10 1011 100 10000 2.57 140 18:45 11.05.2021
150 Rain 10 1011 100 10000 2.57 140 18:27 11.05.2021
151 Rain 10 1011 100 10000 2.57 140 18:27 11.05.2021
152 Rain 11 1011 100 10000 2.06 170 17:41 11.05.2021
153 Rain 11 1011 100 10000 2.57 150 17:23 11.05.2021
154 Rain 11 1011 100 10000 2.57 150 16:42 11.05.2021
155 Rain 11 1010 100 8000 2.06 130 16:22 11.05.2021
156 Rain 11 1010 100 8000 2.06 120 15:43 11.05.2021
157 Rain 11 1010 100 8000 2.06 130 15:19 11.05.2021
158 Rain 11 1010 100 10000 0.51 0 14:43 11.05.2021
159 Rain 11 1010 100 10000 0.51 0 14:23 11.05.2021
160 Rain 10 1010 100 8000 1.54 360 13:47 11.05.2021
161 Rain 10 1010 100 8000 1.54 360 13:23 11.05.2021
162 Rain 11 1009 93 10000 4.12 310 12:54 11.05.2021
163 Rain 11 1009 93 10000 4.12 310 12:33 11.05.2021
164 Rain 10 1009 87 10000 5.66 290 11:49 11.05.2021
165 Rain 10 1009 87 10000 5.66 290 11:30 11.05.2021
166 Clouds 10 1008 87 10000 6.17 280 10:54 11.05.2021
167 Clouds 11 1008 82 10000 6.17 260 10:32 11.05.2021
168 Clouds 12 1007 88 10000 2.06 280 09:59 11.05.2021
169 Clouds 12 1007 94 10000 2.06 310 09:39 11.05.2021
170 Clouds 12 1009 76 4420 0.92 2 09:21 11.05.2021
171 Clouds 11 1007 100 10000 0.51 0 08:47 11.05.2021
172 Clouds 11 1007 100 10000 0.51 0 08:29 11.05.2021
173 Drizzle 11 1007 100 10000 1.03 320 07:53 11.05.2021
174 Drizzle 10 1007 100 10000 1.03 320 07:24 11.05.2021
175 Clouds 10 1008 100 10000 2.06 330 05:42 11.05.2021
176 Clouds 11 1009 100 10000 3.6 310 00:55 11.05.2021
177 Clouds 11 1009 100 10000 3.6 310 00:36 11.05.2021
178 Clouds 11 1008 94 10000 1.54 110 23:46 10.05.2021
179 Rain 12 1009 94 10000 0.51 0 23:21 10.05.2021
180 Clouds 12 1010 88 10000 0.51 0 22:43 10.05.2021
181 Clouds 12 1009 94 10000 1.03 0 22:19 10.05.2021
182 Rain 12 1010 94 10000 1.54 0 21:47 10.05.2021
183 Clouds 12 1009 94 10000 2.06 310 21:26 10.05.2021
184 Clouds 13 1009 88 10000 2.57 300 20:43 10.05.2021
185 Clouds 13 1009 88 10000 2.57 290 20:20 10.05.2021
186 Clouds 13 1009 94 10000 3.09 300 19:45 10.05.2021
187 Rain 13 1009 94 10000 3.09 300 19:24 10.05.2021
188 Rain 13 1010 100 10000 2.57 290 18:55 10.05.2021
189 Rain 13 1010 100 10000 2.57 290 18:26 10.05.2021
190 Rain 14 1010 88 10000 2.57 300 17:48 10.05.2021
191 Rain 14 1010 88 10000 2.57 300 17:30 10.05.2021
192 Rain 14 1010 88 10000 3.09 290 16:52 10.05.2021
193 Rain 14 1010 88 10000 3.09 290 16:26 10.05.2021
194 Rain 14 1010 94 10000 3.09 310 15:41 10.05.2021
195 Rain 14 1010 88 10000 2.57 320 15:22 10.05.2021
196 Rain 15 1010 88 10000 2.57 320 14:53 10.05.2021
197 Rain 15 1011 77 10000 1.03 0 14:25 10.05.2021
198 Rain 15 1011 82 10000 1.03 0 13:47 10.05.2021
199 Rain 15 1010 77 10000 3.09 330 12:52 10.05.2021
200 Clouds 15 1011 82 10000 3.09 330 12:31 10.05.2021
201 Clouds 15 1010 77 10000 3.6 320 11:49 10.05.2021
202 Clouds 16 1010 82 10000 4.12 320 11:29 10.05.2021
203 Clouds 16 1009 72 10000 3.09 310 10:51 10.05.2021
204 Rain 15 1009 72 10000 3.09 310 10:32 10.05.2021
205 Clouds 14 1009 72 10000 2.57 340 09:53 10.05.2021
206 Clouds 14 1011 63 10000 1.1 157 09:29 10.05.2021
207 Clouds 13 1010 58 10000 2.24 305 08:41 10.05.2021
208 Clouds 13 1009 82 10000 1.54 70 08:18 10.05.2021
209 Rain 13 1007 76 10000 2.06 0 07:41 10.05.2021
210 Clouds 13 1007 76 10000 2.06 0 07:23 10.05.2021
211 Rain 12 1007 87 10000 1.54 0 06:47 10.05.2021
212 Clear 13 1006 67 10000 4.12 120 02:19 10.05.2021
213 Clouds 14 1007 67 10000 4.12 100 00:18 10.05.2021
214 Clear 17 1008 48 10000 4.12 110 22:46 09.05.2021
215 Clouds 17 1008 51 10000 4.12 120 22:22 09.05.2021
216 Clouds 18 1008 48 10000 5.14 130 21:50 09.05.2021
217 Clear 19 1007 45 10000 4.12 110 21:32 09.05.2021
218 Clear 22 1007 45 10000 3.09 110 20:44 09.05.2021
219 Clear 23 1007 40 10000 6.17 190 20:25 09.05.2021
220 Clear 25 1008 36 10000 1.03 280 19:45 09.05.2021
221 Clear 24 1008 36 10000 1.03 280 19:24 09.05.2021
222 Clear 25 1008 38 10000 2.06 280 18:49 09.05.2021
223 Clear 24 1008 38 10000 2.06 280 18:25 09.05.2021
224 Clear 25 1008 34 10000 2.06 320 17:37 09.05.2021
225 Clear 24 1009 41 10000 2.06 270 16:43 09.05.2021
226 Clear 24 1009 31 10000 2.57 320 16:23 09.05.2021
227 Clear 24 1009 38 10000 3.09 290 15:24 09.05.2021
228 Clear 23 1009 33 10000 3.09 290 14:57 09.05.2021
229 Clear 23 1010 43 10000 4.12 300 14:26 09.05.2021
230 Clear 23 1010 38 10000 3.09 320 13:41 09.05.2021
231 Clear 23 1011 35 10000 1.54 0 12:52 09.05.2021
232 Clear 21 1011 35 10000 1.54 0 12:27 09.05.2021
233 Clear 19 1011 42 10000 0.51 0 11:24 09.05.2021
234 Clear 18 1012 48 10000 0.51 0 10:59 09.05.2021
235 Clear 18 1012 48 10000 0.51 0 10:37 09.05.2021
236 Clear 15 1013 54 10000 2.06 100 09:46 09.05.2021
237 Clear 13 1013 62 10000 3.09 110 09:23 09.05.2021
238 Clear 12 1013 76 10000 1.54 0 08:54 09.05.2021
239 Clear 11 1013 76 10000 1.03 120 08:28 09.05.2021
240 Clear 9 1013 87 10000 1.54 120 07:49 09.05.2021
241 Clear 8 1013 93 10000 0.51 350 06:45 09.05.2021
242 Clear 7 1013 93 10000 2.57 110 04:43 09.05.2021
243 Clear 10 1014 93 10000 2.57 100 00:49 09.05.2021
244 Clear 12 1014 76 10000 2.57 90 23:34 08.05.2021
245 Clear 13 1014 71 10000 4.12 100 22:57 08.05.2021
246 Clear 13 1014 71 10000 4.12 100 22:37 08.05.2021
247 Clear 13 1014 76 10000 3.6 90 22:18 08.05.2021
248 Clear 13 1014 82 10000 3.09 100 21:43 08.05.2021
249 Clear 16 1014 55 10000 3.6 150 21:18 08.05.2021
250 Clear 18 1014 52 10000 4.12 160 20:37 08.05.2021
251 Clear 20 1014 42 10000 3.09 150 19:57 08.05.2021
252 Clear 20 1014 42 10000 3.09 260 19:22 08.05.2021
253 Clouds 21 1014 33 10000 4.12 290 18:51 08.05.2021
254 Clouds 21 1014 33 10000 4.12 290 18:31 08.05.2021
255 Clouds 20 1015 40 10000 3.6 280 17:49 08.05.2021
256 Clear 20 1015 43 10000 4.12 270 16:52 08.05.2021
257 Clear 19 1016 48 10000 2.06 320 16:28 08.05.2021
258 Clear 20 1016 42 10000 2.06 310 15:46 08.05.2021
259 Clear 18 1016 48 10000 2.06 320 15:23 08.05.2021
260 Clear 19 1017 42 10000 1.54 300 14:40 08.05.2021
261 Clear 17 1017 48 10000 2.06 350 14:19 08.05.2021
262 Clear 16 1018 51 10000 1.54 350 13:28 08.05.2021
263 Clear 16 1018 55 10000 2.06 140 12:59 08.05.2021
264 Clear 14 1018 55 10000 2.06 140 12:29 08.05.2021
265 Clouds 13 1019 67 10000 1.03 110 11:40 08.05.2021
266 Clouds 12 1019 71 10000 1.03 170 10:58 08.05.2021
267 Clouds 12 1019 71 10000 1.03 170 10:38 08.05.2021
268 Clear 11 1019 76 10000 1.54 120 10:19 08.05.2021
269 Clear 10 1019 81 10000 2.06 90 09:46 08.05.2021
270 Clear 9 1019 81 10000 2.57 110 09:26 08.05.2021
271 Clouds 7 1019 93 10000 2.57 110 08:24 08.05.2021
272 Clear 5 1019 100 10000 1.54 100 07:40 08.05.2021
273 Clear 3 1019 100 10000 1.54 100 06:42 08.05.2021
274 Clouds 5 1019 100 10000 3.09 110 04:40 08.05.2021
275 Clouds 6 1020 100 10000 2.06 110 01:41 08.05.2021
276 Clouds 6 1020 100 10000 2.06 100 00:41 08.05.2021
277 Clouds 6 1020 100 10000 2.06 90 23:56 07.05.2021
278 Clouds 6 1019 100 10000 2.06 100 23:24 07.05.2021
279 Clouds 6 1020 100 10000 2.06 100 22:46 07.05.2021
280 Clear 8 1019 87 10000 2.57 140 21:55 07.05.2021
281 Clear 9 1019 81 10000 3.6 160 21:32 07.05.2021
282 Clouds 9 1019 81 10000 4.12 150 20:55 07.05.2021
283 Clouds 9 1019 81 10000 4.12 150 20:36 07.05.2021
284 Clouds 10 1019 76 10000 4.63 170 19:59 07.05.2021
285 Clouds 11 1019 76 10000 4.63 170 19:34 07.05.2021
286 Clouds 12 1019 76 10000 4.63 120 18:58 07.05.2021
287 Clouds 12 1019 76 10000 4.63 130 18:40 07.05.2021
288 Clouds 12 1018 71 10000 3.09 150 18:19 07.05.2021
289 Clouds 12 1018 54 10000 2.57 280 17:22 07.05.2021
290 Clouds 12 1018 58 10000 4.63 330 16:44 07.05.2021
291 Clouds 13 1018 62 10000 3.09 290 16:25 07.05.2021
292 Clouds 12 1018 62 10000 3.6 300 15:50 07.05.2021
293 Clouds 10 1018 66 10000 3.6 320 15:32 07.05.2021
294 Clouds 10 1017 71 10000 4.63 290 14:54 07.05.2021
295 Clouds 10 1017 71 10000 3.09 300 14:28 07.05.2021
296 Clouds 9 1017 71 10000 4.63 280 13:45 07.05.2021
297 Clouds 9 1017 71 10000 5.14 270 13:20 07.05.2021
298 Clouds 8 1016 76 10000 6.69 280 12:38 07.05.2021
299 Clouds 9 1016 81 10000 5.66 280 12:20 07.05.2021
300 Clouds 8 1015 87 10000 6.17 280 11:45 07.05.2021
301 Clouds 9 1014 71 10000 5.66 280 11:18 07.05.2021
302 Clouds 8 1013 87 10000 5.66 270 10:40 07.05.2021
303 Rain 8 1013 87 7000 3.6 270 10:19 07.05.2021
304 Rain 8 1013 93 10000 4.12 320 09:32 07.05.2021
305 Clouds 9 1012 71 10000 4.63 210 08:50 07.05.2021
306 Clouds 9 1012 71 10000 4.63 210 08:28 07.05.2021
307 Clouds 9 1011 71 10000 3.09 190 06:50 07.05.2021
308 Clouds 8 1011 81 10000 3.09 0 05:45 07.05.2021
309 Clouds 9 1012 79 10000 4.47 260 02:59 07.05.2021
310 Clouds 9 1011 71 10000 2.57 0 23:44 06.05.2021
311 Clouds 10 1011 71 10000 4.12 190 22:40 06.05.2021
312 Clouds 10 1010 76 10000 4.63 200 21:52 06.05.2021
313 Clouds 9 1009 76 10000 5.14 190 20:52 06.05.2021
314 Rain 9 1009 82 10000 3.6 230 20:29 06.05.2021
315 Rain 9 1009 82 10000 5.66 240 19:58 06.05.2021
316 Rain 9 1009 82 10000 5.66 240 19:39 06.05.2021
317 Rain 10 1008 82 7000 3.6 190 19:18 06.05.2021
318 Rain 9 1008 100 7000 4.12 0 18:47 06.05.2021
319 Rain 9 1008 100 7000 4.12 0 18:23 06.05.2021
320 Rain 9 1008 100 5000 1.03 130 17:39 06.05.2021
321 Rain 9 1008 100 5000 2.06 120 17:21 06.05.2021
322 Rain 9 1008 100 6000 1.03 0 16:48 06.05.2021
323 Rain 9 1008 87 9000 0.51 0 16:26 06.05.2021
324 Rain 9 1008 93 10000 1.54 0 15:45 06.05.2021
325 Rain 9 1009 93 8000 1.54 0 15:27 06.05.2021
326 Rain 9 1009 93 10000 1.54 110 14:37 06.05.2021
327 Rain 8 1009 93 10000 1.03 0 14:19 06.05.2021
328 Rain 8 1010 93 10000 1.54 0 13:37 06.05.2021
329 Rain 8 1010 93 10000 2.06 340 13:18 06.05.2021
330 Rain 8 1010 93 10000 2.06 340 13:18 06.05.2021
331 Rain 8 1010 93 10000 2.06 340 13:18 06.05.2021
332 Rain 7 1012 63 7940 0.45 295 12:35 06.05.2021
333 Rain 9 1011 57 10000 2.06 340 11:49 06.05.2021
334 Rain 9 1011 57 10000 0.51 0 11:28 06.05.2021
335 Rain 10 1011 57 10000 0.51 0 10:53 06.05.2021
336 Rain 10 1010 57 10000 2.06 110 10:31 06.05.2021
337 Rain 10 1011 66 10000 3.09 100 09:58 06.05.2021
338 Clouds 9 1011 66 10000 3.09 100 09:33 06.05.2021
339 Clouds 8 1011 66 10000 2.57 110 08:57 06.05.2021
340 Clouds 7 1012 70 10000 2.57 110 08:25 06.05.2021
341 Clouds 7 1012 70 10000 2.57 110 07:57 06.05.2021
342 Clouds 6 1012 70 10000 2.57 120 07:35 06.05.2021
343 Clouds 5 1012 70 10000 2.57 100 06:29 06.05.2021
344 Clouds 6 1013 81 10000 3.09 100 05:51 06.05.2021
345 Clouds 6 1013 70 10000 2.06 100 04:47 06.05.2021
346 Clouds 6 1014 49 10000 0.51 0 02:52 06.05.2021
347 Clouds 6 1015 65 10000 1.54 0 00:56 06.05.2021
348 Clouds 8 1015 57 10000 0.51 0 22:54 05.05.2021
349 Clouds 9 1015 53 10000 0.51 0 22:25 05.05.2021
350 Clouds 9 1015 49 10000 2.06 230 21:47 05.05.2021
351 Clouds 8 1014 43 10000 1.54 0 21:29 05.05.2021
352 Clouds 9 1014 46 10000 3.09 290 20:37 05.05.2021
353 Clouds 10 1014 46 10000 4.12 290 20:00 05.05.2021
354 Clouds 10 1014 40 10000 4.63 280 19:37 05.05.2021
355 Clouds 10 1014 40 10000 4.63 280 19:37 05.05.2021
356 Clouds 10 1014 40 10000 4.63 280 19:37 05.05.2021
357 Clouds 11 1014 40 10000 5.66 280 19:19 05.05.2021
358 Clouds 11 1013 37 10000 6.69 280 18:23 05.05.2021
359 Clouds 11 1013 37 10000 6.69 280 18:23 05.05.2021
360 Clouds 12 1013 35 10000 7.2 270 17:55 05.05.2021
361 Clouds 11 1014 37 10000 6.69 280 17:31 05.05.2021
362 Clouds 11 1014 37 10000 6.69 280 16:59 05.05.2021
363 Clouds 11 1013 40 10000 6.17 290 16:38 05.05.2021
364 Clouds 12 1013 43 10000 7.2 270 16:20 05.05.2021
365 Clouds 11 1013 46 10000 5.66 290 15:25 05.05.2021
366 Clouds 11 1013 43 10000 6.69 270 14:52 05.05.2021
367 Clouds 11 1013 46 10000 4.63 280 14:33 05.05.2021
368 Clouds 11 1013 54 10000 4.63 270 13:55 05.05.2021
369 Clouds 10 1012 53 10000 5.66 270 13:27 05.05.2021
370 Clouds 10 1012 53 10000 6.17 280 12:38 05.05.2021
371 Clouds 9 1012 57 10000 5.14 260 12:19 05.05.2021
372 Clouds 9 1012 61 10000 5.14 260 11:43 05.05.2021
373 Clouds 9 1011 66 10000 4.12 220 11:23 05.05.2021
374 Clouds 8 1011 66 10000 3.6 250 10:44 05.05.2021
375 Clouds 8 1011 66 10000 3.6 250 10:44 05.05.2021
376 Clouds 7 1010 76 10000 4.63 280 09:56 05.05.2021
377 Clouds 7 1010 76 10000 4.63 280 09:35 05.05.2021
378 Clouds 7 1009 100 10000 3.09 310 08:45 05.05.2021
379 Rain 7 1008 100 8000 6.69 310 08:26 05.05.2021
380 Clouds 7 1008 81 5000 6.69 300 07:49 05.05.2021
381 Rain 7 1010 81 6175 4.02 300 07:23 05.05.2021
382 Rain 9 1006 66 10000 6.17 250 06:39 05.05.2021
383 Clouds 12 1007 58 10000 4.63 280 02:21 05.05.2021
384 Clouds 12 1009 62 10000 2.06 230 00:50 05.05.2021
385 Clouds 12 1009 62 10000 4.63 230 23:39 04.05.2021
386 Clouds 14 1009 54 10000 2.06 0 22:57 04.05.2021
387 Rain 14 1009 54 10000 2.06 0 22:39 04.05.2021
388 Clouds 13 1009 58 10000 1.54 0 22:18 04.05.2021
389 Rain 13 1009 54 10000 2.06 320 21:42 04.05.2021
390 Clouds 13 1010 39 10000 1.34 285 21:19 04.05.2021
391 Rain 13 1009 47 10000 4.12 280 20:44 04.05.2021
392 Rain 14 1010 34 10000 4.47 285 20:23 04.05.2021
393 Rain 15 1009 36 10000 2.57 260 19:44 04.05.2021
394 Rain 15 1009 36 10000 2.57 260 19:25 04.05.2021
395 Clouds 16 1009 36 10000 3.6 250 18:53 04.05.2021
396 Clouds 16 1009 34 10000 4.12 260 18:32 04.05.2021
397 Clouds 16 1010 36 10000 5.66 250 17:50 04.05.2021
398 Clear 16 1010 36 10000 5.14 270 17:25 04.05.2021
399 Clear 17 1010 39 10000 7.2 250 16:48 04.05.2021
400 Clear 17 1010 39 10000 7.2 250 16:48 04.05.2021
401 Clouds 17 1010 39 10000 5.14 260 16:22 04.05.2021
402 Clouds 17 1011 36 10000 5.14 260 15:46 04.05.2021
403 Clear 17 1011 36 10000 7.2 230 15:20 04.05.2021
404 Clear 16 1012 44 10000 7.72 270 14:30 04.05.2021
405 Clear 15 1013 38 10000 6.17 260 13:41 04.05.2021
406 Clear 15 1013 36 10000 8.75 260 13:21 04.05.2021
407 Clouds 15 1013 36 10000 6.17 270 12:53 04.05.2021
408 Clouds 15 1013 36 10000 6.17 270 12:27 04.05.2021
409 Clouds 14 1014 36 10000 4.12 260 11:45 04.05.2021
410 Clouds 14 1014 38 10000 4.12 250 11:24 04.05.2021
411 Clouds 13 1014 62 10000 1.03 270 10:44 04.05.2021
412 Clouds 12 1014 66 10000 1.03 0 10:22 04.05.2021
413 Clouds 12 1016 46 10000 4.02 229 09:41 04.05.2021
414 Clear 10 1014 81 10000 2.06 110 09:19 04.05.2021
415 Clear 8 1015 81 10000 2.85 237 08:43 04.05.2021
416 Clear 7 1015 93 10000 2.06 0 08:19 04.05.2021
417 Clear 6 1015 100 10000 1.68 195 07:44 04.05.2021
418 Clear 3 1015 100 10000 1.03 0 06:41 04.05.2021
419 Clear 3 1015 93 10000 1.03 0 06:19 04.05.2021
420 Clear 4 1016 100 10000 3.09 110 03:57 04.05.2021
421 Clear 4 1017 100 10000 1.54 0 01:33 04.05.2021
422 Clear 6 1017 81 10000 2.57 120 23:52 03.05.2021
423 Clear 6 1017 87 10000 2.57 110 23:30 03.05.2021
424 Clear 6 1017 87 10000 2.57 110 23:30 03.05.2021
425 Clear 6 1017 87 10000 2.57 110 23:30 03.05.2021
426 Clear 7 1018 81 10000 2.06 120 22:39 03.05.2021
427 Clear 7 1018 81 10000 2.06 120 22:39 03.05.2021
428 Clear 7 1018 81 10000 1.54 110 22:21 03.05.2021
429 Clear 7 1018 87 10000 0.51 0 21:42 03.05.2021
430 Clear 9 1018 66 10000 0.51 0 21:22 03.05.2021
431 Clear 9 1018 66 10000 0.51 0 21:22 03.05.2021
432 Clear 12 1018 50 10000 1.54 230 20:49 03.05.2021
433 Clear 12 1018 50 10000 1.54 230 20:49 03.05.2021
434 Clear 13 1018 44 10000 2.57 300 20:29 03.05.2021
435 Clear 14 1018 38 10000 1.03 0 19:51 03.05.2021
436 Clear 14 1018 38 10000 1.03 0 19:30 03.05.2021
437 Clear 14 1018 41 10000 3.6 290 18:38 03.05.2021
438 Clouds 14 1019 41 10000 1.03 0 17:53 03.05.2021
439 Clouds 15 1019 41 10000 1.03 0 17:33 03.05.2021
440 Clouds 14 1019 41 10000 2.57 310 16:52 03.05.2021
441 Clouds 14 1020 44 10000 4.12 320 16:24 03.05.2021
442 Clouds 14 1020 41 10000 1.03 0 15:49 03.05.2021
443 Clouds 14 1021 44 10000 3.6 260 15:23 03.05.2021
444 Clouds 14 1021 41 10000 2.06 260 14:22 03.05.2021
445 Clouds 13 1022 40 10000 2.06 300 13:57 03.05.2021
446 Clouds 12 1022 40 10000 2.06 300 13:33 03.05.2021
447 Clouds 11 1022 54 10000 1.03 0 12:56 03.05.2021
448 Clouds 10 1022 54 10000 1.03 0 12:31 03.05.2021
449 Clear 10 1023 53 10000 1.03 0 11:51 03.05.2021
450 Clouds 9 1023 66 10000 1.03 0 11:31 03.05.2021
451 Clear 8 1023 71 10000 1.54 0 10:51 03.05.2021
452 Clear 8 1023 76 10000 2.57 100 10:31 03.05.2021
453 Clear 7 1023 76 10000 2.57 100 09:55 03.05.2021
454 Clear 7 1023 76 10000 3.09 120 09:32 03.05.2021
455 Clouds 5 1023 100 9000 1.03 0 08:43 03.05.2021
456 Clouds 3 1023 100 9000 1.03 0 08:24 03.05.2021
457 Fog 1 1023 100 10000 1.03 180 07:39 03.05.2021
458 Clear 0 1023 100 6000 0.51 0 06:33 03.05.2021
459 Clear 0 1023 100 10000 1.03 0 05:54 03.05.2021
460 Clear 1 1023 100 10000 1.03 160 03:24 03.05.2021
461 Clouds 3 1022 100 10000 1.54 100 00:20 03.05.2021
462 Clouds 3 1022 100 10000 2.06 100 23:26 02.05.2021
463 Clouds 4 1022 87 10000 2.57 130 22:49 02.05.2021
464 Clouds 4 1021 87 10000 3.6 150 22:31 02.05.2021
465 Clouds 4 1021 87 10000 3.6 130 21:57 02.05.2021
466 Clouds 4 1021 87 10000 3.6 130 21:33 02.05.2021
467 Clouds 5 1020 87 10000 3.09 110 20:48 02.05.2021
468 Clouds 5 1020 87 10000 3.09 110 20:23 02.05.2021
469 Rain 5 1020 93 10000 2.57 310 19:41 02.05.2021
470 Clouds 6 1020 81 10000 4.63 330 19:22 02.05.2021
471 Clouds 7 1019 71 10000 8.75 310 18:45 02.05.2021
472 Clouds 7 1019 81 10000 3.09 110 18:26 02.05.2021
473 Clouds 7 1019 81 10000 3.09 110 18:26 02.05.2021
474 Clouds 8 1019 87 10000 1.79 105 17:48 02.05.2021
475 Clouds 8 1019 81 10000 3.09 150 17:29 02.05.2021
476 Clouds 8 1019 81 10000 2.57 130 16:58 02.05.2021
477 Rain 8 1019 81 10000 2.57 130 16:39 02.05.2021
478 Clouds 8 1019 81 10000 2.57 260 16:19 02.05.2021
479 Clouds 8 1018 81 10000 1.54 0 15:43 02.05.2021
480 Clouds 8 1018 76 10000 2.06 0 15:23 02.05.2021
481 Clouds 8 1018 76 10000 2.06 0 15:23 02.05.2021
482 Rain 7 1018 87 5000 5.66 300 14:39 02.05.2021
483 Rain 9 1017 54 10000 2.57 170 14:20 02.05.2021
484 Rain 8 1018 71 10000 4.63 170 13:45 02.05.2021
485 Clouds 9 1018 71 10000 3.6 170 13:21 02.05.2021
486 Clouds 9 1018 76 10000 4.12 140 12:43 02.05.2021
487 Clouds 9 1018 81 10000 3.6 170 12:22 02.05.2021
488 Clouds 8 1018 93 10000 2.57 110 11:49 02.05.2021
489 Clouds 8 1018 93 10000 2.57 110 11:30 02.05.2021
490 Clouds 7 1018 100 10000 2.57 110 10:51 02.05.2021
491 Clouds 6 1017 93 10000 3.09 120 10:21 02.05.2021
492 Clouds 6 1017 93 10000 3.09 130 09:45 02.05.2021
493 Clouds 5 1017 100 10000 2.57 140 09:26 02.05.2021
494 Rain 5 1017 100 8000 3.09 130 08:52 02.05.2021
495 Rain 5 1016 100 6000 2.06 120 08:28 02.05.2021
496 Rain 4 1016 100 10000 1.03 140 07:38 02.05.2021
497 Rain 5 1016 100 10000 1.03 110 07:18 02.05.2021
498 Rain 4 1015 100 10000 2.06 90 05:20 02.05.2021
499 Rain 4 1013 100 10000 1.03 170 01:38 02.05.2021
500 Rain 5 1012 100 10000 1.03 0 23:48 01.05.2021
501 Rain 5 1012 93 8000 1.03 200 23:28 01.05.2021
502 Rain 5 1012 100 7000 0.51 0 22:53 01.05.2021
503 Rain 5 1011 100 8000 1.03 0 22:30 01.05.2021
504 Rain 6 1011 100 9000 1.54 0 21:55 01.05.2021
505 Rain 6 1011 100 9000 1.54 0 21:37 01.05.2021
506 Rain 6 1011 100 9000 1.54 0 21:37 01.05.2021
507 Rain 6 1010 100 6000 2.06 320 21:19 01.05.2021
508 Rain 6 1010 100 6000 2.06 300 20:41 01.05.2021
509 Rain 6 1009 100 6000 1.11 326 20:22 01.05.2021
510 Rain 7 1009 93 6000 1.03 0 19:48 01.05.2021
511 Rain 7 1009 93 6000 1.03 0 19:28 01.05.2021
512 Rain 7 1009 93 6000 2.06 290 18:44 01.05.2021
513 Rain 7 1009 93 6000 2.57 300 18:21 01.05.2021
514 Rain 7 1009 100 6000 3.09 310 17:37 01.05.2021
515 Rain 8 1009 87 6000 2.57 330 16:58 01.05.2021
516 Rain 8 1009 87 6000 2.57 330 16:39 01.05.2021
517 Rain 8 1009 93 6000 2.57 310 16:21 01.05.2021
518 Rain 8 1009 93 10000 2.06 300 15:19 01.05.2021
519 Rain 8 1009 93 6000 2.57 20 13:59 01.05.2021
520 Rain 8 1009 87 7000 1.54 40 13:26 01.05.2021
521 Rain 9 1009 87 7000 2.57 330 12:52 01.05.2021
522 Rain 8 1010 87 7000 4.12 300 12:25 01.05.2021
523 Clouds 8 1010 93 6000 3.6 310 11:53 01.05.2021
524 Clouds 8 1010 93 6000 3.6 310 11:34 01.05.2021
525 Mist 8 1010 100 5000 3.09 290 10:58 01.05.2021
526 Mist 7 1010 100 5000 3.09 290 10:30 01.05.2021
527 Drizzle 7 1010 100 5000 3.09 290 09:43 01.05.2021
528 Mist 7 1010 100 3500 2.06 290 09:24 01.05.2021
529 Rain 6 1010 100 5000 2.06 310 08:31 01.05.2021
530 Rain 6 1010 100 5000 2.06 300 07:39 01.05.2021
531 Rain 6 1010 100 8000 1.54 270 06:18 01.05.2021
532 Rain 6 1010 100 8000 1.54 270 06:18 01.05.2021
533 Clouds 6 1012 100 8000 1.54 310 03:42 01.05.2021
534 Clouds 7 1012 100 8000 2.57 310 00:32 01.05.2021
535 Clouds 7 1012 100 6000 2.06 290 23:57 30.04.2021
536 Clouds 7 1012 100 8000 1.54 290 22:56 30.04.2021
537 Clouds 7 1012 100 8000 1.54 290 22:37 30.04.2021
538 Clouds 8 1012 100 10000 1.03 270 22:18 30.04.2021
539 Clouds 8 1012 100 10000 1.03 0 21:43 30.04.2021
540 Clouds 8 1011 100 10000 0.51 0 21:23 30.04.2021
541 Clouds 8 1011 100 10000 0.51 0 20:41 30.04.2021
542 Rain 8 1011 100 10000 1.54 300 19:57 30.04.2021
543 Rain 8 1011 100 10000 1.54 300 19:57 30.04.2021
544 Rain 8 1011 100 10000 2.06 320 19:19 30.04.2021
545 Rain 8 1011 100 10000 1.54 0 18:43 30.04.2021
546 Rain 8 1011 100 10000 1.54 0 18:23 30.04.2021
547 Rain 9 1010 100 10000 1.54 360 17:47 30.04.2021
548 Rain 8 1010 100 10000 2.06 330 17:22 30.04.2021
549 Rain 8 1010 93 10000 2.06 340 16:51 30.04.2021
550 Rain 8 1010 93 10000 2.57 330 16:28 30.04.2021
551 Rain 9 1010 87 10000 2.57 330 15:41 30.04.2021
552 Clouds 9 1010 93 10000 3.09 330 15:19 30.04.2021
553 Rain 9 1010 87 10000 3.09 310 14:45 30.04.2021
554 Clouds 9 1010 87 10000 3.6 310 14:24 30.04.2021
555 Clouds 9 1010 87 10000 5.66 300 13:47 30.04.2021
556 Rain 10 1009 76 10000 5.14 300 13:27 30.04.2021
557 Clouds 11 1009 82 10000 4.12 320 12:43 30.04.2021
558 Clouds 11 1009 71 10000 3.09 320 12:24 30.04.2021
559 Clouds 12 1008 71 10000 1.03 280 11:24 30.04.2021
560 Clouds 12 1008 76 10000 1.03 290 10:52 30.04.2021
561 Clouds 12 1008 76 10000 1.03 290 10:34 30.04.2021
562 Clouds 11 1008 81 10000 1.54 160 09:57 30.04.2021
563 Clouds 10 1008 87 10000 1.03 100 09:27 30.04.2021
564 Clouds 10 1009 81 10000 2.06 130 08:49 30.04.2021
565 Clouds 9 1009 100 10000 2.06 120 07:45 30.04.2021
566 Clouds 8 1009 100 10000 2.06 110 07:25 30.04.2021
567 Clouds 9 1009 100 10000 2.06 110 06:51 30.04.2021
568 Clouds 9 1009 100 10000 3.09 150 06:25 30.04.2021
569 Clouds 9 1009 100 10000 2.06 120 05:27 30.04.2021
570 Clouds 10 1010 100 10000 1.54 100 02:47 30.04.2021
571 Clouds 10 1010 100 10000 1.54 110 01:42 30.04.2021
572 Drizzle 10 1010 100 10000 1.54 0 23:45 29.04.2021
573 Clouds 10 1010 100 10000 1.54 100 23:24 29.04.2021
574 Clouds 11 1010 100 10000 1.54 90 22:43 29.04.2021
575 Clouds 11 1010 93 10000 2.57 140 22:22 29.04.2021
576 Clouds 11 1009 93 10000 2.06 140 21:44 29.04.2021
577 Clouds 11 1009 100 10000 1.54 0 21:24 29.04.2021
578 Clouds 11 1009 100 10000 1.54 0 21:24 29.04.2021
579 Clouds 11 1009 87 10000 2.06 160 20:48 29.04.2021
580 Clouds 11 1009 82 10000 3.6 190 20:29 29.04.2021
581 Clouds 11 1009 82 10000 3.6 190 20:29 29.04.2021
582 Clouds 12 1008 82 10000 5.14 150 19:58 29.04.2021
583 Clouds 13 1008 82 10000 5.14 150 19:39 29.04.2021
584 Clouds 12 1008 76 10000 3.6 150 19:20 29.04.2021
585 Clouds 13 1008 76 10000 2.57 200 18:42 29.04.2021
586 Clouds 14 1008 63 10000 3.6 290 17:50 29.04.2021
587 Clouds 14 1008 63 10000 3.6 290 17:50 29.04.2021
588 Clouds 14 1007 67 10000 4.12 310 17:31 29.04.2021
589 Clouds 14 1007 58 10000 2.57 280 16:57 29.04.2021
590 Clouds 14 1007 58 10000 2.57 280 16:38 29.04.2021
591 Clouds 14 1007 58 10000 4.63 290 16:19 29.04.2021
592 Clouds 14 1007 58 10000 4.63 300 15:42 29.04.2021
593 Clouds 14 1008 63 10000 3.09 0 15:22 29.04.2021
594 Clouds 15 1008 63 10000 3.09 130 14:43 29.04.2021
595 Clouds 14 1008 67 10000 1.54 0 14:18 29.04.2021
596 Clouds 13 1008 67 10000 1.03 0 13:40 29.04.2021
597 Clouds 13 1008 67 10000 1.54 100 13:18 29.04.2021
598 Clouds 13 1008 67 10000 1.54 140 12:33 29.04.2021
599 Clouds 12 1008 76 10000 1.03 0 11:58 29.04.2021
600 Clouds 12 1008 76 10000 1.03 0 11:39 29.04.2021
601 Clouds 12 1008 76 10000 2.06 110 11:21 29.04.2021
602 Clouds 12 1008 82 10000 2.57 160 10:43 29.04.2021
603 Clouds 11 1008 87 10000 2.06 130 10:19 29.04.2021
604 Clouds 11 1008 87 10000 2.06 120 09:39 29.04.2021
605 Clouds 11 1008 87 10000 2.06 120 09:39 29.04.2021
606 Clouds 10 1008 93 10000 1.03 0 09:19 29.04.2021
607 Clouds 9 1007 100 10000 1.03 0 08:42 29.04.2021
608 Clouds 9 1007 100 10000 1.03 100 08:22 29.04.2021
609 Clouds 9 1007 100 10000 0.98 219 07:30 29.04.2021
610 Clouds 8 1007 100 10000 0.51 0 06:42 29.04.2021
611 Clouds 9 1007 100 8000 2.06 340 05:25 29.04.2021
612 Rain 10 1005 100 10000 1.03 0 00:35 29.04.2021
613 Rain 11 1005 100 10000 2.06 110 23:23 28.04.2021
614 Rain 11 1005 100 10000 2.57 90 22:54 28.04.2021
615 Rain 11 1005 100 10000 1.54 110 22:27 28.04.2021
616 Clouds 11 1005 100 10000 2.06 110 21:51 28.04.2021
617 Clouds 11 1005 100 10000 2.06 120 21:24 28.04.2021
618 Clouds 11 1005 100 10000 1.54 0 20:59 28.04.2021
619 Rain 11 1005 100 10000 1.54 0 20:39 28.04.2021
620 Rain 11 1004 100 10000 1.54 0 20:20 28.04.2021
621 Rain 12 1004 82 4000 3.09 0 19:37 28.04.2021
622 Rain 13 1004 67 10000 5.66 270 19:18 28.04.2021
623 Rain 13 1004 63 10000 5.66 270 18:40 28.04.2021
624 Rain 14 1004 63 10000 6.69 270 18:21 28.04.2021
625 Clouds 15 1004 59 10000 6.69 280 17:46 28.04.2021
626 Clouds 14 1004 55 10000 5.14 270 17:24 28.04.2021
627 Clouds 18 1003 45 10000 4.12 270 16:22 28.04.2021
628 Clouds 18 1003 45 10000 3.09 260 15:49 28.04.2021
629 Rain 18 1003 45 10000 3.09 260 15:30 28.04.2021
630 Clouds 19 1004 45 10000 1.54 0 14:44 28.04.2021
631 Clouds 19 1004 48 10000 1.54 320 14:21 28.04.2021
632 Clouds 19 1004 48 10000 1.03 0 13:56 28.04.2021
633 Clouds 19 1004 39 10000 1.03 0 13:24 28.04.2021
634 Clouds 19 1004 39 10000 1.03 0 12:54 28.04.2021
635 Clouds 16 1005 55 10000 1.03 0 12:28 28.04.2021
636 Clouds 15 1005 55 10000 2.57 0 11:46 28.04.2021
637 Clouds 14 1005 62 10000 2.57 180 11:24 28.04.2021
638 Clouds 13 1005 71 10000 2.57 190 10:42 28.04.2021
639 Clouds 13 1005 71 10000 2.06 170 10:20 28.04.2021
640 Clouds 13 1005 67 10000 2.57 170 09:52 28.04.2021
641 Clouds 12 1005 71 10000 1.54 60 09:31 28.04.2021
642 Clouds 11 1005 76 10000 3.09 110 08:52 28.04.2021
643 Rain 9 1005 100 10000 1.54 110 07:37 28.04.2021
644 Rain 9 1005 100 10000 1.03 50 07:18 28.04.2021
645 Rain 9 1004 93 10000 1.03 0 05:35 28.04.2021
646 Clouds 9 1004 87 10000 0.51 0 03:28 28.04.2021
647 Clouds 9 1004 87 10000 1.03 100 02:30 28.04.2021
648 Clouds 8 1004 81 10000 0.51 0 00:42 28.04.2021
649 Clear 10 1004 71 10000 0.51 0 23:45 27.04.2021
650 Clouds 11 1004 71 10000 0.51 0 23:21 27.04.2021
651 Clouds 11 1004 58 10000 1.03 0 22:43 27.04.2021
652 Clouds 12 1004 47 10000 0.51 0 22:24 27.04.2021
653 Clouds 13 1003 51 10000 0.51 0 21:44 27.04.2021
654 Clouds 13 1003 51 10000 0.51 0 21:23 27.04.2021
655 Clouds 17 1003 42 10000 2.06 340 20:49 27.04.2021
656 Clouds 17 1003 39 10000 2.57 310 20:31 27.04.2021
657 Clouds 19 1003 32 10000 2.57 280 19:48 27.04.2021
658 Clear 19 1003 28 10000 1.03 0 19:25 27.04.2021
659 Clear 19 1003 30 10000 0.51 0 18:56 27.04.2021
660 Clear 19 1003 30 10000 0.51 0 18:33 27.04.2021
661 Clear 19 1003 30 10000 0.51 0 18:33 27.04.2021
662 Clear 19 1003 28 10000 2.06 300 17:52 27.04.2021
663 Clear 19 1003 32 10000 2.06 0 17:27 27.04.2021
664 Clear 19 1003 37 10000 3.09 0 16:48 27.04.2021
665 Clear 19 1003 32 10000 2.06 0 16:29 27.04.2021
666 Clear 18 1004 36 10000 2.57 320 15:51 27.04.2021
667 Clear 18 1004 34 10000 2.57 290 15:30 27.04.2021
668 Clear 17 1005 42 10000 2.06 260 14:58 27.04.2021
669 Clear 17 1005 42 10000 2.06 260 14:40 27.04.2021
670 Clear 17 1005 36 10000 2.06 350 14:19 27.04.2021
671 Clear 16 1005 41 10000 2.57 330 13:39 27.04.2021
672 Clear 15 1006 41 10000 1.54 330 12:51 27.04.2021
673 Clouds 14 1006 41 10000 1.54 250 12:24 27.04.2021
674 Clouds 13 1006 43 10000 2.06 310 11:55 27.04.2021
675 Clouds 12 1006 43 10000 2.57 300 11:25 27.04.2021
676 Clouds 11 1006 46 10000 3.09 290 10:43 27.04.2021
677 Clouds 10 1006 50 10000 3.09 320 10:19 27.04.2021
678 Clear 10 1006 50 10000 3.09 320 09:44 27.04.2021
679 Clouds 8 1006 66 10000 1.54 330 08:51 27.04.2021
680 Clear 6 1006 93 10000 1.03 90 07:57 27.04.2021
681 Clear 5 1006 93 10000 1.03 0 07:34 27.04.2021
682 Clouds 5 1008 39 10000 0.93 47 06:41 27.04.2021
683 Clear 5 1006 93 10000 0.51 50 05:56 27.04.2021
684 Clear 7 1006 87 10000 0.51 0 03:38 27.04.2021
685 Clear 8 1007 76 10000 1.03 310 01:43 27.04.2021
686 Clear 9 1008 61 10000 0.51 0 23:59 26.04.2021
687 Clear 10 1008 66 10000 1.03 0 23:31 26.04.2021
688 Clear 9 1008 66 10000 1.03 0 22:57 26.04.2021
689 Clouds 9 1008 66 10000 1.03 0 22:35 26.04.2021
690 Clouds 12 1008 47 10000 2.57 60 21:44 26.04.2021
691 Clouds 13 1008 41 10000 2.57 60 21:25 26.04.2021
692 Clouds 14 1008 41 10000 2.06 0 20:58 26.04.2021
693 Clouds 14 1008 41 10000 2.06 0 20:39 26.04.2021
694 Clouds 16 1008 41 10000 1.03 0 19:57 26.04.2021
695 Clouds 16 1008 41 10000 1.03 0 19:37 26.04.2021
696 Clear 16 1008 44 10000 3.09 70 18:55 26.04.2021
697 Clouds 16 1008 45 10000 2.57 0 18:35 26.04.2021
698 Clear 17 1009 45 10000 3.09 10 17:58 26.04.2021
699 Clear 16 1009 45 10000 3.09 10 17:40 26.04.2021
700 Clouds 17 1009 45 10000 4.12 360 17:18 26.04.2021
701 Clouds 17 1009 45 10000 3.09 60 16:43 26.04.2021
702 Clouds 17 1010 42 10000 2.06 0 16:22 26.04.2021
703 Clouds 17 1010 42 10000 2.57 70 15:40 26.04.2021
704 Clouds 17 1010 42 10000 2.57 70 15:40 26.04.2021
705 Clear 17 1011 45 10000 4.12 60 15:21 26.04.2021
706 Clear 16 1011 42 10000 2.57 360 14:46 26.04.2021
707 Clear 16 1011 45 10000 4.63 320 14:26 26.04.2021
708 Clear 15 1012 41 10000 3.6 300 13:45 26.04.2021
709 Clear 14 1012 44 10000 2.57 300 13:24 26.04.2021
710 Clouds 13 1013 50 10000 2.57 290 12:36 26.04.2021
711 Clouds 13 1013 47 10000 2.06 260 11:45 26.04.2021
712 Clear 11 1014 50 10000 3.09 310 11:24 26.04.2021
713 Clear 10 1014 54 10000 3.09 300 10:42 26.04.2021
714 Clouds 10 1014 50 10000 2.57 270 10:20 26.04.2021
715 Clouds 10 1014 53 10000 2.57 280 09:46 26.04.2021
716 Clouds 9 1014 57 10000 2.06 290 09:22 26.04.2021
717 Clouds 8 1014 66 10000 1.54 290 08:45 26.04.2021
718 Clouds 8 1014 61 10000 0.51 0 08:20 26.04.2021
719 Clouds 8 1014 70 10000 0.51 0 07:51 26.04.2021
720 Clouds 7 1014 65 10000 1.03 0 07:19 26.04.2021
721 Clouds 7 1014 75 10000 0.51 0 06:32 26.04.2021
722 Clear 7 1014 87 10000 0.51 0 04:55 26.04.2021
723 Clear 7 1014 87 10000 0.51 0 04:34 26.04.2021
724 Clear 9 1015 66 10000 2.06 10 02:23 26.04.2021
725 Clouds 10 1015 71 10000 1.03 0 00:49 26.04.2021
726 Clouds 10 1015 71 10000 1.03 0 00:26 26.04.2021
727 Clear 11 1016 57 10000 1.03 0 23:43 25.04.2021
728 Clear 11 1016 62 10000 0.51 0 23:24 25.04.2021
729 Clear 11 1016 62 10000 0.51 0 22:42 25.04.2021
730 Clouds 11 1016 54 10000 0.51 0 22:19 25.04.2021
731 Clear 13 1016 47 10000 0.51 0 21:46 25.04.2021
732 Clear 14 1016 36 10000 1.54 0 21:27 25.04.2021
733 Clear 16 1015 31 10000 2.06 50 20:58 25.04.2021
734 Clear 16 1015 31 10000 2.06 50 20:39 25.04.2021
735 Clear 17 1015 34 10000 2.06 40 20:19 25.04.2021
736 Clear 17 1015 32 10000 3.09 70 19:39 25.04.2021
737 Clear 17 1015 32 10000 4.12 40 19:21 25.04.2021
738 Clear 18 1015 34 10000 2.57 30 18:43 25.04.2021
739 Clear 19 1015 34 10000 2.57 30 18:24 25.04.2021
740 Clear 19 1016 32 10000 4.12 60 17:42 25.04.2021
741 Clear 19 1016 30 10000 3.09 320 17:21 25.04.2021
742 Clear 19 1017 34 10000 3.6 10 16:44 25.04.2021
743 Clear 20 1017 26 10000 2.06 10 16:26 25.04.2021
744 Clear 20 1017 28 10000 3.6 340 15:49 25.04.2021
745 Clear 20 1017 32 10000 4.12 20 15:20 25.04.2021
746 Clear 19 1018 32 10000 3.6 330 14:29 25.04.2021
747 Clear 18 1018 37 10000 2.57 340 13:59 25.04.2021
748 Clear 18 1018 34 10000 2.57 330 13:27 25.04.2021
749 Clear 17 1018 34 10000 3.09 310 12:56 25.04.2021
750 Clear 17 1018 34 10000 3.09 310 12:56 25.04.2021
751 Clear 17 1018 34 10000 3.09 310 12:38 25.04.2021
752 Clouds 16 1019 39 10000 3.6 310 12:18 25.04.2021
753 Clouds 15 1019 44 10000 3.6 280 11:35 25.04.2021
754 Clear 14 1019 54 10000 1.03 300 10:52 25.04.2021
755 Clear 13 1019 62 10000 1.03 0 10:23 25.04.2021
756 Clear 12 1019 66 10000 0.51 0 09:49 25.04.2021
757 Clear 11 1019 71 10000 1.03 0 09:27 25.04.2021
758 Clear 9 1019 93 10000 1.54 110 08:39 25.04.2021
759 Clear 7 1019 100 10000 2.06 340 07:49 25.04.2021
760 Clear 7 1019 100 10000 2.06 340 07:49 25.04.2021
761 Clouds 6 1019 100 10000 1.03 0 07:21 25.04.2021
762 Clouds 6 1019 100 10000 0.51 0 06:59 25.04.2021
763 Clouds 7 1019 100 10000 1.03 0 06:18 25.04.2021
764 Clouds 8 1019 93 10000 0.51 0 04:43 25.04.2021
765 Clear 9 1019 87 10000 0.51 0 01:52 25.04.2021
766 Clear 8 1019 87 10000 0.51 0 01:34 25.04.2021
767 Clear 9 1019 81 10000 2.06 90 00:34 25.04.2021
768 Clouds 11 1020 37 10000 0.89 99 23:50 24.04.2021
769 Clouds 11 1020 37 10000 0.89 99 23:50 24.04.2021
770 Clouds 11 1020 37 10000 0.95 103 23:26 24.04.2021
771 Clear 11 1019 66 10000 0.51 0 22:48 24.04.2021
772 Clear 11 1019 76 10000 1.54 100 22:19 24.04.2021
773 Clear 12 1019 66 10000 1.03 0 21:42 24.04.2021
774 Clear 14 1018 58 10000 1.03 0 21:21 24.04.2021
775 Clear 18 1018 39 10000 2.06 340 20:39 24.04.2021
776 Clear 18 1018 39 10000 2.06 340 20:39 24.04.2021
777 Clear 18 1018 34 10000 3.09 330 20:19 24.04.2021
778 Clear 20 1018 32 10000 2.57 290 19:39 24.04.2021
779 Clear 20 1018 34 10000 4.12 300 19:20 24.04.2021
780 Clear 21 1018 35 10000 3.6 310 18:41 24.04.2021
781 Clouds 20 1018 28 10000 4.12 300 18:20 24.04.2021
782 Clouds 21 1019 30 10000 3.09 300 17:31 24.04.2021
783 Clouds 21 1019 30 10000 4.12 220 16:57 24.04.2021
784 Clouds 21 1019 30 10000 4.12 220 16:37 24.04.2021
785 Clear 20 1020 28 10000 3.6 280 15:56 24.04.2021
786 Clear 20 1020 28 10000 3.09 310 15:30 24.04.2021
787 Clear 19 1020 32 10000 2.57 360 14:37 24.04.2021
788 Clear 18 1021 34 10000 2.06 360 13:59 24.04.2021
789 Clear 18 1021 34 10000 2.06 360 13:37 24.04.2021
790 Clear 17 1021 42 10000 1.54 320 12:47 24.04.2021
791 Clear 16 1022 41 10000 1.54 0 12:18 24.04.2021
792 Clear 15 1022 44 10000 1.54 0 11:48 24.04.2021
793 Clear 14 1023 51 10000 1.54 0 11:20 24.04.2021
794 Clear 13 1023 54 10000 1.07 320 10:44 24.04.2021
795 Clear 11 1023 62 10000 0.7 338 09:58 24.04.2021
796 Clear 12 1023 62 10000 0.7 338 09:39 24.04.2021
797 Clear 7 1023 87 10000 0.31 122 08:26 24.04.2021
798 Clear 3 1023 93 10000 0.51 0 07:28 24.04.2021
799 Clear 4 1023 42 10000 0.57 143 05:39 24.04.2021
800 Clear 5 1023 81 10000 1.03 0 01:34 24.04.2021
801 Clear 6 1023 81 10000 1.54 110 00:21 24.04.2021
802 Clear 8 1023 49 10000 1.32 86 22:49 23.04.2021
803 Clear 9 1023 43 10000 1.03 0 22:22 23.04.2021
804 Clear 11 1022 40 10000 1.54 90 21:49 23.04.2021
805 Clear 13 1022 28 10000 2.06 70 21:28 23.04.2021
806 Clear 14 1022 29 10000 2.57 50 20:43 23.04.2021
807 Clear 14 1022 29 10000 2.57 50 20:43 23.04.2021
808 Clear 16 1021 27 10000 3.09 50 20:24 23.04.2021
809 Clear 17 1021 27 10000 3.6 50 19:56 23.04.2021
810 Clear 17 1021 27 10000 3.6 50 19:35 23.04.2021
811 Clear 17 1021 27 10000 3.09 30 18:59 23.04.2021
812 Clear 17 1021 29 10000 5.66 30 18:37 23.04.2021
813 Clear 17 1021 27 10000 3.6 20 17:59 23.04.2021
814 Clear 17 1021 34 10000 3.09 40 17:39 23.04.2021
815 Clouds 17 1021 32 10000 4.12 360 17:20 23.04.2021
816 Clear 17 1022 32 10000 4.63 360 16:46 23.04.2021
817 Clear 18 1022 32 10000 4.63 360 16:25 23.04.2021
818 Clear 17 1022 34 10000 4.12 20 15:41 23.04.2021
819 Clear 17 1022 39 10000 4.63 30 14:51 23.04.2021
820 Clear 15 1023 41 10000 2.57 10 13:42 23.04.2021
821 Clear 15 1023 44 10000 3.6 10 13:23 23.04.2021
822 Clear 14 1023 41 10000 2.57 20 12:34 23.04.2021
823 Clear 13 1023 50 10000 1.54 0 11:53 23.04.2021
824 Clear 12 1023 54 10000 1.03 0 11:34 23.04.2021
825 Clear 11 1023 54 10000 1.03 0 10:54 23.04.2021
826 Clear 11 1023 54 10000 1.03 0 10:54 23.04.2021
827 Clear 11 1024 58 10000 0.51 0 10:35 23.04.2021
828 Clear 9 1024 71 10000 0.51 0 09:55 23.04.2021
829 Clear 8 1024 81 10000 2.29 51 09:27 23.04.2021
830 Clear 7 1024 39 10000 2.29 51 08:43 23.04.2021
831 Clear 5 1024 42 10000 1.8 55 07:48 23.04.2021
832 Clear 4 1024 46 10000 1.61 64 06:59 23.04.2021
833 Clouds 3 1022 100 6000 0.51 0 05:37 23.04.2021
834 Clear 4 1022 100 10000 0.51 0 03:37 23.04.2021
835 Clouds 4 1022 100 9000 0.51 0 02:48 23.04.2021
836 Clear 7 1021 93 10000 0.51 0 00:20 23.04.2021
837 Clear 9 1021 76 10000 0.51 0 22:58 22.04.2021
838 Clear 9 1021 76 10000 0.51 0 22:38 22.04.2021
839 Clear 10 1021 66 10000 1.03 0 22:18 22.04.2021
840 Clear 11 1021 66 10000 0.51 0 21:41 22.04.2021
841 Clouds 12 1020 54 10000 0.51 0 21:20 22.04.2021
842 Clouds 14 1020 47 10000 1.03 0 20:47 22.04.2021
843 Clouds 14 1019 47 10000 2.06 80 20:27 22.04.2021
844 Clouds 15 1019 47 10000 3.6 50 19:53 22.04.2021
845 Clouds 15 1019 47 10000 3.6 50 19:33 22.04.2021
846 Clouds 15 1019 47 10000 3.6 40 18:46 22.04.2021
847 Clouds 16 1018 39 10000 3.6 60 18:21 22.04.2021
848 Clouds 17 1018 45 10000 3.6 350 17:44 22.04.2021
849 Clouds 16 1018 39 10000 3.09 30 17:20 22.04.2021
850 Clouds 16 1018 44 10000 4.12 20 16:49 22.04.2021
851 Clouds 16 1019 41 10000 4.63 350 16:28 22.04.2021
852 Clouds 16 1019 34 10000 3.09 60 15:48 22.04.2021
853 Clouds 16 1019 34 10000 3.09 60 15:27 22.04.2021
854 Clouds 16 1019 41 10000 2.57 70 14:50 22.04.2021
855 Clouds 16 1019 41 10000 3.6 20 14:29 22.04.2021
856 Clouds 16 1019 44 10000 3.09 30 13:46 22.04.2021
857 Clouds 15 1019 48 10000 3.6 350 13:25 22.04.2021
858 Clouds 15 1018 48 10000 3.6 350 12:56 22.04.2021
859 Clouds 15 1018 48 10000 3.6 350 12:56 22.04.2021
860 Clouds 14 1019 55 10000 1.54 0 12:37 22.04.2021
861 Clear 14 1019 58 10000 1.54 0 12:18 22.04.2021
862 Clear 13 1019 58 10000 1.03 0 11:42 22.04.2021
863 Clear 12 1019 66 10000 0.51 0 11:21 22.04.2021
864 Clear 12 1019 62 10000 2.06 110 10:42 22.04.2021
865 Clear 11 1019 71 10000 2.57 110 10:20 22.04.2021
866 Clear 9 1019 81 10000 2.57 110 09:39 22.04.2021
867 Clouds 7 1019 100 10000 1.03 0 08:57 22.04.2021
868 Clouds 6 1019 100 10000 1.03 0 08:38 22.04.2021
869 Clouds 5 1019 100 10000 1.03 0 08:18 22.04.2021
870 Clouds 4 1019 100 10000 0.75 100 07:36 22.04.2021
871 Clouds 4 1019 100 10000 1.54 0 07:18 22.04.2021
872 Clouds 4 1018 100 10000 0.51 0 06:22 22.04.2021
873 Clouds 4 1018 100 10000 0.51 0 05:24 22.04.2021
874 Clouds 5 1018 100 10000 0.51 0 02:49 22.04.2021
875 Clouds 6 1019 52 10000 1.53 166 00:41 22.04.2021
876 Clouds 6 1017 93 10000 2.57 120 23:42 21.04.2021
877 Clouds 7 1017 93 10000 2.06 100 23:22 21.04.2021
878 Clouds 8 1017 87 10000 2.06 100 22:41 21.04.2021
879 Clouds 8 1017 81 10000 2.06 100 22:23 21.04.2021
880 Clouds 8 1017 93 10000 1.54 90 21:42 21.04.2021
881 Clouds 9 1017 87 10000 2.57 90 21:23 21.04.2021
882 Rain 9 1016 87 10000 3.09 100 20:38 21.04.2021
883 Rain 9 1016 87 10000 2.57 100 20:18 21.04.2021
884 Rain 11 1016 87 10000 2.06 80 19:38 21.04.2021
885 Rain 11 1016 87 10000 2.57 110 19:20 21.04.2021
886 Rain 12 1016 71 10000 1.03 0 18:44 21.04.2021
887 Rain 12 1015 71 10000 4.63 150 18:22 21.04.2021
888 Rain 13 1015 62 10000 3.6 130 17:46 21.04.2021
889 Rain 14 1014 44 10000 3.09 80 17:24 21.04.2021
890 Rain 15 1014 44 10000 3.09 300 16:42 21.04.2021
891 Clouds 16 1014 36 10000 2.57 0 15:56 21.04.2021
892 Clouds 16 1014 36 10000 2.57 0 15:37 21.04.2021
893 Clouds 15 1015 41 10000 2.57 0 14:47 21.04.2021
894 Clouds 14 1015 44 10000 2.06 300 14:29 21.04.2021
895 Clouds 14 1015 47 10000 3.09 320 13:51 21.04.2021
896 Clouds 15 1016 51 10000 3.6 280 13:24 21.04.2021
897 Clouds 14 1016 44 10000 3.09 260 12:56 21.04.2021
898 Clouds 13 1016 44 10000 3.09 260 12:29 21.04.2021
899 Clear 12 1016 47 10000 2.06 270 11:47 21.04.2021
900 Clear 12 1016 50 10000 1.3 284 11:25 21.04.2021
901 Clear 11 1016 54 10000 1.54 0 10:43 21.04.2021
902 Clear 10 1016 66 10000 0.51 0 09:59 21.04.2021
903 Clear 10 1016 66 10000 0.51 0 09:35 21.04.2021
904 Clouds 6 1016 93 10000 0.58 244 08:54 21.04.2021
905 Clouds 5 1016 93 10000 0.82 202 08:27 21.04.2021
906 Clouds 4 1015 100 10000 1.54 140 07:59 21.04.2021
907 Clear 1 1015 100 10000 0.51 0 07:29 21.04.2021
908 Clouds 2 1015 100 10000 1.03 110 06:23 21.04.2021
909 Clear 3 1015 93 10000 0.51 0 04:41 21.04.2021
910 Clear 4 1015 87 10000 0.51 0 00:50 21.04.2021
911 Clear 6 1015 93 10000 1.03 130 23:48 20.04.2021
912 Clear 6 1015 81 10000 0.51 0 22:56 20.04.2021
913 Clear 6 1015 81 10000 0.51 0 22:36 20.04.2021
914 Clear 7 1014 75 10000 1.03 120 22:18 20.04.2021
915 Clouds 8 1014 70 10000 0.51 0 21:44 20.04.2021
916 Clear 9 1014 57 10000 1.03 270 21:23 20.04.2021
917 Clouds 11 1014 54 10000 1.54 30 20:41 20.04.2021
918 Clouds 12 1013 44 10000 1.03 0 20:22 20.04.2021
919 Clouds 14 1013 41 10000 1.54 0 19:52 20.04.2021
920 Clouds 13 1013 41 10000 1.54 0 19:33 20.04.2021
921 Clouds 14 1014 44 10000 3.6 60 18:54 20.04.2021
922 Clouds 14 1014 44 10000 3.6 60 18:35 20.04.2021
923 Clouds 14 1014 47 10000 2.06 10 17:43 20.04.2021
924 Rain 14 1014 54 10000 4.12 0 16:57 20.04.2021
925 Rain 14 1014 54 10000 4.12 0 16:36 20.04.2021
926 Rain 15 1014 39 10000 3.6 90 15:42 20.04.2021
927 Clouds 15 1014 39 10000 2.06 0 15:23 20.04.2021
928 Clouds 14 1014 41 10000 3.09 320 14:52 20.04.2021
929 Clear 14 1014 44 10000 2.57 280 14:27 20.04.2021
930 Clear 13 1015 47 10000 1.54 0 13:31 20.04.2021
931 Clear 13 1015 41 10000 1.03 0 12:55 20.04.2021
932 Clear 12 1017 31 10000 1.34 300 12:31 20.04.2021
933 Clear 11 1016 50 10000 2.06 280 11:58 20.04.2021
934 Clear 11 1016 50 10000 2.06 280 11:38 20.04.2021
935 Clear 10 1016 53 10000 1.54 0 11:19 20.04.2021
936 Clear 9 1016 57 10000 1.54 0 10:42 20.04.2021
937 Clouds 8 1016 61 10000 1.03 0 10:20 20.04.2021
938 Clouds 6 1017 75 10000 0.51 0 09:20 20.04.2021
939 Clouds 5 1017 87 10000 0.51 0 08:53 20.04.2021
940 Clouds 2 1016 100 10000 0.51 0 07:59 20.04.2021
941 Clouds 2 1016 100 10000 0.51 0 07:33 20.04.2021
942 Clouds 1 1016 100 10000 1.03 0 05:48 20.04.2021
943 Clouds 1 1017 100 10000 1.03 0 05:30 20.04.2021
944 Clouds 1 1017 100 10000 0.51 0 04:40 20.04.2021
945 Clouds 3 1017 93 10000 1.54 150 00:52 20.04.2021
946 Clouds 4 1017 87 10000 1.03 90 00:20 20.04.2021
947 Clouds 6 1017 87 10000 1.54 130 23:31 19.04.2021
948 Clouds 6 1017 75 10000 1.03 0 22:45 19.04.2021
949 Clouds 6 1017 81 10000 0.51 0 22:26 19.04.2021
950 Clouds 6 1017 75 10000 0.51 0 21:43 19.04.2021
951 Clouds 8 1017 61 10000 0.51 0 21:20 19.04.2021
952 Clouds 10 1017 50 10000 1.03 0 20:41 19.04.2021
953 Clouds 11 1017 46 10000 1.54 30 20:20 19.04.2021
954 Clouds 11 1017 43 10000 1.54 40 19:50 19.04.2021
955 Clouds 11 1016 43 10000 1.54 40 19:27 19.04.2021
956 Clouds 11 1017 46 10000 3.09 330 18:59 19.04.2021
957 Clouds 12 1017 46 10000 3.09 330 18:38 19.04.2021
958 Clouds 12 1017 47 10000 2.57 350 18:19 19.04.2021
959 Clouds 12 1017 47 10000 3.09 340 17:43 19.04.2021
960 Clouds 12 1017 47 10000 3.6 320 17:23 19.04.2021
961 Clouds 12 1017 44 10000 3.6 330 16:43 19.04.2021
962 Clouds 12 1017 47 10000 3.09 330 16:24 19.04.2021
963 Clouds 11 1017 46 10000 3.6 350 15:42 19.04.2021
964 Clouds 12 1017 46 10000 3.09 350 15:23 19.04.2021
965 Rain 12 1017 54 10000 4.63 330 14:43 19.04.2021
966 Clouds 12 1017 40 10000 1.54 0 14:23 19.04.2021
967 Clouds 12 1017 46 10000 2.06 70 13:49 19.04.2021
968 Clouds 12 1018 43 10000 2.06 110 13:26 19.04.2021
969 Clouds 10 1018 50 10000 3.09 10 12:47 19.04.2021
970 Clouds 10 1018 50 10000 3.09 170 12:26 19.04.2021
971 Clouds 10 1019 50 10000 3.09 170 11:55 19.04.2021
972 Clouds 9 1018 61 10000 1.54 0 11:27 19.04.2021
973 Clouds 8 1019 66 10000 2.06 150 10:55 19.04.2021
974 Clouds 7 1019 66 10000 2.06 150 10:36 19.04.2021
975 Clear 7 1019 70 10000 0.51 0 10:18 19.04.2021
976 Clear 6 1019 81 10000 1.54 160 09:38 19.04.2021
977 Clear 6 1019 81 10000 1.54 160 09:38 19.04.2021
978 Clouds 4 1019 87 10000 1.03 90 09:19 19.04.2021
979 Clouds 1 1019 100 10000 0.51 0 08:30 19.04.2021
980 Clouds 0 1019 100 10000 1.03 100 07:49 19.04.2021
981 Clouds 0 1019 100 7000 0.51 0 07:20 19.04.2021
982 Clouds 0 1019 100 7000 0.51 0 06:44 19.04.2021
983 Clear 2 1019 100 10000 0.51 0 02:38 19.04.2021
984 Clouds 3 1019 100 10000 2.06 130 01:30 19.04.2021
985 Clouds 4 1019 87 10000 0.51 0 00:30 19.04.2021
986 Clouds 4 1020 93 10000 1.03 0 23:19 18.04.2021
987 Clouds 3 1020 87 10000 0.51 0 22:52 18.04.2021
988 Clouds 4 1020 75 10000 0.51 0 22:31 18.04.2021
989 Clouds 4 1019 75 10000 0.51 0 21:45 18.04.2021
990 Clouds 5 1019 75 10000 2.06 300 21:23 18.04.2021
991 Clouds 6 1019 70 10000 2.57 290 20:41 18.04.2021
992 Clouds 6 1019 65 10000 2.57 320 20:21 18.04.2021
993 Clouds 7 1019 61 10000 3.6 330 19:56 18.04.2021
994 Clouds 7 1019 61 10000 3.6 330 19:35 18.04.2021
995 Clouds 7 1018 61 10000 4.12 350 18:54 18.04.2021
996 Clouds 8 1018 61 10000 3.09 360 18:31 18.04.2021
997 Clouds 8 1018 57 10000 3.6 10 17:59 18.04.2021
998 Clouds 8 1018 57 10000 3.6 10 17:41 18.04.2021
999 Clouds 8 1017 53 10000 3.09 10 17:23 18.04.2021
1000 Clouds 9 1017 57 10000 3.09 360 16:41 18.04.2021
1001 Clouds 8 1018 57 10000 3.6 20 16:18 18.04.2021
1002 Clouds 8 1017 57 10000 5.66 340 15:39 18.04.2021
1003 Clouds 9 1017 53 10000 3.09 10 15:20 18.04.2021
1004 Clouds 9 1017 53 10000 2.57 310 14:42 18.04.2021
1005 Clouds 8 1017 57 10000 3.6 320 14:19 18.04.2021
1006 Clouds 9 1018 57 10000 2.57 330 13:53 18.04.2021
1007 Clouds 8 1018 61 10000 2.57 20 13:30 18.04.2021
1008 Clouds 8 1018 57 10000 2.06 350 12:43 18.04.2021
1009 Clouds 8 1018 57 10000 2.06 10 12:23 18.04.2021
1010 Clouds 7 1018 61 10000 2.06 0 11:41 18.04.2021
1011 Clouds 7 1018 57 10000 2.57 110 11:20 18.04.2021
1012 Clouds 6 1018 65 10000 1.54 240 10:46 18.04.2021
1013 Clouds 6 1018 70 10000 1.03 0 10:21 18.04.2021
1014 Clouds 4 1018 81 10000 1.68 44 09:44 18.04.2021
1015 Clouds 4 1018 87 10000 1.56 53 09:26 18.04.2021
1016 Rain 3 1018 86 10000 0.51 0 08:48 18.04.2021
1017 Rain 2 1018 100 10000 1.18 68 08:29 18.04.2021
1018 Snow 2 1018 100 10000 1.18 68 07:53 18.04.2021
1019 Snow 1 1018 100 10000 1.18 68 07:35 18.04.2021
1020 Clouds 1 1017 100 7000 0.51 0 05:39 18.04.2021
1021 Clouds 1 1017 100 10000 0.51 0 05:21 18.04.2021
1022 Clouds 2 1018 93 10000 0.51 0 02:24 18.04.2021
1023 Clouds 2 1018 93 10000 0.51 0 01:41 18.04.2021
1024 Clear 4 1018 87 10000 2.06 340 00:29 18.04.2021
1025 Clouds 5 1018 65 10000 1.03 0 23:30 17.04.2021
1026 Clouds 6 1018 56 10000 1.54 10 22:49 17.04.2021
1027 Clouds 7 1018 57 10000 2.06 40 22:30 17.04.2021
1028 Clouds 7 1018 57 10000 3.09 40 21:45 17.04.2021
1029 Clouds 7 1018 57 10000 2.06 0 21:25 17.04.2021
1030 Clouds 7 1018 57 10000 2.06 60 20:43 17.04.2021
1031 Clouds 8 1017 49 10000 3.09 60 20:23 17.04.2021
1032 Clouds 8 1017 53 10000 2.57 50 19:43 17.04.2021
1033 Clouds 8 1017 46 10000 2.57 50 19:20 17.04.2021
1034 Clouds 8 1017 49 10000 3.6 50 18:51 17.04.2021
1035 Clouds 9 1017 46 10000 4.12 50 18:25 17.04.2021
1036 Clouds 9 1017 43 10000 4.63 70 17:43 17.04.2021
1037 Clouds 9 1017 43 10000 4.12 50 17:21 17.04.2021
1038 Clouds 10 1017 40 10000 4.63 30 16:40 17.04.2021
1039 Clouds 9 1017 46 10000 3.6 60 16:22 17.04.2021
1040 Clouds 9 1018 46 10000 3.6 0 15:23 17.04.2021
1041 Clouds 8 1018 46 10000 4.12 40 14:44 17.04.2021
1042 Clouds 8 1018 53 10000 4.63 60 14:20 17.04.2021
1043 Clouds 7 1018 53 10000 5.14 50 13:44 17.04.2021
1044 Clouds 7 1018 57 10000 3.09 50 12:55 17.04.2021
1045 Clouds 6 1018 57 10000 3.09 50 12:33 17.04.2021
1046 Clouds 5 1019 61 10000 3.09 0 11:51 17.04.2021
1047 Clouds 4 1019 65 10000 3.6 360 11:33 17.04.2021
1048 Clouds 4 1019 65 10000 2.57 10 10:56 17.04.2021
1049 Clouds 4 1019 65 10000 2.57 10 10:38 17.04.2021
1050 Clouds 2 1019 70 10000 2.57 10 09:47 17.04.2021
1051 Clear 1 1019 75 10000 1.54 0 08:54 17.04.2021
1052 Clear 1 1019 86 10000 2.58 56 08:29 17.04.2021
1053 Clear 0 1019 93 10000 2.58 56 07:45 17.04.2021
1054 Clear -1 1019 74 10000 1.54 340 05:43 17.04.2021
1055 Clear 1 1019 75 10000 1.54 20 03:46 17.04.2021
1056 Clear 3 1020 60 10000 1.03 0 00:56 17.04.2021
1057 Clouds 3 1020 56 10000 2.06 360 00:30 17.04.2021
1058 Clouds 3 1020 56 10000 2.06 10 23:59 16.04.2021
1059 Clouds 4 1020 56 10000 2.06 10 23:34 16.04.2021
1060 Clouds 5 1019 49 10000 3.6 70 22:51 16.04.2021
1061 Clouds 6 1019 49 10000 3.09 0 22:23 16.04.2021
1062 Clouds 6 1019 45 10000 3.09 60 21:57 16.04.2021
1063 Clouds 6 1019 45 10000 3.09 60 21:38 16.04.2021
1064 Clouds 7 1019 42 10000 3.6 60 20:55 16.04.2021
1065 Clouds 7 1019 42 10000 3.6 60 20:36 16.04.2021
1066 Clouds 7 1018 39 10000 2.57 0 19:58 16.04.2021
1067 Clouds 8 1018 39 10000 2.57 0 19:40 16.04.2021
1068 Clouds 8 1018 42 10000 2.06 0 19:18 16.04.2021
1069 Clouds 8 1018 42 10000 3.6 40 18:25 16.04.2021
1070 Clouds 8 1018 40 10000 3.09 50 17:48 16.04.2021
1071 Clouds 9 1018 40 10000 3.6 50 17:19 16.04.2021
1072 Clouds 8 1018 40 10000 4.63 30 16:44 16.04.2021
1073 Clouds 9 1018 40 10000 5.14 40 16:26 16.04.2021
1074 Clouds 9 1019 43 10000 5.14 40 15:54 16.04.2021
1075 Clouds 8 1019 43 10000 4.63 90 15:29 16.04.2021
1076 Clouds 8 1019 46 10000 4.12 50 14:43 16.04.2021
1077 Clouds 8 1019 46 10000 3.6 40 14:20 16.04.2021
1078 Clouds 7 1019 49 10000 3.6 50 13:55 16.04.2021
1079 Clouds 7 1019 49 10000 4.63 30 13:22 16.04.2021
1080 Clouds 6 1019 53 10000 4.12 20 12:53 16.04.2021
1081 Clouds 6 1020 52 10000 3.6 30 12:33 16.04.2021
1082 Clouds 5 1020 52 10000 3.6 30 11:59 16.04.2021
1083 Clouds 5 1020 52 10000 3.6 50 11:38 16.04.2021
1084 Clouds 4 1020 60 10000 3.09 70 11:19 16.04.2021
1085 Clouds 4 1020 60 10000 2.57 30 10:40 16.04.2021
1086 Clouds 3 1020 65 10000 3.09 70 10:20 16.04.2021
1087 Clear 2 1020 65 10000 3.09 60 09:44 16.04.2021
1088 Clear 2 1020 69 10000 1.03 0 09:21 16.04.2021
1089 Clear 1 1020 75 10000 3.82 51 08:42 16.04.2021
1090 Clear 0 1020 86 10000 1.03 0 08:18 16.04.2021
1091 Clear -1 1020 93 10000 2.61 54 07:41 16.04.2021
1092 Clear -2 1020 86 10000 0.51 0 06:59 16.04.2021
1093 Clear -2 1019 100 10000 0.51 0 06:28 16.04.2021
1094 Clouds -1 1020 86 10000 1.03 0 04:23 16.04.2021
1095 Clear 1 1021 69 10000 1.54 0 01:38 16.04.2021
1096 Clear 2 1021 64 10000 1.03 0 00:42 16.04.2021
1097 Clouds 2 1021 56 10000 1.03 0 00:20 16.04.2021
1098 Clouds 2 1021 56 10000 2.06 360 23:45 15.04.2021
1099 Clouds 3 1021 56 10000 2.06 10 23:25 15.04.2021
1100 Clouds 3 1021 56 10000 2.06 360 22:47 15.04.2021
1101 Clouds 3 1021 52 10000 1.03 0 22:23 15.04.2021
1102 Clouds 4 1021 48 10000 1.54 0 21:43 15.04.2021
1103 Clouds 4 1021 56 10000 1.54 0 21:24 15.04.2021
1104 Clouds 4 1021 48 10000 1.54 0 20:47 15.04.2021
1105 Clouds 5 1021 48 10000 1.54 0 20:25 15.04.2021
1106 Clouds 5 1021 48 10000 1.54 0 20:25 15.04.2021
1107 Clouds 5 1021 45 10000 3.6 70 19:47 15.04.2021
1108 Clouds 6 1021 49 10000 4.12 70 19:28 15.04.2021
1109 Clouds 6 1021 45 10000 4.12 50 18:59 15.04.2021
1110 Clouds 7 1021 45 10000 4.12 50 18:37 15.04.2021
1111 Clouds 7 1021 45 10000 4.12 80 18:18 15.04.2021
1112 Clouds 7 1021 42 10000 4.12 0 17:44 15.04.2021
1113 Clouds 7 1021 45 10000 3.6 30 17:24 15.04.2021
1114 Clouds 6 1021 42 10000 5.14 20 16:43 15.04.2021
1115 Clouds 7 1021 42 10000 4.12 50 16:24 15.04.2021
1116 Clouds 7 1021 39 10000 4.12 40 15:47 15.04.2021
1117 Clouds 7 1022 39 10000 4.12 40 15:27 15.04.2021
1118 Clouds 6 1022 45 10000 5.14 50 14:43 15.04.2021
1119 Clouds 7 1022 42 10000 5.14 50 14:25 15.04.2021
1120 Clouds 6 1022 46 10000 4.12 20 13:48 15.04.2021
1121 Clouds 6 1022 45 10000 3.6 50 13:23 15.04.2021
1122 Clouds 6 1023 45 10000 4.12 30 12:49 15.04.2021
1123 Clouds 5 1023 52 10000 4.63 30 12:26 15.04.2021
1124 Clouds 5 1023 56 10000 4.12 50 11:48 15.04.2021
1125 Clouds 5 1023 56 10000 3.6 10 11:27 15.04.2021
1126 Clouds 5 1023 56 10000 3.6 10 11:27 15.04.2021
1127 Clouds 4 1023 56 10000 3.09 60 10:58 15.04.2021
1128 Clouds 3 1023 60 10000 2.06 100 10:39 15.04.2021
1129 Clouds 3 1023 60 10000 2.06 100 10:20 15.04.2021
1130 Clear 2 1023 86 10000 3.17 55 09:29 15.04.2021
1131 Clear 1 1023 93 10000 3.17 55 08:52 15.04.2021
1132 Clear 0 1023 93 10000 1.71 60 08:29 15.04.2021
1133 Clear -2 1023 100 10000 1.71 60 07:33 15.04.2021
1134 Clear -2 1023 100 10000 0.51 0 06:56 15.04.2021
1135 Clear -2 1023 100 10000 0.51 0 06:33 15.04.2021
1136 Clear -2 1023 100 10000 0.51 0 04:54 15.04.2021
1137 Clear -1 1023 80 10000 0.51 0 03:58 15.04.2021
1138 Clouds 1 1024 64 10000 1.03 0 23:51 14.04.2021
1139 Clear 1 1024 60 10000 0.51 0 23:30 14.04.2021
1140 Clear 2 1024 56 10000 1.54 60 22:47 14.04.2021
1141 Clear 2 1024 56 10000 1.54 60 22:29 14.04.2021
1142 Clouds 3 1024 48 10000 1.03 0 21:56 14.04.2021
1143 Clouds 3 1024 48 10000 1.03 0 21:37 14.04.2021
1144 Clouds 4 1023 45 10000 1.54 40 21:18 14.04.2021
1145 Clouds 5 1023 39 10000 2.57 60 20:37 14.04.2021
1146 Clouds 5 1023 36 10000 2.57 60 20:19 14.04.2021
1147 Clouds 7 1023 33 10000 2.57 50 19:39 14.04.2021
1148 Clouds 6 1023 36 10000 4.12 40 19:18 14.04.2021
1149 Clouds 7 1022 39 10000 3.6 40 18:50 14.04.2021
1150 Clouds 7 1023 36 10000 2.57 60 18:19 14.04.2021
1151 Clouds 7 1023 36 10000 2.57 60 17:55 14.04.2021
1152 Clouds 8 1023 36 10000 4.12 70 17:24 14.04.2021
1153 Clouds 7 1023 36 10000 4.63 50 16:43 14.04.2021
1154 Clouds 8 1023 36 10000 3.6 60 16:22 14.04.2021
1155 Clouds 8 1023 37 10000 3.6 70 15:40 14.04.2021
1156 Clouds 7 1024 42 10000 2.57 30 15:22 14.04.2021
1157 Clouds 7 1024 42 10000 4.63 50 14:42 14.04.2021
1158 Clouds 6 1024 45 10000 3.6 50 14:22 14.04.2021
1159 Clouds 6 1024 42 10000 4.12 80 13:48 14.04.2021
1160 Clouds 5 1024 52 10000 5.66 70 12:54 14.04.2021
1161 Clouds 6 1024 52 10000 5.66 70 12:32 14.04.2021
1162 Clear 5 1024 52 10000 2.57 0 11:42 14.04.2021
1163 Clouds 4 1024 52 10000 3.6 40 11:23 14.04.2021
1164 Clouds 4 1024 52 10000 3.6 50 10:35 14.04.2021
1165 Clear 2 1025 80 10000 4.4 50 09:56 14.04.2021
1166 Clear 2 1025 80 10000 4.4 50 09:38 14.04.2021
1167 Clear 1 1025 86 10000 3.45 52 09:18 14.04.2021
1168 Clear 0 1025 86 10000 0.51 0 08:33 14.04.2021
1169 Clear -1 1024 100 10000 0.51 260 07:51 14.04.2021
1170 Clear -2 1024 100 7000 0.51 0 06:39 14.04.2021
1171 Clear -2 1025 100 10000 0.51 0 05:52 14.04.2021
1172 Clear -1 1026 100 9000 0.51 0 02:57 14.04.2021
1173 Clear -1 1026 100 10000 0.51 0 01:28 14.04.2021
1174 Clear 0 1027 86 10000 0.51 0 00:34 14.04.2021
1175 Clouds 1 1027 93 10000 0.51 0 23:39 13.04.2021
1176 Clouds 1 1027 75 10000 0.51 0 22:55 13.04.2021
1177 Clouds 2 1027 75 10000 0.51 0 22:36 13.04.2021
1178 Clouds 2 1027 70 10000 1.03 0 22:18 13.04.2021
1179 Clouds 3 1027 70 10000 0.51 0 21:40 13.04.2021
1180 Clouds 2 1027 70 10000 1.54 0 21:20 13.04.2021
1181 Clouds 3 1027 70 10000 1.54 0 20:39 13.04.2021
1182 Clear 3 1027 56 10000 2.57 360 20:20 13.04.2021
1183 Clouds 5 1026 60 10000 2.57 360 19:27 13.04.2021
1184 Clouds 5 1026 60 10000 2.57 350 18:58 13.04.2021
1185 Clouds 6 1026 56 10000 2.57 0 18:35 13.04.2021
1186 Rain 6 1026 49 10000 4.12 40 17:45 13.04.2021
1187 Rain 7 1026 45 10000 3.6 330 17:23 13.04.2021
1188 Clouds 7 1027 52 10000 3.6 360 16:57 13.04.2021
1189 Clouds 7 1027 52 10000 3.6 360 16:38 13.04.2021
1190 Clouds 6 1027 56 10000 4.63 10 16:19 13.04.2021
1191 Clouds 7 1027 42 10000 3.6 60 15:39 13.04.2021
1192 Clouds 7 1027 45 10000 3.6 40 14:59 13.04.2021
1193 Clouds 6 1027 45 10000 3.6 40 14:38 13.04.2021
1194 Clouds 6 1027 45 10000 3.6 70 14:18 13.04.2021
1195 Clouds 7 1027 42 10000 4.12 60 13:41 13.04.2021
1196 Clouds 7 1027 42 10000 4.12 60 13:22 13.04.2021
1197 Clouds 6 1027 52 10000 4.12 60 12:52 13.04.2021
1198 Clouds 6 1027 56 10000 3.6 20 12:23 13.04.2021
1199 Clouds 5 1027 52 10000 2.06 0 11:40 13.04.2021
1200 Clouds 5 1027 65 10000 1.03 0 11:18 13.04.2021
1201 Clear 4 1027 75 10000 1.03 0 10:41 13.04.2021
1202 Clouds 3 1028 75 10000 1.03 0 10:20 13.04.2021
1203 Clear 2 1028 80 10000 1.03 0 09:52 13.04.2021
1204 Clear 2 1028 93 10000 0.51 0 09:26 13.04.2021
1205 Clouds 1 1028 100 10000 0.51 0 08:47 13.04.2021
1206 Clouds -1 1028 100 10000 1.03 180 08:24 13.04.2021
1207 Clear -1 1028 72 10000 1.11 117 07:51 13.04.2021
1208 Clouds -3 1027 100 9000 1.54 110 07:29 13.04.2021
1209 Clear -3 1027 100 10000 1.03 150 06:27 13.04.2021
1210 Clouds -2 1027 100 7000 1.03 80 03:44 13.04.2021
1211 Clouds -1 1027 100 7000 1.03 100 01:34 13.04.2021
1212 Clouds 0 1027 100 9000 1.17 130 23:55 12.04.2021
1213 Clouds 0 1027 100 9000 1.17 130 23:33 12.04.2021
1214 Clear 0 1027 100 10000 0.51 0 22:55 12.04.2021
1215 Clear 0 1027 100 10000 0.51 0 22:36 12.04.2021
1216 Clouds 1 1027 87 10000 1.03 80 21:49 12.04.2021
1217 Clouds 2 1027 80 10000 1.18 99 21:25 12.04.2021
1218 Clouds 2 1027 80 10000 1.06 96 20:59 12.04.2021
1219 Clouds 4 1027 70 10000 1.54 90 20:36 12.04.2021
1220 Clouds 3 1026 65 10000 1.03 0 20:18 12.04.2021
1221 Clouds 5 1026 70 10000 2.06 90 19:40 12.04.2021
1222 Clouds 5 1026 70 10000 2.57 80 19:21 12.04.2021
1223 Clouds 5 1026 70 10000 2.06 70 18:51 12.04.2021
1224 Clouds 5 1026 70 10000 2.06 70 18:33 12.04.2021
1225 Clouds 6 1026 70 10000 2.06 80 17:59 12.04.2021
1226 Clouds 6 1026 70 10000 2.57 50 17:40 12.04.2021
1227 Clouds 5 1026 70 10000 2.06 60 17:19 12.04.2021
1228 Clouds 5 1026 70 10000 2.57 10 16:38 12.04.2021
1229 Clouds 5 1026 70 10000 1.54 20 16:19 12.04.2021
1230 Clouds 4 1026 75 10000 2.57 20 15:39 12.04.2021
1231 Clouds 4 1025 81 10000 3.09 360 14:57 12.04.2021
1232 Clouds 4 1025 81 10000 3.09 360 14:39 12.04.2021
1233 Clouds 4 1025 81 10000 2.57 360 14:19 12.04.2021
1234 Clouds 4 1025 81 10000 2.06 350 13:40 12.04.2021
1235 Clouds 3 1025 87 10000 2.57 350 13:19 12.04.2021
1236 Clouds 3 1025 87 7000 3.09 340 12:43 12.04.2021
1237 Clouds 3 1025 93 7000 2.57 360 12:22 12.04.2021
1238 Rain 2 1025 93 6000 3.6 340 11:41 12.04.2021
1239 Rain 2 1025 93 6000 3.6 320 10:51 12.04.2021
1240 Rain 2 1025 93 6000 3.6 320 10:51 12.04.2021
1241 Rain 2 1024 93 9000 2.06 290 10:28 12.04.2021
1242 Snow 2 1024 100 9000 2.57 290 09:53 12.04.2021
1243 Snow 2 1023 100 5000 2.06 320 09:25 12.04.2021
1244 Snow 1 1023 100 4000 1.54 310 08:54 12.04.2021
1245 Snow 1 1022 100 4000 1.54 10 07:58 12.04.2021
1246 Snow 1 1022 100 4000 2.06 360 07:30 12.04.2021
1247 Snow 1 1021 100 8000 2.06 360 06:40 12.04.2021
1248 Rain 1 1020 100 10000 2.57 350 05:48 12.04.2021
1249 Rain 4 1018 87 10000 4.63 310 03:19 12.04.2021
1250 Rain 7 1016 87 10000 3.09 280 00:30 12.04.2021
1251 Rain 7 1015 100 10000 2.06 310 23:56 11.04.2021
1252 Rain 7 1015 100 10000 2.06 310 23:38 11.04.2021
1253 Rain 7 1015 100 10000 1.54 320 23:19 11.04.2021
1254 Rain 8 1015 93 7000 1.54 320 22:38 11.04.2021
1255 Clouds 8 1014 93 10000 1.54 0 22:19 11.04.2021
1256 Clouds 8 1014 100 10000 3.09 340 21:42 11.04.2021
1257 Rain 9 1013 100 10000 3.6 330 21:24 11.04.2021
1258 Rain 9 1013 93 6000 5.14 310 20:42 11.04.2021
1259 Rain 10 1012 82 10000 4.12 310 20:23 11.04.2021
1260 Rain 11 1011 71 10000 4.12 310 19:43 11.04.2021
1261 Clouds 11 1011 58 10000 6.17 290 19:21 11.04.2021
1262 Rain 12 1010 55 10000 6.69 300 18:57 11.04.2021
1263 Clouds 14 1010 55 10000 6.69 300 18:39 11.04.2021
1264 Rain 13 1010 51 10000 5.14 280 18:20 11.04.2021
1265 Clouds 15 1010 51 10000 7.72 290 17:40 11.04.2021
1266 Clouds 15 1010 51 10000 7.72 290 17:40 11.04.2021
1267 Clouds 15 1009 48 10000 5.66 270 17:22 11.04.2021
1268 Rain 16 1009 51 10000 6.69 270 16:42 11.04.2021
1269 Rain 17 1009 48 10000 3.09 350 16:21 11.04.2021
1270 Clouds 17 1009 42 10000 5.14 270 15:46 11.04.2021
1271 Clouds 17 1009 42 10000 5.14 270 15:46 11.04.2021
1272 Clear 18 1009 39 10000 2.06 290 15:26 11.04.2021
1273 Clouds 17 1009 42 10000 3.09 300 14:51 11.04.2021
1274 Clear 17 1009 45 10000 2.06 270 14:24 11.04.2021
1275 Clear 16 1009 39 10000 1.54 270 13:44 11.04.2021
1276 Clear 16 1009 39 10000 1.54 270 13:26 11.04.2021
1277 Clear 15 1010 47 10000 1.54 0 12:40 11.04.2021
1278 Clear 14 1010 47 10000 2.06 310 12:20 11.04.2021
1279 Clouds 14 1010 54 10000 0.51 0 11:45 11.04.2021
1280 Clouds 13 1011 58 10000 1.54 0 11:20 11.04.2021
1281 Clouds 12 1011 58 10000 1.03 0 10:45 11.04.2021
1282 Clouds 11 1011 71 10000 1.03 0 10:23 11.04.2021
1283 Clouds 11 1011 76 10000 1.03 0 09:50 11.04.2021
1284 Clouds 10 1011 81 10000 1.03 0 09:29 11.04.2021
1285 Clouds 8 1012 67 10000 0.89 296 08:40 11.04.2021
1286 Clouds 6 1011 100 10000 0.68 168 07:54 11.04.2021
1287 Clouds 6 1011 100 10000 0.51 0 07:19 11.04.2021
1288 Clouds 7 1012 47 10000 0.88 159 05:48 11.04.2021
1289 Clouds 7 1012 47 10000 0.88 168 05:23 11.04.2021
1290 Clouds 7 1012 47 10000 0.88 168 04:51 11.04.2021
1291 Clouds 7 1012 47 10000 0.88 168 04:33 11.04.2021
1292 Clouds 8 1012 87 10000 1.03 0 01:27 11.04.2021
1293 Clouds 8 1012 87 10000 0.51 0 00:32 11.04.2021
1294 Clear 9 1012 81 10000 1.03 0 23:46 10.04.2021
1295 Clouds 9 1012 76 10000 0.51 0 22:57 10.04.2021
1296 Clouds 10 1012 71 10000 1.54 0 22:28 10.04.2021
1297 Clouds 10 1012 71 10000 1.54 0 22:28 10.04.2021
1298 Clouds 10 1012 71 10000 1.03 0 21:54 10.04.2021
1299 Clouds 12 1012 47 10000 1.03 0 21:25 10.04.2021
1300 Clouds 12 1012 47 10000 2.57 300 20:57 10.04.2021
1301 Clouds 13 1012 47 10000 2.57 300 20:37 10.04.2021
1302 Clouds 13 1012 47 10000 2.06 300 20:18 10.04.2021
1303 Clouds 14 1012 47 10000 2.06 280 19:42 10.04.2021
1304 Clouds 14 1012 47 10000 1.54 280 19:24 10.04.2021
1305 Clouds 14 1012 44 10000 3.09 280 18:42 10.04.2021
1306 Clouds 14 1012 47 10000 3.09 280 18:23 10.04.2021
1307 Clouds 15 1012 44 10000 2.06 310 17:36 10.04.2021
1308 Clouds 15 1013 44 10000 3.6 290 16:43 10.04.2021
1309 Clouds 15 1013 44 10000 2.57 290 16:24 10.04.2021
1310 Clouds 15 1013 44 10000 3.09 290 15:49 10.04.2021
1311 Clouds 15 1014 47 10000 1.03 0 14:55 10.04.2021
1312 Clouds 14 1014 47 10000 1.03 0 14:37 10.04.2021
1313 Clouds 13 1015 54 10000 1.54 0 13:58 10.04.2021
1314 Clouds 14 1015 54 10000 1.54 0 13:36 10.04.2021
1315 Clouds 12 1016 58 10000 1.54 0 12:43 10.04.2021
1316 Clouds 12 1016 58 10000 2.06 290 12:20 10.04.2021
1317 Clouds 11 1016 58 10000 1.03 0 11:46 10.04.2021
1318 Clouds 11 1016 66 10000 2.06 120 11:23 10.04.2021
1319 Clouds 10 1016 76 10000 2.57 140 10:51 10.04.2021
1320 Clouds 10 1016 76 10000 4.12 130 10:31 10.04.2021
1321 Clouds 9 1017 81 10000 3.09 120 09:45 10.04.2021
1322 Clouds 8 1017 87 10000 4.63 120 09:19 10.04.2021
1323 Clouds 7 1017 81 10000 1.54 130 08:36 10.04.2021
1324 Clouds 7 1017 76 10000 5.14 250 08:18 10.04.2021
1325 Drizzle 6 1017 71 10000 4.12 290 07:26 10.04.2021
1326 Drizzle 7 1016 66 10000 1.03 0 06:42 10.04.2021
1327 Drizzle 7 1016 87 10000 1.54 190 05:36 10.04.2021
1328 Clouds 7 1016 81 10000 2.06 90 03:42 10.04.2021
1329 Clouds 7 1016 70 10000 1.03 0 02:48 10.04.2021
1330 Clouds 7 1016 87 10000 0.51 0 01:28 10.04.2021
1331 Clouds 8 1016 76 10000 1.03 0 00:37 10.04.2021
1332 Clouds 7 1016 71 10000 1.03 0 23:55 09.04.2021
1333 Clouds 7 1016 66 10000 1.03 0 23:30 09.04.2021
1334 Clouds 10 1016 53 10000 1.54 0 22:54 09.04.2021
1335 Clouds 10 1016 53 10000 1.54 0 22:36 09.04.2021
1336 Clouds 12 1016 41 10000 3.6 220 21:41 09.04.2021
1337 Clouds 13 1016 41 10000 2.57 0 21:22 09.04.2021
1338 Clouds 13 1016 41 10000 4.12 240 20:57 09.04.2021
1339 Rain 13 1016 41 10000 4.12 240 20:39 09.04.2021
1340 Clouds 14 1016 38 10000 3.6 240 20:20 09.04.2021
1341 Clouds 14 1016 35 10000 4.63 260 19:43 09.04.2021
1342 Clouds 13 1016 35 10000 4.63 260 19:22 09.04.2021
1343 Clouds 15 1016 33 10000 5.14 270 18:43 09.04.2021
1344 Clouds 15 1016 33 10000 5.14 270 18:25 09.04.2021
1345 Clouds 15 1016 31 10000 4.63 270 17:49 09.04.2021
1346 Clouds 16 1016 34 10000 4.63 270 17:30 09.04.2021
1347 Clear 16 1016 33 10000 5.14 270 16:48 09.04.2021
1348 Clear 16 1016 33 10000 4.63 280 16:29 09.04.2021
1349 Clear 15 1017 29 10000 3.6 250 15:47 09.04.2021
1350 Clear 15 1017 31 10000 3.09 250 15:24 09.04.2021
1351 Clouds 14 1017 35 10000 3.09 310 14:46 09.04.2021
1352 Clear 14 1018 35 10000 3.6 230 14:28 09.04.2021
1353 Clear 14 1018 35 10000 3.09 280 13:45 09.04.2021
1354 Clouds 12 1018 37 10000 2.57 310 13:22 09.04.2021
1355 Clouds 11 1019 40 10000 1.54 0 12:47 09.04.2021
1356 Clouds 11 1019 40 10000 1.54 0 12:47 09.04.2021
1357 Clouds 11 1019 40 10000 1.54 0 12:24 09.04.2021
1358 Clouds 9 1020 46 10000 1.03 0 11:43 09.04.2021
1359 Clouds 8 1020 49 10000 1.03 0 11:20 09.04.2021
1360 Clouds 7 1020 52 10000 1.54 0 10:37 09.04.2021
1361 Clouds 6 1020 70 10000 1.54 170 09:59 09.04.2021
1362 Clouds 5 1020 69 10000 1.03 110 09:28 09.04.2021
1363 Clouds 4 1020 80 10000 1.54 0 08:56 09.04.2021
1364 Clouds 3 1020 80 10000 1.54 0 08:33 09.04.2021
1365 Clear 1 1020 80 10000 1 192 07:32 09.04.2021
1366 Clear 0 1020 86 10000 1.03 150 06:30 09.04.2021
1367 Clear 0 1020 86 10000 1.03 150 06:30 09.04.2021
1368 Clear 0 1020 86 10000 0.51 0 05:36 09.04.2021
1369 Clear 1 1021 74 10000 2.57 90 03:43 09.04.2021
1370 Clear 1 1021 69 10000 3.6 110 00:39 09.04.2021
1371 Clear 2 1021 69 10000 3.6 120 00:21 09.04.2021
1372 Clear 2 1021 69 10000 2.57 100 23:38 08.04.2021
1373 Clear 3 1021 69 10000 2.57 100 22:56 08.04.2021
1374 Clear 3 1021 69 10000 2.57 100 22:56 08.04.2021
1375 Clear 3 1021 65 10000 2.57 120 22:31 08.04.2021
1376 Clear 4 1021 65 10000 3.09 110 21:59 08.04.2021
1377 Clear 4 1021 65 10000 3.09 110 21:41 08.04.2021
1378 Clear 4 1021 60 10000 0.51 0 21:22 08.04.2021
1379 Clear 4 1021 60 10000 0.51 0 20:59 08.04.2021
1380 Clear 6 1021 56 10000 1.03 0 20:40 08.04.2021
1381 Clear 8 1021 43 10000 1.54 190 20:19 08.04.2021
1382 Clear 12 1021 30 10000 2.06 190 19:40 08.04.2021
1383 Clear 11 1021 28 10000 1.03 0 19:19 08.04.2021
1384 Clear 11 1021 28 10000 2.06 250 18:42 08.04.2021
1385 Clear 11 1021 28 10000 2.06 250 18:42 08.04.2021
1386 Clear 11 1021 26 10000 2.57 0 18:19 08.04.2021
1387 Clear 11 1022 28 10000 3.6 290 17:42 08.04.2021
1388 Clear 11 1022 28 10000 4.12 290 17:20 08.04.2021
1389 Clear 11 1022 30 10000 1.03 0 16:45 08.04.2021
1390 Clear 10 1023 29 10000 2.57 310 16:22 08.04.2021
1391 Clear 10 1023 29 10000 2.57 320 15:46 08.04.2021
1392 Clear 9 1023 29 10000 2.06 160 15:26 08.04.2021
1393 Clear 9 1024 34 10000 2.57 0 14:42 08.04.2021
1394 Clear 8 1024 36 10000 2.06 150 14:21 08.04.2021
1395 Clear 8 1024 36 10000 1.03 0 13:48 08.04.2021
1396 Clear 7 1025 39 10000 1.54 0 13:24 08.04.2021
1397 Clear 7 1025 39 10000 1.54 0 12:57 08.04.2021
1398 Clear 6 1025 42 10000 1.54 0 12:33 08.04.2021
1399 Clear 6 1025 42 10000 1.54 0 11:57 08.04.2021
1400 Clear 5 1025 56 10000 1.54 140 11:26 08.04.2021
1401 Clear 4 1026 52 10000 3.09 130 10:55 08.04.2021
1402 Clear 4 1026 60 10000 3.09 110 10:25 08.04.2021
1403 Clear 3 1026 64 10000 3.09 110 09:46 08.04.2021
1404 Clear 2 1026 64 10000 2.57 120 09:26 08.04.2021
1405 Clear -1 1026 80 10000 2.06 130 08:44 08.04.2021
1406 Clear -2 1025 80 10000 2.06 150 08:22 08.04.2021
1407 Clear -3 1025 80 10000 1.3 165 07:45 08.04.2021
1408 Clear -4 1025 86 10000 0.51 280 06:46 08.04.2021
1409 Clouds -2 1025 86 10000 2.57 110 01:27 08.04.2021
1410 Clouds -1 1025 80 10000 0.51 0 00:32 08.04.2021
1411 Clouds -1 1025 64 10000 2.06 150 23:48 07.04.2021
1412 Clouds -1 1024 69 10000 1.54 0 23:27 07.04.2021
1413 Clouds 0 1024 59 10000 3.09 250 22:58 07.04.2021
1414 Clouds 0 1024 59 10000 3.09 250 22:39 07.04.2021
1415 Clouds 1 1024 51 10000 2.06 220 22:20 07.04.2021
1416 Clouds 2 1024 44 10000 2.57 260 21:34 07.04.2021
1417 Clouds 3 1024 38 10000 1.03 0 20:56 07.04.2021
1418 Clouds 3 1024 38 10000 1.03 0 20:37 07.04.2021
1419 Clouds 3 1024 44 10000 2.57 290 20:18 07.04.2021
1420 Clouds 3 1023 41 10000 3.09 270 19:40 07.04.2021
1421 Clouds 3 1023 41 10000 3.6 250 19:22 07.04.2021
1422 Clouds 3 1023 38 10000 5.14 290 18:42 07.04.2021
1423 Clouds 4 1023 38 10000 4.12 270 18:18 07.04.2021
1424 Clouds 3 1023 38 10000 4.63 270 17:47 07.04.2021
1425 Clouds 4 1023 35 10000 5.66 290 17:28 07.04.2021
1426 Clouds 4 1023 35 10000 4.63 290 16:46 07.04.2021
1427 Clouds 4 1023 41 10000 4.63 270 16:21 07.04.2021
1428 Clouds 4 1023 41 10000 5.14 270 15:53 07.04.2021
1429 Clouds 3 1022 41 10000 4.12 290 15:34 07.04.2021
1430 Clouds 3 1022 41 10000 2.57 260 14:47 07.04.2021
1431 Clouds 3 1022 44 10000 3.6 260 14:24 07.04.2021
1432 Clouds 3 1022 41 10000 1.03 0 13:45 07.04.2021
1433 Clouds 2 1022 48 10000 4.12 240 13:20 07.04.2021
1434 Clouds 2 1022 55 10000 3.09 220 12:46 07.04.2021
1435 Snow 1 1022 55 10000 4.63 270 12:19 07.04.2021
1436 Clouds 1 1021 55 10000 4.12 280 11:45 07.04.2021
1437 Clouds 1 1021 55 10000 4.63 250 11:24 07.04.2021
1438 Clouds 0 1021 59 10000 3.09 250 10:50 07.04.2021
1439 Snow -1 1020 59 10000 4.12 250 09:51 07.04.2021
1440 Clouds -1 1020 69 10000 3.6 260 09:28 07.04.2021
1441 Clouds -2 1019 69 10000 3.6 290 08:53 07.04.2021
1442 Clouds -2 1019 69 10000 3.6 290 08:33 07.04.2021
1443 Snow -3 1018 74 10000 4.12 280 07:54 07.04.2021
1444 Snow -3 1017 69 10000 3.09 270 07:29 07.04.2021
1445 Clouds -3 1017 74 10000 3.09 280 06:44 07.04.2021
1446 Snow -2 1016 80 10000 2.57 290 06:18 07.04.2021
1447 Snow -2 1014 93 2600 4.12 290 03:32 07.04.2021
1448 Clouds 0 1014 69 10000 0.51 0 23:52 06.04.2021
1449 Clouds 0 1014 74 10000 1.03 0 23:23 06.04.2021
1450 Clouds 0 1014 64 10000 1.03 0 22:59 06.04.2021
1451 Snow 0 1014 55 10000 3.09 360 22:22 06.04.2021
1452 Snow 0 1014 55 10000 3.09 290 21:57 06.04.2021
1453 Snow 0 1014 55 10000 3.09 290 21:38 06.04.2021
1454 Snow 0 1014 64 10000 1.54 280 21:20 06.04.2021
1455 Snow 1 1013 55 10000 3.09 320 20:50 06.04.2021
1456 Snow 1 1013 55 10000 5.66 320 20:21 06.04.2021
1457 Snow 1 1013 55 10000 5.14 260 19:49 06.04.2021
1458 Snow 1 1012 64 10000 5.66 330 19:30 06.04.2021
1459 Clouds 2 1012 45 10000 4.12 270 18:47 06.04.2021
1460 Clouds 3 1012 45 10000 4.63 260 18:24 06.04.2021
1461 Clouds 3 1012 52 10000 3.09 300 17:51 06.04.2021
1462 Clouds 4 1012 48 10000 4.12 290 17:29 06.04.2021
1463 Clouds 3 1013 44 10000 2.57 270 16:55 06.04.2021
1464 Clouds 3 1013 48 10000 3.09 320 16:37 06.04.2021
1465 Clouds 4 1014 44 10000 2.57 290 15:31 06.04.2021
1466 Clouds 4 1014 45 10000 3.6 260 14:58 06.04.2021
1467 Clouds 3 1014 45 10000 3.6 260 14:39 06.04.2021
1468 Clouds 3 1014 45 10000 3.09 340 14:18 06.04.2021
1469 Clouds 3 1014 48 10000 1.54 0 13:41 06.04.2021
1470 Clouds 3 1015 48 10000 2.57 300 13:23 06.04.2021
1471 Clouds 2 1015 48 10000 2.57 350 12:41 06.04.2021
1472 Clouds 2 1015 48 10000 2.06 0 12:22 06.04.2021
1473 Clouds 2 1015 48 10000 1.54 0 11:49 06.04.2021
1474 Clouds 1 1015 60 10000 2.06 170 11:21 06.04.2021
1475 Clouds 0 1015 59 10000 1.1 18 10:47 06.04.2021
1476 Clouds 0 1015 69 10000 2.06 70 10:27 06.04.2021
1477 Clear 0 1015 69 10000 0.51 0 09:49 06.04.2021
1478 Clear -1 1015 74 10000 1.03 0 09:30 06.04.2021
1479 Clear -1 1015 80 10000 1.03 0 08:43 06.04.2021
1480 Clear -2 1015 93 10000 0.67 115 08:18 06.04.2021
1481 Clouds -2 1014 93 10000 0.51 0 06:55 06.04.2021
1482 Clouds -1 1015 86 10000 0.51 0 05:40 06.04.2021
1483 Snow -1 1015 74 9000 0.51 0 02:57 06.04.2021
1484 Snow 1 1014 86 5000 2.06 0 00:44 06.04.2021
1485 Snow 2 1013 80 10000 2.57 0 00:21 06.04.2021
1486 Snow 3 1012 80 10000 4.12 10 23:43 05.04.2021
1487 Rain 4 1011 81 10000 4.63 340 23:19 05.04.2021
1488 Clouds 4 1011 76 10000 4.63 290 22:48 05.04.2021
1489 Clouds 6 1011 87 10000 3.09 260 22:26 05.04.2021
1490 Rain 6 1010 87 10000 3.09 270 21:44 05.04.2021
1491 Rain 7 1010 71 10000 5.66 300 21:21 05.04.2021
1492 Rain 9 1009 62 10000 7.72 310 20:43 05.04.2021
1493 Rain 8 1011 47 10000 4.47 295 20:25 05.04.2021
1494 Rain 12 1008 40 10000 5.66 280 19:43 05.04.2021
1495 Rain 12 1008 38 10000 6.69 280 19:22 05.04.2021
1496 Rain 12 1009 33 10000 8.75 290 18:49 05.04.2021
1497 Clouds 13 1009 33 10000 8.75 290 18:31 05.04.2021
1498 Clouds 13 1009 33 10000 5.14 260 17:59 05.04.2021
1499 Clouds 14 1009 33 10000 5.14 260 17:41 05.04.2021
1500 Clear 14 1009 33 10000 6.69 270 17:19 05.04.2021
1501 Clear 14 1009 33 10000 7.72 260 16:42 05.04.2021
1502 Clear 14 1010 31 10000 7.72 280 16:20 05.04.2021
1503 Clear 14 1010 29 10000 7.72 270 15:52 05.04.2021
1504 Clear 15 1010 31 10000 7.2 270 15:27 05.04.2021
1505 Clear 15 1010 31 10000 6.17 260 14:47 05.04.2021
1506 Clear 14 1011 33 10000 6.69 260 14:27 05.04.2021
1507 Clear 14 1012 33 10000 4.63 280 13:31 05.04.2021
1508 Clear 13 1012 33 10000 5.66 280 12:48 05.04.2021
1509 Clear 13 1012 35 10000 6.17 270 12:26 05.04.2021
1510 Clear 12 1013 40 10000 4.12 0 11:54 05.04.2021
1511 Clear 12 1013 40 10000 4.12 0 11:33 05.04.2021
1512 Clear 9 1014 61 10000 1.03 0 10:59 05.04.2021
1513 Clear 10 1014 61 10000 1.03 0 10:40 05.04.2021
1514 Clear 8 1014 70 10000 2.06 110 10:19 05.04.2021
1515 Clear 6 1015 87 10000 1.54 0 09:45 05.04.2021
1516 Clouds 6 1016 55 10000 0.89 197 09:22 05.04.2021
1517 Clear 3 1015 93 10000 1.97 236 08:40 05.04.2021
1518 Clear 2 1015 100 10000 1.81 199 08:20 05.04.2021
1519 Clear 1 1015 100 10000 0.51 0 07:35 05.04.2021
1520 Clear 1 1016 86 10000 1.03 0 04:23 05.04.2021
1521 Clear 2 1019 39 10000 1.13 175 01:35 05.04.2021
1522 Clear 3 1019 100 10000 1.2 147 00:29 05.04.2021
1523 Clear 3 1018 80 10000 1.03 100 23:43 04.04.2021
1524 Clear 3 1018 80 10000 0.51 0 23:20 04.04.2021
1525 Clear 4 1018 75 10000 0.51 0 22:50 04.04.2021
1526 Clear 4 1018 60 10000 0.51 0 22:28 04.04.2021
1527 Clear 7 1017 42 10000 1.54 220 21:25 04.04.2021
1528 Clear 9 1017 34 10000 1.03 0 20:56 04.04.2021
1529 Clear 10 1017 32 10000 2.06 50 20:29 04.04.2021
1530 Clear 11 1017 32 10000 2.57 40 19:44 04.04.2021
1531 Clear 11 1017 30 10000 2.06 30 19:23 04.04.2021
1532 Clear 12 1017 30 10000 3.09 40 18:59 04.04.2021
1533 Clear 12 1017 30 10000 3.09 40 18:40 04.04.2021
1534 Clear 12 1017 30 10000 3.09 40 18:40 04.04.2021
1535 Clear 12 1017 30 10000 3.6 50 18:20 04.04.2021
1536 Clear 13 1018 33 10000 4.63 50 17:41 04.04.2021
1537 Clear 13 1018 33 10000 4.63 50 17:41 04.04.2021
1538 Clear 13 1018 35 10000 3.09 40 17:22 04.04.2021
1539 Clear 12 1018 33 10000 4.12 30 16:42 04.04.2021
1540 Clear 12 1018 35 10000 4.12 40 16:18 04.04.2021
1541 Clear 12 1018 35 10000 4.12 10 15:34 04.04.2021
1542 Clear 11 1019 35 10000 5.14 60 14:46 04.04.2021
1543 Clear 11 1019 37 10000 3.09 20 14:27 04.04.2021
1544 Clear 10 1019 35 10000 3.09 20 13:47 04.04.2021
1545 Clear 10 1019 35 10000 3.09 0 13:23 04.04.2021
1546 Clear 9 1019 43 10000 4.12 30 12:41 04.04.2021
1547 Clear 9 1020 43 10000 3.09 40 12:23 04.04.2021
1548 Clear 8 1020 49 10000 1.54 0 11:42 04.04.2021
1549 Clear 7 1021 100 10000 3.13 120 11:23 04.04.2021
1550 Clear 6 1020 56 10000 1.54 0 10:43 04.04.2021
1551 Clear 5 1020 70 10000 1.54 150 09:54 04.04.2021
1552 Clear 3 1021 75 10000 1.54 150 09:25 04.04.2021
1553 Clear 3 1021 59 10000 3.58 42 08:53 04.04.2021
1554 Clear 2 1021 59 10000 2.24 65 08:35 04.04.2021
1555 Clear 1 1021 61 10000 1.79 53 07:54 04.04.2021
1556 Clear 1 1021 59 10000 1.79 78 06:37 04.04.2021
1557 Clear 0 1020 93 10000 0.51 0 05:33 04.04.2021
1558 Clear 3 1020 64 10000 0.51 0 01:29 04.04.2021
1559 Clear 3 1020 60 10000 1.54 0 00:20 04.04.2021
1560 Clear 4 1020 52 10000 3.09 50 23:48 03.04.2021
1561 Clear 4 1021 52 10000 2.57 0 23:29 03.04.2021
1562 Clear 4 1021 49 10000 1.54 0 22:52 03.04.2021
1563 Clear 5 1021 49 10000 1.54 0 22:22 03.04.2021
1564 Clear 5 1021 49 10000 1.54 0 21:52 03.04.2021
1565 Clear 5 1020 49 10000 2.57 10 21:25 03.04.2021
1566 Clear 6 1020 45 10000 2.57 0 20:51 03.04.2021
1567 Clear 6 1020 49 10000 3.6 50 20:28 03.04.2021
1568 Clouds 6 1019 46 10000 3.6 50 19:51 03.04.2021
1569 Clouds 8 1019 46 10000 3.6 50 19:27 03.04.2021
1570 Clouds 8 1019 49 10000 4.63 50 18:53 03.04.2021
1571 Clouds 8 1019 49 10000 4.63 50 18:34 03.04.2021
1572 Clouds 9 1019 49 10000 4.12 50 17:55 03.04.2021
1573 Clouds 9 1019 46 10000 4.63 50 17:26 03.04.2021
1574 Clouds 9 1019 49 10000 4.12 0 16:54 03.04.2021
1575 Clouds 9 1020 50 10000 5.14 30 16:25 03.04.2021
1576 Clouds 9 1020 49 10000 5.14 60 15:52 03.04.2021
1577 Clouds 9 1020 53 10000 3.6 30 15:31 03.04.2021
1578 Clouds 9 1020 49 10000 5.66 50 14:49 03.04.2021
1579 Clouds 8 1020 53 10000 3.6 0 14:25 03.04.2021
1580 Clouds 8 1020 57 10000 4.12 50 13:55 03.04.2021
1581 Clouds 8 1020 57 10000 4.12 50 13:35 03.04.2021
1582 Clouds 7 1019 70 10000 3.09 40 12:59 03.04.2021
1583 Clouds 6 1019 70 10000 3.09 40 12:33 03.04.2021
1584 Clouds 6 1019 65 10000 4.12 40 11:44 03.04.2021
1585 Clouds 5 1019 70 10000 2.57 0 11:26 03.04.2021
1586 Clouds 5 1019 70 10000 2.57 20 10:45 03.04.2021
1587 Clouds 5 1019 70 10000 3.09 10 10:26 03.04.2021
1588 Clouds 4 1019 75 10000 2.06 50 09:39 03.04.2021
1589 Clouds 4 1019 70 10000 2.57 30 09:21 03.04.2021
1590 Clouds 4 1019 75 10000 2.57 350 08:35 03.04.2021
1591 Clear 3 1018 75 10000 2.06 10 07:40 03.04.2021
1592 Clear 3 1018 75 10000 2.06 10 07:40 03.04.2021
1593 Clear 3 1018 75 10000 1.54 10 07:22 03.04.2021
1594 Clear 6 1017 65 10000 1.54 0 04:24 03.04.2021
1595 Clear 7 1018 57 10000 1.03 0 02:56 03.04.2021
1596 Clear 7 1018 57 10000 1.03 0 02:31 03.04.2021
1597 Clouds 8 1018 46 10000 1.03 0 00:45 03.04.2021
1598 Clouds 9 1018 43 10000 1.54 0 00:18 03.04.2021
1599 Clouds 9 1018 40 10000 1.03 0 23:44 02.04.2021
1600 Clouds 9 1018 40 10000 1.03 0 23:44 02.04.2021
1601 Clouds 10 1018 46 10000 1.03 0 23:18 02.04.2021
1602 Clouds 11 1018 43 10000 1.03 0 22:44 02.04.2021
1603 Clouds 11 1017 47 10000 1.03 0 22:25 02.04.2021
1604 Clear 13 1017 50 10000 2.06 270 21:41 02.04.2021
1605 Clear 12 1016 54 10000 1.03 0 21:19 02.04.2021
1606 Clear 13 1016 54 10000 1.03 0 20:43 02.04.2021
1607 Clear 15 1015 47 10000 2.57 40 20:21 02.04.2021
1608 Clear 16 1015 48 10000 2.57 60 19:42 02.04.2021
1609 Clouds 16 1015 48 10000 3.09 10 19:23 02.04.2021
1610 Clouds 18 1015 45 10000 6.17 320 18:48 02.04.2021
1611 Clouds 18 1014 42 10000 4.12 340 18:30 02.04.2021
1612 Clouds 18 1014 42 10000 4.12 340 17:56 02.04.2021
1613 Clouds 19 1014 40 10000 3.09 330 17:30 02.04.2021
1614 Clouds 20 1014 42 10000 2.57 320 16:37 02.04.2021
1615 Clouds 20 1015 32 10000 3.6 320 15:47 02.04.2021
1616 Clouds 20 1015 37 10000 2.06 330 15:25 02.04.2021
1617 Clear 19 1015 37 10000 1.03 0 14:33 02.04.2021
1618 Clear 18 1016 42 10000 2.06 330 13:50 02.04.2021
1619 Clear 18 1016 48 10000 2.06 330 13:28 02.04.2021
1620 Clear 17 1017 48 10000 1.03 0 12:59 02.04.2021
1621 Clear 16 1017 51 10000 1.9 19 12:37 02.04.2021
1622 Clear 16 1017 51 10000 1.91 19 12:19 02.04.2021
1623 Clear 16 1017 55 10000 1.91 19 11:44 02.04.2021
1624 Clear 15 1017 67 10000 0.51 0 11:19 02.04.2021
1625 Clear 14 1018 62 10000 0.51 0 10:42 02.04.2021
1626 Clear 13 1018 71 10000 1.03 0 10:23 02.04.2021
1627 Clear 12 1018 76 10000 1.39 47 09:46 02.04.2021
1628 Clouds 11 1019 59 10000 1.15 60 09:24 02.04.2021
1629 Clear 9 1018 93 10000 1.15 60 08:46 02.04.2021
1630 Clear 8 1018 100 10000 0.51 0 08:26 02.04.2021
1631 Clear 7 1018 100 10000 0.51 0 07:20 02.04.2021
1632 Clear 8 1017 100 10000 0.51 0 06:34 02.04.2021
1633 Clear 8 1018 93 10000 0.51 0 03:40 02.04.2021
1634 Clear 10 1018 87 10000 1.03 0 01:40 02.04.2021
1635 Clear 10 1019 87 10000 2.06 160 00:43 02.04.2021
1636 Clear 12 1018 71 10000 2.06 0 23:47 01.04.2021
1637 Clouds 12 1019 40 10000 1.26 132 23:27 01.04.2021
1638 Clear 12 1018 76 10000 2.06 120 22:41 01.04.2021
1639 Clear 13 1018 71 10000 1.03 0 22:18 01.04.2021
1640 Clear 13 1018 66 10000 1.54 0 21:42 01.04.2021
1641 Clear 14 1017 66 10000 1.03 0 21:22 01.04.2021
1642 Clear 15 1017 55 10000 1.54 180 20:41 01.04.2021
1643 Clear 17 1017 45 10000 1.54 260 20:21 01.04.2021
1644 Clouds 21 1017 34 10000 1.54 0 19:41 01.04.2021
1645 Clouds 20 1017 32 10000 1.54 340 19:20 01.04.2021
1646 Clouds 22 1017 28 10000 1.03 0 18:44 01.04.2021
1647 Clouds 22 1017 33 10000 1.54 330 18:18 01.04.2021
1648 Clouds 22 1017 29 10000 1.03 0 17:41 01.04.2021
1649 Clouds 22 1017 33 10000 2.06 150 17:23 01.04.2021
1650 Clouds 23 1018 29 10000 1.03 0 16:48 01.04.2021
1651 Clear 22 1018 35 10000 1.54 310 16:18 01.04.2021
1652 Clear 22 1018 35 10000 2.57 300 15:40 01.04.2021
1653 Clouds 22 1019 35 10000 1.54 0 15:19 01.04.2021
1654 Clouds 21 1019 37 10000 2.06 270 14:39 01.04.2021
1655 Clouds 21 1019 37 10000 2.06 270 14:39 01.04.2021
1656 Clear 20 1019 37 10000 2.06 300 14:20 01.04.2021
1657 Clear 20 1020 37 10000 1.03 0 13:49 01.04.2021
1658 Clear 20 1020 40 10000 1.03 0 13:29 01.04.2021
1659 Clear 19 1020 45 10000 0.51 0 12:47 01.04.2021
1660 Clear 18 1021 45 10000 1.54 0 12:29 01.04.2021
1661 Clear 17 1021 45 10000 2.06 120 11:45 01.04.2021
1662 Clear 16 1022 51 10000 2.06 120 11:24 01.04.2021
1663 Clear 16 1022 58 10000 2.06 130 10:53 01.04.2021
1664 Clear 15 1022 62 10000 2.57 130 10:31 01.04.2021
1665 Clear 14 1022 71 10000 2.06 0 09:52 01.04.2021
1666 Clear 12 1022 81 10000 0.51 0 09:23 01.04.2021
1667 Clear 10 1022 93 10000 0.51 0 08:33 01.04.2021
1668 Clear 8 1022 93 10000 2.06 0 07:24 01.04.2021
1669 Clear 9 1022 93 10000 1.03 0 06:59 01.04.2021
1670 Clear 9 1022 93 10000 0.51 0 06:31 01.04.2021
1671 Clear 9 1022 87 10000 1.03 0 03:28 01.04.2021
1672 Clear 10 1022 81 10000 1.54 0 00:38 01.04.2021
1673 Clear 11 1022 76 10000 0.51 0 23:44 31.03.2021
1674 Clear 11 1022 76 10000 0.51 0 23:44 31.03.2021
1675 Clear 12 1022 76 10000 3.09 90 22:59 31.03.2021
1676 Clear 12 1022 76 10000 3.09 90 22:40 31.03.2021
1677 Clear 12 1022 66 10000 2.57 110 22:20 31.03.2021
1678 Clear 13 1022 71 10000 2.06 130 21:44 31.03.2021
1679 Clear 13 1021 66 10000 0.51 0 21:20 31.03.2021
1680 Clear 15 1021 55 10000 0.51 0 20:43 31.03.2021
1681 Clear 16 1021 39 10000 0.51 0 20:23 31.03.2021
1682 Clear 19 1021 34 10000 1.03 260 19:55 31.03.2021
1683 Clear 20 1021 34 10000 1.03 260 19:36 31.03.2021
1684 Clear 20 1021 28 10000 2.06 300 19:18 31.03.2021
1685 Clear 22 1021 25 10000 1.54 280 18:41 31.03.2021
1686 Clear 22 1022 29 10000 1.54 310 17:53 31.03.2021
1687 Clear 22 1022 29 10000 1.54 310 17:34 31.03.2021
1688 Clear 22 1023 29 10000 2.57 270 16:57 31.03.2021
1689 Clear 22 1023 29 10000 2.57 270 16:37 31.03.2021
1690 Clear 22 1023 28 10000 1.54 0 16:19 31.03.2021
1691 Clear 22 1023 30 10000 1.54 300 15:48 31.03.2021
1692 Clear 22 1024 28 10000 2.06 270 15:19 31.03.2021
1693 Clear 21 1024 28 10000 2.06 280 14:42 31.03.2021
1694 Clear 21 1025 35 10000 1.54 0 14:20 31.03.2021
1695 Clear 21 1025 35 10000 1.54 0 14:20 31.03.2021
1696 Clear 20 1025 40 10000 1.03 0 13:40 31.03.2021
1697 Clear 18 1026 48 10000 1.03 0 12:42 31.03.2021
1698 Clear 17 1026 45 10000 1.03 0 12:20 31.03.2021
1699 Clear 17 1026 48 10000 1.54 0 11:41 31.03.2021
1700 Clear 15 1027 51 10000 2.57 150 11:20 31.03.2021
1701 Clear 15 1027 66 10000 0.51 0 10:46 31.03.2021
1702 Clear 14 1027 62 10000 1.03 0 10:24 31.03.2021
1703 Clear 11 1027 87 10000 1.03 290 09:38 31.03.2021
1704 Clear 9 1027 93 10000 1.03 0 08:54 31.03.2021
1705 Clear 9 1027 93 10000 1.03 0 08:33 31.03.2021
1706 Clear 8 1027 93 10000 1.03 0 07:49 31.03.2021
1707 Clear 8 1027 100 10000 0.51 0 06:38 31.03.2021
1708 Clear 7 1027 100 10000 0.51 0 03:46 31.03.2021
1709 Clear 8 1028 100 10000 1.03 0 01:38 31.03.2021
1710 Clear 9 1028 100 10000 0.51 0 00:48 31.03.2021
1711 Clear 9 1028 100 10000 0.51 0 00:19 31.03.2021
1712 Clear 10 1028 44 10000 1.21 157 23:33 30.03.2021
1713 Clear 10 1028 87 10000 1.03 0 22:58 30.03.2021
1714 Clear 11 1028 87 10000 1.03 0 22:39 30.03.2021
1715 Clear 11 1028 76 10000 0.51 0 22:21 30.03.2021
1716 Clear 11 1028 76 10000 1.54 130 21:46 30.03.2021
1717 Clear 12 1027 66 10000 1.03 0 21:19 30.03.2021
1718 Clear 13 1027 62 10000 1.03 0 20:51 30.03.2021
1719 Clear 15 1027 51 10000 1.03 0 20:28 30.03.2021
1720 Clear 17 1027 42 10000 2.57 320 19:50 30.03.2021
1721 Clear 19 1027 35 10000 2.06 330 19:27 30.03.2021
1722 Clear 21 1028 30 10000 2.06 300 18:38 30.03.2021
1723 Clear 20 1028 28 10000 2.57 320 17:52 30.03.2021
1724 Clear 21 1028 28 10000 2.57 300 17:34 30.03.2021
1725 Clear 21 1029 30 10000 2.06 280 16:48 30.03.2021
1726 Clear 21 1029 32 10000 2.06 310 16:29 30.03.2021
1727 Clear 20 1029 30 10000 1.54 0 15:43 30.03.2021
1728 Clear 20 1030 34 10000 1.54 330 15:20 30.03.2021
1729 Clear 19 1030 32 10000 1.54 280 14:55 30.03.2021
1730 Clear 19 1030 37 10000 1.03 0 14:22 30.03.2021
1731 Clear 18 1031 36 10000 1.03 0 13:57 30.03.2021
1732 Clear 18 1031 36 10000 1.03 0 13:36 30.03.2021
1733 Clear 16 1031 44 10000 1.03 0 12:45 30.03.2021
1734 Clear 16 1032 47 10000 0.51 0 12:27 30.03.2021
1735 Clear 16 1032 44 10000 0.51 0 11:52 30.03.2021
1736 Clear 14 1032 54 10000 1.03 0 11:22 30.03.2021
1737 Clear 13 1032 58 10000 1.54 0 10:43 30.03.2021
1738 Clear 12 1032 66 10000 1.03 0 10:20 30.03.2021
1739 Clear 10 1032 76 10000 1.03 0 09:43 30.03.2021
1740 Clear 9 1032 76 10000 1.03 0 09:25 30.03.2021
1741 Clear 7 1033 87 10000 1.03 0 08:54 30.03.2021
1742 Clear 7 1033 87 10000 1.03 0 08:36 30.03.2021
1743 Clear 6 1032 100 10000 0.51 0 07:51 30.03.2021
1744 Clear 5 1032 100 10000 0.51 0 07:22 30.03.2021
1745 Clear 5 1032 100 10000 1.08 160 05:25 30.03.2021
1746 Clear 5 1032 100 10000 0.51 0 04:57 30.03.2021
1747 Clear 7 1032 93 10000 0.51 0 00:30 30.03.2021
1748 Clear 8 1032 81 10000 0.51 310 23:33 29.03.2021
1749 Clear 9 1032 76 10000 0.51 0 22:45 29.03.2021
1750 Clear 9 1032 66 10000 2.06 90 22:25 29.03.2021
1751 Clear 10 1032 71 10000 1.54 100 21:43 29.03.2021
1752 Clear 11 1031 62 10000 1.03 0 21:23 29.03.2021
1753 Clear 12 1031 50 10000 0.51 0 20:47 29.03.2021
1754 Clear 15 1031 36 10000 1.03 0 20:26 29.03.2021
1755 Clear 18 1031 36 10000 1.54 0 19:48 29.03.2021
1756 Clear 18 1031 30 10000 3.09 310 19:22 29.03.2021
1757 Clear 20 1031 34 10000 2.57 320 18:42 29.03.2021
1758 Clear 19 1031 28 10000 3.09 300 18:23 29.03.2021
1759 Clear 19 1031 28 10000 2.06 300 17:45 29.03.2021
1760 Clear 19 1031 26 10000 2.06 300 17:18 29.03.2021
1761 Clear 19 1032 26 10000 2.57 310 16:37 29.03.2021
1762 Clear 19 1032 30 10000 2.06 350 16:18 29.03.2021
1763 Clear 18 1032 30 10000 2.06 260 15:35 29.03.2021
1764 Clear 18 1033 34 10000 2.57 330 14:57 29.03.2021
1765 Clear 17 1033 34 10000 2.57 330 14:36 29.03.2021
1766 Clear 16 1033 33 10000 1.54 0 13:53 29.03.2021
1767 Clear 15 1033 36 10000 2.06 0 13:30 29.03.2021
1768 Clear 15 1034 47 10000 1.03 0 12:51 29.03.2021
1769 Clear 14 1034 47 10000 1.03 0 12:30 29.03.2021
1770 Clear 12 1034 50 10000 1.03 0 11:41 29.03.2021
1771 Clear 12 1034 54 10000 1.03 0 11:22 29.03.2021
1772 Clear 11 1034 66 10000 2.06 140 10:40 29.03.2021
1773 Clear 9 1034 75 10000 1.54 0 09:56 29.03.2021
1774 Clear 5 1034 100 10000 1.03 120 08:59 29.03.2021
1775 Clear 2 1033 100 10000 1.03 100 08:29 29.03.2021
1776 Clear 2 1033 100 10000 1.25 176 07:51 29.03.2021
1777 Clear 2 1033 100 10000 0.51 0 06:42 29.03.2021
1778 Clear 3 1033 100 10000 0.51 0 05:18 29.03.2021
1779 Clear 4 1033 93 10000 0.51 0 02:22 29.03.2021
1780 Clear 5 1032 87 10000 1.03 0 00:26 29.03.2021
1781 Clear 5 1032 87 10000 1.03 0 23:53 28.03.2021
1782 Clear 5 1032 87 10000 1.03 0 23:24 28.03.2021
1783 Clear 6 1032 81 10000 1.54 130 22:42 28.03.2021
1784 Clear 6 1031 81 10000 2.06 100 22:24 28.03.2021
1785 Clear 7 1031 81 10000 0.51 0 21:45 28.03.2021
1786 Clear 8 1031 81 10000 1.03 0 21:24 28.03.2021
1787 Clear 9 1030 66 10000 0.51 0 20:51 28.03.2021
1788 Clear 9 1030 66 10000 0.51 0 20:33 28.03.2021
1789 Clear 13 1030 38 10000 1.03 200 19:55 28.03.2021
1790 Clear 14 1030 38 10000 1.03 200 19:37 28.03.2021
1791 Clear 14 1030 33 10000 1.03 0 19:18 28.03.2021
1792 Clear 15 1030 31 10000 2.06 290 18:36 28.03.2021
1793 Clear 15 1030 33 10000 3.09 270 17:59 28.03.2021
1794 Clear 15 1030 33 10000 2.57 300 17:36 28.03.2021
1795 Clear 15 1030 38 10000 2.06 310 16:55 28.03.2021
1796 Clear 14 1030 38 10000 3.09 310 16:27 28.03.2021
1797 Clear 13 1030 41 10000 3.09 300 15:50 28.03.2021
1798 Clear 13 1030 44 10000 1.54 0 15:24 28.03.2021
1799 Clear 12 1031 50 10000 1.03 0 14:40 28.03.2021
1800 Clear 12 1031 50 10000 1.54 0 14:18 28.03.2021
1801 Clear 11 1031 50 10000 1.03 0 13:35 28.03.2021
1802 Clear 10 1032 57 10000 1.03 250 12:56 28.03.2021
1803 Clear 9 1032 57 10000 1.03 250 12:34 28.03.2021
1804 Clouds 9 1032 61 10000 1.03 0 11:52 28.03.2021
1805 Clouds 8 1032 61 10000 1.03 0 11:32 28.03.2021
1806 Clear 6 1032 70 10000 1.03 260 10:48 28.03.2021
1807 Clear 6 1031 81 10000 1.03 160 10:29 28.03.2021
1808 Clear 5 1031 81 10000 1.03 0 09:51 28.03.2021
1809 Clear 3 1031 93 10000 1.54 0 09:28 28.03.2021
1810 Clear 1 1031 100 10000 1.03 0 08:49 28.03.2021
1811 Clear 0 1031 100 10000 1.54 140 08:30 28.03.2021
1812 Clear -1 1030 100 10000 1.03 140 07:39 28.03.2021
1813 Clear -1 1029 100 10000 0.51 0 06:20 28.03.2021
1814 Clear 1 1030 100 10000 2.06 100 03:28 28.03.2021
1815 Clear 2 1031 93 10000 0.51 0 00:36 28.03.2021
1816 Clear 2 1031 100 10000 0.51 0 23:53 27.03.2021
1817 Clear 2 1031 100 10000 0.51 0 23:34 27.03.2021
1818 Clear 2 1030 93 10000 0.51 0 22:40 27.03.2021
1819 Clear 3 1030 93 10000 0.51 0 22:21 27.03.2021
1820 Clear 3 1030 80 10000 1.03 0 21:42 27.03.2021
1821 Clear 4 1030 70 10000 1.03 0 21:21 27.03.2021
1822 Clear 4 1029 81 10000 0.51 0 20:56 27.03.2021
1823 Clear 4 1029 81 10000 0.51 0 20:37 27.03.2021
1824 Clear 6 1029 53 10000 1.54 310 19:56 27.03.2021
1825 Clear 7 1029 53 10000 1.54 310 19:37 27.03.2021
1826 Clear 7 1029 49 10000 2.57 290 19:18 27.03.2021
1827 Clear 8 1028 43 10000 3.6 290 18:41 27.03.2021
1828 Clear 9 1028 43 10000 4.12 290 18:20 27.03.2021
1829 Clear 10 1028 43 10000 5.14 290 17:29 27.03.2021
1830 Clouds 10 1028 43 10000 3.6 260 16:58 27.03.2021
1831 Clouds 10 1028 43 10000 3.6 260 16:38 27.03.2021
1832 Clouds 10 1027 43 10000 4.12 300 16:20 27.03.2021
1833 Clouds 10 1027 43 10000 4.63 280 15:39 27.03.2021
1834 Clouds 10 1027 46 10000 3.6 260 14:55 27.03.2021
1835 Clouds 9 1028 46 10000 4.63 260 14:24 27.03.2021
1836 Clouds 9 1027 53 10000 4.63 290 13:39 27.03.2021
1837 Clouds 9 1027 53 10000 3.6 280 13:19 27.03.2021
1838 Clouds 8 1027 53 10000 5.14 300 12:41 27.03.2021
1839 Clouds 8 1027 53 10000 4.12 300 11:49 27.03.2021
1840 Clouds 8 1027 57 10000 4.12 260 11:31 27.03.2021
1841 Clouds 7 1027 66 10000 4.12 270 10:49 27.03.2021
1842 Clouds 7 1027 76 10000 1.03 0 10:30 27.03.2021
1843 Clouds 7 1026 76 10000 1.03 310 09:47 27.03.2021
1844 Clouds 6 1026 87 10000 0.51 0 09:20 27.03.2021
1845 Clouds 5 1026 93 10000 1.54 80 08:39 27.03.2021
1846 Clouds 5 1025 87 8000 3.09 300 07:49 27.03.2021
1847 Clouds 6 1024 87 10000 5.66 300 06:59 27.03.2021
1848 Clouds 6 1024 87 10000 5.66 300 06:39 27.03.2021
1849 Rain 7 1022 87 10000 4.12 250 04:42 27.03.2021
1850 Rain 8 1021 87 4400 4.63 230 02:19 27.03.2021
1851 Rain 11 1019 62 10000 3.09 240 00:33 27.03.2021
1852 Rain 10 1019 54 10000 2.57 200 23:59 26.03.2021
1853 Clouds 10 1019 54 10000 2.57 200 23:25 26.03.2021
1854 Clouds 11 1019 47 10000 2.06 220 22:39 26.03.2021
1855 Clouds 11 1019 47 10000 4.12 160 21:45 26.03.2021
1856 Clouds 11 1018 54 10000 2.06 120 21:23 26.03.2021
1857 Clouds 10 1018 62 10000 1.03 0 20:55 26.03.2021
1858 Clouds 11 1018 44 10000 1.54 0 20:31 26.03.2021
1859 Clouds 12 1018 44 10000 1.54 0 19:52 26.03.2021
1860 Clouds 12 1018 44 10000 1.54 0 19:33 26.03.2021
1861 Clouds 15 1018 41 10000 1.03 0 18:51 26.03.2021
1862 Clear 15 1018 41 10000 1.54 290 18:31 26.03.2021
1863 Clear 16 1018 41 10000 1.54 290 17:57 26.03.2021
1864 Clear 15 1018 41 10000 0.51 0 17:35 26.03.2021
1865 Clear 15 1018 36 10000 1.54 360 16:49 26.03.2021
1866 Clear 16 1018 41 10000 2.06 360 16:22 26.03.2021
1867 Clouds 15 1018 39 10000 3.09 320 15:36 26.03.2021
1868 Clear 15 1019 41 10000 1.54 330 14:45 26.03.2021
1869 Clear 15 1020 44 10000 1.54 0 13:52 26.03.2021
1870 Clear 14 1020 41 10000 1.54 0 13:26 26.03.2021
1871 Clear 13 1020 50 10000 1.03 0 12:40 26.03.2021
1872 Clear 12 1021 54 10000 1.03 320 11:49 26.03.2021
1873 Clear 11 1021 58 10000 1.03 220 11:31 26.03.2021
1874 Clear 11 1021 58 10000 1.03 220 11:31 26.03.2021
1875 Clear 11 1022 58 10000 1.03 0 10:44 26.03.2021
1876 Clear 9 1022 66 10000 1.54 80 10:23 26.03.2021
1877 Clear 9 1022 71 10000 2.57 100 09:41 26.03.2021
1878 Clear 7 1022 87 10000 2.06 140 08:49 26.03.2021
1879 Clear 5 1022 100 10000 0.77 239 08:31 26.03.2021
1880 Clear 5 1023 65 10000 0.45 150 07:57 26.03.2021
1881 Clouds 2 1022 100 8000 0.51 0 07:22 26.03.2021
1882 Clouds 2 1022 100 8000 0.51 0 06:56 26.03.2021
1883 Clear 2 1021 100 10000 1.03 300 05:32 26.03.2021
1884 Clear 3 1022 100 10000 1.54 140 04:23 26.03.2021
1885 Clear 5 1023 100 10000 0.51 0 01:18 26.03.2021
1886 Clear 5 1023 93 10000 0.51 0 00:18 26.03.2021
1887 Clouds 6 1023 48 10000 0.79 150 23:42 25.03.2021
1888 Clear 6 1023 93 10000 0.51 0 22:41 25.03.2021
1889 Clouds 6 1023 87 10000 1.03 0 22:20 25.03.2021
1890 Clouds 7 1022 87 10000 0.51 0 21:48 25.03.2021
1891 Clouds 8 1022 81 10000 1.03 0 21:29 25.03.2021
1892 Clouds 9 1022 71 10000 0.51 0 20:41 25.03.2021
1893 Clouds 9 1021 66 10000 0.51 0 20:23 25.03.2021
1894 Clouds 11 1021 54 10000 0.51 0 19:43 25.03.2021
1895 Clouds 12 1021 54 10000 1.54 240 19:24 25.03.2021
1896 Clouds 13 1021 47 10000 1.54 260 18:46 25.03.2021
1897 Clouds 14 1020 44 10000 2.06 280 18:26 25.03.2021
1898 Clouds 15 1020 41 10000 3.09 280 17:42 25.03.2021
1899 Clouds 15 1020 41 10000 3.6 320 17:23 25.03.2021
1900 Clouds 15 1020 36 10000 2.06 320 16:39 25.03.2021
1901 Clouds 15 1021 36 10000 3.6 290 16:20 25.03.2021
1902 Clouds 15 1021 36 10000 4.12 300 15:42 25.03.2021
1903 Clouds 14 1021 38 10000 4.12 290 15:19 25.03.2021
1904 Clouds 15 1021 36 10000 3.09 290 14:42 25.03.2021
1905 Clear 14 1021 41 10000 3.6 320 13:41 25.03.2021
1906 Clear 14 1022 41 10000 3.09 330 13:23 25.03.2021
1907 Clear 13 1022 38 10000 1.54 0 12:41 25.03.2021
1908 Clear 13 1022 41 10000 2.06 300 12:20 25.03.2021
1909 Clear 12 1022 43 10000 0.51 0 11:48 25.03.2021
1910 Clear 12 1022 43 10000 0.51 0 11:26 25.03.2021
1911 Clear 11 1023 50 10000 1.54 0 10:51 25.03.2021
1912 Clear 10 1023 53 10000 1.03 0 10:24 25.03.2021
1913 Clear 9 1023 65 10000 0.51 0 09:56 25.03.2021
1914 Clear 8 1023 65 10000 0.51 0 09:38 25.03.2021
1915 Clear 6 1023 81 10000 0.51 0 08:46 25.03.2021
1916 Clear 4 1023 93 10000 1.03 0 07:59 25.03.2021
1917 Clear 1 1022 93 10000 0.51 0 06:59 25.03.2021
1918 Clear 1 1022 93 10000 0.51 0 06:25 25.03.2021
1919 Clear 1 1022 93 10000 1.03 0 05:49 25.03.2021
1920 Clear 2 1023 93 10000 0.51 0 02:48 25.03.2021
1921 Clear 3 1023 87 10000 0.51 0 00:21 25.03.2021
1922 Clear 4 1023 81 10000 0.51 0 23:51 24.03.2021
1923 Clear 4 1023 81 10000 1.03 0 23:28 24.03.2021
1924 Clear 4 1023 81 10000 0.51 0 22:48 24.03.2021
1925 Clear 5 1023 81 10000 1.54 0 22:27 24.03.2021
1926 Clear 5 1023 70 10000 1.03 0 21:42 24.03.2021
1927 Clear 6 1023 70 10000 1.54 0 21:23 24.03.2021
1928 Clear 5 1022 81 10000 2.06 130 20:43 24.03.2021
1929 Clear 7 1022 70 10000 0.51 0 20:20 24.03.2021
1930 Clear 8 1022 53 10000 2.06 230 19:46 24.03.2021
1931 Clear 10 1022 46 10000 1.54 0 19:28 24.03.2021
1932 Clear 13 1022 41 10000 1.03 0 18:46 24.03.2021
1933 Clear 14 1022 41 10000 1.54 0 18:23 24.03.2021
1934 Clear 16 1022 27 10000 1.54 0 17:49 24.03.2021
1935 Clear 14 1022 27 10000 1.54 0 17:29 24.03.2021
1936 Clear 15 1022 29 10000 1.54 0 16:51 24.03.2021
1937 Clear 14 1022 29 10000 2.06 320 16:29 24.03.2021
1938 Clear 14 1022 29 10000 2.06 0 15:50 24.03.2021
1939 Clear 15 1022 31 10000 2.57 300 15:30 24.03.2021
1940 Clear 14 1023 26 10000 2.06 300 14:47 24.03.2021
1941 Clear 14 1023 33 10000 1.54 0 14:26 24.03.2021
1942 Clear 14 1023 33 10000 1.03 310 13:54 24.03.2021
1943 Clear 13 1023 35 10000 1.54 280 13:27 24.03.2021
1944 Clear 12 1024 43 10000 1.03 0 12:42 24.03.2021
1945 Clear 11 1024 46 10000 1.03 320 12:23 24.03.2021
1946 Clear 9 1024 50 10000 1.03 0 11:44 24.03.2021
1947 Clear 8 1025 61 10000 1.03 0 10:59 24.03.2021
1948 Clear 8 1025 61 10000 1.03 0 10:40 24.03.2021
1949 Clear 7 1025 70 10000 1.54 0 10:20 24.03.2021
1950 Clear 6 1025 65 10000 1.54 0 09:51 24.03.2021
1951 Clear 5 1025 75 10000 2.06 110 09:20 24.03.2021
1952 Clear 3 1025 87 10000 2.57 110 08:50 24.03.2021
1953 Clear 2 1025 100 10000 2.06 130 08:26 24.03.2021
1954 Clear 2 1025 100 10000 2.06 130 08:26 24.03.2021
1955 Clear 0 1025 100 10000 2.06 150 07:37 24.03.2021
1956 Clear -2 1025 100 10000 0.51 0 06:52 24.03.2021
1957 Clear -1 1025 100 10000 0.51 0 03:57 24.03.2021
1958 Clear 1 1024 93 10000 2.06 100 00:51 24.03.2021
1959 Clear 1 1025 93 10000 1.03 0 23:59 23.03.2021
1960 Clear 2 1025 86 10000 1.03 0 23:22 23.03.2021
1961 Clear 2 1025 86 10000 1.03 0 22:54 23.03.2021
1962 Clear 2 1025 86 10000 2.06 100 22:36 23.03.2021
1963 Clouds 4 1024 81 10000 1.03 0 21:54 23.03.2021
1964 Clouds 4 1024 75 10000 0.51 0 21:34 23.03.2021
1965 Clouds 5 1024 70 10000 0.51 0 20:56 23.03.2021
1966 Clouds 5 1024 70 10000 0.51 0 20:38 23.03.2021
1967 Clouds 6 1024 70 10000 1.03 90 20:19 23.03.2021
1968 Clouds 8 1024 53 10000 1.16 103 19:41 23.03.2021
1969 Clear 9 1024 49 10000 1.03 0 19:22 23.03.2021
1970 Clouds 9 1023 49 10000 1.54 0 18:38 23.03.2021
1971 Clouds 9 1023 49 10000 2.06 10 18:19 23.03.2021
1972 Clouds 9 1023 49 10000 2.06 10 18:19 23.03.2021
1973 Clouds 10 1023 46 10000 2.06 30 17:43 23.03.2021
1974 Clouds 10 1023 43 10000 2.57 20 17:21 23.03.2021
1975 Clear 10 1023 40 10000 2.57 360 16:26 23.03.2021
1976 Clear 11 1023 40 10000 1.54 0 15:51 23.03.2021
1977 Clear 10 1023 43 10000 2.06 90 15:25 23.03.2021
1978 Clear 10 1023 40 10000 2.06 0 14:49 23.03.2021
1979 Clear 9 1023 43 10000 1.54 0 14:20 23.03.2021
1980 Clear 9 1023 43 10000 3.6 350 13:48 23.03.2021
1981 Clear 8 1024 43 10000 3.09 40 13:25 23.03.2021
1982 Clear 8 1024 46 10000 2.57 360 12:46 23.03.2021
1983 Clear 7 1024 46 10000 2.57 360 12:26 23.03.2021
1984 Clear 7 1024 49 10000 1.54 0 11:49 23.03.2021
1985 Clear 6 1024 49 10000 2.06 310 11:26 23.03.2021
1986 Clear 5 1024 60 10000 1.54 0 10:43 23.03.2021
1987 Clear 4 1024 60 10000 1.54 150 10:21 23.03.2021
1988 Clear 3 1024 65 10000 2.06 140 09:54 23.03.2021
1989 Clear 2 1024 80 10000 2.06 140 09:24 23.03.2021
1990 Clear 2 1024 80 10000 2.06 130 08:55 23.03.2021
1991 Clear 1 1024 93 10000 0.51 0 08:37 23.03.2021
1992 Clear 1 1024 93 10000 0.51 0 08:19 23.03.2021
1993 Clear -2 1023 93 10000 1.54 130 07:28 23.03.2021
1994 Clear -2 1023 93 10000 1.54 110 06:53 23.03.2021
1995 Clear -2 1023 93 10000 0.51 0 04:58 23.03.2021
1996 Clear -1 1023 86 10000 0.51 0 03:19 23.03.2021
1997 Clouds 0 1023 74 10000 1.54 50 23:57 22.03.2021
1998 Clouds 1 1023 69 10000 1.03 0 23:21 22.03.2021
1999 Clouds 1 1023 69 10000 1.03 0 22:44 22.03.2021
2000 Clouds 2 1023 65 10000 1.03 0 22:21 22.03.2021
2001 Clouds 2 1023 65 10000 1.54 0 21:50 22.03.2021
2002 Clouds 2 1023 65 10000 1.54 0 21:27 22.03.2021
2003 Clouds 2 1023 65 10000 1.03 0 20:49 22.03.2021
2004 Clouds 2 1022 60 10000 2.57 350 20:29 22.03.2021
2005 Clouds 3 1022 65 10000 2.06 0 19:58 22.03.2021
2006 Clouds 3 1022 65 10000 2.06 0 19:39 22.03.2021
2007 Clouds 3 1022 60 10000 2.06 10 19:20 22.03.2021
2008 Clouds 3 1022 60 10000 3.09 360 18:41 22.03.2021
2009 Clouds 4 1021 60 10000 3.6 360 18:22 22.03.2021
2010 Clouds 5 1021 56 10000 4.12 10 17:50 22.03.2021
2011 Clouds 5 1021 60 10000 3.09 10 17:22 22.03.2021
2012 Clouds 5 1020 60 10000 2.57 0 16:55 22.03.2021
2013 Clouds 6 1020 52 10000 2.57 20 16:37 22.03.2021
2014 Clouds 6 1020 52 10000 3.09 60 15:43 22.03.2021
2015 Clouds 6 1020 52 10000 2.57 30 15:23 22.03.2021
2016 Clouds 6 1020 52 10000 3.09 30 14:59 22.03.2021
2017 Clouds 6 1020 49 10000 3.6 0 14:34 22.03.2021
2018 Clouds 5 1020 52 10000 4.63 360 13:52 22.03.2021
2019 Clouds 5 1020 52 10000 4.63 360 13:34 22.03.2021
2020 Clouds 6 1020 53 10000 5.14 10 12:59 22.03.2021
2021 Clouds 6 1020 53 10000 5.14 10 12:38 22.03.2021
2022 Clouds 6 1020 53 10000 5.14 10 12:18 22.03.2021
2023 Clouds 5 1020 56 10000 4.12 50 11:40 22.03.2021
2024 Clouds 5 1020 56 10000 4.12 50 11:20 22.03.2021
2025 Clouds 5 1020 65 10000 4.12 60 10:42 22.03.2021
2026 Clouds 4 1020 65 10000 2.06 0 10:20 22.03.2021
2027 Clouds 4 1019 70 10000 2.06 0 09:37 22.03.2021
2028 Clouds 3 1019 75 10000 1.03 0 08:59 22.03.2021
2029 Clouds 3 1019 75 10000 1.03 0 08:40 22.03.2021
2030 Clear 2 1019 86 10000 1.03 0 08:21 22.03.2021
2031 Clouds 1 1019 93 10000 0.51 0 07:43 22.03.2021
2032 Clouds 0 1019 86 10000 0.51 0 06:52 22.03.2021
2033 Clouds 1 1018 93 10000 1.03 0 05:19 22.03.2021
2034 Clouds 2 1019 80 10000 1.03 130 00:55 22.03.2021
2035 Clouds 2 1019 80 10000 1.03 0 00:21 22.03.2021
2036 Clouds 3 1019 70 10000 0.51 0 23:52 21.03.2021
2037 Clouds 2 1019 65 10000 0.51 0 23:19 21.03.2021
2038 Clouds 3 1020 65 10000 0.51 0 22:54 21.03.2021
2039 Clouds 3 1020 75 10000 1.03 0 21:56 21.03.2021
2040 Clouds 3 1020 75 10000 1.03 0 21:38 21.03.2021
2041 Clouds 3 1020 65 10000 1.54 90 21:20 21.03.2021
2042 Clouds 3 1020 65 10000 0.51 0 20:41 21.03.2021
2043 Clouds 4 1019 60 10000 0.51 0 20:22 21.03.2021
2044 Clouds 4 1019 60 10000 1.03 0 19:50 21.03.2021
2045 Clouds 4 1019 60 10000 1.03 0 19:50 21.03.2021
2046 Clouds 4 1019 60 10000 1.54 60 19:21 21.03.2021
2047 Clouds 5 1019 56 10000 2.06 0 18:46 21.03.2021
2048 Clouds 4 1019 56 10000 1.03 0 18:27 21.03.2021
2049 Clouds 5 1019 52 10000 1.54 0 17:45 21.03.2021
2050 Clouds 5 1019 52 10000 2.06 20 17:19 21.03.2021
2051 Clouds 5 1019 52 10000 2.57 40 16:54 21.03.2021
2052 Clouds 5 1019 52 10000 2.57 40 16:54 21.03.2021
2053 Clouds 5 1019 45 10000 1.54 0 16:29 21.03.2021
2054 Clouds 5 1019 45 10000 2.06 100 15:55 21.03.2021
2055 Clouds 6 1019 45 10000 2.06 100 15:36 21.03.2021
2056 Clouds 6 1019 49 10000 2.06 90 15:18 21.03.2021
2057 Clouds 6 1019 45 10000 3.09 100 14:41 21.03.2021
2058 Clouds 6 1020 42 10000 3.09 20 14:23 21.03.2021
2059 Clouds 6 1020 42 10000 3.09 360 13:52 21.03.2021
2060 Clouds 5 1021 36 10000 2.06 0 12:46 21.03.2021
2061 Clouds 5 1021 38 10000 1.03 0 12:27 21.03.2021
2062 Clouds 5 1021 38 10000 1.03 0 12:27 21.03.2021
2063 Clouds 4 1021 41 10000 1.54 0 11:51 21.03.2021
2064 Clouds 3 1021 45 10000 1.03 0 11:27 21.03.2021
2065 Clouds 2 1021 51 10000 1.03 0 10:55 21.03.2021
2066 Clouds 2 1021 51 10000 1.03 0 10:35 21.03.2021
2067 Clouds 2 1021 64 10000 1.54 140 09:58 21.03.2021
2068 Clouds 1 1021 64 10000 1.54 140 09:38 21.03.2021
2069 Clouds 1 1021 69 10000 1.54 0 09:19 21.03.2021
2070 Clouds -1 1021 80 10000 2.06 140 08:39 21.03.2021
2071 Clouds -1 1022 80 10000 1.72 59 08:20 21.03.2021
2072 Clouds -3 1021 86 10000 1.54 250 07:36 21.03.2021
2073 Clouds -3 1021 86 10000 0.51 0 06:50 21.03.2021
2074 Clouds -2 1021 74 10000 1.03 0 04:59 21.03.2021
2075 Clouds -1 1023 69 10000 1.03 0 01:54 21.03.2021
2076 Clouds -1 1023 59 10000 1.03 0 00:40 21.03.2021
2077 Clouds -1 1023 59 10000 2.06 130 00:21 21.03.2021
2078 Clouds -2 1023 69 10000 1.54 120 23:47 20.03.2021
2079 Clouds -1 1023 64 10000 1.03 0 23:20 20.03.2021
2080 Clouds -1 1023 64 10000 2.57 170 22:54 20.03.2021
2081 Clouds -1 1023 64 10000 3.09 150 22:21 20.03.2021
2082 Clear -1 1023 59 10000 1.03 0 21:45 20.03.2021
2083 Clear -1 1023 64 10000 2.06 0 21:24 20.03.2021
2084 Clear 0 1023 51 10000 2.06 0 20:45 20.03.2021
2085 Clear 0 1023 51 10000 2.06 0 20:22 20.03.2021
2086 Clear 0 1023 51 10000 2.06 0 19:49 20.03.2021
2087 Clouds 1 1023 44 10000 2.57 60 19:26 20.03.2021
2088 Clouds 1 1023 48 10000 2.57 30 18:49 20.03.2021
2089 Clouds 2 1023 38 10000 4.12 50 18:26 20.03.2021
2090 Clouds 2 1023 38 10000 5.14 50 17:54 20.03.2021
2091 Clouds 2 1023 38 10000 5.14 50 17:32 20.03.2021
2092 Clouds 3 1023 38 10000 4.63 60 16:47 20.03.2021
2093 Clouds 3 1023 41 10000 4.63 50 16:21 20.03.2021
2094 Clouds 3 1023 41 10000 4.63 50 16:21 20.03.2021
2095 Clouds 3 1023 41 10000 5.66 60 15:59 20.03.2021
2096 Clouds 3 1023 41 10000 5.66 60 15:39 20.03.2021
2097 Clouds 3 1023 41 10000 5.66 60 15:39 20.03.2021
2098 Clouds 3 1022 45 10000 5.14 50 14:49 20.03.2021
2099 Clouds 3 1022 45 10000 5.14 50 14:49 20.03.2021
2100 Clouds 3 1022 48 10000 5.14 40 14:28 20.03.2021
2101 Clouds 3 1023 44 10000 5.14 20 13:42 20.03.2021
2102 Clouds 3 1023 52 10000 3.6 40 13:18 20.03.2021
2103 Clouds 2 1024 51 10000 4.12 40 12:27 20.03.2021
2104 Clouds 2 1023 52 10000 4.63 40 11:50 20.03.2021
2105 Clouds 1 1023 55 10000 4.12 20 11:30 20.03.2021
2106 Clouds 2 1023 55 10000 4.63 40 10:56 20.03.2021
2107 Clouds 1 1023 55 10000 4.63 40 10:37 20.03.2021
2108 Clouds 1 1023 60 10000 5.66 50 10:18 20.03.2021
2109 Clear 0 1022 69 10000 4.63 40 09:29 20.03.2021
2110 Clear -1 1022 74 10000 4.12 30 08:59 20.03.2021
2111 Clear -1 1022 74 10000 4.12 30 08:39 20.03.2021
2112 Clouds -1 1022 74 10000 3.09 20 07:54 20.03.2021
2113 Clouds -2 1022 74 10000 3.09 20 07:32 20.03.2021
2114 Clear -2 1021 74 10000 1.03 0 06:56 20.03.2021
2115 Clear -2 1021 74 10000 1.03 0 06:27 20.03.2021
2116 Clouds -1 1021 69 10000 2.57 0 04:24 20.03.2021
2117 Clouds 0 1021 74 10000 2.57 0 03:42 20.03.2021
2118 Snow 0 1021 75 10000 2.06 0 00:36 20.03.2021
2119 Clouds 0 1020 80 10000 2.06 0 23:36 19.03.2021
2120 Clouds 0 1020 80 10000 0.51 0 22:59 19.03.2021
2121 Clouds 0 1020 80 10000 0.51 0 22:40 19.03.2021
2122 Snow 0 1020 80 10000 1.54 0 22:22 19.03.2021
2123 Snow 1 1019 80 10000 1.54 0 21:36 19.03.2021
2124 Snow 1 1019 75 10000 3.09 60 21:18 19.03.2021
2125 Clouds 1 1019 86 10000 1.03 0 20:41 19.03.2021
2126 Snow 1 1018 93 10000 2.57 150 20:22 19.03.2021
2127 Snow 1 1018 93 10000 4.63 100 19:46 19.03.2021
2128 Clouds 1 1017 75 10000 4.12 50 19:21 19.03.2021
2129 Clouds 1 1017 70 10000 2.57 40 18:46 19.03.2021
2130 Clouds 2 1016 60 10000 5.14 360 18:20 19.03.2021
2131 Clouds 4 1015 45 10000 3.6 60 17:56 19.03.2021
2132 Clouds 4 1015 45 10000 3.6 60 17:36 19.03.2021
2133 Clouds 5 1015 42 10000 4.12 90 16:57 19.03.2021
2134 Clouds 5 1015 42 10000 4.12 90 16:36 19.03.2021
2135 Clouds 5 1015 45 10000 3.6 70 16:18 19.03.2021
2136 Clouds 5 1015 39 10000 3.6 40 15:32 19.03.2021
2137 Clouds 6 1015 42 10000 4.12 70 14:49 19.03.2021
2138 Clouds 5 1015 42 10000 3.6 20 14:29 19.03.2021
2139 Clouds 5 1015 45 10000 3.6 50 13:48 19.03.2021
2140 Clouds 4 1015 45 10000 4.63 60 13:18 19.03.2021
2141 Clouds 5 1015 45 10000 2.57 30 12:40 19.03.2021
2142 Clouds 4 1015 56 10000 2.06 170 11:55 19.03.2021
2143 Clear 3 1015 65 10000 2.06 200 11:22 19.03.2021
2144 Clear 2 1015 69 10000 2.57 170 10:40 19.03.2021
2145 Clear 2 1015 64 10000 3.6 160 10:21 19.03.2021
2146 Clear 1 1015 74 10000 2.06 160 09:43 19.03.2021
2147 Clear 0 1015 80 10000 2.06 120 09:22 19.03.2021
2148 Clear -1 1015 80 10000 2.06 140 08:51 19.03.2021
2149 Clear -1 1015 86 10000 2.57 120 08:26 19.03.2021
2150 Clear -2 1015 93 10000 2.06 120 07:43 19.03.2021
2151 Clear -3 1014 93 10000 2.06 140 06:59 19.03.2021
2152 Clouds -2 1015 93 10000 1.03 130 05:26 19.03.2021
2153 Clouds -2 1016 93 10000 1.54 120 00:59 19.03.2021
2154 Clouds -2 1017 93 10000 1.54 90 23:54 18.03.2021
2155 Clouds -2 1017 93 10000 1.54 140 23:28 18.03.2021
2156 Clouds -2 1017 86 10000 0.51 0 22:44 18.03.2021
2157 Clouds -1 1017 93 10000 0.51 0 22:25 18.03.2021
2158 Clouds -1 1018 93 10000 0.51 0 21:43 18.03.2021
2159 Clear -1 1018 86 10000 0.51 0 21:25 18.03.2021
2160 Clouds -1 1019 56 10000 0.76 125 20:39 18.03.2021
2161 Clouds 0 1018 74 10000 0.51 0 20:20 18.03.2021
2162 Clouds 1 1018 64 10000 1.03 0 19:42 18.03.2021
2163 Clouds 1 1018 52 10000 2.06 50 19:22 18.03.2021
2164 Clouds 3 1018 64 10000 1.03 0 18:41 18.03.2021
2165 Clouds 3 1018 56 10000 2.06 70 17:54 18.03.2021
2166 Clouds 3 1018 56 10000 3.09 60 17:26 18.03.2021
2167 Clouds 3 1019 52 10000 2.57 10 16:54 18.03.2021
2168 Clouds 4 1019 52 10000 2.57 10 16:35 18.03.2021
2169 Clouds 4 1019 56 10000 3.6 50 15:58 18.03.2021
2170 Clouds 4 1019 56 10000 3.6 50 15:40 18.03.2021
2171 Clouds 4 1019 56 10000 2.06 30 15:18 18.03.2021
2172 Clouds 3 1019 56 10000 3.6 20 14:41 18.03.2021
2173 Clouds 3 1020 48 10000 3.09 60 14:19 18.03.2021
2174 Clouds 3 1020 56 10000 2.06 70 13:37 18.03.2021
2175 Clouds 3 1020 56 10000 2.06 70 13:19 18.03.2021
2176 Clouds 3 1020 52 10000 2.57 30 12:37 18.03.2021
2177 Clouds 4 1020 56 10000 1.54 30 12:37 18.03.2021
2178 Clouds 3 1020 52 10000 2.57 30 12:19 18.03.2021
2179 Clouds 3 1021 60 10000 2.57 80 11:44 18.03.2021
2180 Clouds 2 1021 60 10000 3.09 50 11:20 18.03.2021
2181 Clouds 2 1021 65 10000 2.57 20 10:41 18.03.2021
2182 Clouds 2 1021 69 10000 3.09 360 10:23 18.03.2021
2183 Clouds 2 1021 75 10000 3.09 30 09:45 18.03.2021
2184 Clouds 1 1021 80 10000 2.06 360 09:26 18.03.2021
2185 Clouds 1 1022 80 10000 2.57 350 08:45 18.03.2021
2186 Clouds 0 1022 80 10000 1.54 0 08:23 18.03.2021
2187 Clouds 0 1022 86 10000 1.03 0 07:45 18.03.2021
2188 Snow 0 1022 93 10000 1.54 0 06:44 18.03.2021
2189 Snow 0 1022 86 10000 1.54 0 06:25 18.03.2021
2190 Snow 0 1022 86 10000 1.54 0 06:25 18.03.2021
2191 Clouds 0 1022 86 10000 1.03 0 05:26 18.03.2021
2192 Snow 1 1022 100 7000 1.03 310 00:48 18.03.2021
2193 Snow 1 1022 100 10000 0.51 0 23:37 17.03.2021
2194 Snow 1 1022 100 7000 1.03 70 22:42 17.03.2021
2195 Snow 1 1022 100 9000 1.03 0 22:23 17.03.2021
2196 Snow 1 1022 100 10000 0.51 0 21:51 17.03.2021
2197 Snow 1 1022 100 10000 0.51 0 21:32 17.03.2021
2198 Snow 1 1022 93 10000 2.06 300 20:54 17.03.2021
2199 Snow 1 1022 93 10000 2.06 300 20:54 17.03.2021
2200 Snow 2 1022 93 10000 2.06 300 20:36 17.03.2021
2201 Snow 2 1022 93 10000 3.09 340 20:18 17.03.2021
2202 Clouds 3 1021 75 10000 0.51 0 19:40 17.03.2021
2203 Rain 3 1021 75 10000 1.54 0 19:19 17.03.2021
2204 Clouds 3 1021 81 10000 1.54 0 18:50 17.03.2021
2205 Clouds 3 1021 81 10000 1.54 0 18:32 17.03.2021
2206 Clouds 5 1021 70 10000 2.57 240 17:42 17.03.2021
2207 Clouds 5 1021 75 10000 2.06 230 17:22 17.03.2021
2208 Clouds 5 1021 75 10000 1.03 0 16:43 17.03.2021
2209 Clouds 5 1021 75 10000 2.06 280 16:21 17.03.2021
2210 Clouds 6 1021 65 10000 2.06 300 15:46 17.03.2021
2211 Clouds 5 1021 70 10000 3.09 340 15:28 17.03.2021
2212 Clouds 5 1021 70 10000 3.09 340 14:40 17.03.2021
2213 Clouds 4 1021 75 10000 2.57 340 14:20 17.03.2021
2214 Clouds 4 1021 81 10000 2.57 350 13:55 17.03.2021
2215 Drizzle 4 1021 81 10000 0.51 0 13:25 17.03.2021
2216 Clouds 3 1021 81 10000 1.03 0 12:48 17.03.2021
2217 Clouds 3 1021 81 10000 1.03 0 12:27 17.03.2021
2218 Clouds 3 1021 87 10000 1.54 0 11:42 17.03.2021
2219 Drizzle 3 1021 93 10000 0.51 0 11:23 17.03.2021
2220 Drizzle 3 1021 93 10000 0.51 0 10:53 17.03.2021
2221 Clouds 3 1021 93 6000 1.03 0 10:24 17.03.2021
2222 Drizzle 3 1021 100 5000 1.03 0 09:47 17.03.2021
2223 Drizzle 2 1021 100 4000 1.03 0 09:21 17.03.2021
2224 Snow 2 1021 100 3000 1.03 0 08:55 17.03.2021
2225 Mist 1 1021 100 4000 0.12 67 08:35 17.03.2021
2226 Mist 1 1020 100 4000 0.37 206 07:48 17.03.2021
2227 Rain 1 1020 100 4900 0.51 0 07:19 17.03.2021
2228 Snow 1 1020 100 2800 0.51 0 06:36 17.03.2021
2229 Snow 1 1020 100 4500 1.16 200 04:20 17.03.2021
2230 Snow 1 1021 100 9000 0.51 0 02:49 17.03.2021
2231 Snow 1 1022 100 10000 0.51 180 00:40 17.03.2021
2232 Snow 1 1023 93 10000 0.51 0 23:28 16.03.2021
2233 Snow 2 1023 93 10000 2.57 320 22:48 16.03.2021
2234 Drizzle 2 1023 93 10000 3.09 330 22:29 16.03.2021
2235 Rain 2 1024 81 10000 2.06 300 21:47 16.03.2021
2236 Drizzle 2 1024 81 10000 2.57 310 21:29 16.03.2021
2237 Clouds 2 1024 81 10000 2.57 280 20:58 16.03.2021
2238 Clouds 3 1024 81 10000 2.06 290 20:20 16.03.2021
2239 Clouds 3 1024 70 10000 2.57 270 19:58 16.03.2021
2240 Clouds 3 1024 70 10000 2.57 270 19:40 16.03.2021
2241 Clouds 3 1024 75 10000 3.09 290 19:20 16.03.2021
2242 Clouds 4 1024 65 10000 2.06 230 18:40 16.03.2021
2243 Clouds 4 1024 65 10000 3.6 230 18:21 16.03.2021
2244 Clouds 5 1024 65 10000 3.09 240 17:47 16.03.2021
2245 Clouds 5 1024 65 10000 3.09 220 17:29 16.03.2021
2246 Clouds 5 1025 65 10000 3.6 260 16:52 16.03.2021
2247 Clouds 5 1025 61 10000 4.63 270 16:28 16.03.2021
2248 Clouds 5 1025 65 10000 4.12 270 15:47 16.03.2021
2249 Clouds 5 1025 75 10000 4.12 250 15:21 16.03.2021
2250 Clouds 5 1025 81 10000 5.66 230 14:58 16.03.2021
2251 Clouds 5 1025 81 10000 5.66 230 14:40 16.03.2021
2252 Clouds 5 1025 60 10000 4.63 270 14:20 16.03.2021
2253 Clouds 5 1025 60 10000 5.14 270 13:49 16.03.2021
2254 Clouds 4 1025 60 10000 5.14 270 13:26 16.03.2021
2255 Clouds 5 1025 61 10000 5.14 270 12:51 16.03.2021
2256 Clouds 5 1025 61 10000 5.14 270 12:33 16.03.2021
2257 Clouds 4 1025 75 10000 5.14 280 11:53 16.03.2021
2258 Clouds 4 1025 75 10000 5.14 280 11:24 16.03.2021
2259 Clouds 3 1025 70 10000 3.6 250 10:28 16.03.2021
2260 Clouds 3 1025 75 10000 3.09 260 09:59 16.03.2021
2261 Clouds 3 1025 75 10000 3.09 260 09:38 16.03.2021
2262 Clouds 2 1025 75 10000 4.12 250 09:18 16.03.2021
2263 Clouds 2 1024 100 10000 1.59 265 08:48 16.03.2021
2264 Clouds 2 1024 100 10000 1.03 0 08:30 16.03.2021
2265 Clouds 1 1023 100 10000 1.54 120 07:36 16.03.2021
2266 Clouds 0 1023 100 10000 1.03 0 06:57 16.03.2021
2267 Clouds 1 1023 100 10000 1.03 0 06:35 16.03.2021
2268 Clouds 1 1022 93 10000 0.51 0 05:35 16.03.2021
2269 Snow 1 1021 87 10000 2.57 340 02:46 16.03.2021
2270 Snow 1 1021 100 10000 1.54 290 02:24 16.03.2021
2271 Snow 1 1020 100 10000 1.03 0 00:25 16.03.2021
2272 Rain 1 1020 100 10000 1.03 0 23:29 15.03.2021
2273 Clouds 1 1019 87 10000 1.03 0 22:56 15.03.2021
2274 Clouds 2 1019 87 10000 1.03 0 22:56 15.03.2021
2275 Clouds 2 1019 87 10000 1.03 0 22:36 15.03.2021
2276 Rain 2 1020 87 10000 6.17 280 22:18 15.03.2021
2277 Rain 3 1019 75 10000 4.12 260 21:39 15.03.2021
2278 Rain 3 1018 81 10000 4.63 250 21:21 15.03.2021
2279 Clouds 3 1018 81 10000 4.12 270 20:44 15.03.2021
2280 Clouds 3 1018 75 10000 6.17 250 20:25 15.03.2021
2281 Clouds 3 1017 75 10000 4.12 260 19:56 15.03.2021
2282 Clouds 4 1017 75 10000 4.12 260 19:35 15.03.2021
2283 Clouds 4 1017 81 10000 3.6 270 18:58 15.03.2021
2284 Clouds 4 1017 81 10000 3.6 270 18:33 15.03.2021
2285 Clouds 4 1016 81 10000 4.12 290 17:57 15.03.2021
2286 Clouds 4 1016 81 10000 3.6 240 17:39 15.03.2021
2287 Clouds 4 1016 87 10000 5.14 250 17:21 15.03.2021
2288 Clouds 3 1015 93 10000 3.6 300 16:42 15.03.2021
2289 Rain 4 1015 81 10000 3.6 260 15:55 15.03.2021
2290 Rain 4 1015 81 10000 5.14 270 15:28 15.03.2021
2291 Rain 5 1015 75 10000 6.69 250 14:47 15.03.2021
2292 Clouds 5 1015 70 10000 4.63 250 14:28 15.03.2021
2293 Clouds 5 1015 75 10000 6.17 250 13:59 15.03.2021
2294 Clouds 5 1015 75 10000 6.17 250 13:35 15.03.2021
2295 Clouds 4 1015 81 10000 2.06 0 12:51 15.03.2021
2296 Clouds 4 1015 81 10000 3.6 260 12:21 15.03.2021
2297 Clouds 4 1015 81 10000 3.09 270 11:59 15.03.2021
2298 Rain 4 1015 81 10000 3.09 270 11:40 15.03.2021
2299 Clouds 3 1015 87 5000 2.57 270 11:21 15.03.2021
2300 Clouds 3 1015 93 5000 4.12 280 10:41 15.03.2021
2301 Rain 2 1015 87 4000 4.12 260 10:22 15.03.2021
2302 Rain 2 1015 87 6000 4.63 250 09:40 15.03.2021
2303 Rain 2 1015 93 6000 3.09 250 09:21 15.03.2021
2304 Rain 2 1015 87 6000 2.57 270 08:45 15.03.2021
2305 Rain 2 1015 87 10000 2.57 280 08:22 15.03.2021
2306 Snow 2 1015 87 10000 2.57 0 07:34 15.03.2021
2307 Snow 2 1015 81 10000 2.57 250 06:52 15.03.2021
2308 Snow 2 1016 87 10000 1.54 0 05:36 15.03.2021
2309 Rain 2 1017 100 10000 3.6 260 03:20 15.03.2021
2310 Clouds 2 1018 100 10000 3.09 260 00:42 15.03.2021
2311 Snow 2 1018 100 10000 1.03 0 23:24 14.03.2021
2312 Clouds 2 1019 93 10000 2.57 250 22:49 14.03.2021
2313 Rain 2 1019 93 8000 3.6 270 22:28 14.03.2021
2314 Snow 2 1018 87 10000 1.54 0 21:53 14.03.2021
2315 Clouds 2 1018 87 10000 3.6 260 21:24 14.03.2021
2316 Drizzle 2 1018 100 10000 3.6 240 20:52 14.03.2021
2317 Drizzle 2 1018 100 10000 3.6 240 20:52 14.03.2021
2318 Clouds 2 1018 100 10000 2.06 0 20:31 14.03.2021
2319 Clouds 2 1018 100 10000 1.03 0 19:59 14.03.2021
2320 Clouds 2 1018 100 10000 1.03 0 19:41 14.03.2021
2321 Snow 2 1018 100 10000 2.06 200 19:18 14.03.2021
2322 Snow 2 1018 100 10000 2.06 200 19:18 14.03.2021
2323 Clouds 2 1017 100 10000 3.6 320 18:36 14.03.2021
2324 Rain 2 1017 81 10000 4.63 260 17:54 14.03.2021
2325 Clouds 3 1017 81 10000 4.63 260 17:36 14.03.2021
2326 Clouds 3 1016 81 10000 6.17 260 17:18 14.03.2021
2327 Clouds 3 1016 81 9000 6.17 260 16:40 14.03.2021
2328 Clouds 3 1016 87 10000 4.63 250 16:19 14.03.2021
2329 Clouds 2 1016 87 5000 5.66 260 15:42 14.03.2021
2330 Rain 2 1017 79 2345 4.02 290 14:51 14.03.2021
2331 Rain 3 1016 93 5000 1.54 0 14:30 14.03.2021
2332 Clouds 2 1016 100 10000 2.06 120 13:53 14.03.2021
2333 Clouds 2 1016 100 10000 2.06 120 13:34 14.03.2021
2334 Snow 2 1016 65 5000 4.63 200 12:56 14.03.2021
2335 Snow 2 1016 65 5000 4.63 200 12:56 14.03.2021
2336 Snow 3 1016 65 5000 4.63 200 12:37 14.03.2021
2337 Rain 4 1016 60 10000 3.6 200 12:18 14.03.2021
2338 Clouds 4 1016 65 10000 3.09 230 11:38 14.03.2021
2339 Clouds 4 1016 65 10000 3.09 220 11:18 14.03.2021
2340 Clouds 4 1015 60 10000 2.57 0 10:38 14.03.2021
2341 Clouds 3 1015 60 10000 2.57 240 10:19 14.03.2021
2342 Clouds 3 1015 70 10000 6.69 250 09:55 14.03.2021
2343 Clouds 3 1015 70 10000 6.69 250 09:36 14.03.2021
2344 Clouds 3 1015 70 10000 6.69 250 09:36 14.03.2021
2345 Clouds 2 1015 80 10000 6.17 240 09:18 14.03.2021
2346 Snow 2 1015 70 10000 4.63 260 08:36 14.03.2021
2347 Snow 1 1014 80 10000 6.69 260 07:52 14.03.2021
2348 Snow 1 1013 80 10000 6.69 270 07:26 14.03.2021
2349 Clouds 2 1013 81 10000 5.14 270 05:33 14.03.2021
2350 Rain 3 1009 93 8000 4.63 280 01:19 14.03.2021
2351 Rain 4 1010 81 6000 5.14 230 00:20 14.03.2021
2352 Rain 4 1011 72 10000 5.81 275 23:58 13.03.2021
2353 Rain 5 1011 70 10000 8.94 285 23:37 13.03.2021
2354 Rain 6 1010 61 10000 6.69 200 23:18 13.03.2021
2355 Clouds 5 1010 61 10000 7.2 210 22:43 13.03.2021
2356 Clouds 5 1010 70 10000 6.69 210 21:50 13.03.2021
2357 Clouds 5 1010 70 10000 5.66 200 21:30 13.03.2021
2358 Rain 5 1010 87 7000 4.63 210 20:55 13.03.2021
2359 Rain 4 1010 87 7000 4.63 210 20:32 13.03.2021
2360 Rain 4 1010 87 7000 6.17 280 19:58 13.03.2021
2361 Rain 4 1010 87 7000 6.17 280 19:36 13.03.2021
2362 Rain 4 1010 87 10000 7.2 290 19:18 13.03.2021
2363 Rain 4 1010 87 10000 7.2 290 19:18 13.03.2021
2364 Rain 4 1010 87 10000 7.2 290 19:18 13.03.2021
2365 Rain 5 1009 87 5000 9.77 290 18:40 13.03.2021
2366 Rain 6 1011 75 10000 9.39 280 18:19 13.03.2021
2367 Rain 9 1007 37 10000 7.72 240 17:44 13.03.2021
2368 Rain 10 1009 100 10000 10.28 295 17:25 13.03.2021
2369 Rain 10 1009 100 10000 9.83 290 16:50 13.03.2021
2370 Rain 11 1007 37 10000 6.69 240 16:29 13.03.2021
2371 Clouds 11 1008 37 10000 7.2 230 15:47 13.03.2021
2372 Clouds 11 1009 37 10000 8.75 240 14:54 13.03.2021
2373 Clouds 11 1009 37 10000 8.75 240 14:36 13.03.2021
2374 Clouds 11 1009 37 10000 8.23 220 13:55 13.03.2021
2375 Clouds 11 1010 37 10000 10.8 210 13:26 13.03.2021
2376 Clouds 11 1010 40 10000 7.72 220 12:48 13.03.2021
2377 Clouds 11 1011 40 10000 8.23 240 12:28 13.03.2021
2378 Clouds 10 1011 40 10000 6.17 210 11:51 13.03.2021
2379 Clouds 10 1011 40 10000 8.23 240 11:31 13.03.2021
2380 Clouds 9 1012 43 10000 5.14 230 10:51 13.03.2021
2381 Clear 9 1012 49 10000 6.69 240 10:30 13.03.2021
2382 Clouds 8 1012 49 10000 4.63 240 09:56 13.03.2021
2383 Clouds 7 1012 49 10000 7.2 270 09:24 13.03.2021
2384 Clouds 7 1012 53 10000 2.57 240 08:44 13.03.2021
2385 Clouds 6 1012 57 10000 2.06 330 08:20 13.03.2021
2386 Clouds 6 1012 57 10000 2.06 330 07:55 13.03.2021
2387 Clouds 6 1013 57 10000 1.54 0 06:54 13.03.2021
2388 Clouds 6 1015 61 10000 2.06 210 02:56 13.03.2021
2389 Clouds 6 1015 49 10000 4.63 230 01:21 13.03.2021
2390 Rain 7 1015 43 10000 2.57 0 00:20 13.03.2021
2391 Clouds 7 1015 46 10000 2.57 240 23:33 12.03.2021
2392 Clouds 7 1015 56 10000 1.54 190 22:50 12.03.2021
2393 Clouds 6 1015 70 10000 1.54 0 22:29 12.03.2021
2394 Clouds 7 1016 43 10000 3.13 285 21:54 12.03.2021
2395 Clouds 7 1016 43 10000 0.45 290 21:36 12.03.2021
2396 Clear 6 1015 65 10000 1.03 0 21:18 12.03.2021
2397 Clear 6 1014 52 10000 2.06 190 20:41 12.03.2021
2398 Clear 7 1014 49 10000 2.06 180 20:19 12.03.2021
2399 Clear 7 1014 46 10000 2.06 190 19:43 12.03.2021
2400 Clouds 7 1014 46 10000 3.09 200 19:24 12.03.2021
2401 Clouds 8 1014 46 10000 2.57 220 18:39 12.03.2021
2402 Clouds 9 1014 43 10000 3.6 220 18:19 12.03.2021
2403 Clouds 9 1014 43 10000 4.63 230 17:41 12.03.2021
2404 Clouds 9 1014 43 10000 3.6 240 17:23 12.03.2021
2405 Clouds 9 1014 43 10000 4.12 260 16:43 12.03.2021
2406 Clouds 9 1015 46 10000 3.09 270 16:18 12.03.2021
2407 Clouds 9 1015 50 10000 4.63 270 15:37 12.03.2021
2408 Clouds 9 1015 43 10000 5.14 260 14:49 12.03.2021
2409 Clouds 9 1015 46 10000 6.17 240 14:22 12.03.2021
2410 Clouds 9 1016 46 10000 5.14 230 13:54 12.03.2021
2411 Clouds 9 1016 46 10000 5.14 230 13:36 12.03.2021
2412 Clouds 9 1016 43 10000 5.66 240 13:18 12.03.2021
2413 Clouds 9 1016 46 10000 6.69 230 12:42 12.03.2021
2414 Clouds 9 1016 53 10000 5.14 270 12:23 12.03.2021
2415 Clouds 8 1016 49 10000 8.23 220 11:52 12.03.2021
2416 Clouds 8 1016 57 10000 5.66 280 11:24 12.03.2021
2417 Clouds 7 1017 57 10000 5.14 270 10:55 12.03.2021
2418 Clear 7 1017 57 10000 4.63 280 10:26 12.03.2021
2419 Clear 7 1017 61 10000 4.12 280 09:57 12.03.2021
2420 Clear 6 1017 65 10000 4.63 270 09:26 12.03.2021
2421 Clear 6 1017 61 10000 3.09 270 08:46 12.03.2021
2422 Clouds 4 1017 75 10000 2.57 280 07:59 12.03.2021
2423 Clouds 4 1017 75 10000 2.57 280 07:38 12.03.2021
2424 Clear 4 1017 65 10000 1.03 0 06:54 12.03.2021
2425 Clear 4 1017 70 10000 4.63 270 06:28 12.03.2021
2426 Clouds 6 1016 87 10000 1.03 0 02:58 12.03.2021
2427 Rain 6 1017 70 10000 9.39 285 00:51 12.03.2021
2428 Clouds 8 1014 62 10000 5.66 270 23:31 11.03.2021
2429 Clouds 8 1014 76 10000 4.63 260 22:51 11.03.2021
2430 Clouds 8 1014 71 10000 4.12 260 22:30 11.03.2021
2431 Clouds 8 1013 66 10000 8.75 270 21:55 11.03.2021
2432 Clouds 9 1013 66 10000 8.75 270 21:36 11.03.2021
2433 Clouds 9 1013 71 10000 5.14 240 21:18 11.03.2021
2434 Clouds 9 1013 76 10000 6.69 260 20:41 11.03.2021
2435 Clouds 9 1012 81 10000 7.2 270 20:19 11.03.2021
2436 Rain 8 1013 82 4690 7.15 275 19:44 11.03.2021
2437 Rain 9 1012 82 6444 6.71 290 19:26 11.03.2021
2438 Rain 11 1011 71 6152 5.36 290 18:46 11.03.2021
2439 Rain 12 1011 57 9797 6.71 290 18:28 11.03.2021
2440 Clouds 13 1008 47 10000 4.63 240 17:44 11.03.2021
2441 Clouds 13 1009 47 10000 4.63 240 16:53 11.03.2021
2442 Rain 14 1009 44 10000 5.14 250 16:27 11.03.2021
2443 Rain 14 1010 47 10000 6.69 210 15:48 11.03.2021
2444 Rain 14 1010 47 10000 5.66 250 15:21 11.03.2021
2445 Rain 13 1011 47 10000 6.69 280 14:46 11.03.2021
2446 Clouds 14 1011 44 10000 3.09 0 14:19 11.03.2021
2447 Clouds 14 1011 44 10000 3.09 0 14:19 11.03.2021
2448 Clouds 14 1012 54 10000 4.63 300 13:49 11.03.2021
2449 Clouds 14 1012 47 10000 7.2 300 13:30 11.03.2021
2450 Clouds 14 1012 44 10000 3.6 300 12:58 11.03.2021
2451 Clouds 14 1012 44 10000 3.6 300 12:38 11.03.2021
2452 Clouds 14 1012 51 10000 6.17 300 12:20 11.03.2021
2453 Clouds 13 1013 50 10000 3.09 290 11:43 11.03.2021
2454 Clouds 12 1014 54 10000 1.03 0 11:21 11.03.2021
2455 Clouds 11 1014 53 10000 3.6 140 10:39 11.03.2021
2456 Clouds 11 1014 53 10000 3.09 120 10:19 11.03.2021
2457 Clouds 10 1015 61 10000 1.03 0 09:39 11.03.2021
2458 Clouds 9 1015 66 10000 1.54 0 09:21 11.03.2021
2459 Clouds 9 1015 75 10000 1.54 0 08:46 11.03.2021
2460 Clouds 7 1014 70 10000 1.54 160 08:18 11.03.2021
2461 Clouds 8 1014 70 10000 2.57 110 07:29 11.03.2021
2462 Clouds 8 1014 70 10000 4.63 120 06:50 11.03.2021
2463 Clouds 7 1014 65 10000 2.57 120 06:25 11.03.2021
2464 Clouds 6 1015 87 10000 0.51 0 02:50 11.03.2021
2465 -273 0 0 0 0 0 00:58 11.03.2021
2466 -273 0 0 0 0 0 00:57 11.03.2021
2467 Clouds 6 1017 75 10000 2.06 110 23:32 10.03.2021
2468 Clouds 6 1017 75 10000 2.06 110 23:32 10.03.2021
2469 Clouds 6 1017 75 10000 1.57 193 22:54 10.03.2021
2470 Clouds 5 1017 75 10000 0.51 0 22:31 10.03.2021
2471 Clouds 5 1017 81 10000 2.06 110 21:47 10.03.2021
2472 Clouds 5 1017 75 10000 2.06 100 21:24 10.03.2021
2473 Clouds 6 1017 61 10000 2.57 120 20:48 10.03.2021
2474 Clouds 6 1017 61 10000 1.03 0 20:30 10.03.2021
2475 Clouds 6 1017 65 10000 1.54 150 19:53 10.03.2021
2476 Clouds 7 1017 65 10000 1.54 150 19:30 10.03.2021
2477 Clouds 9 1017 49 10000 1.03 0 18:47 10.03.2021
2478 Clouds 9 1017 49 10000 1.03 0 18:47 10.03.2021
2479 Clouds 9 1017 49 10000 1.03 0 18:28 10.03.2021
2480 Clouds 9 1017 49 10000 2.57 290 17:57 10.03.2021
2481 Clouds 9 1017 49 10000 2.57 290 17:57 10.03.2021
2482 Clear 10 1017 43 10000 2.57 270 17:39 10.03.2021
2483 Clouds 10 1017 43 10000 3.09 290 17:19 10.03.2021
2484 Clear 10 1018 40 10000 2.57 290 16:45 10.03.2021
2485 Clouds 10 1018 37 10000 3.09 290 16:25 10.03.2021
2486 Clouds 10 1018 35 10000 2.06 280 15:48 10.03.2021
2487 Clear 10 1019 35 10000 2.06 0 15:25 10.03.2021
2488 Clear 10 1019 37 10000 1.03 0 14:57 10.03.2021
2489 Clear 10 1019 40 10000 1.54 190 14:22 10.03.2021
2490 Clear 9 1019 37 10000 1.54 210 13:53 10.03.2021
2491 Clear 9 1020 34 10000 1.03 0 13:31 10.03.2021
2492 Clear 8 1020 40 10000 0.51 0 12:47 10.03.2021
2493 Clear 7 1020 46 10000 0.51 0 12:24 10.03.2021
2494 Clear 8 1021 53 10000 1.03 0 11:50 10.03.2021
2495 Clear 6 1021 57 10000 1.03 0 11:22 10.03.2021
2496 Clear 5 1021 65 10000 1.54 0 10:50 10.03.2021
2497 Clouds 5 1021 81 8000 0.51 0 10:31 10.03.2021
2498 Clear 4 1021 75 8000 1.03 0 09:55 10.03.2021
2499 Clear 3 1021 75 8000 1.03 0 09:37 10.03.2021
2500 Clear 2 1021 86 8000 0.51 0 09:18 10.03.2021
2501 Clear 1 1021 100 8000 1.03 0 08:42 10.03.2021
2502 Clear 0 1021 100 5000 1.03 100 08:23 10.03.2021
2503 Clear -1 1020 100 5000 0.51 0 07:42 10.03.2021
2504 Clear -1 1020 100 6000 1.03 130 07:24 10.03.2021
2505 Clear -1 1020 100 5000 0.84 132 06:51 10.03.2021
2506 Clouds 1 1019 86 9000 1.03 0 02:43 10.03.2021
2507 Clouds 2 1019 87 10000 0.51 0 00:27 10.03.2021
2508 Clouds 2 1019 87 9000 0.51 0 23:27 09.03.2021
2509 Clouds 3 1019 80 10000 1.03 80 22:50 09.03.2021
2510 Clouds 3 1018 80 10000 1.03 0 22:31 09.03.2021
2511 Clouds 3 1018 75 10000 1.03 0 21:58 09.03.2021
2512 Clouds 3 1018 75 10000 1.03 0 21:38 09.03.2021
2513 Clouds 4 1018 75 10000 1.03 0 21:19 09.03.2021
2514 Clouds 4 1018 70 10000 1.54 190 20:45 09.03.2021
2515 Clouds 5 1018 65 10000 1.03 50 20:23 09.03.2021
2516 Clouds 4 1017 60 10000 1.54 40 19:57 09.03.2021
2517 Clouds 5 1017 52 10000 2.06 40 19:29 09.03.2021
2518 Clouds 7 1016 49 10000 2.06 40 18:54 09.03.2021
2519 Clouds 6 1016 49 10000 2.06 20 18:30 09.03.2021
2520 Clouds 7 1016 46 10000 1.54 350 17:58 09.03.2021
2521 Clouds 7 1016 46 10000 1.54 350 17:38 09.03.2021
2522 Clouds 7 1016 46 10000 2.06 360 17:19 09.03.2021
2523 Clouds 8 1015 46 10000 1.54 10 16:40 09.03.2021
2524 Clouds 7 1015 49 10000 2.06 340 16:20 09.03.2021
2525 Clouds 7 1015 49 10000 2.06 340 16:20 09.03.2021
2526 Clouds 7 1015 53 10000 2.06 320 15:47 09.03.2021
2527 Clouds 8 1015 49 10000 2.06 300 15:24 09.03.2021
2528 Clouds 7 1016 53 10000 2.57 310 14:42 09.03.2021
2529 Clouds 7 1016 53 10000 2.57 300 14:22 09.03.2021
2530 Clouds 7 1016 57 10000 2.57 310 13:39 09.03.2021
2531 Clouds 7 1016 57 10000 1.54 300 13:39 09.03.2021
2532 Clouds 7 1016 57 10000 1.54 300 13:20 09.03.2021
2533 Clear 6 1016 61 10000 2.57 280 12:44 09.03.2021
2534 Clear 6 1016 61 10000 2.57 300 12:25 09.03.2021
2535 Clear 5 1016 60 10000 2.06 310 11:42 09.03.2021
2536 Clear 5 1016 60 10000 2.06 310 11:42 09.03.2021
2537 Clear 4 1016 65 10000 2.06 330 11:21 09.03.2021
2538 Clear 4 1016 65 10000 2.06 330 11:21 09.03.2021
2539 Clouds 4 1016 65 10000 1.03 0 10:57 09.03.2021
2540 Clouds 4 1016 65 10000 1.03 0 10:38 09.03.2021
2541 Clear 3 1016 75 10000 0.51 0 10:20 09.03.2021
2542 Clear 3 1016 75 10000 0.51 0 10:20 09.03.2021
2543 Clouds 2 1016 80 10000 0.51 0 09:44 09.03.2021
2544 Clouds 1 1016 86 10000 0.67 30 09:26 09.03.2021
2545 Clouds 0 1016 100 9000 1.03 180 08:48 09.03.2021
2546 Clouds -1 1016 100 7000 2.06 150 08:28 09.03.2021
2547 Clouds -1 1016 100 5000 0.51 0 07:40 09.03.2021
2548 Clouds -1 1016 100 7000 0.51 0 07:21 09.03.2021
2549 Clouds -1 1015 100 8000 0.51 0 05:55 09.03.2021
2550 Clouds -1 1015 100 8000 0.51 0 05:37 09.03.2021
2551 Clouds 1 1016 93 6000 1.03 0 00:34 09.03.2021
2552 Clouds 2 1016 93 8000 0.51 0 23:45 08.03.2021
2553 Clouds 2 1016 93 8000 0.51 0 23:27 08.03.2021
2554 Clouds 2 1016 93 8000 1.25 55 22:51 08.03.2021
2555 Clouds 2 1016 93 8000 1.25 55 22:32 08.03.2021
2556 Clouds 3 1016 93 10000 0.51 0 21:57 08.03.2021
2557 Clear 3 1016 80 10000 0.51 0 21:35 08.03.2021
2558 Clear 3 1016 87 10000 0.51 0 20:48 08.03.2021
2559 Clear 4 1016 65 10000 0.51 0 20:28 08.03.2021
2560 Clear 4 1016 65 10000 0.51 0 20:28 08.03.2021
2561 Clear 5 1016 65 10000 1.54 60 19:59 08.03.2021
2562 Clear 5 1016 65 10000 1.54 60 19:36 08.03.2021
2563 Clouds 8 1015 57 10000 2.06 60 18:44 08.03.2021
2564 Clouds 7 1015 57 10000 2.57 50 18:23 08.03.2021
2565 Clouds 8 1015 53 10000 3.09 60 17:56 08.03.2021
2566 Clouds 8 1015 53 10000 3.09 60 17:38 08.03.2021
2567 Clouds 9 1015 53 10000 1.54 0 16:55 08.03.2021
2568 Clouds 9 1016 53 10000 2.06 80 16:30 08.03.2021
2569 Clouds 9 1016 50 10000 1.54 0 15:52 08.03.2021
2570 Clouds 9 1016 50 10000 1.03 0 15:30 08.03.2021
2571 Clouds 9 1016 57 10000 1.54 0 14:51 08.03.2021
2572 Clouds 9 1016 53 10000 2.57 360 14:20 08.03.2021
2573 Clouds 9 1017 62 10000 1.03 0 13:44 08.03.2021
2574 Clouds 9 1017 66 10000 1.03 0 13:21 08.03.2021
2575 Clouds 8 1017 71 10000 1.54 0 12:49 08.03.2021
2576 Clouds 7 1017 76 10000 1.03 0 12:28 08.03.2021
2577 Clouds 6 1017 81 10000 1.03 0 11:44 08.03.2021
2578 Clouds 5 1018 76 10000 1.03 0 11:19 08.03.2021
2579 Clouds 5 1018 81 10000 0.51 0 10:44 08.03.2021
2580 Clouds 5 1018 81 10000 1.54 0 10:26 08.03.2021
2581 Clouds 4 1018 87 10000 2.57 310 09:42 08.03.2021
2582 Clouds 4 1017 81 10000 2.06 310 09:23 08.03.2021
2583 Clouds 4 1017 100 7000 2.06 320 08:29 08.03.2021
2584 Rain 4 1017 93 6000 1.54 0 07:41 08.03.2021
2585 Clouds 4 1017 93 8000 1.54 300 07:20 08.03.2021
2586 Rain 4 1017 100 10000 1.54 360 04:28 08.03.2021
2587 Clouds 5 1018 100 7000 0.51 0 01:26 08.03.2021
2588 Clouds 5 1018 100 9000 1.03 0 00:33 08.03.2021
2589 Clouds 5 1018 100 9000 0.51 0 23:41 07.03.2021
2590 Clouds 5 1018 100 10000 0.51 90 23:20 07.03.2021
2591 Clouds 5 1018 100 10000 0.51 0 22:44 07.03.2021
2592 Clouds 5 1018 100 10000 0.51 0 22:44 07.03.2021
2593 Clouds 5 1018 93 10000 0.51 0 22:26 07.03.2021
2594 Clouds 5 1018 93 10000 0.51 290 21:46 07.03.2021
2595 Clouds 5 1018 93 10000 0.51 0 21:26 07.03.2021
2596 Clouds 5 1018 87 10000 0.51 0 20:50 07.03.2021
2597 Clouds 6 1018 81 10000 0.51 0 20:31 07.03.2021
2598 Clouds 7 1018 71 10000 0.51 0 19:58 07.03.2021
2599 Clouds 7 1018 71 10000 0.51 0 19:39 07.03.2021
2600 Clouds 7 1018 71 10000 2.57 300 19:21 07.03.2021
2601 Rain 7 1018 71 10000 1.54 320 18:47 07.03.2021
2602 Clouds 8 1018 66 10000 1.03 0 18:20 07.03.2021
2603 Clouds 9 1018 62 10000 2.57 310 17:44 07.03.2021
2604 Clouds 9 1018 66 10000 2.57 290 17:21 07.03.2021
2605 Clouds 9 1019 71 10000 3.09 290 16:59 07.03.2021
2606 Clouds 9 1019 71 10000 3.09 290 16:59 07.03.2021
2607 Clouds 9 1019 71 10000 3.09 290 16:39 07.03.2021
2608 Clouds 9 1019 71 10000 3.09 290 16:39 07.03.2021
2609 Clouds 9 1019 66 10000 3.09 0 16:20 07.03.2021
2610 Clouds 9 1019 66 10000 3.09 0 16:20 07.03.2021
2611 Clouds 10 1019 58 10000 1.03 0 15:45 07.03.2021
2612 Clouds 10 1019 62 10000 1.54 0 15:24 07.03.2021
2613 Clouds 10 1020 62 10000 1.54 170 14:39 07.03.2021
2614 Clouds 10 1020 62 10000 1.03 0 14:21 07.03.2021
2615 Clouds 8 1021 66 10000 1.54 0 13:42 07.03.2021
2616 Clouds 9 1021 66 10000 1.54 160 13:23 07.03.2021
2617 Clouds 8 1022 71 6000 1.03 0 12:47 07.03.2021
2618 Clouds 8 1022 71 6000 1.03 0 12:47 07.03.2021
2619 Clouds 7 1022 75 6000 1.03 0 12:29 07.03.2021
2620 Clouds 5 1022 81 6000 1.03 0 11:49 07.03.2021
2621 Clouds 6 1023 81 6000 0.51 0 11:22 07.03.2021
2622 Clouds 5 1023 87 6000 1.03 0 10:49 07.03.2021
2623 Clouds 4 1023 87 7000 1.63 301 10:30 07.03.2021
2624 Rain 2 1023 87 7000 1 292 09:46 07.03.2021
2625 Clouds 2 1023 100 6000 1.03 0 09:25 07.03.2021
2626 Clouds 2 1023 100 6000 1.03 280 08:46 07.03.2021
2627 Clouds 1 1023 100 5000 1.03 0 08:25 07.03.2021
2628 Rain 0 1023 100 6000 1.03 0 07:51 07.03.2021
2629 Rain 0 1023 100 6000 1.03 0 07:51 07.03.2021
2630 Clouds 0 1025 100 5000 0.51 0 02:43 07.03.2021
2631 Clouds 0 1025 100 7000 1.03 0 01:42 07.03.2021
2632 Clouds 0 1025 100 8000 0.51 0 23:54 06.03.2021
2633 Clouds 0 1025 100 8000 0.51 0 23:35 06.03.2021
2634 Clouds 0 1025 100 8000 0.43 119 22:48 06.03.2021
2635 Clouds 0 1025 93 9000 0.51 160 22:29 06.03.2021
2636 Clouds 0 1025 100 7000 0.51 100 21:59 06.03.2021
2637 Clear 0 1025 86 10000 0.51 0 21:24 06.03.2021
2638 Clear 1 1025 80 10000 1.03 290 20:54 06.03.2021
2639 Clear 1 1025 80 10000 1.03 290 20:34 06.03.2021
2640 Clear 2 1026 75 10000 2.06 280 19:50 06.03.2021
2641 Clouds 2 1025 75 10000 2.57 280 19:23 06.03.2021
2642 Clouds 3 1025 70 10000 2.57 290 18:56 06.03.2021
2643 Clouds 3 1025 70 10000 2.57 290 18:56 06.03.2021
2644 Clouds 3 1025 70 10000 2.57 290 18:38 06.03.2021
2645 Clouds 3 1025 70 10000 3.09 300 18:18 06.03.2021
2646 Clouds 4 1025 70 10000 2.57 310 17:44 06.03.2021
2647 Clouds 4 1025 70 10000 3.09 310 17:24 06.03.2021
2648 Clouds 5 1025 65 10000 3.6 320 16:52 06.03.2021
2649 Clouds 5 1025 65 10000 3.09 290 16:29 06.03.2021
2650 Clouds 5 1025 70 10000 2.57 320 15:54 06.03.2021
2651 Clouds 5 1025 70 10000 2.57 320 15:32 06.03.2021
2652 Clouds 5 1026 70 10000 4.12 320 14:54 06.03.2021
2653 Clouds 5 1025 65 10000 5.14 330 14:30 06.03.2021
2654 Clouds 5 1025 70 10000 4.12 330 13:42 06.03.2021
2655 Clouds 5 1026 70 10000 3.6 300 13:21 06.03.2021
2656 Clouds 5 1026 70 10000 2.06 310 12:44 06.03.2021
2657 Clouds 4 1026 70 10000 2.57 290 12:20 06.03.2021
2658 Clouds 4 1026 70 10000 2.57 290 12:20 06.03.2021
2659 Clouds 4 1026 75 10000 2.06 290 11:56 06.03.2021
2660 Clouds 3 1026 70 10000 2.06 290 11:22 06.03.2021
2661 Clouds 3 1026 75 10000 2.57 290 10:49 06.03.2021
2662 Clouds 2 1026 75 10000 2.57 300 10:24 06.03.2021
2663 Clouds 2 1025 75 10000 1.54 360 09:49 06.03.2021
2664 Clouds 1 1025 75 10000 1.54 360 09:20 06.03.2021
2665 Clouds 1 1025 80 10000 2.06 320 08:51 06.03.2021
2666 Clouds 1 1025 75 10000 1.03 0 08:22 06.03.2021
2667 Clouds 1 1025 75 10000 2.06 350 07:41 06.03.2021
2668 Clouds 0 1024 80 10000 0.51 0 07:20 06.03.2021
2669 Clouds 1 1024 80 10000 1.03 0 05:38 06.03.2021
2670 Clouds 2 1024 75 10000 2.06 50 02:51 06.03.2021
2671 Clouds 2 1024 75 10000 1.03 0 01:27 06.03.2021
2672 Clouds 2 1024 75 10000 1.54 0 00:39 06.03.2021
2673 Clouds 2 1024 75 10000 1.54 0 23:34 05.03.2021
2674 Clouds 3 1024 75 10000 2.06 50 22:58 05.03.2021
2675 Clouds 3 1024 75 10000 2.06 50 22:39 05.03.2021
2676 Clouds 3 1024 75 10000 1.03 0 22:20 05.03.2021
2677 Clouds 3 1024 81 10000 1.03 0 21:41 05.03.2021
2678 Clouds 3 1023 75 10000 1.54 0 21:22 05.03.2021
2679 Clouds 3 1023 75 10000 2.57 360 20:42 05.03.2021
2680 Clouds 3 1023 81 10000 2.06 10 20:23 05.03.2021
2681 Clouds 3 1023 81 10000 3.09 60 19:44 05.03.2021
2682 Clouds 4 1023 75 10000 1.54 350 19:22 05.03.2021
2683 Clouds 4 1022 81 10000 2.57 30 18:44 05.03.2021
2684 Clouds 4 1022 81 10000 1.03 0 18:25 05.03.2021
2685 Clouds 4 1021 81 10000 2.06 360 17:43 05.03.2021
2686 Clouds 4 1021 81 10000 2.57 350 17:24 05.03.2021
2687 Clouds 5 1021 75 10000 2.57 360 16:41 05.03.2021
2688 Clouds 5 1021 81 10000 3.09 40 16:23 05.03.2021
2689 Clouds 5 1020 81 10000 2.06 0 15:53 05.03.2021
2690 Clouds 6 1020 76 10000 2.06 30 15:26 05.03.2021
2691 Clouds 6 1020 81 10000 1.03 0 14:43 05.03.2021
2692 Drizzle 6 1020 81 10000 1.54 0 14:21 05.03.2021
2693 Clouds 6 1020 81 10000 1.54 0 13:43 05.03.2021
2694 Clouds 6 1020 81 10000 1.54 100 13:21 05.03.2021
2695 Clouds 7 1020 87 10000 2.06 70 12:42 05.03.2021
2696 Clouds 7 1019 93 10000 2.06 160 11:39 05.03.2021
2697 Clouds 7 1019 93 10000 1.54 0 11:19 05.03.2021
2698 Rain 7 1019 100 10000 2.06 140 10:43 05.03.2021
2699 Rain 6 1019 100 10000 2.57 100 10:24 05.03.2021
2700 Rain 6 1019 100 10000 1.54 0 09:54 05.03.2021
2701 Rain 6 1019 100 10000 1.54 0 09:31 05.03.2021
2702 Clouds 5 1019 100 10000 1.54 0 08:57 05.03.2021
2703 Clouds 5 1019 100 10000 1.54 0 08:38 05.03.2021
2704 Clouds 5 1018 100 10000 1.54 70 08:20 05.03.2021
2705 Clouds 5 1018 100 10000 2.06 110 07:33 05.03.2021
2706 Clouds 5 1018 100 10000 2.06 90 06:34 05.03.2021
2707 Drizzle 6 1018 100 10000 1.03 90 05:41 05.03.2021
2708 Clouds 6 1019 93 10000 4.12 130 00:59 05.03.2021
2709 Clouds 6 1019 100 10000 2.57 100 23:54 04.03.2021
2710 Clouds 6 1019 100 10000 2.06 100 23:24 04.03.2021
2711 Clouds 6 1019 93 10000 1.54 0 22:29 04.03.2021
2712 Clouds 7 1019 100 10000 2.57 120 21:53 04.03.2021
2713 Clouds 7 1019 100 10000 2.57 120 21:32 04.03.2021
2714 Rain 7 1019 100 10000 2.57 340 20:58 04.03.2021
2715 Rain 7 1019 100 10000 2.57 340 20:39 04.03.2021
2716 Rain 7 1019 81 10000 6.17 310 20:20 04.03.2021
2717 Rain 8 1018 66 10000 3.6 310 19:49 04.03.2021
2718 Rain 9 1018 62 10000 5.14 300 19:23 04.03.2021
2719 Rain 10 1020 57 10000 3.58 274 18:51 04.03.2021
2720 Clouds 11 1017 47 10000 2.06 270 18:30 04.03.2021
2721 Clouds 12 1017 50 10000 2.06 290 17:47 04.03.2021
2722 Clouds 12 1018 38 10000 2.57 280 17:29 04.03.2021
2723 Clouds 12 1018 38 10000 3.09 260 16:50 04.03.2021
2724 Clouds 12 1018 38 10000 3.09 260 16:32 04.03.2021
2725 Clouds 13 1018 38 10000 4.12 270 15:57 04.03.2021
2726 Clouds 13 1018 38 10000 4.12 270 15:38 04.03.2021
2727 Clouds 13 1019 35 10000 2.57 270 15:19 04.03.2021
2728 Clouds 14 1019 35 10000 4.12 270 14:38 04.03.2021
2729 Clouds 13 1020 41 10000 3.6 280 13:54 04.03.2021
2730 Clouds 13 1020 41 10000 3.6 280 13:33 04.03.2021
2731 Clouds 12 1021 50 10000 1.03 0 12:58 04.03.2021
2732 Clouds 12 1021 50 10000 1.03 0 12:40 04.03.2021
2733 Clouds 11 1021 62 10000 0.51 0 11:49 04.03.2021
2734 Clouds 10 1022 71 10000 0.51 0 11:28 04.03.2021
2735 Clouds 9 1022 66 10000 1.03 0 10:56 04.03.2021
2736 Clouds 8 1022 81 10000 1.03 120 10:34 04.03.2021
2737 Clouds 7 1023 87 10000 1.54 100 09:47 04.03.2021
2738 Clouds 6 1023 100 10000 1.54 150 09:25 04.03.2021
2739 Clouds 4 1023 100 10000 1.03 120 08:42 04.03.2021
2740 Clouds 4 1023 100 9000 1.03 0 08:22 04.03.2021
2741 Clouds 4 1023 93 10000 1.03 0 07:35 04.03.2021
2742 Clouds 4 1024 93 10000 1.03 0 06:28 04.03.2021
2743 Clouds 5 1024 100 10000 1.03 0 05:42 04.03.2021
2744 Clouds 4 1026 93 10000 1.03 330 01:49 04.03.2021
2745 Clouds 4 1027 93 9000 0.51 0 23:19 03.03.2021
2746 Clouds 5 1027 93 10000 1.03 140 22:29 03.03.2021
2747 Clouds 5 1028 93 10000 1.03 0 21:55 03.03.2021
2748 Clouds 5 1028 93 10000 1.03 0 21:37 03.03.2021
2749 Clouds 5 1028 100 10000 1.54 0 21:18 03.03.2021
2750 Clouds 5 1028 93 10000 1.03 0 20:42 03.03.2021
2751 Clouds 5 1028 93 10000 1.03 110 20:23 03.03.2021
2752 Clouds 6 1028 87 10000 1.03 0 19:45 03.03.2021
2753 Clouds 6 1028 81 10000 0.51 0 19:26 03.03.2021
2754 Clouds 7 1028 75 10000 0.62 154 18:48 03.03.2021
2755 Clouds 8 1028 71 10000 0.13 226 18:29 03.03.2021
2756 Clouds 8 1028 71 10000 0.13 226 17:54 03.03.2021
2757 Clear 12 1028 62 10000 1.03 0 17:20 03.03.2021
2758 Clear 12 1028 53 10000 1.03 0 16:44 03.03.2021
2759 Clear 13 1029 50 10000 1.03 0 16:26 03.03.2021
2760 Clear 13 1029 50 10000 0.51 190 15:49 03.03.2021
2761 Clear 12 1029 50 10000 0.84 289 15:28 03.03.2021
2762 Clear 13 1029 53 10000 0.51 0 14:34 03.03.2021
2763 Clear 12 1030 57 10000 0.51 0 13:59 03.03.2021
2764 Clear 12 1030 57 10000 0.51 0 13:37 03.03.2021
2765 Clear 11 1030 57 10000 1.23 285 13:18 03.03.2021
2766 Clear 10 1031 61 10000 1.28 278 12:40 03.03.2021
2767 Clear 11 1031 66 10000 0.51 0 12:22 03.03.2021
2768 Clear 8 1031 81 10000 0.51 0 11:43 03.03.2021
2769 Clear 10 1031 81 10000 0.51 0 11:21 03.03.2021
2770 Clear 7 1031 87 10000 0.51 0 10:43 03.03.2021
2771 Clear 7 1032 87 10000 0.51 0 10:20 03.03.2021
2772 Clear 6 1032 100 10000 0.51 0 09:40 03.03.2021
2773 Clear 4 1031 93 10000 0.51 0 08:49 03.03.2021
2774 Clear 4 1031 93 10000 1.03 181 08:23 03.03.2021
2775 Clear 4 1031 93 10000 1.03 181 07:52 03.03.2021
2776 Clear 4 1031 100 10000 1.03 0 06:55 03.03.2021
2777 Clouds 3 1031 100 8000 0.51 0 06:18 03.03.2021
2778 Clouds 4 1031 93 9000 0.51 0 05:30 03.03.2021
2779 Clouds 4 1031 100 9000 1.03 130 04:36 03.03.2021
2780 Clear 3 1031 100 7000 1.03 0 03:52 03.03.2021
2781 Clear 4 1031 93 9000 1.03 0 00:18 03.03.2021
2782 Clear 5 1031 100 9000 0.51 0 23:32 02.03.2021
2783 Clear 5 1031 93 8000 1.03 80 22:44 02.03.2021
2784 Clouds 5 1031 93 9000 0.51 0 22:21 02.03.2021
2785 Clouds 5 1031 93 10000 1.03 0 21:43 02.03.2021
2786 Clear 5 1031 87 10000 1.03 0 21:23 02.03.2021
2787 Clear 5 1031 87 10000 1.54 0 20:54 02.03.2021
2788 Clear 5 1031 87 10000 1.54 0 20:36 02.03.2021
2789 Clear 6 1031 81 10000 1.54 70 20:18 02.03.2021
2790 Clear 7 1030 75 10000 1.17 160 19:42 02.03.2021
2791 Clear 7 1030 66 10000 0.7 153 19:21 02.03.2021
2792 Clear 8 1030 61 10000 1.03 270 18:41 02.03.2021
2793 Clear 10 1029 54 10000 1.54 280 18:21 02.03.2021
2794 Clear 10 1029 54 10000 1.54 280 18:21 02.03.2021
2795 Clear 12 1029 47 10000 2.57 340 17:50 02.03.2021
2796 Clear 13 1030 44 10000 3.09 330 17:30 02.03.2021
2797 Clear 14 1029 44 10000 3.09 310 16:57 02.03.2021
2798 Clear 14 1029 44 10000 3.09 310 16:33 02.03.2021
2799 Clear 15 1030 29 10000 2.57 300 15:51 02.03.2021
2800 Clear 15 1030 31 10000 1.54 0 15:25 02.03.2021
2801 Clear 14 1030 36 10000 1.03 0 14:24 02.03.2021
2802 Clear 14 1030 38 10000 0.51 0 13:57 02.03.2021
2803 Clear 13 1030 38 10000 0.51 0 13:38 02.03.2021
2804 Clear 13 1031 47 10000 1.03 0 13:20 02.03.2021
2805 Clear 11 1032 54 10000 0.51 0 12:30 02.03.2021
2806 Clear 10 1032 61 10000 0.51 0 11:57 02.03.2021
2807 Clear 11 1032 61 10000 0.51 0 11:38 02.03.2021
2808 Clear 9 1032 65 10000 0.51 0 11:18 02.03.2021
2809 Clear 9 1032 75 10000 0.77 273 10:33 02.03.2021
2810 Clear 5 1032 93 10000 0.59 258 09:59 02.03.2021
2811 Clear 4 1032 93 10000 0.59 258 09:40 02.03.2021
2812 Clear 3 1031 100 10000 0.59 209 09:19 02.03.2021
2813 Clear 1 1031 100 10000 0.59 209 08:38 02.03.2021
2814 Mist 0 1031 100 4500 1 172 07:58 02.03.2021
2815 Fog 0 1031 100 5000 0.51 0 07:27 02.03.2021
2816 Fog 0 1031 100 3800 0.51 0 06:33 02.03.2021
2817 Mist 0 1030 100 4200 0.51 0 05:45 02.03.2021
2818 Mist 1 1030 100 4000 0.51 0 05:27 02.03.2021
2819 Mist 1 1030 100 3700 0.51 0 01:44 02.03.2021
2820 Mist 1 1030 100 3700 0.51 0 01:44 02.03.2021
2821 Mist 1 1030 100 3700 0.51 0 01:44 02.03.2021
2822 Fog 1 1030 100 2400 1.05 158 01:25 02.03.2021
2823 Mist 2 1029 100 3000 0.51 0 00:21 02.03.2021
2824 Mist 3 1029 100 4600 0.51 0 23:22 01.03.2021
2825 Mist 3 1029 100 4600 0.51 0 23:22 01.03.2021
2826 Clear 3 1029 61 10000 1.01 153 22:40 01.03.2021
2827 Clear 3 1029 61 10000 0.95 148 22:21 01.03.2021
2828 Mist 3 1029 100 4600 0.51 0 21:45 01.03.2021
2829 Clear 3 1029 100 6000 0.51 0 21:23 01.03.2021
2830 Clear 4 1028 93 7000 0.51 0 20:47 01.03.2021
2831 Clear 4 1028 93 10000 1.54 100 20:27 01.03.2021
2832 Clear 5 1028 81 10000 1.03 0 19:51 01.03.2021
2833 Clear 5 1028 81 10000 1.03 0 19:32 01.03.2021
2834 Clear 7 1027 66 10000 2.06 280 18:45 01.03.2021
2835 Clear 8 1027 66 10000 2.06 280 18:24 01.03.2021
2836 Clear 10 1027 54 10000 3.09 290 17:49 01.03.2021
2837 Clear 10 1027 54 10000 3.09 290 17:25 01.03.2021
2838 Clear 11 1027 54 10000 2.57 310 16:57 01.03.2021
2839 Clear 11 1027 54 10000 2.57 310 16:38 01.03.2021
2840 Clear 11 1027 50 10000 2.57 300 16:20 01.03.2021
2841 Clear 12 1027 47 10000 2.57 300 15:38 01.03.2021
2842 Clear 12 1028 50 10000 2.06 310 15:18 01.03.2021
2843 Clear 11 1028 54 10000 2.06 310 14:41 01.03.2021
2844 Clear 10 1028 50 10000 2.06 320 14:22 01.03.2021
2845 Clear 10 1028 57 10000 2.57 300 13:39 01.03.2021
2846 Clear 10 1029 66 10000 1.03 0 13:20 01.03.2021
2847 Clear 11 1029 76 8000 1.03 0 12:44 01.03.2021
2848 Clear 9 1029 100 5000 1.06 4 12:25 01.03.2021
2849 Fog 8 1030 100 2500 0.51 0 11:57 01.03.2021
2850 Fog 7 1030 100 200 1.06 4 11:30 01.03.2021
2851 Fog 3 1030 100 250 0.9 10 10:43 01.03.2021
2852 Fog 3 1030 100 200 0.8 11 10:22 01.03.2021
2853 Fog 1 1030 100 250 0.8 11 09:56 01.03.2021
2854 Fog 0 1030 100 250 0.8 11 09:36 01.03.2021
2855 Fog -1 1030 100 500 0.59 28 08:57 01.03.2021
2856 Fog -1 1030 100 500 0.59 28 08:36 01.03.2021
2857 Fog -2 1030 100 4000 0.51 190 07:33 01.03.2021
2858 Mist -2 1029 100 2400 0.51 0 06:25 01.03.2021
2859 Mist -1 1030 100 2100 0.51 0 02:40 01.03.2021
2860 Mist 0 1030 100 4700 0.42 79 23:54 28.02.2021
2861 Clear 0 1030 100 5000 0.51 0 23:20 28.02.2021
2862 Mist 0 1030 100 3800 0.51 0 22:44 28.02.2021
2863 Clear 0 1030 100 5000 0.51 0 22:21 28.02.2021
2864 Clear 1 1030 100 7000 0.51 0 21:46 28.02.2021
2865 Clear 1 1030 100 6000 0.51 0 21:23 28.02.2021
2866 Clear 1 1030 93 8000 0.51 0 20:46 28.02.2021
2867 Clear 2 1030 81 10000 1.03 0 20:27 28.02.2021
2868 Clear 3 1030 87 10000 0.51 0 19:47 28.02.2021
2869 Clear 3 1029 81 10000 2.57 280 19:27 28.02.2021
2870 Clear 4 1029 75 10000 2.57 270 18:47 28.02.2021
2871 Clear 5 1029 70 10000 3.09 280 18:28 28.02.2021
2872 Clear 5 1029 70 10000 3.09 280 18:28 28.02.2021
2873 Clear 5 1029 65 10000 3.6 300 17:58 28.02.2021
2874 Clear 5 1029 65 10000 3.6 300 17:38 28.02.2021
2875 Clear 5 1029 65 10000 3.6 300 17:38 28.02.2021
2876 Clear 6 1029 65 10000 4.12 300 17:20 28.02.2021
2877 Clear 6 1029 65 10000 4.63 300 16:48 28.02.2021
2878 Clear 6 1029 65 10000 4.12 310 16:29 28.02.2021
2879 Clear 7 1029 65 10000 3.09 300 15:51 28.02.2021
2880 Clear 7 1029 65 10000 3.6 300 15:26 28.02.2021
2881 Clouds 7 1030 65 10000 3.6 320 14:58 28.02.2021
2882 Clouds 7 1030 65 10000 3.6 320 14:32 28.02.2021
2883 Clouds 7 1030 70 10000 2.57 320 13:59 28.02.2021
2884 Clouds 7 1030 70 10000 2.57 320 13:37 28.02.2021
2885 Clouds 6 1030 65 10000 3.09 290 13:18 28.02.2021
2886 Clouds 6 1031 65 10000 2.06 270 12:51 28.02.2021
2887 Clouds 5 1031 75 10000 3.09 280 12:31 28.02.2021
2888 Clouds 4 1030 75 10000 2.57 280 11:56 28.02.2021
2889 Clouds 4 1030 75 10000 2.57 280 11:37 28.02.2021
2890 Clouds 4 1030 75 10000 3.09 280 11:18 28.02.2021
2891 Clouds 3 1030 75 10000 2.57 280 10:30 28.02.2021
2892 Clouds 3 1030 75 10000 2.06 290 09:59 28.02.2021
2893 Clouds 3 1030 75 10000 2.06 290 09:38 28.02.2021
2894 Clouds 2 1030 75 10000 2.06 300 09:20 28.02.2021
2895 Clouds 2 1030 81 10000 1.54 320 08:38 28.02.2021
2896 Clouds 2 1030 81 10000 2.06 310 08:20 28.02.2021
2897 Clouds 2 1030 75 10000 1.54 320 07:44 28.02.2021
2898 Clouds 2 1030 75 10000 1.03 0 07:25 28.02.2021
2899 Clouds 2 1030 75 10000 1.54 0 06:24 28.02.2021
2900 Clouds 2 1029 81 10000 2.06 310 05:20 28.02.2021
2901 Clouds 3 1030 70 10000 1.03 0 02:28 28.02.2021
2902 Clouds 3 1030 75 10000 1.03 0 01:28 28.02.2021
2903 Clouds 4 1030 75 10000 1.03 0 00:39 28.02.2021
2904 Clouds 4 1030 70 10000 1.03 0 23:50 27.02.2021
2905 Clouds 4 1030 70 10000 1.54 0 23:22 27.02.2021
2906 Clouds 4 1030 70 10000 2.57 0 22:50 27.02.2021
2907 Clouds 4 1030 70 10000 3.6 60 22:24 27.02.2021
2908 Clouds 4 1030 70 10000 3.09 0 21:59 27.02.2021
2909 Clouds 4 1030 70 10000 3.09 0 21:38 27.02.2021
2910 Clouds 5 1030 70 10000 4.12 20 20:56 27.02.2021
2911 Clouds 5 1030 70 10000 4.12 20 20:38 27.02.2021
2912 Clouds 5 1030 75 10000 4.12 30 20:18 27.02.2021
2913 Clouds 5 1030 70 10000 3.09 50 19:41 27.02.2021
2914 Clouds 5 1030 70 10000 3.6 50 19:23 27.02.2021
2915 Clouds 5 1030 70 10000 2.57 60 18:40 27.02.2021
2916 Clouds 5 1030 70 10000 2.57 50 18:20 27.02.2021
2917 Clouds 6 1030 70 10000 2.57 40 17:43 27.02.2021
2918 Clouds 6 1030 70 10000 3.09 60 17:20 27.02.2021
2919 Clouds 6 1030 70 10000 3.09 60 17:20 27.02.2021
2920 Clouds 6 1030 70 10000 3.6 60 16:51 27.02.2021
2921 Clouds 6 1030 70 10000 3.6 60 16:31 27.02.2021
2922 Clouds 5 1030 70 10000 3.6 50 15:53 27.02.2021
2923 Clouds 5 1030 70 10000 3.6 50 15:33 27.02.2021
2924 Clouds 5 1030 75 10000 3.6 50 14:48 27.02.2021
2925 Clouds 5 1030 75 10000 3.6 50 14:30 27.02.2021
2926 Clouds 5 1030 81 10000 4.12 40 13:50 27.02.2021
2927 Clouds 5 1030 81 10000 4.12 40 13:27 27.02.2021
2928 Clouds 5 1030 81 10000 4.63 40 12:55 27.02.2021
2929 Clouds 5 1031 81 10000 3.6 40 12:28 27.02.2021
2930 Clouds 5 1031 81 10000 4.63 60 11:57 27.02.2021
2931 Clouds 5 1030 81 10000 3.09 50 11:38 27.02.2021
2932 Clouds 5 1031 81 10000 2.06 60 11:19 27.02.2021
2933 Clouds 5 1031 81 10000 3.09 50 10:42 27.02.2021
2934 Clouds 5 1031 81 10000 4.12 50 10:19 27.02.2021
2935 Clouds 4 1031 81 10000 3.09 0 09:46 27.02.2021
2936 Clouds 4 1031 81 10000 3.09 0 09:25 27.02.2021
2937 Clouds 5 1031 81 10000 4.63 60 08:39 27.02.2021
2938 Clouds 5 1030 81 10000 4.12 70 08:20 27.02.2021
2939 Clouds 5 1030 81 10000 4.63 50 07:37 27.02.2021
2940 Clouds 6 1030 81 10000 2.06 0 04:26 27.02.2021
2941 Clouds 7 1029 81 10000 1.03 0 00:41 27.02.2021
2942 Clear 8 1029 76 10000 2.57 50 23:51 26.02.2021
2943 Clear 8 1031 76 10000 2.57 50 23:26 26.02.2021
2944 Clouds 9 1028 76 10000 0.51 0 22:44 26.02.2021
2945 Clouds 9 1028 76 10000 0.51 0 22:23 26.02.2021
2946 Clouds 9 1028 76 10000 1.03 0 21:42 26.02.2021
2947 Clouds 9 1028 81 10000 0.51 0 21:19 26.02.2021
2948 Clouds 9 1028 76 10000 0.51 0 20:44 26.02.2021
2949 Clouds 9 1028 76 10000 0.51 0 20:44 26.02.2021
2950 Clouds 10 1028 62 10000 1.03 0 20:21 26.02.2021
2951 Clouds 10 1028 66 10000 1.28 39 19:42 26.02.2021
2952 Clouds 11 1028 62 10000 1.47 35 19:22 26.02.2021
2953 Clouds 11 1028 54 10000 1.47 35 18:42 26.02.2021
2954 Rain 12 1028 47 10000 1.03 0 18:21 26.02.2021
2955 Clouds 13 1028 44 10000 1.03 300 17:40 26.02.2021
2956 Clouds 13 1028 44 10000 1.03 300 17:22 26.02.2021
2957 Rain 14 1028 38 10000 2.57 300 16:52 26.02.2021
2958 Clouds 14 1028 38 10000 2.06 310 16:31 26.02.2021
2959 Clouds 14 1028 38 10000 3.6 310 15:57 26.02.2021
2960 Clouds 14 1028 38 10000 3.6 310 15:37 26.02.2021
2961 Clouds 15 1028 33 10000 3.6 290 15:19 26.02.2021
2962 Clouds 15 1028 39 10000 3.09 310 14:44 26.02.2021
2963 Clouds 15 1029 41 10000 2.57 300 14:24 26.02.2021
2964 Clouds 14 1029 44 10000 1.03 0 13:42 26.02.2021
2965 Clear 15 1029 41 10000 1.03 340 13:23 26.02.2021
2966 Clear 14 1030 47 10000 1.11 289 12:39 26.02.2021
2967 Clear 14 1030 50 10000 1.54 0 11:54 26.02.2021
2968 Clear 13 1030 50 10000 1.54 0 11:36 26.02.2021
2969 Clear 12 1031 66 10000 1.54 170 10:48 26.02.2021
2970 Clear 9 1031 100 10000 1.54 0 09:56 26.02.2021
2971 Clear 7 1031 100 10000 0.66 253 09:31 26.02.2021
2972 Clear 5 1031 100 10000 1.03 0 08:56 26.02.2021
2973 Clear 5 1031 100 10000 1.03 150 08:25 26.02.2021
2974 Clear 4 1031 100 10000 1.54 150 07:49 26.02.2021
2975 Clear 5 1031 100 10000 0.51 0 06:36 26.02.2021
2976 Clear 4 1031 100 10000 0.51 0 05:31 26.02.2021
2977 Clear 5 1031 100 10000 0.51 0 03:47 26.02.2021
2978 Clear 5 1031 100 10000 0.51 0 02:35 26.02.2021
2979 Clear 6 1031 100 10000 0.51 0 23:56 25.02.2021
2980 Clear 6 1031 93 10000 0.51 0 23:28 25.02.2021
2981 Clear 6 1031 87 10000 3.09 100 22:49 25.02.2021
2982 Clear 7 1031 100 10000 0.51 0 22:19 25.02.2021
2983 Clear 6 1031 100 10000 1.03 0 21:41 25.02.2021
2984 Clear 7 1031 93 10000 1.03 90 21:23 25.02.2021
2985 Clear 8 1030 81 10000 1.03 130 20:41 25.02.2021
2986 Clear 8 1030 81 10000 1.54 0 20:22 25.02.2021
2987 Clear 9 1029 71 10000 1.54 0 19:52 25.02.2021
2988 Clear 10 1029 62 10000 1.03 0 19:22 25.02.2021
2989 Clear 11 1029 54 10000 1.54 270 18:57 25.02.2021
2990 Clear 12 1028 47 10000 1.54 0 18:25 25.02.2021
2991 Clear 14 1028 44 10000 1.54 200 17:49 25.02.2021
2992 Clear 16 1028 36 10000 1.03 0 17:26 25.02.2021
2993 Clear 17 1028 36 10000 2.57 270 16:43 25.02.2021
2994 Clear 17 1028 30 10000 2.06 270 16:25 25.02.2021
2995 Clear 18 1029 34 10000 2.06 220 15:30 25.02.2021
2996 Clear 17 1029 36 10000 2.57 290 14:57 25.02.2021
2997 Clear 16 1029 39 10000 2.57 310 14:22 25.02.2021
2998 Clear 16 1030 39 10000 3.09 290 13:53 25.02.2021
2999 Clear 15 1030 44 10000 2.06 290 13:26 25.02.2021
3000 Clear 15 1030 47 10000 0.51 0 12:53 25.02.2021
3001 Clear 14 1030 44 10000 1.03 220 12:21 25.02.2021
3002 Clear 13 1031 50 10000 1.54 0 11:45 25.02.2021
3003 Clear 12 1031 57 10000 1.54 130 11:19 25.02.2021
3004 Clear 11 1031 66 10000 2.06 130 10:44 25.02.2021
3005 Clear 9 1031 93 10000 0.51 0 09:59 25.02.2021
3006 Clear 8 1031 93 10000 0.51 0 09:40 25.02.2021
3007 Clear 3 1031 100 10000 0.51 0 08:54 25.02.2021
3008 Fog 4 1031 100 10000 0.51 0 08:23 25.02.2021
3009 Fog 3 1031 100 10000 0.51 0 07:52 25.02.2021
3010 Clear 3 1031 100 10000 0.51 0 07:26 25.02.2021
3011 Clear 3 1031 100 9000 0.51 0 06:47 25.02.2021
3012 Clear 6 1032 100 10000 1.03 0 01:57 25.02.2021
3013 Clear 6 1032 100 10000 1.03 0 01:34 25.02.2021
3014 Clear 6 1032 100 7000 1.29 181 00:39 25.02.2021
3015 Clear 6 1032 100 10000 1.54 110 23:51 24.02.2021
3016 Clear 7 1032 100 10000 0.51 0 23:24 24.02.2021
3017 Clear 7 1032 100 6000 0.51 0 22:44 24.02.2021
3018 Clear 7 1032 100 10000 0.51 0 22:25 24.02.2021
3019 Clear 7 1032 100 10000 0.51 0 21:45 24.02.2021
3020 Clear 8 1032 93 10000 2.06 130 20:54 24.02.2021
3021 Clear 8 1032 93 10000 1.03 120 20:30 24.02.2021
3022 Clear 9 1031 81 10000 1.54 100 19:56 24.02.2021
3023 Clear 10 1031 71 10000 0.99 162 19:26 24.02.2021
3024 Clear 11 1031 66 10000 1.54 0 18:55 24.02.2021
3025 Clear 11 1031 66 10000 1.54 0 18:34 24.02.2021
3026 Clear 14 1031 48 10000 1.54 340 17:50 24.02.2021
3027 Clear 15 1031 48 10000 1.54 340 17:29 24.02.2021
3028 Clear 16 1031 42 10000 3.09 280 16:52 24.02.2021
3029 Clear 16 1032 39 10000 3.09 270 16:22 24.02.2021
3030 Clear 16 1032 36 10000 2.06 290 15:58 24.02.2021
3031 Clear 17 1032 36 10000 2.06 290 15:36 24.02.2021
3032 Clear 17 1033 39 10000 1.54 310 14:53 24.02.2021
3033 Clear 17 1033 39 10000 1.54 310 14:32 24.02.2021
3034 Clear 16 1034 44 10000 1.03 0 13:56 24.02.2021
3035 Clear 16 1034 44 10000 1.03 0 13:38 24.02.2021
3036 Clear 15 1034 51 10000 1.03 0 13:19 24.02.2021
3037 Clear 15 1035 51 10000 0.51 0 12:43 24.02.2021
3038 Clear 14 1035 58 10000 1.03 0 12:23 24.02.2021
3039 Clear 13 1035 62 10000 0.51 0 11:45 24.02.2021
3040 Clear 11 1036 81 10000 1.54 150 10:49 24.02.2021
3041 Clear 11 1037 56 10000 0.37 243 10:29 24.02.2021
3042 Clear 5 1036 100 10000 0.51 0 09:41 24.02.2021
3043 Clear 6 1036 100 10000 0.76 180 09:18 24.02.2021
3044 Clear 4 1036 100 10000 0.76 180 08:33 24.02.2021
3045 Clear 3 1036 100 10000 0.51 0 07:55 24.02.2021
3046 Clear 3 1036 100 6000 0.51 0 07:19 24.02.2021
3047 Clear 4 1036 100 10000 0.51 0 06:20 24.02.2021
3048 Clear 6 1037 100 10000 0.51 0 02:47 24.02.2021
3049 Clear 7 1037 100 10000 0.51 110 23:59 23.02.2021
3050 Clear 7 1037 87 10000 1.03 0 23:20 23.02.2021
3051 Clear 6 1036 93 10000 0.51 0 22:37 23.02.2021
3052 Clear 6 1036 87 10000 1.03 0 22:18 23.02.2021
3053 Clear 7 1036 87 10000 0.51 0 21:40 23.02.2021
3054 Clear 7 1036 93 10000 1.54 130 21:22 23.02.2021
3055 Clear 7 1036 93 10000 1.03 0 20:47 23.02.2021
3056 Clear 8 1036 76 10000 1.54 0 20:28 23.02.2021
3057 Clear 8 1035 81 10000 0.51 0 19:47 23.02.2021
3058 Clear 9 1035 76 10000 1.03 0 19:27 23.02.2021
3059 Clear 10 1035 62 10000 1.03 0 18:50 23.02.2021
3060 Clear 12 1034 54 10000 1.03 0 18:29 23.02.2021
3061 Clear 13 1034 41 10000 2.06 210 17:54 23.02.2021
3062 Clear 14 1034 39 10000 1.03 0 17:29 23.02.2021
3063 Clear 15 1034 36 10000 1.03 320 16:47 23.02.2021
3064 Clear 16 1034 39 10000 1.54 330 16:25 23.02.2021
3065 Clear 16 1034 39 10000 2.57 320 15:52 23.02.2021
3066 Clear 16 1034 39 10000 2.57 320 15:34 23.02.2021
3067 Clear 16 1034 39 10000 3.09 320 14:58 23.02.2021
3068 Clear 15 1034 39 10000 3.09 320 14:40 23.02.2021
3069 Clear 15 1034 36 10000 2.57 310 14:19 23.02.2021
3070 Clear 15 1035 38 10000 2.06 320 13:39 23.02.2021
3071 Clear 15 1035 41 10000 1.03 0 13:19 23.02.2021
3072 Clear 14 1035 47 10000 2.57 300 12:46 23.02.2021
3073 Clear 13 1035 50 10000 1.03 260 12:19 23.02.2021
3074 Clear 12 1035 53 10000 0.51 0 11:45 23.02.2021
3075 Clear 12 1035 53 10000 0.51 0 11:45 23.02.2021
3076 Clear 11 1035 71 10000 0.51 0 11:18 23.02.2021
3077 Clear 10 1035 75 10000 0.51 0 10:40 23.02.2021
3078 Clear 10 1035 75 10000 0.51 0 10:40 23.02.2021
3079 Clear 9 1035 75 10000 0.51 0 10:19 23.02.2021
3080 Clear 6 1035 87 10000 0.6 340 09:42 23.02.2021
3081 Clear 5 1034 100 10000 0.51 0 09:21 23.02.2021
3082 Clear 4 1034 100 10000 0.51 0 08:47 23.02.2021
3083 Clear 3 1034 100 10000 1.03 0 08:21 23.02.2021
3084 Clear 3 1033 100 10000 1.03 140 07:39 23.02.2021
3085 Clear 3 1033 100 10000 1.03 0 05:28 23.02.2021
3086 Clear 4 1031 93 10000 0.51 0 02:54 23.02.2021
3087 Clear 4 1031 93 10000 0.51 0 02:33 23.02.2021
3088 Clear 4 1030 100 10000 1.03 0 00:20 23.02.2021
3089 Clear 3 1030 100 10000 0.51 0 23:43 22.02.2021
3090 Clear 4 1029 87 10000 0.51 0 22:57 22.02.2021
3091 Clear 4 1029 87 10000 0.51 0 22:38 22.02.2021
3092 Clear 4 1029 93 10000 1.03 0 22:19 22.02.2021
3093 Clouds 5 1028 81 10000 0.51 0 21:38 22.02.2021
3094 Clouds 5 1028 93 10000 1.03 90 21:20 22.02.2021
3095 Clouds 6 1027 81 10000 0.51 0 20:45 22.02.2021
3096 Clouds 6 1027 87 10000 1.03 110 20:26 22.02.2021
3097 Clouds 7 1026 81 10000 1.03 0 19:49 22.02.2021
3098 Clouds 7 1026 75 10000 2.06 160 19:30 22.02.2021
3099 Clear 8 1025 70 10000 1.03 0 18:49 22.02.2021
3100 Clouds 9 1024 66 10000 0.51 0 18:29 22.02.2021
3101 Clear 10 1024 50 10000 0.51 0 17:49 22.02.2021
3102 Clear 12 1024 47 10000 1.54 190 17:20 22.02.2021
3103 Clear 12 1023 50 10000 1.05 215 16:50 22.02.2021
3104 Clear 13 1023 47 10000 1.03 0 16:29 22.02.2021
3105 Clear 13 1022 44 10000 2.06 340 15:32 22.02.2021
3106 Clear 12 1022 44 10000 3.09 330 14:54 22.02.2021
3107 Clouds 13 1022 43 10000 3.6 300 14:35 22.02.2021
3108 Clear 12 1022 50 10000 1.54 280 13:54 22.02.2021
3109 Clear 12 1022 50 10000 1.54 280 13:33 22.02.2021
3110 Clear 11 1022 47 10000 1.54 0 12:52 22.02.2021
3111 Clear 11 1022 46 10000 1.03 0 12:23 22.02.2021
3112 Clear 11 1022 53 10000 1.54 0 11:52 22.02.2021
3113 Clear 9 1022 65 10000 1.03 0 11:31 22.02.2021
3114 Clear 9 1022 75 10000 0.51 0 10:59 22.02.2021
3115 Clear 7 1022 75 10000 0.51 0 10:39 22.02.2021
3116 Clear 6 1022 81 10000 1.03 0 10:19 22.02.2021
3117 Clear 5 1022 93 10000 1.54 0 09:37 22.02.2021
3118 Clear 4 1022 93 10000 1.03 0 09:19 22.02.2021
3119 Clear 3 1021 100 10000 1.12 180 08:49 22.02.2021
3120 Clear 1 1021 100 10000 1.03 0 08:20 22.02.2021
3121 Clear 2 1021 100 10000 1.03 0 07:42 22.02.2021
3122 Clear 1 1021 100 10000 1.03 0 07:20 22.02.2021
3123 Clear -1 1021 100 10000 0.51 0 06:25 22.02.2021
3124 Clear 1 1020 100 10000 0.51 0 03:49 22.02.2021
3125 Clear 2 1020 100 10000 0.51 0 03:20 22.02.2021
3126 Clear 2 1019 100 10000 0.51 0 00:53 22.02.2021
3127 Clear 3 1018 100 10000 1.03 0 00:28 22.02.2021
3128 Clear 3 1018 93 10000 1.03 0 23:52 21.02.2021
3129 Clear 3 1017 86 10000 1.54 0 22:59 21.02.2021
3130 Clear 4 1017 93 10000 1.03 0 22:27 21.02.2021
3131 Clear 4 1017 93 10000 0.51 0 21:51 21.02.2021
3132 Clear 4 1017 93 10000 0.51 0 21:32 21.02.2021
3133 Clear 5 1017 81 10000 1.03 0 20:55 21.02.2021
3134 Clear 6 1016 81 10000 0.51 0 20:22 21.02.2021
3135 Clear 6 1016 81 10000 0.51 0 19:59 21.02.2021
3136 Clear 6 1016 81 10000 0.51 0 19:40 21.02.2021
3137 Clear 7 1016 70 10000 1.03 120 19:21 21.02.2021
3138 Clear 10 1016 50 10000 0.51 0 18:28 21.02.2021
3139 Clear 11 1016 47 10000 1.03 180 17:57 21.02.2021
3140 Clear 13 1016 51 10000 1.54 230 17:25 21.02.2021
3141 Clear 14 1016 39 10000 1.54 230 16:53 21.02.2021
3142 Clear 14 1016 39 10000 1.54 230 16:31 21.02.2021
3143 Clear 15 1016 38 10000 0.51 0 15:43 21.02.2021
3144 Clear 14 1016 36 10000 1.03 0 15:19 21.02.2021
3145 Clear 14 1017 38 10000 3.6 320 14:40 21.02.2021
3146 Clear 13 1017 41 10000 3.6 300 14:19 21.02.2021
3147 Clear 13 1017 41 10000 3.6 280 13:30 21.02.2021
3148 Clear 12 1018 41 10000 3.6 290 12:59 21.02.2021
3149 Clear 12 1018 50 10000 1.54 0 12:28 21.02.2021
3150 Clear 10 1018 53 10000 1.03 0 11:43 21.02.2021
3151 Clear 9 1019 61 10000 2.06 190 10:57 21.02.2021
3152 Clear 7 1019 70 10000 1.54 110 10:22 21.02.2021
3153 Clear 6 1019 87 10000 0.51 0 09:52 21.02.2021
3154 Clear 4 1019 100 10000 0.51 0 09:27 21.02.2021
3155 Clear 1 1019 100 10000 1.03 0 08:43 21.02.2021
3156 Clear 1 1019 100 10000 0.51 0 08:19 21.02.2021
3157 Clear 1 1019 100 8000 0.69 167 07:31 21.02.2021
3158 Clear 1 1019 100 9000 0.51 0 06:47 21.02.2021
3159 Clear 3 1019 100 10000 0.51 0 02:48 21.02.2021
3160 Clear 3 1019 100 10000 0.51 0 02:29 21.02.2021
3161 Clear 4 1019 100 10000 0.51 0 00:37 21.02.2021
3162 Clear 4 1019 100 10000 0.51 0 00:18 21.02.2021
3163 Clear 4 1019 100 10000 1.03 0 22:59 20.02.2021
3164 Clear 4 1019 100 10000 0.51 0 22:39 20.02.2021
3165 Clear 4 1019 100 10000 0.51 0 22:19 20.02.2021
3166 Clear 5 1018 100 10000 1.54 160 21:41 20.02.2021
3167 Clear 5 1018 100 10000 0.51 0 21:19 20.02.2021
3168 Clear 5 1018 93 10000 1.54 0 20:42 20.02.2021
3169 Clear 6 1018 100 10000 1.03 0 20:21 20.02.2021
3170 Clear 6 1018 93 10000 1.03 0 19:49 20.02.2021
3171 Clear 7 1018 87 10000 1.03 0 19:19 20.02.2021
3172 Clear 8 1017 76 10000 0.51 0 18:38 20.02.2021
3173 Clear 10 1017 62 10000 1.54 270 18:19 20.02.2021
3174 Clear 12 1017 62 10000 2.06 260 17:37 20.02.2021
3175 Clear 13 1017 44 10000 2.06 280 16:54 20.02.2021
3176 Clear 13 1017 44 10000 2.06 280 16:32 20.02.2021
3177 Clear 13 1018 44 10000 2.06 280 15:46 20.02.2021
3178 Clear 13 1018 47 10000 2.06 0 15:21 20.02.2021
3179 Clear 14 1018 47 10000 2.06 260 14:44 20.02.2021
3180 Clear 14 1018 47 10000 1.54 0 14:23 20.02.2021
3181 Clear 12 1019 54 10000 1.03 0 13:41 20.02.2021
3182 Clear 12 1019 50 10000 1.03 0 13:23 20.02.2021
3183 Clear 11 1019 54 10000 2.06 160 12:50 20.02.2021
3184 Clear 11 1020 58 10000 1.54 0 12:23 20.02.2021
3185 Clear 10 1020 66 10000 2.06 130 11:43 20.02.2021
3186 Clear 9 1020 66 10000 3.6 120 11:24 20.02.2021
3187 Clear 9 1020 81 10000 3.6 110 10:47 20.02.2021
3188 Clear 5 1020 100 10000 2.57 140 09:54 20.02.2021
3189 Clear 4 1020 100 10000 1.03 0 09:22 20.02.2021
3190 Clear 3 1020 100 10000 1.03 0 08:34 20.02.2021
3191 Fog 2 1019 100 10000 0.51 0 07:55 20.02.2021
3192 Clouds 4 1019 100 9000 0.51 0 02:46 20.02.2021
3193 Clear 4 1019 100 10000 1.03 0 02:22 20.02.2021
3194 Clear 4 1019 100 10000 0.51 0 01:48 20.02.2021
3195 Clear 5 1019 100 10000 1.03 0 00:45 20.02.2021
3196 Clear 4 1019 100 10000 1.54 140 23:51 19.02.2021
3197 Clouds 5 1019 100 9000 0.51 340 22:56 19.02.2021
3198 Clear 5 1019 100 10000 1.03 0 22:27 19.02.2021
3199 Clear 5 1019 100 10000 1.03 110 21:50 19.02.2021
3200 Clear 6 1019 93 10000 1.03 0 21:30 19.02.2021
3201 Clear 5 1019 100 10000 1.03 140 20:48 19.02.2021
3202 Clear 7 1019 93 10000 1.03 0 20:28 19.02.2021
3203 Clear 6 1018 93 10000 1.03 0 19:55 19.02.2021
3204 Clear 8 1018 76 10000 1.03 0 19:24 19.02.2021
3205 Clear 9 1018 66 10000 1.03 250 18:56 19.02.2021
3206 Clear 9 1018 66 10000 1.03 250 18:33 19.02.2021
3207 Clear 12 1018 58 10000 1.54 240 17:49 19.02.2021
3208 Clear 13 1018 58 10000 1.54 220 16:52 19.02.2021
3209 Clear 13 1018 51 10000 1.03 0 16:27 19.02.2021
3210 Clear 13 1018 51 10000 1.54 300 15:58 19.02.2021
3211 Clear 14 1018 51 10000 0.51 0 15:31 19.02.2021
3212 Clear 13 1018 47 10000 1.03 0 14:56 19.02.2021
3213 Clear 13 1018 47 10000 1.03 0 14:38 19.02.2021
3214 Clear 13 1019 50 10000 1.03 0 13:58 19.02.2021
3215 Clear 13 1019 50 10000 1.03 0 13:39 19.02.2021
3216 Clear 12 1019 50 10000 0.44 268 13:19 19.02.2021
3217 Clear 11 1020 58 10000 1.03 0 12:41 19.02.2021
3218 Clear 11 1020 54 10000 0.51 0 12:22 19.02.2021
3219 Clouds 11 1020 62 10000 1.54 170 11:48 19.02.2021
3220 Clouds 10 1020 66 10000 1.54 150 11:22 19.02.2021
3221 Clouds 10 1020 76 10000 1.03 0 10:42 19.02.2021
3222 Clouds 8 1020 87 10000 2.06 110 10:20 19.02.2021
3223 Clouds 6 1020 81 10000 2.57 130 09:39 19.02.2021
3224 Clouds 6 1020 87 10000 0.51 0 09:21 19.02.2021
3225 Clouds 5 1020 93 10000 1.03 0 08:49 19.02.2021
3226 Clouds 5 1020 93 10000 1.03 0 08:22 19.02.2021
3227 Clouds 4 1019 93 10000 1.03 0 07:48 19.02.2021
3228 Clouds 5 1019 93 10000 1.54 0 07:27 19.02.2021
3229 Clouds 4 1019 93 10000 0.51 0 06:48 19.02.2021
3230 Clouds 5 1019 87 10000 1.54 80 05:21 19.02.2021
3231 Clouds 5 1018 87 10000 1.54 80 04:41 19.02.2021
3232 Clouds 5 1018 93 10000 2.57 120 01:47 19.02.2021
3233 Clouds 4 1018 100 10000 0.51 0 00:36 19.02.2021
3234 Clouds 4 1018 100 10000 1.54 140 23:52 18.02.2021
3235 Clouds 4 1018 100 10000 1.54 140 23:33 18.02.2021
3236 Clouds 4 1018 100 10000 0.51 0 22:44 18.02.2021
3237 Clear 4 1017 100 10000 1.03 0 22:26 18.02.2021
3238 Clear 4 1017 93 10000 2.06 110 21:45 18.02.2021
3239 Clear 4 1017 100 10000 1.54 0 21:24 18.02.2021
3240 Clear 4 1016 87 10000 1.03 0 20:41 18.02.2021
3241 Clear 4 1016 87 10000 1.03 0 20:41 18.02.2021
3242 Clear 4 1016 81 10000 2.06 0 20:23 18.02.2021
3243 Clear 5 1016 75 10000 3.09 360 19:46 18.02.2021
3244 Clear 4 1015 81 10000 2.57 350 19:26 18.02.2021
3245 Clear 5 1015 81 10000 1.54 320 18:52 18.02.2021
3246 Clear 5 1015 81 10000 1.03 0 18:27 18.02.2021
3247 Clear 7 1015 66 10000 1.03 140 17:52 18.02.2021
3248 Clear 7 1015 71 10000 1.03 0 17:25 18.02.2021
3249 Clear 8 1015 66 10000 1.03 0 16:53 18.02.2021
3250 Clouds 7 1016 63 10000 0.57 267 16:35 18.02.2021
3251 Clear 8 1016 57 10000 0.51 0 15:55 18.02.2021
3252 Clear 8 1016 57 10000 0.51 0 15:36 18.02.2021
3253 Clear 8 1016 61 10000 1.03 240 15:18 18.02.2021
3254 Clear 8 1016 57 10000 1.03 0 14:42 18.02.2021
3255 Clear 8 1017 57 10000 1.03 0 14:23 18.02.2021
3256 Clear 9 1017 57 10000 1.03 0 13:44 18.02.2021
3257 Clouds 10 1017 57 10000 1.03 220 13:18 18.02.2021
3258 Clouds 7 1017 65 10000 0.39 267 12:42 18.02.2021
3259 Clouds 7 1018 61 10000 0.93 273 12:21 18.02.2021
3260 Clouds 6 1017 65 10000 2.06 100 11:46 18.02.2021
3261 Clouds 5 1018 81 10000 2.06 160 11:25 18.02.2021
3262 Clouds 6 1018 93 10000 1.03 0 10:44 18.02.2021
3263 Clear 4 1018 100 10000 1.03 0 10:25 18.02.2021
3264 Clear 3 1018 100 10000 1.03 0 09:39 18.02.2021
3265 Clear 2 1018 100 10000 1.03 0 09:20 18.02.2021
3266 Clear 1 1018 100 10000 1.54 0 08:40 18.02.2021
3267 Clear 0 1018 100 10000 1.03 0 08:21 18.02.2021
3268 Clear 0 1019 100 10000 1.03 130 07:32 18.02.2021
3269 Clouds 0 1019 100 10000 1.03 0 06:41 18.02.2021
3270 Clear 2 1020 100 10000 1.03 0 02:29 18.02.2021
3271 Clear 3 1020 100 10000 2.57 100 23:51 17.02.2021
3272 Clear 3 1021 100 10000 1.54 120 23:21 17.02.2021
3273 Clear 3 1021 100 10000 1.54 100 22:49 17.02.2021
3274 Clear 3 1021 100 10000 1.03 0 22:25 17.02.2021
3275 Clear 2 1021 100 10000 0.51 0 21:48 17.02.2021
3276 Clear 3 1021 100 10000 1.03 0 21:22 17.02.2021
3277 Clear 3 1021 100 10000 2.06 150 20:47 17.02.2021
3278 Clear 4 1021 100 10000 1.54 130 20:28 17.02.2021
3279 Clear 4 1021 93 10000 1.03 140 19:46 17.02.2021
3280 Clear 5 1021 87 10000 0.51 0 19:27 17.02.2021
3281 Clear 6 1020 87 10000 1.34 136 18:41 17.02.2021
3282 Clear 7 1020 71 10000 1.03 0 18:22 17.02.2021
3283 Clear 7 1020 71 10000 1.03 0 18:22 17.02.2021
3284 Clear 9 1020 66 10000 1.54 180 17:40 17.02.2021
3285 Clear 10 1021 66 10000 1.54 210 17:18 17.02.2021
3286 Clear 10 1021 54 10000 1.03 0 16:43 17.02.2021
3287 Clear 11 1021 54 10000 1.03 0 16:22 17.02.2021
3288 Clear 11 1021 54 10000 1.03 0 15:44 17.02.2021
3289 Clear 11 1021 54 10000 1.03 0 15:44 17.02.2021
3290 Clear 11 1022 58 10000 1.03 0 15:23 17.02.2021
3291 Clouds 11 1022 58 10000 1.03 0 14:46 17.02.2021
3292 Clouds 11 1022 58 10000 1.03 0 14:28 17.02.2021
3293 Clouds 11 1022 58 10000 1.54 0 13:45 17.02.2021
3294 Clouds 10 1023 62 10000 1.54 150 13:27 17.02.2021
3295 Clouds 10 1023 71 10000 2.06 150 12:47 17.02.2021
3296 Clouds 10 1023 87 10000 2.06 150 12:23 17.02.2021
3297 Clouds 9 1023 100 10000 2.06 190 11:42 17.02.2021
3298 Clouds 8 1023 100 6000 1.24 276 11:19 17.02.2021
3299 Fog 7 1024 100 1200 1.03 0 10:45 17.02.2021
3300 Clouds 8 1025 72 10000 2.68 288 10:25 17.02.2021
3301 Clouds 6 1025 73 10000 2.68 269 09:45 17.02.2021
3302 Fog 5 1023 100 200 1.54 0 09:26 17.02.2021
3303 Fog 5 1023 100 500 1.03 0 08:43 17.02.2021
3304 Fog 4 1023 100 5000 1.54 0 08:22 17.02.2021
3305 Fog 5 1022 100 5000 0.51 0 07:34 17.02.2021
3306 Fog 4 1022 100 750 1.03 0 06:35 17.02.2021
3307 Clouds 7 1023 79 10000 1.34 336 02:42 17.02.2021
3308 Clouds 7 1023 79 10000 3.58 272 02:21 17.02.2021
3309 Snow 5 1020 93 10000 1.03 0 00:33 17.02.2021
3310 Snow 6 1020 100 9000 1.03 0 23:57 16.02.2021
3311 Snow 6 1020 100 9000 1.03 0 23:38 16.02.2021
3312 Clouds 3 1020 100 10000 0.51 0 22:44 16.02.2021
3313 Clouds 3 1020 100 10000 1.03 0 22:25 16.02.2021
3314 Clouds 3 1020 100 10000 1.03 0 22:25 16.02.2021
3315 Clouds 3 1020 100 10000 1.03 0 22:25 16.02.2021
3316 Clouds 3 1019 100 10000 0.51 0 21:57 16.02.2021
3317 Clouds 3 1019 100 10000 0.51 0 21:39 16.02.2021
3318 Clear 3 1019 100 10000 0.51 0 21:20 16.02.2021
3319 Clear 3 1019 100 10000 0.51 0 20:42 16.02.2021
3320 Clear 3 1019 100 10000 1.03 0 20:20 16.02.2021
3321 Clear 4 1019 93 10000 0.51 0 19:44 16.02.2021
3322 Clear 4 1019 81 10000 1.03 0 19:25 16.02.2021
3323 Clear 5 1018 75 10000 1.54 0 18:41 16.02.2021
3324 Clear 5 1018 65 10000 1.54 0 18:23 16.02.2021
3325 Clear 7 1018 61 10000 2.06 310 17:53 16.02.2021
3326 Clouds 7 1019 55 10000 1.42 235 17:27 16.02.2021
3327 Clouds 9 1019 57 10000 2.57 290 16:52 16.02.2021
3328 Clouds 9 1019 57 10000 2.57 290 16:52 16.02.2021
3329 Clear 9 1019 57 10000 1.54 270 16:30 16.02.2021
3330 Clear 9 1019 57 10000 1.54 270 16:30 16.02.2021
3331 Clouds 9 1020 55 10000 0.45 250 15:53 16.02.2021
3332 Clouds 9 1021 54 10000 1.43 255 15:32 16.02.2021
3333 Clouds 9 1021 56 10000 0.45 285 14:58 16.02.2021
3334 Clear 9 1021 50 10000 1.03 0 14:38 16.02.2021
3335 Clear 9 1021 53 10000 1.03 0 14:19 16.02.2021
3336 Clear 9 1022 53 10000 2.57 310 13:40 16.02.2021
3337 Clear 9 1022 57 10000 1.03 0 12:53 16.02.2021
3338 Clear 7 1023 61 10000 1.03 0 12:29 16.02.2021
3339 Clouds 7 1023 75 10000 1.03 0 11:58 16.02.2021
3340 Clouds 7 1023 75 10000 1.03 0 11:39 16.02.2021
3341 Clouds 6 1024 75 10000 1.03 0 11:19 16.02.2021
3342 Clouds 6 1024 75 10000 1.03 0 10:45 16.02.2021
3343 Clouds 5 1024 87 10000 1.03 0 10:27 16.02.2021
3344 Clouds 4 1025 93 10000 1.03 0 09:52 16.02.2021
3345 Clouds 2 1025 93 10000 1.54 150 09:26 16.02.2021
3346 Clouds 2 1025 100 10000 1.03 0 08:51 16.02.2021
3347 Clouds 2 1025 93 10000 1.03 0 08:28 16.02.2021
3348 Clouds 2 1025 93 10000 1.54 0 07:45 16.02.2021
3349 Clouds 2 1026 100 10000 2.57 100 06:51 16.02.2021
3350 Rain 2 1028 80 10000 0.51 0 02:40 16.02.2021
3351 Clouds 2 1029 80 10000 1.03 0 23:55 15.02.2021
3352 Clouds 2 1029 75 10000 1.03 0 23:29 15.02.2021
3353 Clouds 3 1029 80 10000 3.09 130 22:50 15.02.2021
3354 Clouds 3 1030 80 10000 2.57 150 22:28 15.02.2021
3355 Clouds 3 1030 69 10000 1.54 100 21:47 15.02.2021
3356 Rain 3 1030 75 10000 1.54 90 21:24 15.02.2021
3357 Rain 2 1030 69 10000 2.06 100 20:55 15.02.2021
3358 Clouds 2 1030 69 10000 2.06 100 20:37 15.02.2021
3359 Clouds 2 1030 75 10000 1.54 90 19:51 15.02.2021
3360 Clouds 2 1030 75 10000 1.54 0 19:29 15.02.2021
3361 Clouds 2 1030 70 10000 1.03 0 18:57 15.02.2021
3362 Clouds 3 1030 60 10000 1.54 100 18:29 15.02.2021
3363 Clouds 3 1030 60 10000 2.57 120 17:58 15.02.2021
3364 Clouds 3 1030 60 10000 2.57 120 17:40 15.02.2021
3365 Clouds 4 1031 60 10000 2.06 120 17:21 15.02.2021
3366 Rain 4 1031 60 10000 2.57 150 16:45 15.02.2021
3367 Rain 4 1031 60 10000 2.57 160 16:22 15.02.2021
3368 Rain 4 1031 60 10000 3.09 150 15:44 15.02.2021
3369 Rain 4 1031 56 10000 1.54 0 15:19 15.02.2021
3370 Clouds 4 1031 56 10000 1.03 0 14:48 15.02.2021
3371 Clouds 5 1031 56 10000 1.03 0 14:21 15.02.2021
3372 Rain 4 1032 56 10000 0.51 0 13:49 15.02.2021
3373 Clouds 4 1032 56 10000 1.03 0 13:22 15.02.2021
3374 Clouds 3 1033 60 10000 1.03 0 12:51 15.02.2021
3375 Clouds 3 1033 60 10000 1.54 130 12:27 15.02.2021
3376 Clouds 2 1033 69 10000 1.03 0 11:53 15.02.2021
3377 Clouds 2 1033 69 10000 1.54 140 11:26 15.02.2021
3378 Clouds 1 1033 74 10000 1.54 0 10:55 15.02.2021
3379 Clouds 1 1033 74 10000 1.54 0 10:36 15.02.2021
3380 Clouds 0 1033 80 10000 1.03 160 10:18 15.02.2021
3381 Clouds -1 1033 86 10000 1.54 170 09:47 15.02.2021
3382 Clouds -2 1033 86 10000 1.03 0 09:25 15.02.2021
3383 Clouds -3 1033 93 10000 3.09 110 08:22 15.02.2021
3384 Clouds -4 1033 93 10000 2.57 110 07:20 15.02.2021
3385 Clouds -4 1033 93 10000 1.54 0 06:41 15.02.2021
3386 Clouds -4 1033 93 10000 1.54 150 03:33 15.02.2021
3387 Clouds -5 1034 93 10000 1.03 150 02:21 15.02.2021
3388 Clouds -5 1034 93 9000 0.51 0 00:19 15.02.2021
3389 Clear -5 1034 86 10000 0.51 0 23:25 14.02.2021
3390 Clear -4 1034 86 10000 0.51 0 22:46 14.02.2021
3391 Clear -4 1034 93 10000 1.03 190 22:27 14.02.2021
3392 Clear -4 1034 86 10000 1.54 120 21:51 14.02.2021
3393 Clear -4 1034 86 10000 1.54 130 21:30 14.02.2021
3394 Clear -4 1034 86 10000 1.54 120 20:53 14.02.2021
3395 Clear -3 1034 80 10000 1.54 110 20:30 14.02.2021
3396 Clear -3 1034 69 10000 1.54 0 19:49 14.02.2021
3397 Clear -3 1034 80 10000 1.54 0 19:29 14.02.2021
3398 Clear -2 1034 64 10000 2.06 150 18:42 14.02.2021
3399 Clear -2 1034 64 10000 2.06 150 18:42 14.02.2021
3400 Clear -2 1034 64 10000 2.57 160 18:21 14.02.2021
3401 Clear -1 1034 59 10000 1.03 0 17:40 14.02.2021
3402 Clear -1 1034 64 10000 1.03 0 17:19 14.02.2021
3403 Clear -1 1034 51 10000 0.91 23 16:40 14.02.2021
3404 Clear -1 1034 59 10000 2.06 230 16:18 14.02.2021
3405 Clear -1 1034 59 10000 1.54 220 15:44 14.02.2021
3406 Clear -1 1035 59 10000 0.51 0 14:58 14.02.2021
3407 Clear -1 1035 64 10000 1.54 0 14:30 14.02.2021
3408 Clear -1 1035 63 10000 1.03 0 13:56 14.02.2021
3409 Clouds -2 1035 63 10000 1.54 0 13:31 14.02.2021
3410 Clouds -2 1035 63 10000 1.03 0 12:45 14.02.2021
3411 Clouds -4 1036 63 10000 2.06 180 12:21 14.02.2021
3412 Clouds -4 1036 68 10000 1.54 0 11:51 14.02.2021
3413 Clouds -5 1035 68 10000 1.03 0 11:25 14.02.2021
3414 Clouds -5 1035 68 10000 2.57 310 10:49 14.02.2021
3415 Clouds -6 1034 73 10000 2.57 320 09:57 14.02.2021
3416 Clouds -7 1034 73 10000 2.57 320 09:39 14.02.2021
3417 Clouds -7 1034 73 10000 2.06 330 09:21 14.02.2021
3418 Clouds -8 1034 73 10000 2.57 330 08:41 14.02.2021
3419 Clouds -8 1033 73 10000 3.09 320 07:57 14.02.2021
3420 Clouds -8 1033 73 10000 3.09 300 06:51 14.02.2021
3421 Clouds -8 1033 73 10000 2.57 310 05:42 14.02.2021
3422 Clouds -8 1032 73 10000 3.09 290 03:32 14.02.2021
3423 Clouds -8 1032 73 10000 2.57 300 02:22 14.02.2021
3424 Clouds -7 1032 73 10000 2.57 290 00:48 14.02.2021
3425 Clouds -7 1031 73 10000 2.06 300 00:27 14.02.2021
3426 Clouds -7 1031 73 10000 1.54 300 23:41 13.02.2021
3427 Clouds -7 1031 68 10000 1.03 0 23:21 13.02.2021
3428 Clouds -7 1031 68 10000 2.06 300 22:42 13.02.2021
3429 Clouds -7 1031 73 10000 2.57 330 22:19 13.02.2021
3430 Clouds -7 1031 68 10000 2.06 360 21:42 13.02.2021
3431 Clouds -7 1031 68 10000 2.06 330 21:21 13.02.2021
3432 Clouds -6 1031 68 10000 2.06 30 20:30 13.02.2021
3433 Clouds -6 1030 68 10000 2.57 40 19:56 13.02.2021
3434 Clouds -6 1030 68 10000 2.57 40 19:37 13.02.2021
3435 Clouds -6 1030 68 10000 3.09 50 19:18 13.02.2021
3436 Clouds -6 1030 68 10000 2.57 60 18:40 13.02.2021
3437 Clouds -6 1029 68 10000 4.12 40 17:57 13.02.2021
3438 Clouds -6 1029 68 10000 4.12 40 17:38 13.02.2021
3439 Clouds -6 1029 68 10000 3.6 50 17:19 13.02.2021
3440 Clouds -6 1029 68 10000 4.12 50 16:42 13.02.2021
3441 Clouds -5 1029 68 10000 3.6 50 16:18 13.02.2021
3442 Clouds -5 1028 68 10000 3.09 50 15:29 13.02.2021
3443 Clouds -5 1028 68 10000 2.57 30 14:51 13.02.2021
3444 Clouds -5 1028 73 10000 3.6 10 14:31 13.02.2021
3445 Clouds -5 1028 68 10000 2.57 20 13:48 13.02.2021
3446 Clouds -6 1028 68 10000 2.06 10 13:24 13.02.2021
3447 Clouds -6 1028 68 10000 2.57 350 12:45 13.02.2021
3448 Clouds -6 1028 68 10000 3.09 20 12:18 13.02.2021
3449 Clouds -6 1028 68 10000 2.57 10 11:43 13.02.2021
3450 Clouds -7 1027 68 10000 3.6 10 11:19 13.02.2021
3451 Clouds -8 1027 73 10000 3.09 20 10:45 13.02.2021
3452 Clouds -8 1027 73 10000 2.57 10 10:24 13.02.2021
3453 Clouds -8 1026 73 10000 2.06 10 09:53 13.02.2021
3454 Clouds -8 1027 73 10000 1.54 0 09:30 13.02.2021
3455 Clouds -8 1026 73 10000 2.06 360 08:54 13.02.2021
3456 Clouds -8 1026 73 10000 2.57 350 08:31 13.02.2021
3457 Clouds -8 1026 73 10000 3.09 360 07:50 13.02.2021
3458 Clouds -8 1025 73 10000 2.06 10 06:37 13.02.2021
3459 Clouds -8 1025 73 10000 2.57 10 05:20 13.02.2021
3460 Clouds -7 1024 73 10000 1.54 350 03:58 13.02.2021
3461 Clouds -7 1024 73 10000 2.57 10 01:32 13.02.2021
3462 Clouds -6 1023 73 10000 2.06 10 00:36 13.02.2021
3463 Clouds -6 1023 68 10000 1.54 20 23:53 12.02.2021
3464 Clouds -6 1023 74 10000 2.57 360 23:20 12.02.2021
3465 Clouds -6 1022 74 10000 2.06 10 22:40 12.02.2021
3466 Clouds -6 1022 74 10000 2.06 360 22:19 12.02.2021
3467 Clouds -6 1022 74 10000 1.54 10 21:45 12.02.2021
3468 Clouds -6 1022 74 10000 1.54 0 21:25 12.02.2021
3469 Clouds -6 1022 74 10000 1.03 0 20:46 12.02.2021
3470 Clouds -6 1022 74 10000 2.06 40 20:27 12.02.2021
3471 Clouds -6 1022 74 10000 2.06 0 19:55 12.02.2021
3472 Clouds -6 1021 74 10000 1.54 40 19:30 12.02.2021
3473 Snow -6 1021 80 10000 2.06 0 18:54 12.02.2021
3474 Snow -5 1021 80 8000 2.57 20 18:28 12.02.2021
3475 Snow -5 1021 80 8000 2.57 10 17:44 12.02.2021
3476 Snow -4 1021 74 9000 2.06 30 17:20 12.02.2021
3477 Clouds -5 1021 80 9000 3.09 320 16:25 12.02.2021
3478 Clouds -5 1021 80 9000 3.6 320 15:46 12.02.2021
3479 Clouds -5 1021 74 9000 3.09 310 15:21 12.02.2021
3480 Clouds -5 1021 80 10000 3.6 320 14:40 12.02.2021
3481 Clouds -5 1021 80 10000 3.6 320 13:59 12.02.2021
3482 Clouds -5 1021 80 10000 3.6 320 13:40 12.02.2021
3483 Clouds -5 1021 80 10000 3.09 340 12:56 12.02.2021
3484 Clouds -5 1021 80 10000 3.09 340 12:36 12.02.2021
3485 Clouds -6 1021 80 9000 3.09 330 11:58 12.02.2021
3486 Clouds -6 1021 80 9000 3.09 330 11:37 12.02.2021
3487 Clouds -6 1021 80 10000 2.06 350 11:18 12.02.2021
3488 Clouds -6 1021 79 9000 1.54 20 10:40 12.02.2021
3489 Clouds -7 1021 79 9000 2.06 340 09:48 12.02.2021
3490 Clouds -7 1021 79 9000 1.54 350 09:24 12.02.2021
3491 Clouds -7 1021 79 9000 1.54 30 08:49 12.02.2021
3492 Clouds -7 1021 79 9000 2.06 320 08:27 12.02.2021
3493 Clouds -7 1021 79 10000 2.57 310 07:53 12.02.2021
3494 Clouds -7 1021 86 9000 2.57 300 07:31 12.02.2021
3495 Clouds -7 1021 86 10000 2.57 290 06:55 12.02.2021
3496 Clouds -7 1022 86 10000 3.09 300 05:43 12.02.2021
3497 Clouds -7 1022 86 10000 2.57 310 04:30 12.02.2021
3498 Clouds -7 1022 86 10000 3.09 300 01:28 12.02.2021
3499 Clouds -6 1022 80 10000 1.54 320 23:40 11.02.2021
3500 Clouds -6 1022 80 10000 1.03 0 23:22 11.02.2021
3501 Clouds -6 1022 80 10000 1.54 320 22:46 11.02.2021
3502 Clear -6 1022 80 10000 2.06 320 22:24 11.02.2021
3503 Clear -6 1022 80 10000 2.06 320 21:54 11.02.2021
3504 Clear -6 1022 80 10000 2.06 320 21:36 11.02.2021
3505 Clouds -6 1022 80 10000 0.51 0 21:18 11.02.2021
3506 Clouds -6 1022 80 10000 0.51 0 21:18 11.02.2021
3507 Clouds -6 1022 80 10000 1.03 0 20:41 11.02.2021
3508 Clouds -6 1022 80 10000 1.03 0 20:21 11.02.2021
3509 Clouds -6 1022 80 10000 1.54 40 19:47 11.02.2021
3510 Clouds -6 1022 74 10000 1.54 350 19:27 11.02.2021
3511 Clouds -5 1022 80 10000 2.06 60 18:47 11.02.2021
3512 Clouds -5 1021 80 10000 2.06 20 18:25 11.02.2021
3513 Clouds -5 1021 80 10000 1.54 0 17:51 11.02.2021
3514 Clouds -4 1021 80 10000 2.06 50 17:22 11.02.2021
3515 Clouds -4 1021 80 10000 2.06 330 16:53 11.02.2021
3516 Clouds -4 1021 80 10000 2.06 330 16:34 11.02.2021
3517 Clouds -4 1020 80 10000 4.12 320 15:58 11.02.2021
3518 Clouds -4 1020 80 10000 4.12 320 15:38 11.02.2021
3519 Clouds -3 1020 80 10000 3.09 310 15:20 11.02.2021
3520 Clouds -4 1020 80 9000 4.12 300 14:38 11.02.2021
3521 Clouds -3 1020 80 10000 3.09 330 14:19 11.02.2021
3522 Clouds -4 1020 74 10000 1.54 20 13:37 11.02.2021
3523 Clouds -4 1020 80 7000 2.57 360 13:18 11.02.2021
3524 Clouds -4 1020 80 8000 2.57 40 12:37 11.02.2021
3525 Clouds -4 1020 80 10000 2.57 360 11:58 11.02.2021
3526 Clouds -4 1020 80 10000 2.57 360 11:40 11.02.2021
3527 Clouds -4 1020 80 7000 1.54 0 11:20 11.02.2021
3528 Clouds -5 1020 86 7000 3.09 300 10:42 11.02.2021
3529 Clouds -5 1020 86 8000 3.6 290 10:22 11.02.2021
3530 Clouds -5 1019 86 8000 3.6 290 09:42 11.02.2021
3531 Clouds -5 1019 86 7000 3.6 290 09:19 11.02.2021
3532 Snow -5 1019 93 7000 3.6 290 08:49 11.02.2021
3533 Snow -5 1019 86 6000 3.6 300 07:58 11.02.2021
3534 Snow -5 1019 86 6000 3.6 300 07:58 11.02.2021
3535 Snow -5 1018 93 8000 3.09 310 06:49 11.02.2021
3536 Snow -4 1018 80 10000 2.06 330 06:29 11.02.2021
3537 Snow -4 1016 86 10000 2.06 30 03:48 11.02.2021
3538 Snow -3 1015 93 7000 1.03 0 02:28 11.02.2021
3539 Snow -3 1014 86 3200 1.54 0 00:46 11.02.2021
3540 Snow -3 1013 86 3200 2.06 10 00:18 11.02.2021
3541 Snow -2 1012 93 5000 3.09 310 23:35 10.02.2021
3542 Snow -2 1011 93 6000 3.6 290 22:49 10.02.2021
3543 Snow -2 1010 93 5000 4.63 300 22:26 10.02.2021
3544 Snow -1 1010 93 3500 3.6 310 21:41 10.02.2021
3545 Snow -1 1009 100 4600 4.12 280 21:22 10.02.2021
3546 Snow 0 1008 100 1000 4.12 300 20:59 10.02.2021
3547 Snow 1 1008 100 1000 4.12 300 20:39 10.02.2021
3548 Snow 1 1010 88 277 2.04 9 20:19 10.02.2021
3549 Rain 3 1006 87 10000 1.54 0 19:43 10.02.2021
3550 Rain 3 1006 87 10000 4.12 260 19:21 10.02.2021
3551 Clouds 3 1005 93 5000 4.12 270 18:39 10.02.2021
3552 Rain 4 1004 93 10000 5.14 310 18:18 10.02.2021
3553 Rain 4 1003 87 10000 4.12 320 17:49 10.02.2021
3554 Clouds 5 1003 87 8000 5.14 300 17:22 10.02.2021
3555 Clouds 5 1003 76 10000 1.03 0 16:49 10.02.2021
3556 Clouds 5 1002 81 10000 1.03 0 16:29 10.02.2021
3557 Clouds 5 1002 81 10000 1.03 0 15:44 10.02.2021
3558 Clouds 5 1002 87 10000 1.03 0 15:22 10.02.2021
3559 Clouds 5 1002 87 10000 0.51 0 14:42 10.02.2021
3560 Clouds 4 1001 81 10000 0.51 0 14:19 10.02.2021
3561 Clouds 4 1001 87 10000 0.51 0 13:50 10.02.2021
3562 Clouds 3 1001 87 10000 0.51 0 13:27 10.02.2021
3563 Clouds 3 1001 93 5000 1 267 12:46 10.02.2021
3564 Clouds 2 1001 87 5000 1.07 264 12:28 10.02.2021
3565 Clouds 2 1000 93 5000 0.51 0 11:47 10.02.2021
3566 Rain 1 1000 93 3500 1.03 160 11:28 10.02.2021
3567 Snow 1 999 100 3000 1.03 0 10:47 10.02.2021
3568 Rain 1 999 100 3000 0.51 0 10:19 10.02.2021
3569 Snow 0 999 100 2200 0.63 153 09:43 10.02.2021
3570 Rain 0 998 100 2500 0.51 0 09:21 10.02.2021
3571 Mist 0 998 100 3600 0.99 126 08:50 10.02.2021
3572 Snow 0 998 100 3000 1.04 110 07:59 10.02.2021
3573 Snow 0 998 100 2300 1.03 0 07:18 10.02.2021
3574 Snow 0 997 100 2000 1.03 300 03:45 10.02.2021
3575 Snow 0 998 100 5000 2.57 300 00:51 10.02.2021
3576 Snow 0 999 100 6000 2.06 290 23:39 09.02.2021
3577 Snow 0 999 100 7000 1.54 310 23:19 09.02.2021
3578 Clouds 0 999 93 8000 1.03 310 22:25 09.02.2021
3579 Clouds 0 999 100 9000 1.03 310 21:58 09.02.2021
3580 Clouds 0 999 100 9000 1.03 310 21:40 09.02.2021
3581 Clouds 0 999 100 9000 1.54 300 21:18 09.02.2021
3582 Clouds 0 999 93 9000 1.54 290 20:41 09.02.2021
3583 Clouds 0 999 100 9000 2.57 300 20:22 09.02.2021
3584 Clouds 0 999 93 10000 2.06 290 19:39 09.02.2021
3585 Clouds 1 999 93 10000 2.06 290 19:20 09.02.2021
3586 Clouds 1 999 93 10000 1.03 290 18:41 09.02.2021
3587 Clouds 1 999 93 10000 1.03 0 18:20 09.02.2021
3588 Clouds 2 1000 81 10000 1.54 290 17:42 09.02.2021
3589 Clouds 2 1000 81 10000 1.54 280 17:23 09.02.2021
3590 Clouds 2 1000 81 10000 1.54 270 16:49 09.02.2021
3591 Clouds 3 1001 81 10000 1.54 280 16:19 09.02.2021
3592 Clouds 3 1001 81 10000 1.54 280 15:50 09.02.2021
3593 Clouds 4 1001 87 10000 2.06 280 15:27 09.02.2021
3594 Clouds 3 1001 81 10000 2.06 300 14:56 09.02.2021
3595 Clouds 4 1001 87 10000 2.06 300 14:28 09.02.2021
3596 Clouds 3 1001 75 10000 1.54 280 13:54 09.02.2021
3597 Clouds 3 1001 81 10000 1.03 280 13:29 09.02.2021
3598 Clouds 2 1001 81 10000 1.54 270 12:57 09.02.2021
3599 Clouds 2 1001 81 10000 1.54 270 12:38 09.02.2021
3600 Clouds 2 1000 87 10000 1.03 250 12:20 09.02.2021
3601 Clouds 2 1000 87 10000 1.03 0 11:41 09.02.2021
3602 Snow 2 1000 93 7000 0.51 0 11:21 09.02.2021
3603 Clouds 1 1000 100 4600 1.03 180 10:50 09.02.2021
3604 Snow 1 1000 100 3500 0.83 34 10:19 09.02.2021
3605 Snow 0 1000 100 2500 0.83 34 09:44 09.02.2021
3606 Snow 0 999 100 2000 1.03 290 09:25 09.02.2021
3607 Snow 0 999 100 2000 1.03 280 08:51 09.02.2021
3608 Snow 0 999 100 2500 1.03 0 08:27 09.02.2021
3609 Snow 0 998 100 2000 2.57 330 07:29 09.02.2021
3610 Snow 0 996 100 8000 1.54 310 04:55 09.02.2021
3611 Snow 0 996 100 7000 1.54 300 03:42 09.02.2021
3612 Snow 0 996 86 10000 2.06 300 00:44 09.02.2021
3613 Snow 0 996 86 10000 3.09 300 23:57 08.02.2021
3614 Snow 1 996 80 10000 1.54 200 23:22 08.02.2021
3615 Clouds 2 996 80 10000 3.09 140 22:45 08.02.2021
3616 Clouds 2 996 93 10000 1.54 0 22:26 08.02.2021
3617 Clouds 2 995 86 10000 1.54 0 21:58 08.02.2021
3618 Clouds 2 995 86 10000 1.54 0 21:38 08.02.2021
3619 Clouds 2 995 86 10000 1.54 170 21:18 08.02.2021
3620 Clouds 3 995 75 10000 1.54 330 20:42 08.02.2021
3621 Clear 3 995 80 10000 1.54 0 20:22 08.02.2021
3622 Clear 3 995 70 10000 1.54 330 19:48 08.02.2021
3623 Clouds 3 997 54 10000 1.22 216 19:26 08.02.2021
3624 Clouds 4 994 52 10000 1.03 0 18:49 08.02.2021
3625 Clouds 5 996 51 10000 1.34 310 18:25 08.02.2021
3626 Clouds 6 994 45 10000 2.06 260 17:47 08.02.2021
3627 Clouds 6 994 49 10000 4.12 230 17:26 08.02.2021
3628 Clouds 6 994 45 10000 4.63 240 16:47 08.02.2021
3629 Clouds 6 993 45 10000 4.63 250 16:28 08.02.2021
3630 Clouds 6 993 45 10000 6.17 250 15:56 08.02.2021
3631 Clouds 7 993 45 10000 6.17 250 15:37 08.02.2021
3632 Clouds 7 993 46 10000 7.72 270 15:18 08.02.2021
3633 Clouds 7 993 46 10000 5.66 260 14:42 08.02.2021
3634 Clouds 7 994 49 10000 6.69 250 14:24 08.02.2021
3635 Clouds 6 994 45 10000 8.23 230 13:45 08.02.2021
3636 Clouds 6 994 49 10000 5.66 260 13:25 08.02.2021
3637 Clouds 6 994 57 10000 5.66 270 12:39 08.02.2021
3638 Clouds 5 995 70 10000 2.57 140 11:58 08.02.2021
3639 Clouds 5 995 70 10000 2.57 140 11:32 08.02.2021
3640 Clouds 4 995 81 10000 3.6 150 10:46 08.02.2021
3641 Clouds 4 995 81 10000 2.06 110 10:26 08.02.2021
3642 Clouds 4 995 81 10000 2.06 110 10:26 08.02.2021
3643 Clouds 3 995 75 10000 2.06 80 09:56 08.02.2021
3644 Clouds 3 995 75 10000 2.06 80 09:36 08.02.2021
3645 Clouds 3 995 75 10000 2.06 80 09:36 08.02.2021
3646 Clouds 2 995 87 10000 1.54 130 08:55 08.02.2021
3647 Clouds 2 995 87 10000 1.54 30 08:26 08.02.2021
3648 Clouds 1 995 87 10000 1.54 90 07:40 08.02.2021
3649 Clouds 1 995 100 10000 3.09 100 06:33 08.02.2021
3650 Clouds 1 995 100 10000 1.54 100 04:56 08.02.2021
3651 Clouds 2 996 93 10000 0.51 0 02:26 08.02.2021
3652 Clouds 2 997 87 10000 2.06 120 00:25 08.02.2021
3653 Clouds 2 997 87 10000 1.54 90 23:53 07.02.2021
3654 Clouds 2 997 70 10000 2.06 200 23:28 07.02.2021
3655 Clouds 3 998 60 10000 3.6 230 22:56 07.02.2021
3656 Clouds 3 998 60 10000 3.6 230 22:38 07.02.2021
3657 Clouds 2 998 70 10000 3.09 240 22:19 07.02.2021
3658 Clouds 2 998 70 10000 2.06 260 21:49 07.02.2021
3659 Clouds 2 998 70 10000 2.06 260 21:49 07.02.2021
3660 Clouds 2 998 75 10000 2.06 250 21:24 07.02.2021
3661 Clouds 2 998 81 10000 1.03 0 20:49 07.02.2021
3662 Rain 2 998 87 10000 0.51 0 20:28 07.02.2021
3663 Rain 3 998 87 10000 3.09 300 19:49 07.02.2021
3664 Rain 3 998 87 10000 2.57 270 19:29 07.02.2021
3665 Rain 3 998 81 9000 2.57 260 18:48 07.02.2021
3666 Rain 3 997 81 10000 1.54 290 18:27 07.02.2021
3667 Rain 3 997 81 10000 3.09 280 17:58 07.02.2021
3668 Rain 3 997 81 10000 3.09 280 17:39 07.02.2021
3669 Rain 3 997 81 10000 4.12 260 17:18 07.02.2021
3670 Rain 4 997 81 10000 4.63 290 16:42 07.02.2021
3671 Rain 4 997 87 10000 2.06 330 16:21 07.02.2021
3672 Rain 5 996 93 7000 4.63 290 15:44 07.02.2021
3673 Rain 5 996 81 10000 4.12 300 15:21 07.02.2021
3674 Rain 5 996 81 10000 5.14 260 14:46 07.02.2021
3675 Rain 5 997 81 10000 4.63 280 14:26 07.02.2021
3676 Rain 6 997 87 10000 4.12 290 13:50 07.02.2021
3677 Rain 6 997 81 10000 4.12 290 13:30 07.02.2021
3678 Rain 6 997 76 10000 4.12 290 12:42 07.02.2021
3679 Clouds 6 997 76 10000 5.14 270 12:22 07.02.2021
3680 Clouds 6 997 71 10000 3.6 280 11:46 07.02.2021
3681 Clouds 7 997 76 10000 2.57 270 11:26 07.02.2021
3682 Clouds 7 997 100 10000 1.03 0 10:44 07.02.2021
3683 Clouds 6 997 100 10000 2.06 40 10:23 07.02.2021
3684 Clouds 6 997 100 10000 1.03 160 09:44 07.02.2021
3685 Clouds 5 996 100 8000 1.03 0 09:21 07.02.2021
3686 Clouds 4 996 100 7000 1.03 40 08:22 07.02.2021
3687 Mist 3 997 100 2800 1.03 0 06:34 07.02.2021
3688 Mist 3 997 100 2800 1.03 0 05:57 07.02.2021
3689 Clouds 4 997 100 6000 0.51 0 03:49 07.02.2021
3690 Clouds 5 999 100 9000 2.57 90 01:24 07.02.2021
3691 Rain 5 1000 100 6000 1.03 0 00:32 07.02.2021
3692 Clouds 5 1000 100 9000 1.03 0 23:44 06.02.2021
3693 Rain 5 1000 100 8000 2.06 330 22:40 06.02.2021
3694 Clouds 5 999 100 7000 2.06 130 21:39 06.02.2021
3695 Clouds 5 999 100 8000 1.54 0 21:21 06.02.2021
3696 Clouds 5 1000 100 10000 1.54 0 20:50 06.02.2021
3697 Clouds 5 1000 93 10000 2.57 340 20:25 06.02.2021
3698 Clouds 5 1000 100 10000 2.06 330 19:56 06.02.2021
3699 Clouds 5 999 100 9000 1.54 320 19:30 06.02.2021
3700 Clouds 5 999 93 10000 2.06 310 18:47 06.02.2021
3701 Clouds 6 999 93 10000 0.51 330 18:28 06.02.2021
3702 Clouds 6 1000 87 10000 1.03 0 17:46 06.02.2021
3703 Clouds 7 1000 87 10000 0.51 0 17:22 06.02.2021
3704 Clouds 8 1001 81 10000 0.51 0 16:59 06.02.2021
3705 Clouds 8 1001 81 10000 0.51 0 16:37 06.02.2021
3706 Clouds 9 1001 87 10000 1.03 330 16:19 06.02.2021
3707 Clouds 10 1002 87 10000 1.03 100 15:41 06.02.2021
3708 Clouds 10 1002 87 10000 1.54 0 15:20 06.02.2021
3709 Clouds 10 1003 87 10000 2.06 100 14:45 06.02.2021
3710 Clouds 10 1003 87 10000 2.57 140 14:24 06.02.2021
3711 Clouds 9 1004 87 10000 1.54 150 13:48 06.02.2021
3712 Clouds 7 1005 93 10000 1.03 0 12:57 06.02.2021
3713 Clouds 8 1006 93 10000 1.5 101 12:21 06.02.2021
3714 Clouds 4 1006 100 10000 1.54 40 11:47 06.02.2021
3715 Clouds 5 1007 100 10000 1.54 180 11:22 06.02.2021
3716 Clouds 5 1007 100 10000 0.51 0 10:57 06.02.2021
3717 Clouds 4 1007 100 10000 1.03 0 10:30 06.02.2021
3718 Clouds 5 1007 100 10000 1.03 0 09:59 06.02.2021
3719 Clouds 4 1007 100 10000 1.03 0 09:37 06.02.2021
3720 Clouds 4 1007 100 10000 1.54 10 09:18 06.02.2021
3721 Clouds 3 1007 100 10000 2.57 110 08:33 06.02.2021
3722 Clouds 4 1008 100 10000 1.03 150 08:00 06.02.2021
3723 Clouds 4 1008 100 10000 0.51 0 05:44 06.02.2021
3724 Clouds 4 1008 100 8000 1.03 0 03:58 06.02.2021
3725 Clouds 4 1010 82 10000 0.54 144 02:26 06.02.2021
3726 Clouds 4 1009 100 8000 0.51 0 00:48 06.02.2021
3727 Clouds 5 1011 79 10000 0.41 123 00:20 06.02.2021
3728 Clouds 5 1011 79 10000 0.41 123 23:44 05.02.2021
3729 Clouds 4 1009 100 10000 0.51 0 23:26 05.02.2021
3730 Clouds 5 1009 100 10000 0.51 0 22:47 05.02.2021
3731 Clouds 5 1010 77 10000 0.43 104 22:23 05.02.2021
3732 Clear 5 1009 100 10000 0.51 0 21:47 05.02.2021
3733 Clear 6 1009 93 10000 0.51 0 21:28 05.02.2021
3734 Clear 6 1010 87 10000 1.03 0 20:47 05.02.2021
3735 Clear 7 1010 87 10000 2.57 80 19:53 05.02.2021
3736 Clouds 7 1011 81 10000 1.54 70 19:20 05.02.2021
3737 Clouds 7 1011 81 10000 2.57 110 18:54 05.02.2021
3738 Clouds 8 1011 76 10000 1.54 100 18:28 05.02.2021
3739 Clouds 9 1013 68 10000 0.95 90 17:47 05.02.2021
3740 Clouds 9 1012 76 10000 1.54 130 17:27 05.02.2021
3741 Clouds 10 1012 71 10000 1.54 140 16:50 05.02.2021
3742 Clouds 10 1012 71 10000 1.54 140 16:50 05.02.2021
3743 Clouds 10 1012 66 10000 1.54 140 16:24 05.02.2021
3744 Clouds 10 1012 66 10000 2.06 150 15:57 05.02.2021
3745 Clouds 11 1012 62 10000 1.54 180 15:27 05.02.2021
3746 Clouds 11 1012 66 10000 1.03 0 14:55 05.02.2021
3747 Clouds 10 1012 66 10000 1.03 0 14:36 05.02.2021
3748 Clouds 10 1013 62 10000 2.57 140 14:18 05.02.2021
3749 Clouds 10 1013 66 10000 1.54 180 13:38 05.02.2021
3750 Clear 10 1013 66 10000 1.54 0 12:57 05.02.2021
3751 Clear 10 1013 66 10000 1.54 0 12:38 05.02.2021
3752 Clear 8 1014 87 10000 3.09 130 11:42 05.02.2021
3753 Clear 7 1014 87 10000 3.09 90 11:22 05.02.2021
3754 Clouds 7 1014 93 10000 2.57 100 10:59 05.02.2021
3755 Clouds 6 1014 100 10000 1.54 110 10:28 05.02.2021
3756 Clouds 5 1014 100 10000 2.06 120 09:57 05.02.2021
3757 Clouds 5 1014 100 10000 2.06 120 09:39 05.02.2021
3758 Clouds 4 1014 100 10000 1.03 0 09:20 05.02.2021
3759 Clouds 4 1015 88 10000 1.79 120 08:36 05.02.2021
3760 Clouds 3 1014 100 10000 3.6 110 07:39 05.02.2021
3761 Clear 3 1014 100 10000 0.51 0 06:58 05.02.2021
3762 Fog 3 1013 100 7000 0.51 0 05:40 05.02.2021
3763 Clouds 3 1012 100 10000 1.03 0 04:50 05.02.2021
3764 Clouds 4 1012 100 7000 1.03 0 02:25 05.02.2021
3765 Mist 4 1013 100 3000 0.51 90 00:41 05.02.2021
3766 Fog 4 1013 100 4900 0.51 0 00:21 05.02.2021
3767 Mist 4 1013 100 2300 0.83 160 23:59 04.02.2021
3768 Mist 5 1013 100 2300 0.83 160 23:40 04.02.2021
3769 Clouds 5 1013 100 8000 1.03 0 23:21 04.02.2021
3770 Clouds 5 1013 100 10000 0.51 0 22:52 04.02.2021
3771 Clouds 5 1013 100 10000 0.51 0 22:29 04.02.2021
3772 Clouds 5 1013 100 10000 0.51 0 21:43 04.02.2021
3773 Clouds 5 1013 100 10000 0.51 0 21:22 04.02.2021
3774 Clouds 6 1013 100 10000 0.51 0 20:53 04.02.2021
3775 Clouds 6 1013 100 10000 0.51 0 20:34 04.02.2021
3776 Clouds 6 1014 87 10000 1.03 320 19:48 04.02.2021
3777 Clouds 6 1014 93 10000 1.54 330 19:21 04.02.2021
3778 Clouds 7 1014 93 10000 1.54 300 18:39 04.02.2021
3779 Clouds 7 1014 81 10000 1.03 0 18:20 04.02.2021
3780 Clouds 8 1014 87 10000 1.03 80 17:44 04.02.2021
3781 Clouds 8 1014 76 10000 0.7 64 17:20 04.02.2021
3782 Clouds 8 1014 76 10000 1.03 0 16:46 04.02.2021
3783 Clouds 8 1014 76 10000 1.03 270 16:19 04.02.2021
3784 Clouds 8 1014 76 10000 2.06 290 15:40 04.02.2021
3785 Clouds 9 1014 71 10000 1.03 0 15:21 04.02.2021
3786 Clouds 9 1015 76 10000 2.57 310 14:55 04.02.2021
3787 Clouds 9 1015 76 10000 2.57 310 14:37 04.02.2021
3788 Rain 9 1015 71 10000 1.54 230 14:18 04.02.2021
3789 Rain 9 1015 71 10000 1.03 0 13:41 04.02.2021
3790 Rain 8 1015 81 10000 1.54 300 12:57 04.02.2021
3791 Clouds 8 1015 76 10000 2.06 140 12:21 04.02.2021
3792 Clouds 7 1015 81 10000 2.57 100 11:42 04.02.2021
3793 Clouds 6 1016 93 10000 2.57 100 11:24 04.02.2021
3794 Clouds 6 1016 93 10000 2.57 100 10:44 04.02.2021
3795 Clouds 5 1015 100 10000 2.57 120 10:18 04.02.2021
3796 Clouds 4 1015 100 10000 2.57 110 09:43 04.02.2021
3797 Clear 4 1015 100 10000 2.06 100 09:18 04.02.2021
3798 Clear 3 1015 100 10000 2.06 90 08:41 04.02.2021
3799 Clear 4 1015 100 10000 2.57 90 08:20 04.02.2021
3800 Clear 3 1015 100 10000 2.57 100 07:41 04.02.2021
3801 Clear 3 1015 100 10000 1.03 0 06:55 04.02.2021
3802 Clear 3 1015 100 10000 1.03 0 06:37 04.02.2021
3803 Clouds 5 1014 87 10000 1.03 0 03:53 04.02.2021
3804 Clouds 7 1014 66 10000 1.03 0 02:26 04.02.2021
3805 Clouds 9 1013 62 10000 4.12 250 00:42 04.02.2021
3806 Clouds 9 1013 58 10000 2.57 260 23:40 03.02.2021
3807 Clouds 10 1012 58 10000 5.14 270 22:44 03.02.2021
3808 Clouds 10 1011 58 10000 5.14 250 22:22 03.02.2021
3809 Clouds 10 1011 58 10000 3.6 280 21:58 03.02.2021
3810 Clouds 10 1011 58 10000 3.6 280 21:37 03.02.2021
3811 Clouds 10 1010 58 10000 3.6 270 21:18 03.02.2021
3812 Clouds 9 1010 58 10000 4.12 0 20:43 03.02.2021
3813 Clouds 9 1009 62 10000 4.12 210 20:24 03.02.2021
3814 Clouds 9 1009 62 10000 7.2 200 19:43 03.02.2021
3815 Rain 9 1009 71 10000 6.69 210 19:21 03.02.2021
3816 Clouds 9 1009 76 10000 3.6 190 18:48 03.02.2021
3817 Rain 8 1008 81 10000 1.54 0 18:20 03.02.2021
3818 Clouds 8 1008 81 5000 2.57 220 17:52 03.02.2021
3819 Clouds 8 1008 93 5000 3.09 250 17:31 03.02.2021
3820 Clouds 7 1008 93 5000 5.14 260 16:57 03.02.2021
3821 Clouds 7 1007 93 7000 5.14 280 16:30 03.02.2021
3822 Rain 8 1007 93 10000 8.75 290 15:46 03.02.2021
3823 Rain 9 1005 71 10000 4.12 280 15:26 03.02.2021
3824 Rain 10 1005 82 10000 2.06 0 14:54 03.02.2021
3825 Clouds 11 1005 93 10000 1.54 300 14:30 03.02.2021
3826 Clouds 10 1005 100 10000 2.06 330 13:56 03.02.2021
3827 Rain 10 1005 100 6000 1.03 0 13:29 03.02.2021
3828 Rain 10 1005 93 10000 1.54 110 12:52 03.02.2021
3829 Rain 10 1005 100 10000 1.54 100 12:27 03.02.2021
3830 Drizzle 10 1005 100 10000 1.03 150 11:59 03.02.2021
3831 Drizzle 9 1005 100 10000 1.03 150 11:37 03.02.2021
3832 Rain 8 1005 100 10000 1.03 0 10:58 03.02.2021
3833 Rain 8 1005 100 10000 1.54 201 10:23 03.02.2021
3834 Rain 8 1005 100 10000 2.06 110 09:51 03.02.2021
3835 Rain 8 1005 100 10000 2.06 110 09:32 03.02.2021
3836 Clouds 8 1005 100 10000 2.57 110 08:54 03.02.2021
3837 Clouds 8 1005 100 10000 2.57 110 08:54 03.02.2021
3838 Clouds 8 1005 100 10000 2.57 110 08:35 03.02.2021
3839 Clouds 8 1006 100 10000 1.54 130 07:42 03.02.2021
3840 Rain 7 1006 100 8000 1.03 140 06:42 03.02.2021
3841 Clouds 8 1007 100 10000 2.57 90 04:55 03.02.2021
3842 Clouds 8 1007 100 10000 2.57 90 04:34 03.02.2021
3843 Clouds 8 1008 100 8000 2.57 120 03:40 03.02.2021
3844 Clouds 8 1009 100 8000 2.06 120 02:37 03.02.2021
3845 Clouds 9 1010 99 10000 2.22 196 00:56 03.02.2021
3846 Clouds 8 1009 100 10000 1.54 0 23:59 02.02.2021
3847 Clouds 8 1009 100 10000 1.54 0 23:40 02.02.2021
3848 Clouds 9 1009 100 4700 1.54 0 23:22 02.02.2021
3849 Rain 9 1009 100 10000 1.54 200 22:37 02.02.2021
3850 Clouds 9 1009 100 7000 1.03 0 22:18 02.02.2021
3851 Drizzle 9 1009 100 10000 1.03 0 21:39 02.02.2021
3852 Clouds 9 1009 100 10000 2.06 140 21:21 02.02.2021
3853 Clouds 9 1009 93 10000 2.06 290 20:47 02.02.2021
3854 Clouds 9 1009 87 10000 4.12 300 20:20 02.02.2021
3855 Clouds 9 1009 100 10000 1.54 110 19:48 02.02.2021
3856 Clouds 9 1009 100 9000 1.54 100 19:30 02.02.2021
3857 Clouds 9 1009 100 9000 1.54 100 19:30 02.02.2021
3858 Clouds 9 1009 100 9000 1.54 100 19:30 02.02.2021
3859 Clouds 9 1009 100 10000 1.03 0 18:46 02.02.2021
3860 Drizzle 9 1008 100 10000 1.54 260 18:26 02.02.2021
3861 Drizzle 9 1008 87 10000 2.06 100 17:51 02.02.2021
3862 Clouds 9 1008 87 10000 2.06 90 17:24 02.02.2021
3863 Clouds 9 1008 93 10000 3.09 130 16:58 02.02.2021
3864 Clouds 9 1008 93 10000 3.09 130 16:38 02.02.2021
3865 Clouds 9 1008 93 10000 2.06 150 16:18 02.02.2021
3866 Drizzle 9 1008 93 10000 3.16 223 15:42 02.02.2021
3867 Drizzle 9 1008 93 10000 3.16 223 15:42 02.02.2021
3868 Clouds 9 1008 93 10000 1.03 0 15:21 02.02.2021
3869 Clouds 9 1008 81 10000 1.03 0 14:41 02.02.2021
3870 Clouds 9 1008 81 10000 1.03 0 14:19 02.02.2021
3871 Clouds 9 1008 87 10000 1.54 0 13:54 02.02.2021
3872 Clouds 9 1008 87 10000 1.54 0 13:36 02.02.2021
3873 Clouds 9 1008 93 10000 2.06 340 13:18 02.02.2021
3874 Clouds 8 1008 93 10000 2.06 120 12:31 02.02.2021
3875 Rain 8 1008 93 10000 3.09 100 11:44 02.02.2021
3876 Clouds 7 1007 100 5000 3.09 120 11:21 02.02.2021
3877 Rain 7 1008 100 10000 1.54 0 10:53 02.02.2021
3878 Rain 7 1008 100 10000 1.03 0 10:27 02.02.2021
3879 Clouds 6 1008 100 10000 2.57 90 09:46 02.02.2021
3880 Clouds 6 1008 100 10000 2.57 110 09:25 02.02.2021
3881 Drizzle 6 1008 100 10000 2.57 110 08:48 02.02.2021
3882 Rain 6 1008 100 10000 1.03 0 08:22 02.02.2021
3883 Clouds 6 1008 100 6000 0.51 0 07:29 02.02.2021
3884 Clouds 6 1008 100 9000 1.54 0 06:43 02.02.2021
3885 Clouds 6 1008 100 5000 0.51 0 05:53 02.02.2021
3886 Clouds 6 1008 100 9000 1.54 140 04:37 02.02.2021
3887 Clouds 6 1007 100 10000 2.57 120 02:26 02.02.2021
3888 Drizzle 7 1007 100 10000 2.57 110 01:46 02.02.2021
3889 Clouds 7 1006 100 10000 2.06 0 00:34 02.02.2021
3890 Drizzle 7 1005 100 10000 1.03 0 23:19 01.02.2021
3891 Clouds 7 1004 100 10000 2.06 90 22:50 01.02.2021
3892 Clouds 7 1004 100 10000 2.57 100 22:32 01.02.2021
3893 Clouds 7 1003 100 10000 3.09 100 21:49 01.02.2021
3894 Clouds 6 1003 100 10000 3.6 100 21:30 01.02.2021
3895 Clouds 6 1003 100 10000 3.6 100 21:30 01.02.2021
3896 Clouds 7 1002 100 10000 2.57 110 20:56 01.02.2021
3897 Clouds 7 1002 100 10000 2.57 110 20:36 01.02.2021
3898 Drizzle 6 1002 100 7000 0.51 0 20:18 01.02.2021
3899 Clouds 6 1001 100 10000 2.57 110 19:38 01.02.2021
3900 Rain 6 1001 100 5000 0.51 0 19:18 01.02.2021
3901 Rain 6 1000 100 10000 1.54 100 18:46 01.02.2021
3902 Rain 7 1000 93 10000 3.09 130 18:26 01.02.2021
3903 Clouds 7 999 93 10000 3.6 160 17:47 01.02.2021
3904 Clouds 7 999 93 8000 3.6 150 17:23 01.02.2021
3905 Clouds 7 998 93 10000 3.09 110 16:46 01.02.2021
3906 Clouds 7 998 93 10000 3.6 120 16:28 01.02.2021
3907 Clouds 7 998 93 10000 3.6 140 15:42 01.02.2021
3908 Drizzle 7 997 93 10000 2.57 100 15:19 01.02.2021
3909 Clouds 7 997 100 10000 2.57 130 14:51 01.02.2021
3910 Clouds 7 997 100 10000 1.54 110 14:24 01.02.2021
3911 Clouds 6 996 100 5000 2.06 100 13:46 01.02.2021
3912 Rain 6 996 100 5000 2.06 100 13:26 01.02.2021
3913 Rain 6 996 100 10000 2.06 100 12:45 01.02.2021
3914 Rain 6 996 100 10000 2.06 110 12:25 01.02.2021
3915 Rain 6 996 100 10000 2.06 110 12:25 01.02.2021
3916 Rain 6 996 93 8000 2.06 110 11:47 01.02.2021
3917 Rain 6 995 93 5000 1.54 90 11:21 01.02.2021
3918 Rain 6 995 100 10000 3.6 130 10:52 01.02.2021
3919 Clouds 5 995 100 10000 2.06 110 10:22 01.02.2021
3920 Rain 5 994 100 10000 2.06 100 09:54 01.02.2021
3921 Drizzle 5 994 100 10000 2.06 100 09:35 01.02.2021
3922 Clouds 4 994 100 8000 2.57 110 08:56 01.02.2021
3923 Rain 4 994 100 10000 2.57 110 08:26 01.02.2021
3924 Rain 4 993 100 5000 1.03 0 07:30 01.02.2021
3925 Rain 4 993 100 10000 3.09 110 04:34 01.02.2021
3926 Clouds 4 994 100 6000 3.6 120 02:40 01.02.2021
3927 Rain 4 994 93 10000 2.06 90 00:25 01.02.2021
3928 Clouds 4 995 100 10000 3.09 110 23:21 31.01.2021
3929 Clouds 4 995 93 10000 3.09 110 22:38 31.01.2021
3930 Clouds 4 996 100 10000 2.57 100 22:19 31.01.2021
3931 Clouds 4 996 100 10000 2.57 110 21:47 31.01.2021
3932 Clouds 5 996 100 10000 2.57 120 21:19 31.01.2021
3933 Clouds 5 997 100 10000 1.03 0 20:43 31.01.2021
3934 Clouds 5 997 87 10000 1.54 0 20:21 31.01.2021
3935 Clouds 5 1000 97 10000 1.4 165 19:40 31.01.2021
3936 Clouds 5 1000 97 10000 1.4 165 19:40 31.01.2021
3937 Clouds 5 998 93 10000 1.03 0 19:22 31.01.2021
3938 Clouds 6 1000 97 10000 1.42 172 18:56 31.01.2021
3939 Clouds 6 998 87 10000 2.06 300 18:38 31.01.2021
3940 Clouds 6 998 87 10000 2.06 320 18:18 31.01.2021
3941 Clouds 6 998 87 10000 1.03 0 17:41 31.01.2021
3942 Clouds 7 998 81 10000 1.54 310 17:22 31.01.2021
3943 Clouds 7 999 81 10000 1.54 330 16:42 31.01.2021
3944 Clouds 7 999 87 10000 1.54 0 16:20 31.01.2021
3945 Clouds 7 999 81 10000 1.03 0 15:50 31.01.2021
3946 Clouds 7 999 87 10000 1.03 0 15:26 31.01.2021
3947 Clouds 7 999 93 10000 0.51 0 14:39 31.01.2021
3948 Clouds 7 1000 87 10000 1.03 0 14:18 31.01.2021
3949 Clouds 7 1000 93 10000 1.03 0 13:46 31.01.2021
3950 Clouds 7 1000 93 10000 1.54 140 13:19 31.01.2021
3951 Clouds 7 1001 100 10000 1.54 0 12:47 31.01.2021
3952 Clouds 7 1001 100 10000 1.54 130 12:21 31.01.2021
3953 Clouds 6 1001 100 10000 2.06 120 11:40 31.01.2021
3954 Clouds 6 1000 100 10000 2.06 100 11:21 31.01.2021
3955 Clouds 6 1000 100 10000 2.06 100 10:48 31.01.2021
3956 Mist 5 1000 100 5000 2.06 120 10:29 31.01.2021
3957 Mist 4 1000 100 4800 0.51 0 09:49 31.01.2021
3958 Mist 4 999 100 3800 0.51 0 08:58 31.01.2021
3959 Mist 4 999 100 3800 0.51 0 08:32 31.01.2021
3960 Clouds 4 998 100 8000 2.06 100 06:54 31.01.2021
3961 Fog 4 998 100 750 0.51 0 05:30 31.01.2021
3962 Clouds 4 998 100 9000 2.57 110 00:40 31.01.2021
3963 Clouds 4 998 100 7000 3.6 120 00:21 31.01.2021
3964 Clouds 5 998 100 6000 3.09 110 23:28 30.01.2021
3965 Clouds 5 998 100 6000 2.57 130 22:49 30.01.2021
3966 Rain 5 998 100 7000 1.03 0 22:28 30.01.2021
3967 Rain 5 998 100 5000 1.54 90 21:39 30.01.2021
3968 Rain 5 998 100 5000 1.03 0 21:20 30.01.2021
3969 Rain 5 998 100 5000 1.03 0 21:20 30.01.2021
3970 Clouds 5 998 100 6000 1.54 70 20:44 30.01.2021
3971 Drizzle 5 998 100 7000 1.03 0 20:26 30.01.2021
3972 Rain 5 998 100 5000 0.51 0 19:43 30.01.2021
3973 Rain 5 998 100 10000 1.54 120 19:24 30.01.2021
3974 Rain 5 998 100 10000 2.06 130 18:41 30.01.2021
3975 Rain 5 998 100 7000 2.57 110 18:21 30.01.2021
3976 Rain 6 998 100 7000 2.57 120 17:54 30.01.2021
3977 Rain 6 998 100 10000 3.6 130 17:19 30.01.2021
3978 Rain 6 998 100 10000 3.09 140 16:44 30.01.2021
3979 Rain 6 998 100 8000 3.09 130 16:24 30.01.2021
3980 Clouds 6 998 100 7000 2.57 120 15:54 30.01.2021
3981 Rain 6 998 100 7000 2.57 120 15:36 30.01.2021
3982 Rain 6 999 100 7000 2.06 130 15:18 30.01.2021
3983 Rain 5 999 100 7000 1.03 0 14:41 30.01.2021
3984 Rain 5 1000 100 7000 0.84 215 14:19 30.01.2021
3985 Rain 5 1001 93 9000 0.51 0 13:29 30.01.2021
3986 Rain 5 1001 100 9000 0.51 0 12:48 30.01.2021
3987 Rain 5 1001 87 10000 1.03 120 12:28 30.01.2021
3988 Rain 5 1001 87 10000 1.54 80 11:55 30.01.2021
3989 Drizzle 5 1002 93 10000 2.57 100 11:25 30.01.2021
3990 Rain 5 1002 93 10000 1.03 0 10:46 30.01.2021
3991 Rain 5 1003 100 10000 1.54 0 09:44 30.01.2021
3992 Rain 4 1003 100 10000 1.03 0 09:26 30.01.2021
3993 Rain 4 1003 100 10000 1.03 150 08:47 30.01.2021
3994 Rain 4 1004 100 10000 1.03 120 07:45 30.01.2021
3995 Clouds 4 1005 100 10000 1.03 0 06:36 30.01.2021
3996 Clouds 5 1007 76 10000 3.09 290 04:28 30.01.2021
3997 Clouds 5 1008 76 10000 2.57 280 03:34 30.01.2021
3998 Clouds 5 1009 87 10000 2.57 190 02:23 30.01.2021
3999 Clouds 5 1009 93 10000 3.09 320 01:26 30.01.2021
4000 Clouds 5 1009 93 5000 4.12 290 00:35 30.01.2021
4001 Clouds 6 1009 81 6000 5.66 250 23:55 29.01.2021
4002 Clouds 6 1009 81 6000 5.66 250 23:36 29.01.2021
4003 Drizzle 6 1009 81 10000 6.69 260 23:18 29.01.2021
4004 Clouds 6 1009 81 10000 6.17 260 22:38 29.01.2021
4005 Clouds 6 1008 81 9000 5.14 250 21:59 29.01.2021
4006 Clouds 6 1008 76 10000 6.69 250 21:28 29.01.2021
4007 Clouds 6 1008 76 10000 5.66 260 20:45 29.01.2021
4008 Clouds 6 1007 76 6000 7.72 250 20:24 29.01.2021
4009 Clouds 5 1007 87 6000 7.2 270 19:42 29.01.2021
4010 Rain 6 1006 76 5000 7.72 230 19:22 29.01.2021
4011 Rain 6 1005 71 10000 3.6 250 18:57 29.01.2021
4012 Clouds 7 1006 71 10000 3.6 230 17:59 29.01.2021
4013 Clouds 7 1006 71 10000 3.6 230 17:37 29.01.2021
4014 Clouds 7 1006 76 10000 6.17 240 17:18 29.01.2021
4015 Clouds 7 1006 81 10000 4.12 260 16:39 29.01.2021
4016 Clouds 7 1006 71 10000 5.14 260 16:21 29.01.2021
4017 Clouds 7 1006 71 10000 5.14 260 16:21 29.01.2021
4018 Clouds 7 1006 76 10000 4.12 250 15:42 29.01.2021
4019 Clouds 8 1007 71 10000 5.66 230 15:23 29.01.2021
4020 Clouds 8 1007 66 10000 5.14 240 14:30 29.01.2021
4021 Clouds 8 1007 71 10000 6.69 240 13:58 29.01.2021
4022 Clouds 8 1007 71 10000 6.69 240 13:34 29.01.2021
4023 Clouds 9 1007 62 10000 6.69 260 12:49 29.01.2021
4024 Clouds 9 1009 70 10000 8.05 285 12:22 29.01.2021
4025 Clouds 9 1007 66 10000 5.66 250 11:46 29.01.2021
4026 Clouds 8 1007 93 10000 3.6 330 11:18 29.01.2021
4027 Clouds 8 1007 93 10000 3.09 340 10:47 29.01.2021
4028 Clouds 8 1007 100 10000 5.66 330 10:26 29.01.2021
4029 Rain 7 1006 100 10000 3.6 320 09:44 29.01.2021
4030 Rain 7 1007 87 5000 9.26 290 08:52 29.01.2021
4031 Rain 7 1007 81 1500 12.86 300 08:28 29.01.2021
4032 Rain 8 1005 81 5000 5.14 240 07:54 29.01.2021
4033 Rain 9 1005 81 5000 5.14 240 07:35 29.01.2021
4034 Rain 9 1005 71 10000 4.63 220 06:58 29.01.2021
4035 Clouds 8 1006 93 10000 5.14 140 05:19 29.01.2021
4036 Rain 8 1008 93 10000 3.09 130 02:48 29.01.2021
4037 Clouds 9 1010 66 10000 1.03 0 00:38 29.01.2021
4038 Clouds 9 1010 71 10000 3.09 220 00:19 29.01.2021
4039 Clouds 9 1010 71 10000 3.09 250 23:41 28.01.2021
4040 Clouds 9 1010 71 10000 3.09 250 23:41 28.01.2021
4041 Clouds 9 1010 71 10000 3.09 250 23:23 28.01.2021
4042 Clouds 9 1011 76 10000 3.09 250 22:45 28.01.2021
4043 Clouds 9 1011 87 10000 1.03 0 22:25 28.01.2021
4044 Clouds 9 1010 81 10000 1.03 0 21:53 28.01.2021
4045 Rain 9 1010 81 10000 1.03 0 21:33 28.01.2021
4046 Clouds 9 1011 82 10000 2.06 270 20:55 28.01.2021
4047 Clouds 9 1011 82 10000 2.06 270 20:37 28.01.2021
4048 Clouds 9 1011 76 10000 2.57 250 20:18 28.01.2021
4049 Drizzle 10 1011 76 10000 3.6 240 19:40 28.01.2021
4050 Clouds 9 1011 76 10000 3.6 230 19:19 28.01.2021
4051 Clouds 9 1011 76 10000 2.06 220 18:43 28.01.2021
4052 Clouds 10 1011 76 10000 4.63 220 18:20 28.01.2021
4053 Clouds 10 1011 76 10000 3.09 210 17:44 28.01.2021
4054 Drizzle 10 1010 76 10000 4.12 230 17:26 28.01.2021
4055 Clouds 10 1010 76 10000 5.66 210 16:44 28.01.2021
4056 Clouds 9 1010 76 10000 5.14 230 16:22 28.01.2021
4057 Clouds 9 1010 76 10000 5.14 230 16:22 28.01.2021
4058 Clouds 9 1010 71 10000 4.12 230 15:41 28.01.2021
4059 Clouds 8 1010 76 10000 3.09 280 14:59 28.01.2021
4060 Clouds 8 1010 76 10000 3.09 280 14:41 28.01.2021
4061 Clouds 8 1010 81 7000 3.09 0 14:23 28.01.2021
4062 Clouds 8 1010 81 7000 3.09 260 13:45 28.01.2021
4063 Clouds 8 1010 81 6000 3.09 0 12:54 28.01.2021
4064 Rain 8 1010 81 6000 3.09 0 12:35 28.01.2021
4065 Rain 8 1011 81 6000 5.14 220 11:59 28.01.2021
4066 Rain 7 1011 81 6000 5.14 220 11:40 28.01.2021
4067 Rain 7 1011 81 7000 2.57 0 11:19 28.01.2021
4068 Snow 6 1010 100 8000 1.54 0 10:52 28.01.2021
4069 Snow 6 1010 100 8000 1.54 0 10:33 28.01.2021
4070 Mist 5 1011 100 1500 1.03 0 09:48 28.01.2021
4071 Mist 4 1012 100 1500 1.54 170 09:23 28.01.2021
4072 Clouds 3 1011 100 2200 1.54 0 08:54 28.01.2021
4073 Rain 3 1011 100 1500 1.54 310 08:19 28.01.2021
4074 Rain 2 1012 100 1500 2.06 140 07:44 28.01.2021
4075 Drizzle 2 1013 100 800 1.03 0 06:50 28.01.2021
4076 Drizzle 2 1013 100 900 1.03 0 05:56 28.01.2021
4077 Snow 2 1015 100 1100 0.51 0 04:27 28.01.2021
4078 Mist 2 1016 100 2800 1.03 0 01:38 28.01.2021
4079 Snow 1 1017 100 1500 1.03 0 23:48 27.01.2021
4080 Snow 1 1016 100 1400 1.03 210 23:23 27.01.2021
4081 Snow 1 1016 100 1800 1.03 0 22:42 27.01.2021
4082 Rain 1 1016 100 4500 1.03 0 22:22 27.01.2021
4083 Snow 1 1016 100 3200 1.54 100 21:43 27.01.2021
4084 Snow 0 1016 100 3400 2.57 100 21:23 27.01.2021
4085 Snow 0 1016 100 3400 2.57 100 21:23 27.01.2021
4086 Snow 0 1016 100 3700 1.54 110 20:52 27.01.2021
4087 Snow 0 1016 100 4600 2.06 110 20:27 27.01.2021
4088 Snow 0 1016 100 4100 1.54 90 19:50 27.01.2021
4089 Snow 1 1016 100 4100 1.54 90 19:23 27.01.2021
4090 Snow 1 1016 100 3200 1.54 130 18:46 27.01.2021
4091 Snow 1 1016 100 3200 1.54 130 18:26 27.01.2021
4092 Snow 0 1016 100 2100 1.54 0 17:56 27.01.2021
4093 Snow 1 1016 100 3000 2.57 140 17:38 27.01.2021
4094 Snow 1 1016 100 4000 2.06 150 16:58 27.01.2021
4095 Snow 1 1016 100 2000 1.54 140 16:39 27.01.2021
4096 Snow 1 1017 100 1600 1.03 140 16:21 27.01.2021
4097 Snow 1 1016 100 1500 1.03 170 15:49 27.01.2021
4098 Snow 1 1017 93 3700 1.03 260 15:29 27.01.2021
4099 Snow 1 1016 86 8000 1.54 160 14:24 27.01.2021
4100 Snow 0 1016 86 10000 2.06 160 13:53 27.01.2021
4101 Snow 0 1016 86 10000 2.06 160 13:35 27.01.2021
4102 Snow 0 1017 80 10000 1.54 110 12:42 27.01.2021
4103 Snow -1 1017 86 10000 2.06 140 12:24 27.01.2021
4104 Snow -1 1017 86 10000 0.51 0 11:48 27.01.2021
4105 Snow -1 1017 86 10000 1.54 150 11:26 27.01.2021
4106 Snow -2 1017 93 10000 1.03 0 10:47 27.01.2021
4107 Snow -2 1017 93 7000 0.51 0 10:25 27.01.2021
4108 Snow -3 1017 86 2700 2.57 90 09:56 27.01.2021
4109 Snow -3 1017 93 6000 3.09 130 09:28 27.01.2021
4110 Snow -3 1017 86 5000 2.06 110 08:45 27.01.2021
4111 Clouds -3 1018 80 10000 2.06 120 07:57 27.01.2021
4112 Snow -3 1018 80 10000 2.06 120 07:37 27.01.2021
4113 Snow -4 1019 93 10000 1.03 0 06:38 27.01.2021
4114 Snow -5 1019 93 10000 0.51 0 05:55 27.01.2021
4115 Snow -5 1019 93 10000 0.51 0 05:34 27.01.2021
4116 Clouds -6 1020 100 10000 0.51 0 02:46 27.01.2021
4117 Clouds -6 1020 72 10000 1.18 172 02:20 27.01.2021
4118 Clouds -6 1021 100 10000 0.51 0 00:58 27.01.2021
4119 Clouds -5 1022 70 10000 1.22 161 00:22 27.01.2021
4120 Clouds -5 1022 93 10000 0.51 0 23:38 26.01.2021
4121 Clouds -5 1022 86 10000 0.51 0 23:19 26.01.2021
4122 Clouds -5 1022 86 10000 1.03 0 22:38 26.01.2021
4123 Clouds -5 1022 86 10000 2.06 90 22:19 26.01.2021
4124 Clouds -4 1022 80 10000 3.09 110 21:51 26.01.2021
4125 Clouds -4 1022 80 10000 3.09 110 21:23 26.01.2021
4126 Clouds -4 1023 66 10000 1.58 163 20:43 26.01.2021
4127 Clear -3 1023 66 10000 1.38 154 20:23 26.01.2021
4128 Clouds -3 1022 74 10000 2.06 150 19:51 26.01.2021
4129 Clouds -3 1022 74 10000 1.03 0 19:30 26.01.2021
4130 Clear -3 1022 74 10000 1.54 120 18:58 26.01.2021
4131 Clear -3 1022 74 10000 1.54 120 18:58 26.01.2021
4132 Clouds -3 1023 62 10000 1.31 170 18:40 26.01.2021
4133 Clouds -2 1022 74 10000 0.51 0 18:21 26.01.2021
4134 Clouds -2 1022 74 10000 0.51 170 17:47 26.01.2021
4135 Clouds -1 1022 51 10000 0.51 0 17:22 26.01.2021
4136 Clouds 0 1022 51 10000 3.09 300 16:43 26.01.2021
4137 Clear 1 1022 44 10000 2.57 280 16:20 26.01.2021
4138 Clear 2 1022 41 10000 1.35 247 15:50 26.01.2021
4139 Clouds 1 1022 41 10000 1.54 0 15:30 26.01.2021
4140 Clouds 2 1022 41 10000 1.54 290 14:49 26.01.2021
4141 Clouds 2 1022 44 10000 1.54 300 14:30 26.01.2021
4142 Clouds 2 1022 48 10000 2.06 300 13:42 26.01.2021
4143 Clouds 1 1023 44 10000 0.51 0 13:24 26.01.2021
4144 Clouds 1 1022 51 10000 0.51 0 12:44 26.01.2021
4145 Clouds 1 1022 55 10000 2.57 220 12:25 26.01.2021
4146 Clouds 0 1023 64 10000 0.51 0 11:58 26.01.2021
4147 Clouds 0 1023 64 10000 0.51 0 11:38 26.01.2021
4148 Clouds -1 1022 69 10000 1.54 0 10:47 26.01.2021
4149 Clouds -2 1022 86 10000 2.57 150 10:29 26.01.2021
4150 Clouds -2 1022 100 10000 0.51 0 09:47 26.01.2021
4151 Clouds -4 1022 100 10000 1.03 0 09:26 26.01.2021
4152 Clouds -4 1021 100 10000 0.51 0 08:53 26.01.2021
4153 Clouds -4 1021 100 10000 0.51 0 08:33 26.01.2021
4154 Clouds -4 1020 93 10000 1.03 80 07:47 26.01.2021
4155 Clouds -4 1019 100 10000 1.03 0 06:23 26.01.2021
4156 Fog -4 1019 100 10000 1.03 0 05:43 26.01.2021
4157 Clouds -2 1018 86 10000 3.09 270 04:28 26.01.2021
4158 Clouds -2 1017 86 10000 3.09 270 02:44 26.01.2021
4159 Clouds -1 1015 93 10000 1.54 140 00:56 26.01.2021
4160 Snow -2 1015 100 10000 0.51 0 23:39 25.01.2021
4161 Clouds -2 1014 100 10000 0.51 0 23:18 25.01.2021
4162 Clouds -2 1014 100 10000 0.51 0 22:39 25.01.2021
4163 Clouds -2 1013 93 10000 1.03 0 21:52 25.01.2021
4164 Clouds -2 1013 93 10000 1.03 0 21:33 25.01.2021
4165 Clouds -1 1011 80 10000 2.57 290 20:52 25.01.2021
4166 Clouds -1 1011 80 10000 2.57 290 20:33 25.01.2021
4167 Snow -1 1010 100 10000 2.06 230 19:52 25.01.2021
4168 Snow -1 1010 100 10000 2.06 230 19:32 25.01.2021
4169 Clouds -1 1009 86 10000 2.57 270 18:49 25.01.2021
4170 Snow -1 1009 100 10000 2.57 280 18:28 25.01.2021
4171 Snow -1 1008 93 10000 1.54 340 17:59 25.01.2021
4172 Snow -1 1008 93 10000 1.54 340 17:41 25.01.2021
4173 Snow -1 1008 100 4000 3.09 310 17:23 25.01.2021
4174 Snow 0 1007 100 2000 3.09 270 16:41 25.01.2021
4175 Snow 0 1007 93 800 4.12 270 16:22 25.01.2021
4176 Snow 1 1006 64 10000 2.57 260 15:50 25.01.2021
4177 Snow 1 1006 64 10000 2.57 260 15:50 25.01.2021
4178 Snow 1 1006 69 10000 4.12 270 15:31 25.01.2021
4179 Snow 1 1005 75 9000 4.63 270 14:50 25.01.2021
4180 Snow 1 1005 80 7000 3.6 300 14:20 25.01.2021
4181 Snow 1 1005 80 7000 3.6 300 14:20 25.01.2021
4182 Snow 1 1005 75 2500 3.6 290 13:54 25.01.2021
4183 Snow 1 1005 75 2500 3.6 290 13:34 25.01.2021
4184 Snow 1 1005 75 10000 4.63 260 12:46 25.01.2021
4185 Snow 1 1004 80 1500 4.12 320 12:24 25.01.2021
4186 Snow 0 1004 80 1500 4.12 320 11:57 25.01.2021
4187 Snow 0 1004 75 10000 4.63 250 11:20 25.01.2021
4188 Snow 0 1003 75 10000 4.63 240 10:43 25.01.2021
4189 Clouds 0 1003 80 10000 3.6 250 10:20 25.01.2021
4190 Snow 0 1002 86 10000 5.66 260 09:46 25.01.2021
4191 Snow -1 1002 93 4100 1.54 240 09:28 25.01.2021
4192 Snow 0 1002 100 4500 1.54 330 08:32 25.01.2021
4193 Snow 0 1001 100 6000 4.12 310 07:46 25.01.2021
4194 Snow 0 1001 100 650 5.66 300 07:26 25.01.2021
4195 Snow 0 1000 86 10000 4.12 240 06:22 25.01.2021
4196 Snow -1 1000 100 10000 2.57 130 01:34 25.01.2021
4197 Snow -1 1000 93 2500 1.54 320 00:31 25.01.2021
4198 Snow 0 1000 80 10000 3.6 290 23:20 24.01.2021
4199 Snow 0 1000 80 10000 3.6 290 23:20 24.01.2021
4200 Snow 0 1001 75 10000 4.63 290 22:46 24.01.2021
4201 Snow 0 1001 75 10000 6.17 290 22:27 24.01.2021
4202 Snow 0 1001 75 10000 6.17 290 22:25 24.01.2021
4203 Snow 1 1001 86 10000 1.03 0 21:51 24.01.2021
4204 Snow 1 1001 86 10000 1.03 0 21:24 24.01.2021
4205 Snow 1 1001 86 10000 2.06 60 20:46 24.01.2021
4206 Snow 1 1002 86 10000 2.06 130 20:23 24.01.2021
4207 Clouds 1 1002 80 10000 1.54 0 19:56 24.01.2021
4208 Snow 1 1002 80 10000 1.54 0 19:36 24.01.2021
4209 Clouds 0 1002 86 10000 1.54 120 19:18 24.01.2021
4210 Clouds 1 1002 75 10000 1.54 130 18:41 24.01.2021
4211 Clear 1 1002 75 10000 1.54 180 18:21 24.01.2021
4212 Clear 1 1002 69 10000 1.54 0 17:57 24.01.2021
4213 Clear 1 1002 69 10000 1.54 0 17:38 24.01.2021
4214 Clear 2 1002 56 10000 1.54 150 17:18 24.01.2021
4215 Clear 4 1002 48 10000 1.03 0 16:41 24.01.2021
4216 Clear 3 1002 48 10000 2.06 210 16:20 24.01.2021
4217 Clear 3 1002 56 10000 1.54 210 15:45 24.01.2021
4218 Clear 3 1002 60 10000 2.06 210 15:20 24.01.2021
4219 Clear 3 1003 56 10000 2.06 260 14:47 24.01.2021
4220 Clouds 3 1003 65 10000 2.06 220 14:24 24.01.2021
4221 Clouds 3 1003 60 10000 1.54 210 13:34 24.01.2021
4222 Clouds 2 1004 65 10000 2.57 290 12:51 24.01.2021
4223 Clouds 2 1004 60 10000 2.06 260 12:23 24.01.2021
4224 Clouds 1 1004 60 10000 1.03 0 11:56 24.01.2021
4225 Clouds 1 1003 64 10000 1.03 240 11:27 24.01.2021
4226 Clouds 1 1003 64 10000 1.03 240 10:59 24.01.2021
4227 Clouds 0 1003 64 10000 1.03 0 10:35 24.01.2021
4228 Clouds -1 1003 74 10000 1.03 0 09:47 24.01.2021
4229 Clouds -1 1002 74 10000 1.03 0 09:19 24.01.2021
4230 Clouds -1 1002 80 10000 1.03 0 08:38 24.01.2021
4231 Clouds 2 999 75 10000 3.09 280 03:51 24.01.2021
4232 Clouds 2 998 81 10000 3.09 270 02:20 24.01.2021
4233 Clouds 2 996 75 10000 4.12 250 00:57 24.01.2021
4234 Clouds 2 996 75 10000 4.12 250 00:21 24.01.2021
4235 Clouds 2 996 87 10000 4.63 280 23:41 23.01.2021
4236 Clouds 2 995 81 10000 4.12 0 23:20 23.01.2021
4237 Clouds 2 995 87 10000 3.09 240 22:41 23.01.2021
4238 Clouds 2 995 87 10000 3.09 240 22:41 23.01.2021
4239 Snow 2 995 100 10000 3.09 320 22:20 23.01.2021
4240 Snow 2 994 100 10000 4.12 170 21:24 23.01.2021
4241 Snow 2 994 100 10000 2.57 110 20:58 23.01.2021
4242 Snow 2 994 100 10000 2.57 110 20:38 23.01.2021
4243 Snow 2 994 100 10000 2.57 110 20:38 23.01.2021
4244 Snow 1 995 100 10000 3.09 120 20:20 23.01.2021
4245 Snow 1 995 100 10000 3.09 140 19:43 23.01.2021
4246 Clouds 1 995 93 3800 5.14 280 19:20 23.01.2021
4247 Snow 1 995 93 10000 2.57 150 18:43 23.01.2021
4248 Snow 2 995 81 10000 2.57 290 18:23 23.01.2021
4249 Rain 2 994 81 10000 1.03 0 17:44 23.01.2021
4250 Rain 2 994 75 10000 0.51 0 17:25 23.01.2021
4251 Rain 3 995 81 10000 1.54 300 16:46 23.01.2021
4252 Clouds 4 995 70 10000 2.57 300 16:24 23.01.2021
4253 Clouds 3 996 65 10000 1.54 0 15:31 23.01.2021
4254 Clouds 3 996 65 10000 1.54 0 14:53 23.01.2021
4255 Clouds 4 997 65 10000 1.03 0 14:28 23.01.2021
4256 Rain 4 997 70 10000 2.06 190 13:50 23.01.2021
4257 Clouds 4 997 70 10000 2.06 190 13:32 23.01.2021
4258 Clouds 4 998 70 10000 3.09 230 12:49 23.01.2021
4259 Clear 3 999 81 10000 1.03 0 12:26 23.01.2021
4260 Clear 2 1000 87 10000 1.03 0 11:45 23.01.2021
4261 Clouds 1 1000 93 10000 1.03 0 11:19 23.01.2021
4262 Clouds 0 1000 100 10000 1.03 100 10:29 23.01.2021
4263 Clouds 0 1001 100 10000 0.51 0 09:57 23.01.2021
4264 Clouds 0 1001 100 10000 0.51 0 09:32 23.01.2021
4265 Clouds 0 1001 100 10000 0.51 0 08:45 23.01.2021
4266 Clouds 0 1002 93 10000 2.57 290 07:50 23.01.2021
4267 Clouds 1 1002 100 10000 2.57 80 07:18 23.01.2021
4268 Snow 1 1002 80 10000 1.54 0 03:35 23.01.2021
4269 Snow 1 1000 87 8000 6.69 260 00:34 23.01.2021
4270 Snow 1 997 87 9000 8.23 260 23:36 22.01.2021
4271 Rain 2 995 93 9000 6.69 280 22:45 22.01.2021
4272 Rain 4 994 100 8000 7.2 280 22:22 22.01.2021
4273 Rain 5 993 100 7000 6.17 270 21:45 22.01.2021
4274 Rain 5 993 100 7000 6.17 270 21:45 22.01.2021
4275 Rain 5 992 100 7000 1.03 0 21:25 22.01.2021
4276 Rain 5 992 100 10000 0.51 0 20:54 22.01.2021
4277 Rain 5 992 93 10000 1.54 350 20:32 22.01.2021
4278 Rain 5 992 93 10000 2.06 330 19:48 22.01.2021
4279 Rain 5 991 100 10000 1.03 10 19:21 22.01.2021
4280 Rain 5 991 100 10000 1.03 0 18:48 22.01.2021
4281 Rain 6 991 100 10000 1.03 0 18:26 22.01.2021
4282 Clouds 6 991 100 10000 1.03 0 17:52 22.01.2021
4283 Clouds 6 991 100 10000 1.03 0 17:33 22.01.2021
4284 Clouds 8 992 87 10000 1.54 0 16:56 22.01.2021
4285 Clouds 7 992 87 10000 2.06 320 16:31 22.01.2021
4286 Clouds 8 993 76 10000 2.57 300 15:48 22.01.2021
4287 Clouds 8 992 81 10000 3.6 320 15:25 22.01.2021
4288 Clouds 8 992 81 10000 3.6 320 15:25 22.01.2021
4289 Clouds 8 993 71 10000 3.6 300 14:43 22.01.2021
4290 Clouds 8 993 71 10000 1.03 0 14:24 22.01.2021
4291 Clouds 9 993 71 10000 1.03 160 13:38 22.01.2021
4292 Clouds 8 993 76 10000 2.57 170 13:19 22.01.2021
4293 Clouds 8 994 76 10000 2.06 130 12:40 22.01.2021
4294 Clear 8 995 76 10000 1.03 0 12:18 22.01.2021
4295 Clouds 7 995 87 10000 2.06 320 11:38 22.01.2021
4296 Clouds 6 996 93 10000 2.57 320 10:48 22.01.2021
4297 Rain 5 996 87 10000 1.03 0 10:24 22.01.2021
4298 Clouds 4 997 93 10000 1.03 0 09:44 22.01.2021
4299 Clear 4 997 93 10000 3.6 100 08:58 22.01.2021
4300 Clear 4 997 93 10000 3.6 100 08:32 22.01.2021
4301 Clouds 4 998 100 10000 2.06 120 07:50 22.01.2021
4302 Clouds 4 1000 100 10000 1.03 0 05:26 22.01.2021
4303 Rain 5 1002 87 8000 10.29 270 01:54 22.01.2021
4304 Clouds 4 1001 81 10000 1.54 0 00:30 22.01.2021
4305 Rain 4 1000 81 10000 1.03 0 23:49 21.01.2021
4306 Clouds 5 1000 87 10000 2.57 150 23:21 21.01.2021
4307 Clouds 4 1000 87 10000 2.06 100 22:48 21.01.2021
4308 Rain 4 1001 93 10000 2.06 310 21:59 21.01.2021
4309 Rain 4 1001 93 10000 2.06 310 21:40 21.01.2021
4310 Rain 4 1001 93 10000 1.03 0 21:19 21.01.2021
4311 Rain 4 1002 93 10000 2.06 300 20:46 21.01.2021
4312 Rain 4 1001 93 10000 1.54 160 20:21 21.01.2021
4313 Clouds 5 1001 87 10000 1.54 140 19:50 21.01.2021
4314 Clouds 5 1002 81 10000 1.03 0 19:26 21.01.2021
4315 Clouds 6 1002 81 10000 1.54 70 18:49 21.01.2021
4316 Clouds 6 1002 81 10000 2.06 90 18:23 21.01.2021
4317 Clouds 6 1002 81 10000 2.06 90 17:58 21.01.2021
4318 Clouds 6 1002 81 10000 1.03 140 17:40 21.01.2021
4319 Clouds 6 1002 81 10000 2.06 120 17:18 21.01.2021
4320 Clouds 7 1003 70 10000 1.54 20 16:41 21.01.2021
4321 Clouds 7 1003 76 10000 1.03 0 16:22 21.01.2021
4322 Clouds 8 1003 70 10000 1.54 180 15:48 21.01.2021
4323 Clouds 8 1003 70 10000 0.51 0 15:28 21.01.2021
4324 Clouds 7 1004 75 10000 1.03 0 14:47 21.01.2021
4325 Clouds 7 1004 75 10000 1.03 0 14:25 21.01.2021
4326 Clouds 8 1004 65 10000 1.03 300 13:46 21.01.2021
4327 Clouds 7 1005 75 10000 1.54 190 13:26 21.01.2021
4328 Clouds 7 1005 87 10000 0.51 0 12:45 21.01.2021
4329 Clouds 7 1005 87 10000 0.51 0 12:25 21.01.2021
4330 Rain 6 1006 87 10000 1.03 0 11:52 21.01.2021
4331 Rain 6 1006 87 10000 1.03 0 11:32 21.01.2021
4332 Clouds 5 1006 87 10000 1.03 0 10:53 21.01.2021
4333 Clouds 5 1006 87 10000 1.03 0 10:34 21.01.2021
4334 Clouds 4 1005 93 10000 1.03 0 09:49 21.01.2021
4335 Clouds 3 1005 100 10000 1.03 0 09:30 21.01.2021
4336 Clouds 1 1005 100 10000 1.54 0 08:57 21.01.2021
4337 Clouds 2 1005 100 10000 0.51 0 08:27 21.01.2021
4338 Clouds 1 1005 100 10000 0.51 0 07:45 21.01.2021
4339 Clouds 1 1005 100 10000 0.51 0 07:23 21.01.2021
4340 Clouds 1 1005 100 10000 1.54 0 05:50 21.01.2021
4341 Clouds 0 1004 100 10000 1.54 0 04:29 21.01.2021
4342 Snow -1 1004 100 10000 1.54 120 01:33 21.01.2021
4343 Clouds 0 1005 100 10000 1.03 0 00:40 21.01.2021
4344 Clouds 0 1005 93 10000 0.51 0 23:43 20.01.2021
4345 Clouds 0 1005 100 10000 1.54 0 23:22 20.01.2021
4346 Clouds 0 1005 93 10000 2.06 150 22:49 20.01.2021
4347 Clouds 0 1005 100 10000 1.54 120 22:28 20.01.2021
4348 Clouds 0 1005 100 10000 1.54 150 21:48 20.01.2021
4349 Clouds 1 1005 100 10000 1.54 130 21:22 20.01.2021
4350 Clouds 0 1005 100 10000 1.54 0 20:50 20.01.2021
4351 Clouds 0 1006 100 10000 0.51 0 20:21 20.01.2021
4352 Clouds 1 1006 100 10000 0.51 0 19:47 20.01.2021
4353 Clouds 1 1006 100 10000 1.83 154 19:27 20.01.2021
4354 Clouds 1 1006 93 10000 1.03 0 18:42 20.01.2021
4355 Clear 1 1006 93 10000 1.54 0 18:20 20.01.2021
4356 Clear 2 1006 93 10000 2.57 110 17:43 20.01.2021
4357 Clear 3 1006 87 10000 2.57 130 17:24 20.01.2021
4358 Clear 4 1007 70 10000 2.57 140 16:45 20.01.2021
4359 Clear 4 1007 75 10000 2.57 150 16:20 20.01.2021
4360 Clear 5 1007 65 10000 2.06 130 15:38 20.01.2021
4361 Clear 5 1008 70 10000 1.54 0 14:57 20.01.2021
4362 Clear 5 1008 70 10000 1.54 0 14:38 20.01.2021
4363 Clear 5 1009 70 10000 1.54 0 14:18 20.01.2021
4364 Clear 4 1009 75 10000 1.54 150 13:36 20.01.2021
4365 Clear 3 1010 87 10000 2.57 120 12:55 20.01.2021
4366 Clear 3 1011 93 10000 2.57 90 12:22 20.01.2021
4367 Clear 2 1011 93 10000 3.6 110 11:40 20.01.2021
4368 Clear 1 1012 93 10000 2.57 120 11:19 20.01.2021
4369 Clear 1 1012 100 10000 2.57 130 10:45 20.01.2021
4370 Clear 1 1012 100 10000 2.57 160 10:22 20.01.2021
4371 Clear 0 1012 100 10000 1.03 0 09:38 20.01.2021
4372 Clear 0 1013 100 10000 2.06 180 09:18 20.01.2021
4373 Clear -1 1013 100 10000 1.03 0 08:41 20.01.2021
4374 Clear -1 1013 100 10000 1.54 0 08:21 20.01.2021
4375 Clear -1 1013 100 10000 2.06 110 07:38 20.01.2021
4376 Clouds -2 1013 100 10000 1.54 0 06:59 20.01.2021
4377 Clear -2 1014 100 10000 1.03 0 03:37 20.01.2021
4378 Clear -2 1015 100 10000 2.57 120 01:51 20.01.2021
4379 Clear -2 1016 100 10000 1.54 0 00:58 20.01.2021
4380 Clear -2 1017 100 10000 0.51 0 23:54 19.01.2021
4381 Clear -2 1017 100 10000 0.51 0 23:34 19.01.2021
4382 Clear -2 1017 100 10000 0.51 0 23:34 19.01.2021
4383 Clear -2 1017 100 10000 1.03 0 22:58 19.01.2021
4384 Clear -2 1017 100 10000 1.03 0 22:39 19.01.2021
4385 Clear -1 1017 100 10000 2.06 100 22:21 19.01.2021
4386 Clear -1 1017 100 10000 3.09 100 21:54 19.01.2021
4387 Clear -1 1017 100 10000 3.09 100 21:34 19.01.2021
4388 Clear -1 1018 93 10000 2.57 130 20:49 19.01.2021
4389 Clear -1 1018 93 10000 1.9 178 20:28 19.01.2021
4390 Clear -1 1018 93 10000 2.06 140 19:56 19.01.2021
4391 Clear -1 1018 93 10000 2.06 140 19:34 19.01.2021
4392 Clear 0 1018 86 10000 2.06 100 18:59 19.01.2021
4393 Clear 1 1018 86 10000 2.06 100 18:38 19.01.2021
4394 Clear 1 1018 80 10000 3.09 110 18:20 19.01.2021
4395 Clear 2 1018 80 10000 2.57 120 17:42 19.01.2021
4396 Clear 3 1018 75 10000 3.6 130 17:19 19.01.2021
4397 Clouds 4 1018 75 10000 3.09 140 16:39 19.01.2021
4398 Clouds 5 1018 65 10000 3.6 140 16:18 19.01.2021
4399 Clouds 5 1019 65 10000 3.09 150 15:48 19.01.2021
4400 Clouds 5 1019 60 10000 2.06 140 15:29 19.01.2021
4401 Clear 5 1019 75 10000 2.06 130 14:43 19.01.2021
4402 Clear 4 1019 75 10000 2.06 140 14:25 19.01.2021
4403 Clear 3 1020 69 10000 3.09 130 13:49 19.01.2021
4404 Clouds 3 1021 75 10000 2.06 140 13:23 19.01.2021
4405 Clouds 2 1021 75 10000 1.54 150 12:51 19.01.2021
4406 Clouds 2 1021 74 10000 2.06 130 12:30 19.01.2021
4407 Clear 0 1022 86 10000 2.06 150 11:52 19.01.2021
4408 Clear 0 1022 86 10000 2.06 150 11:29 19.01.2021
4409 Clear -1 1022 93 10000 2.57 150 10:53 19.01.2021
4410 Clear -1 1022 93 10000 2.57 150 10:32 19.01.2021
4411 Clear -3 1022 100 10000 1.54 150 09:54 19.01.2021
4412 Clear -3 1022 100 10000 1.54 150 09:36 19.01.2021
4413 Clear -5 1022 100 10000 0.51 0 08:59 19.01.2021
4414 Clear -5 1022 93 10000 1.03 0 08:31 19.01.2021
4415 Clear -5 1022 93 10000 1.54 170 07:51 19.01.2021
4416 Clouds -4 1023 93 10000 2.57 150 06:55 19.01.2021
4417 Clouds -3 1024 93 10000 2.06 100 03:20 19.01.2021
4418 Clouds -3 1025 93 10000 2.06 100 02:21 19.01.2021
4419 Clouds -2 1026 100 10000 2.57 90 00:18 19.01.2021
4420 Clouds -2 1026 100 10000 2.57 100 23:37 18.01.2021
4421 Clouds -2 1026 100 10000 2.06 110 23:18 18.01.2021
4422 Clouds -2 1026 100 10000 2.06 150 22:40 18.01.2021
4423 Clear -2 1026 100 10000 1.03 0 22:19 18.01.2021
4424 Clear -2 1026 100 10000 1.03 0 21:40 18.01.2021
4425 Clear -1 1026 93 10000 0.51 0 21:22 18.01.2021
4426 Clear -1 1026 93 10000 1.03 130 20:45 18.01.2021
4427 Clear -1 1026 100 10000 1.54 0 20:26 18.01.2021
4428 Clear -1 1026 100 10000 1.54 0 19:51 18.01.2021
4429 Clear -1 1026 100 10000 1.54 0 19:33 18.01.2021
4430 Clouds 0 1026 93 10000 1.03 0 18:47 18.01.2021
4431 Clouds 0 1026 75 10000 0.51 0 18:24 18.01.2021
4432 Clouds 1 1025 80 10000 1.03 0 17:46 18.01.2021
4433 Clouds 2 1026 75 10000 1.54 210 17:25 18.01.2021
4434 Clouds 3 1026 60 10000 1.54 300 16:48 18.01.2021
4435 Clouds 3 1026 60 10000 2.06 360 16:23 18.01.2021
4436 Clouds 3 1026 65 10000 1.54 290 15:49 18.01.2021
4437 Clouds 3 1026 60 10000 1.03 0 15:27 18.01.2021
4438 Clouds 3 1026 65 10000 2.57 280 14:46 18.01.2021
4439 Clouds 4 1026 65 10000 2.06 290 14:28 18.01.2021
4440 Clouds 3 1026 65 10000 1.03 0 13:54 18.01.2021
4441 Clouds 3 1026 65 10000 1.03 0 13:36 18.01.2021
4442 Clouds 4 1027 60 10000 1.03 0 13:18 18.01.2021
4443 Clouds 3 1027 81 10000 0.51 0 12:41 18.01.2021
4444 Clouds 3 1027 87 10000 2.06 130 12:18 18.01.2021
4445 Clouds 3 1027 87 10000 2.06 110 11:40 18.01.2021
4446 Clouds 2 1027 93 10000 2.57 100 11:21 18.01.2021
4447 Clouds 2 1027 93 10000 2.57 100 11:21 18.01.2021
4448 Clouds 1 1027 100 10000 2.06 120 10:46 18.01.2021
4449 Clouds 0 1027 100 10000 2.06 110 09:51 18.01.2021
4450 Clouds 1 1027 100 10000 2.06 110 09:32 18.01.2021
4451 Mist 0 1027 100 5000 0.51 0 08:56 18.01.2021
4452 Mist 0 1027 100 5000 1.44 170 08:25 18.01.2021
4453 Mist 0 1027 100 3000 1.44 170 07:47 18.01.2021
4454 Mist 0 1026 100 2300 0.51 0 06:32 18.01.2021
4455 Mist 0 1026 100 2600 0.51 0 04:41 18.01.2021
4456 Fog 0 1026 100 3900 0.51 0 04:20 18.01.2021
4457 Mist 0 1026 100 3400 0.51 0 03:45 18.01.2021
4458 Mist 0 1026 100 4600 0.51 0 03:23 18.01.2021
4459 Clouds 0 1025 100 5000 0.51 0 02:51 18.01.2021
4460 Clouds 0 1025 100 5000 1.54 140 01:56 18.01.2021
4461 Clouds 1 1025 100 8000 1.03 0 00:39 18.01.2021
4462 Clouds 1 1025 100 10000 1.03 0 23:49 17.01.2021
4463 Clouds 1 1025 100 10000 0.51 0 23:24 17.01.2021
4464 Clouds 1 1025 100 10000 1.03 100 22:47 17.01.2021
4465 Clouds 1 1025 100 10000 1.54 0 22:22 17.01.2021
4466 Clouds 1 1024 93 10000 1.03 0 21:42 17.01.2021
4467 Clouds 1 1024 100 10000 2.06 120 21:24 17.01.2021
4468 Clouds 1 1024 100 10000 1.03 0 20:50 17.01.2021
4469 Clouds 1 1024 93 10000 3.09 280 20:31 17.01.2021
4470 Snow 1 1023 100 10000 1.54 0 19:44 17.01.2021
4471 Snow 1 1023 100 10000 0.51 0 19:26 17.01.2021
4472 Snow 1 1023 100 10000 1.03 0 18:51 17.01.2021
4473 Snow 1 1023 100 10000 1.03 0 18:28 17.01.2021
4474 Snow 1 1022 100 10000 2.06 80 17:49 17.01.2021
4475 Snow 2 1021 100 10000 2.57 150 17:28 17.01.2021
4476 Snow 2 1021 100 10000 1.54 0 16:45 17.01.2021
4477 Snow 2 1020 100 10000 3.09 290 16:24 17.01.2021
4478 Snow 1 1020 100 6000 1.54 280 15:44 17.01.2021
4479 Snow 1 1019 100 3500 1.54 0 15:26 17.01.2021
4480 Snow 2 1019 100 5000 1.03 0 14:55 17.01.2021
4481 Snow 2 1019 100 6000 0.51 0 14:27 17.01.2021
4482 Snow 2 1019 100 6000 1.54 50 13:58 17.01.2021
4483 Snow 2 1019 100 6000 1.54 50 13:40 17.01.2021
4484 Snow 2 1019 100 5000 1.03 0 13:21 17.01.2021
4485 Snow 2 1019 93 5000 1.03 0 12:41 17.01.2021
4486 Snow 2 1019 93 10000 1.54 30 12:22 17.01.2021
4487 Rain 2 1019 75 10000 3.09 270 11:25 17.01.2021
4488 Clouds 2 1019 75 10000 3.09 290 10:51 17.01.2021
4489 Clouds 2 1018 75 10000 2.57 270 10:24 17.01.2021
4490 Clouds 2 1018 93 10000 2.06 270 09:48 17.01.2021
4491 Snow 1 1017 100 8000 2.57 320 08:48 17.01.2021
4492 Snow 1 1017 100 8000 1.54 110 08:26 17.01.2021
4493 Snow -1 1017 100 4200 0.51 0 04:29 17.01.2021
4494 Snow -1 1017 100 3600 1.03 0 02:50 17.01.2021
4495 Snow -2 1019 100 3700 1.03 0 00:54 17.01.2021
4496 Snow -2 1019 93 1800 1.54 120 00:21 17.01.2021
4497 Snow -2 1020 93 2500 2.06 140 23:52 16.01.2021
4498 Snow -2 1020 93 6000 2.57 150 23:21 16.01.2021
4499 Snow -2 1020 86 4800 2.06 120 22:52 16.01.2021
4500 Snow -2 1021 93 9000 1.03 0 22:18 16.01.2021
4501 Snow -2 1021 93 10000 2.06 110 21:43 16.01.2021
4502 Snow -2 1022 86 10000 1.39 204 21:22 16.01.2021
4503 Snow -2 1022 86 10000 1.03 170 20:47 16.01.2021
4504 Snow -2 1023 86 10000 0.51 0 20:23 16.01.2021
4505 Snow -2 1023 86 10000 1.54 300 19:48 16.01.2021
4506 Clouds -3 1023 86 10000 1.03 280 19:29 16.01.2021
4507 Clouds -3 1023 86 10000 0.51 0 18:45 16.01.2021
4508 Clouds -2 1024 80 10000 0.51 0 18:26 16.01.2021
4509 Clouds -2 1024 80 10000 0.51 0 17:50 16.01.2021
4510 Clouds -2 1024 80 10000 0.51 0 17:30 16.01.2021
4511 Clouds -3 1024 80 10000 2.06 290 16:50 16.01.2021
4512 Clouds -2 1024 80 10000 2.57 270 16:31 16.01.2021
4513 Clouds -2 1024 80 10000 2.57 270 15:55 16.01.2021
4514 Clouds -2 1024 80 10000 3.09 260 15:36 16.01.2021
4515 Clouds -2 1024 80 9000 3.6 290 14:31 16.01.2021
4516 Clouds -2 1025 86 8000 4.12 300 13:50 16.01.2021
4517 Clouds -2 1025 86 9000 3.6 300 13:30 16.01.2021
4518 Clouds -3 1025 93 8000 3.6 310 12:47 16.01.2021
4519 Clouds -3 1026 86 9000 3.09 300 12:21 16.01.2021
4520 Clouds -3 1026 86 10000 2.57 310 11:54 16.01.2021
4521 Clouds -3 1026 86 9000 3.09 320 11:25 16.01.2021
4522 Clouds -3 1026 86 9000 3.6 320 10:50 16.01.2021
4523 Clouds -4 1026 93 8000 2.57 330 10:30 16.01.2021
4524 Clouds -4 1026 93 9000 2.57 340 09:42 16.01.2021
4525 Clouds -5 1026 93 9000 3.09 320 09:19 16.01.2021
4526 Clouds -5 1026 93 9000 2.57 330 08:18 16.01.2021
4527 Clouds -6 1026 93 9000 2.57 320 06:44 16.01.2021
4528 Clouds -6 1026 93 9000 2.57 320 06:44 16.01.2021
4529 Clouds -6 1026 93 9000 3.09 310 04:52 16.01.2021
4530 Clouds -6 1025 93 10000 2.57 310 02:58 16.01.2021
4531 Clouds -6 1025 93 9000 2.06 310 02:25 16.01.2021
4532 Clouds -5 1025 86 10000 1.54 270 00:44 16.01.2021
4533 Clouds -5 1025 86 10000 1.54 270 00:20 16.01.2021
4534 Clouds -5 1025 86 10000 1.03 0 23:28 15.01.2021
4535 Clouds -4 1025 80 10000 2.06 340 22:27 15.01.2021
4536 Clouds -4 1024 80 10000 2.06 360 21:48 15.01.2021
4537 Clouds -4 1024 80 10000 2.06 10 21:30 15.01.2021
4538 Clouds -3 1024 74 10000 2.06 30 20:43 15.01.2021
4539 Clouds -3 1024 74 10000 1.54 0 20:23 15.01.2021
4540 Clouds -2 1024 74 10000 1.54 0 19:45 15.01.2021
4541 Clouds -2 1023 80 10000 1.54 50 19:25 15.01.2021
4542 Clouds -2 1023 74 10000 3.03 51 18:45 15.01.2021
4543 Clouds -2 1023 86 10000 2.06 0 18:20 15.01.2021
4544 Clouds -2 1023 86 10000 2.06 0 18:20 15.01.2021
4545 Clouds -2 1022 86 10000 2.06 30 17:56 15.01.2021
4546 Clouds -2 1022 86 10000 2.06 30 17:38 15.01.2021
4547 Snow -2 1021 93 10000 2.57 280 17:19 15.01.2021
4548 Snow -2 1021 100 9000 3.6 290 16:43 15.01.2021
4549 Snow -1 1020 100 6000 4.63 300 16:22 15.01.2021
4550 Snow -1 1020 100 3500 2.57 320 15:40 15.01.2021
4551 Snow -1 1019 100 3500 3.09 300 15:19 15.01.2021
4552 Snow -1 1019 100 3500 3.09 290 14:41 15.01.2021
4553 Snow -1 1019 100 2000 3.09 290 14:22 15.01.2021
4554 Snow 0 1019 100 2000 3.6 280 13:40 15.01.2021
4555 Snow 0 1019 100 2000 3.6 280 13:40 15.01.2021
4556 Snow 0 1018 100 2000 3.6 290 13:20 15.01.2021
4557 Snow 0 1018 100 1300 4.12 290 12:48 15.01.2021
4558 Snow 0 1018 100 1400 4.12 290 12:30 15.01.2021
4559 Snow 0 1017 100 1000 4.63 300 11:43 15.01.2021
4560 Snow 0 1017 100 3300 4.12 290 11:23 15.01.2021
4561 Rain 1 1016 100 5000 4.63 300 10:52 15.01.2021
4562 Rain 3 1015 100 6000 4.12 320 10:24 15.01.2021
4563 Rain 3 1015 100 8000 0.51 0 09:50 15.01.2021
4564 Rain 3 1014 100 8000 0.51 0 09:29 15.01.2021
4565 Rain 3 1014 100 2000 1.03 0 08:31 15.01.2021
4566 Mist 3 1014 100 3000 1.03 240 07:47 15.01.2021
4567 Mist 4 1013 100 2700 0.51 0 07:24 15.01.2021
4568 Mist 4 1013 100 3500 0.51 0 06:52 15.01.2021
4569 Clouds 4 1013 100 8000 1.03 110 03:29 15.01.2021
4570 Drizzle 4 1013 100 2800 1.03 0 00:57 15.01.2021
4571 Rain 3 1013 100 10000 2.06 130 23:47 14.01.2021
4572 Rain 3 1013 100 3800 1.03 0 22:59 14.01.2021
4573 Rain 3 1013 100 3800 1.03 0 22:40 14.01.2021
4574 Rain 3 1013 100 4900 1.54 90 22:22 14.01.2021
4575 Clouds 3 1013 100 6000 2.06 120 21:42 14.01.2021
4576 Clouds 4 1014 100 5000 1.03 150 21:21 14.01.2021
4577 Rain 4 1014 100 6000 1.54 140 20:49 14.01.2021
4578 Rain 3 1014 100 10000 0.51 0 20:25 14.01.2021
4579 Rain 4 1014 100 10000 1.03 0 19:43 14.01.2021
4580 Rain 4 1014 100 10000 1.03 10 19:25 14.01.2021
4581 Rain 4 1015 93 10000 1.03 0 18:52 14.01.2021
4582 Rain 4 1015 87 10000 2.06 360 18:27 14.01.2021
4583 Rain 4 1015 93 10000 2.06 330 17:46 14.01.2021
4584 Rain 4 1016 87 10000 2.06 290 17:27 14.01.2021
4585 Rain 5 1016 75 10000 3.09 260 16:43 14.01.2021
4586 Rain 5 1016 75 10000 3.6 260 16:18 14.01.2021
4587 Rain 5 1016 81 9000 3.6 270 15:45 14.01.2021
4588 Clouds 4 1016 87 6000 4.63 260 14:59 14.01.2021
4589 Clouds 4 1016 87 6000 4.63 260 14:38 14.01.2021
4590 Rain 4 1016 87 6000 6.17 250 14:19 14.01.2021
4591 Rain 4 1016 87 6000 6.17 250 14:19 14.01.2021
4592 Rain 4 1017 81 6000 7.2 250 13:53 14.01.2021
4593 Rain 4 1017 87 5000 6.17 250 13:21 14.01.2021
4594 Rain 4 1017 87 4500 4.12 250 12:49 14.01.2021
4595 Rain 4 1017 87 4000 4.12 260 12:20 14.01.2021
4596 Rain 4 1017 87 4000 5.14 250 11:43 14.01.2021
4597 Rain 5 1017 81 4500 6.17 270 11:21 14.01.2021
4598 Rain 5 1017 75 8000 7.2 270 10:52 14.01.2021
4599 Rain 5 1017 75 9000 5.66 260 10:29 14.01.2021
4600 Rain 5 1016 75 10000 8.23 250 09:48 14.01.2021
4601 Rain 5 1016 75 10000 7.2 250 09:23 14.01.2021
4602 Drizzle 5 1017 75 10000 6.17 250 08:52 14.01.2021
4603 Clouds 5 1017 75 10000 6.69 240 08:28 14.01.2021
4604 Clouds 5 1017 75 10000 5.66 240 07:50 14.01.2021
4605 Clouds 5 1017 75 6000 6.69 250 06:59 14.01.2021
4606 Clouds 5 1017 75 10000 5.66 250 06:19 14.01.2021
4607 Clouds 5 1018 81 5000 5.66 240 01:55 14.01.2021
4608 Clouds 5 1018 81 10000 3.09 0 23:56 13.01.2021
4609 Drizzle 5 1018 81 10000 3.09 0 23:23 13.01.2021
4610 Clouds 4 1018 100 10000 1.54 0 22:40 13.01.2021
4611 Clouds 3 1019 100 4500 1.03 0 22:18 13.01.2021
4612 Clouds 3 1019 100 2800 1.03 0 21:42 13.01.2021
4613 Snow 3 1019 100 2700 0.51 0 21:19 13.01.2021
4614 Snow 2 1019 100 9000 1.03 0 20:42 13.01.2021
4615 Snow 2 1019 100 10000 1.03 10 20:20 13.01.2021
4616 Snow 2 1019 93 10000 1.03 60 19:43 13.01.2021
4617 Snow 2 1019 93 10000 2.06 150 19:22 13.01.2021
4618 Rain 2 1019 87 10000 2.57 250 18:42 13.01.2021
4619 Rain 3 1020 75 10000 2.06 0 18:18 13.01.2021
4620 Rain 3 1019 93 10000 3.09 140 17:40 13.01.2021
4621 Rain 4 1019 87 10000 5.14 140 17:18 13.01.2021
4622 Rain 4 1020 75 10000 1.03 0 16:23 13.01.2021
4623 Rain 4 1020 75 10000 2.06 290 15:59 13.01.2021
4624 Rain 4 1020 75 10000 2.06 290 15:40 13.01.2021
4625 Clouds 4 1020 75 10000 2.57 300 14:56 13.01.2021
4626 Clouds 4 1020 75 10000 2.06 290 14:21 13.01.2021
4627 Clouds 4 1021 75 10000 2.06 320 13:38 13.01.2021
4628 Clouds 4 1021 87 10000 1.54 340 13:18 13.01.2021
4629 Clouds 4 1021 81 10000 1.03 0 12:44 13.01.2021
4630 Clouds 4 1021 81 10000 3.09 280 12:22 13.01.2021
4631 Clouds 3 1021 87 10000 2.06 250 11:49 13.01.2021
4632 Clouds 3 1021 100 10000 3.6 280 11:31 13.01.2021
4633 Clouds 2 1021 100 10000 3.6 290 10:47 13.01.2021
4634 Clouds 2 1021 93 10000 3.09 300 10:26 13.01.2021
4635 Clouds 2 1020 100 10000 1.54 330 09:40 13.01.2021
4636 Clouds 1 1020 100 10000 2.57 320 08:58 13.01.2021
4637 Clouds 1 1020 100 10000 2.57 320 08:34 13.01.2021
4638 Clouds 2 1019 100 10000 0.51 0 07:57 13.01.2021
4639 Clouds 2 1019 100 10000 1.54 20 07:27 13.01.2021
4640 Drizzle 2 1019 100 5000 1.03 0 05:27 13.01.2021
4641 Clouds 2 1018 100 9000 1.03 0 04:18 13.01.2021
4642 Clouds 2 1018 100 10000 0.51 0 03:41 13.01.2021
4643 Clouds 2 1018 100 10000 1.03 0 03:19 13.01.2021
4644 Drizzle 3 1017 100 10000 1.03 0 00:47 13.01.2021
4645 Drizzle 3 1017 100 10000 2.06 360 23:40 12.01.2021
4646 Clouds 3 1016 93 10000 1.03 0 22:57 12.01.2021
4647 Clouds 3 1016 93 10000 1.03 0 22:36 12.01.2021
4648 Clouds 3 1016 93 10000 2.57 300 22:18 12.01.2021
4649 Rain 3 1016 93 10000 2.57 300 21:42 12.01.2021
4650 Rain 3 1016 93 10000 2.06 0 21:23 12.01.2021
4651 Rain 3 1016 93 10000 2.06 0 20:46 12.01.2021
4652 Rain 2 1016 93 10000 3.6 300 20:26 12.01.2021
4653 Snow 2 1016 93 10000 2.06 0 19:43 12.01.2021
4654 Snow 2 1016 100 4000 1.03 0 18:54 12.01.2021
4655 Snow 2 1016 100 4000 1.03 0 18:26 12.01.2021
4656 Snow 2 1016 100 3000 1.03 0 17:58 12.01.2021
4657 Snow 2 1016 100 3000 1.03 0 17:33 12.01.2021
4658 Snow 2 1016 100 3000 2.06 120 16:46 12.01.2021
4659 Snow 1 1016 100 2000 1.03 120 16:27 12.01.2021
4660 Snow 1 1017 100 1200 1.03 0 15:54 12.01.2021
4661 Snow 1 1017 100 3000 5.69 236 15:27 12.01.2021
4662 Snow 1 1017 100 3000 5.69 236 14:55 12.01.2021
4663 Snow 1 1017 100 3000 5.69 236 14:37 12.01.2021
4664 Snow 1 1017 100 1500 1.03 200 14:18 12.01.2021
4665 Snow 0 1018 93 1500 1.54 280 13:43 12.01.2021
4666 Snow 0 1019 80 3000 1.54 270 12:38 12.01.2021
4667 Snow -1 1020 80 10000 1.03 0 11:53 12.01.2021
4668 Snow -1 1020 80 10000 1.03 0 11:53 12.01.2021
4669 Snow -1 1020 80 10000 1.03 0 11:34 12.01.2021
4670 Snow -1 1020 80 10000 1.54 0 10:44 12.01.2021
4671 Snow -1 1020 80 10000 1.03 0 10:20 12.01.2021
4672 Snow -2 1021 80 10000 1.03 0 09:53 12.01.2021
4673 Snow -2 1020 80 10000 1.03 0 09:23 12.01.2021
4674 Snow -3 1021 86 10000 3.6 100 08:28 12.01.2021
4675 Snow -3 1021 86 10000 5.14 120 07:57 12.01.2021
4676 Snow -3 1021 86 10000 5.14 120 07:33 12.01.2021
4677 Clouds -4 1021 86 10000 2.06 110 05:56 12.01.2021
4678 Clouds -6 1022 93 8000 1.03 130 03:48 12.01.2021
4679 Clouds -6 1022 93 8000 1.03 150 03:23 12.01.2021
4680 Clear -7 1022 92 10000 0.51 0 02:18 12.01.2021
4681 Clear -7 1022 92 7000 1.03 0 00:55 12.01.2021
4682 Clear -7 1022 92 8000 1.03 0 23:44 11.01.2021
4683 Clear -7 1021 92 9000 1.03 0 23:20 11.01.2021
4684 Clear -7 1021 86 9000 0.51 0 22:47 11.01.2021
4685 Clear -7 1021 86 9000 1.03 0 22:28 11.01.2021
4686 Clouds -7 1021 86 9000 2.06 130 21:47 11.01.2021
4687 Clear -7 1022 61 10000 0.86 199 21:26 11.01.2021
4688 Clear -7 1022 86 9000 1.03 0 20:59 11.01.2021
4689 Clear -7 1022 86 9000 1.03 0 20:39 11.01.2021
4690 Clear -7 1021 93 10000 1.03 150 20:21 11.01.2021
4691 Clear -6 1021 86 10000 1.54 130 19:50 11.01.2021
4692 Clear -6 1021 79 10000 1.54 120 19:23 11.01.2021
4693 Clear -5 1021 80 10000 1.54 110 18:44 11.01.2021
4694 Clear -5 1021 80 10000 0.69 154 18:24 11.01.2021
4695 Clear -5 1021 80 10000 0.69 154 17:42 11.01.2021
4696 Clear -4 1020 74 10000 1.03 220 17:24 11.01.2021
4697 Clear -3 1020 64 10000 1.03 200 16:49 11.01.2021
4698 Clear -3 1020 64 10000 1.54 210 16:29 11.01.2021
4699 Clear -2 1020 59 10000 1.03 0 15:58 11.01.2021
4700 Clear -2 1020 59 10000 1.03 0 15:37 11.01.2021
4701 Clear -2 1020 64 10000 1.54 0 14:58 11.01.2021
4702 Clear -1 1020 64 10000 1.54 0 14:37 11.01.2021
4703 Clear -2 1020 64 10000 1.54 0 13:48 11.01.2021
4704 Clouds -3 1021 68 10000 1.54 250 13:23 11.01.2021
4705 Clouds -3 1021 68 10000 2.06 200 12:45 11.01.2021
4706 Clouds -3 1022 68 10000 2.57 150 12:27 11.01.2021
4707 Clouds -3 1022 74 10000 2.06 160 11:50 11.01.2021
4708 Clouds -3 1022 74 10000 2.06 150 11:21 11.01.2021
4709 Clouds -4 1022 74 10000 1.54 0 10:42 11.01.2021
4710 Clouds -4 1021 80 10000 2.06 130 10:23 11.01.2021
4711 Clouds -4 1021 80 10000 2.06 130 09:37 11.01.2021
4712 Clouds -5 1021 80 10000 2.06 140 09:19 11.01.2021
4713 Clouds -6 1021 80 10000 1.03 170 08:43 11.01.2021
4714 Clouds -5 1020 86 10000 2.06 170 07:51 11.01.2021
4715 Clouds -5 1020 86 10000 1.54 160 07:25 11.01.2021
4716 Clouds -6 1020 86 10000 1.54 120 06:50 11.01.2021
4717 Clouds -7 1019 93 10000 2.06 150 02:57 11.01.2021
4718 Clouds -5 1019 86 10000 2.06 130 01:25 11.01.2021
4719 Clouds -5 1019 86 10000 1.54 120 23:51 10.01.2021
4720 Clouds -4 1019 86 10000 1.54 120 23:24 10.01.2021
4721 Clouds -4 1019 86 10000 1.03 0 22:46 10.01.2021
4722 Clouds -4 1019 80 10000 0.51 0 22:20 10.01.2021
4723 Clouds -4 1019 86 10000 1.54 160 21:44 10.01.2021
4724 Clouds -4 1019 86 10000 1.03 0 21:20 10.01.2021
4725 Clear -4 1019 86 10000 1.03 0 20:50 10.01.2021
4726 Clear -4 1019 74 10000 1.03 0 20:29 10.01.2021
4727 Clouds -4 1018 74 10000 2.57 30 19:42 10.01.2021
4728 Clouds -4 1018 74 10000 1.03 70 19:24 10.01.2021
4729 Clouds -3 1018 74 10000 1.54 80 18:46 10.01.2021
4730 Clouds -3 1018 69 10000 1.54 0 18:21 10.01.2021
4731 Clouds -2 1017 69 10000 2.06 40 17:27 10.01.2021
4732 Clouds -2 1017 64 10000 3.09 50 16:58 10.01.2021
4733 Clouds -2 1017 64 10000 3.09 50 16:32 10.01.2021
4734 Clear -2 1016 64 10000 3.6 50 15:43 10.01.2021
4735 Clouds -2 1016 64 10000 3.6 60 15:24 10.01.2021
4736 Clouds -1 1016 64 10000 2.57 50 14:43 10.01.2021
4737 Clouds -1 1016 64 10000 3.09 40 14:24 10.01.2021
4738 Clouds -1 1016 64 10000 2.57 30 13:54 10.01.2021
4739 Clouds -1 1016 64 10000 2.57 30 13:36 10.01.2021
4740 Clouds -1 1017 64 10000 2.57 60 13:18 10.01.2021
4741 Clouds -2 1017 64 10000 3.09 40 12:41 10.01.2021
4742 Clouds -1 1017 64 10000 2.57 100 11:58 10.01.2021
4743 Clouds -2 1018 69 10000 2.06 110 11:21 10.01.2021
4744 Clouds -2 1017 69 10000 2.06 100 10:53 10.01.2021
4745 Clouds -3 1017 69 10000 2.57 0 10:25 10.01.2021
4746 Clouds -3 1017 69 10000 1.54 100 09:46 10.01.2021
4747 Clouds -3 1017 74 10000 2.06 50 08:50 10.01.2021
4748 Clouds -3 1017 69 10000 2.06 70 08:19 10.01.2021
4749 Clouds -3 1017 74 10000 1.54 70 07:28 10.01.2021
4750 Clouds -3 1017 74 10000 3.09 90 06:19 10.01.2021
4751 Clouds -3 1017 74 10000 3.09 60 05:35 10.01.2021
4752 Clouds -3 1017 80 10000 2.57 60 02:55 10.01.2021
4753 Clouds -2 1017 80 10000 2.06 130 00:48 10.01.2021
4754 Clouds -2 1017 80 10000 1.54 120 23:43 09.01.2021
4755 Clouds -2 1017 74 10000 2.06 150 23:25 09.01.2021
4756 Clouds -2 1017 74 10000 2.06 150 22:44 09.01.2021
4757 Clouds -2 1017 74 10000 1.54 60 22:18 09.01.2021
4758 Clouds -2 1017 74 10000 2.06 60 21:41 09.01.2021
4759 Clouds -2 1017 74 10000 1.03 90 21:23 09.01.2021
4760 Clouds -2 1017 74 10000 1.03 90 20:59 09.01.2021
4761 Clouds -2 1017 74 10000 1.03 90 20:38 09.01.2021
4762 Clouds -1 1017 74 10000 1.03 0 19:44 09.01.2021
4763 Clouds -1 1017 74 10000 2.57 70 19:22 09.01.2021
4764 Clouds -1 1016 69 10000 2.06 50 18:39 09.01.2021
4765 Clouds -1 1016 74 10000 2.57 60 18:20 09.01.2021
4766 Clouds -1 1016 74 10000 2.06 60 17:45 09.01.2021
4767 Clouds -1 1016 69 10000 1.54 0 17:27 09.01.2021
4768 Clear -1 1016 69 10000 1.54 0 16:32 09.01.2021
4769 Clear -1 1015 69 10000 2.57 40 15:47 09.01.2021
4770 Clear -1 1015 69 10000 2.06 50 15:28 09.01.2021
4771 Clear -1 1015 69 10000 2.57 30 14:40 09.01.2021
4772 Clear -1 1015 69 10000 3.09 30 14:20 09.01.2021
4773 Clear -1 1015 69 10000 3.09 60 13:47 09.01.2021
4774 Clear -2 1016 74 10000 1.03 0 13:29 09.01.2021
4775 Clear -2 1016 64 10000 0.51 0 12:48 09.01.2021
4776 Clear -2 1017 74 10000 1.03 0 12:22 09.01.2021
4777 Clear -3 1017 80 10000 1.03 0 11:50 09.01.2021
4778 Clear -3 1017 86 10000 0.51 0 11:30 09.01.2021
4779 Clear -4 1017 93 10000 1.54 230 10:52 09.01.2021
4780 Clear -5 1017 93 10000 0.51 0 10:30 09.01.2021
4781 Clear -6 1017 93 10000 0.51 0 09:46 09.01.2021
4782 Clear -6 1016 93 10000 0.51 0 09:25 09.01.2021
4783 Clear -6 1016 100 10000 0.51 0 08:28 09.01.2021
4784 Clear -6 1016 100 10000 1.03 140 06:57 09.01.2021
4785 Clear -6 1016 100 10000 1.03 140 06:39 09.01.2021
4786 Clear -6 1016 100 10000 1.03 0 04:47 09.01.2021
4787 Clear -6 1016 93 10000 0.51 0 03:20 09.01.2021
4788 Clear -5 1016 93 10000 2.06 130 02:29 09.01.2021
4789 Clear -5 1016 93 10000 1.03 0 01:44 09.01.2021
4790 Clear -5 1016 93 10000 0.51 0 00:34 09.01.2021
4791 Clear -5 1016 93 10000 1.03 160 23:50 08.01.2021
4792 Clear -4 1016 100 10000 1.03 0 22:56 08.01.2021
4793 Clear -4 1016 86 10000 1.54 140 21:59 08.01.2021
4794 Clear -4 1016 86 10000 1.54 140 21:35 08.01.2021
4795 Clear -4 1016 93 10000 2.06 110 20:42 08.01.2021
4796 Clear -3 1016 86 10000 1.03 120 20:23 08.01.2021
4797 Clear -3 1015 86 10000 1.54 90 19:44 08.01.2021
4798 Clear -3 1015 86 10000 1.03 180 19:21 08.01.2021
4799 Clear -3 1015 74 10000 2.06 60 18:35 08.01.2021
4800 Clear -2 1015 74 10000 0.51 0 17:56 08.01.2021
4801 Clear -1 1015 74 10000 0.51 0 17:35 08.01.2021
4802 Clear -1 1014 64 10000 1.54 0 16:51 08.01.2021
4803 Clear -1 1014 64 10000 1.54 0 16:51 08.01.2021
4804 Clear 1 1014 60 10000 1.54 0 16:26 08.01.2021
4805 Clear 1 1014 52 10000 1.54 190 15:40 08.01.2021
4806 Clear 1 1014 51 10000 2.06 220 14:45 08.01.2021
4807 Clear 2 1014 52 10000 1.54 180 14:26 08.01.2021
4808 Clear 1 1015 60 10000 2.57 150 13:23 08.01.2021
4809 Clear 1 1015 55 10000 2.57 140 12:57 08.01.2021
4810 Clear 1 1015 55 10000 2.57 140 12:39 08.01.2021
4811 Clear 1 1015 60 10000 2.57 140 12:19 08.01.2021
4812 Clear 0 1015 60 10000 3.09 140 11:42 08.01.2021
4813 Clouds -1 1015 64 10000 2.57 130 11:22 08.01.2021
4814 Clouds -1 1015 69 10000 1.54 150 10:46 08.01.2021
4815 Clouds -2 1015 69 10000 1.54 90 10:24 08.01.2021
4816 Clouds -2 1015 74 10000 1.54 100 09:43 08.01.2021
4817 Clouds -2 1015 74 10000 1.54 110 09:21 08.01.2021
4818 Clouds -2 1014 74 10000 2.06 120 08:19 08.01.2021
4819 Clouds -2 1014 74 10000 1.54 100 07:25 08.01.2021
4820 Clouds -2 1014 74 10000 1.54 100 07:25 08.01.2021
4821 Clouds -1 1015 80 10000 2.06 120 04:26 08.01.2021
4822 Clouds -3 1014 93 10000 1.54 150 23:46 07.01.2021
4823 Clouds -2 1014 86 10000 1.03 0 23:28 07.01.2021
4824 Clouds -2 1014 100 10000 2.06 160 22:42 07.01.2021
4825 Clouds -2 1014 100 10000 1.03 150 22:18 07.01.2021
4826 Clouds -2 1014 93 10000 0.51 0 21:40 07.01.2021
4827 Clouds -2 1014 86 10000 0.51 0 21:21 07.01.2021
4828 Clouds -2 1014 86 10000 0.51 60 20:43 07.01.2021
4829 Clouds -2 1014 86 10000 0.51 0 20:23 07.01.2021
4830 Clouds -2 1013 86 10000 1.03 180 19:41 07.01.2021
4831 Clouds -2 1013 86 10000 0.51 120 18:54 07.01.2021
4832 Clouds -2 1013 86 10000 0.51 0 18:23 07.01.2021
4833 Clouds -2 1013 80 10000 1.03 80 17:42 07.01.2021
4834 Clear -2 1013 80 10000 0.51 0 17:18 07.01.2021
4835 Clear -1 1013 69 10000 0.51 0 16:51 07.01.2021
4836 Clear 0 1013 69 10000 2.06 230 16:20 07.01.2021
4837 Clear 1 1013 60 10000 1.54 220 15:34 07.01.2021
4838 Clear 2 1013 52 10000 1.54 170 14:42 07.01.2021
4839 Clear 2 1013 52 10000 1.54 170 14:42 07.01.2021
4840 Clear 2 1013 52 10000 1.54 170 14:42 07.01.2021
4841 Clear 2 1013 52 10000 1.54 170 14:42 07.01.2021
4842 Clear 2 1013 55 10000 1.54 170 14:23 07.01.2021
4843 Clear 1 1013 60 10000 1.54 170 13:36 07.01.2021
4844 Clouds 1 1013 64 10000 2.06 150 13:18 07.01.2021
4845 Clouds 1 1014 68 10000 3.6 140 12:33 07.01.2021
4846 Clouds 0 1014 68 10000 3.6 140 11:52 07.01.2021
4847 Clouds 0 1014 68 10000 4.1 150 11:30 07.01.2021
4848 Clouds -1 1014 68 10000 3.6 130 10:48 07.01.2021
4849 Clouds -2 1014 79 10000 2.6 110 10:19 07.01.2021
4850 Clouds -2 1014 86 10000 2.1 100 09:46 07.01.2021
4851 Clouds -2 1014 86 10000 2.6 110 09:18 07.01.2021
4852 Clouds -2 1014 74 10000 3.1 140 08:26 07.01.2021
4853 Clouds -1 1014 79 10000 2.6 120 07:45 07.01.2021
4854 Clouds -1 1014 74 10000 3.1 150 06:59 07.01.2021
4855 Clouds -1 1014 92 10000 1.02 187 03:35 07.01.2021
4856 Clouds -1 1014 92 9000 1.5 100 00:27 07.01.2021
4857 Clouds -1 1014 92 10000 1.5 80 23:36 06.01.2021
4858 Clouds -1 1014 92 9000 1.5 140 22:37 06.01.2021
4859 Clouds -1 1014 92 10000 1 110 21:43 06.01.2021
4860 Clouds -1 1014 92 10000 1 110 21:23 06.01.2021
4861 Clouds -1 1014 92 10000 1 110 20:51 06.01.2021
4862 Clouds 0 1013 95 10000 2.1 130 20:23 06.01.2021
4863 Clouds 0 1013 95 10000 2.1 130 19:49 06.01.2021
4864 Clouds 0 1013 95 10000 1.5 110 19:29 06.01.2021
4865 Clouds 0 1013 95 10000 1.5 140 18:55 06.01.2021
4866 Clouds 0 1013 95 10000 1.5 140 18:36 06.01.2021
4867 Clouds 0 1013 95 10000 2.1 150 18:18 06.01.2021
4868 Snow 0 1012 95 10000 2.1 150 17:41 06.01.2021
4869 Snow 0 1012 95 10000 2.1 150 17:21 06.01.2021
4870 Clouds 0 1012 95 10000 2.1 150 16:39 06.01.2021
4871 Clouds 0 1012 93 10000 2.6 150 16:18 06.01.2021
4872 Clouds 0 1012 93 10000 2.6 150 15:49 06.01.2021
4873 Clouds 0 1012 92 10000 2.1 140 15:24 06.01.2021
4874 Snow 0 1012 90 5000 2.1 140 14:41 06.01.2021
4875 Snow 0 1012 88 6000 2.1 150 14:19 06.01.2021
4876 Snow 0 1013 88 6000 2.1 150 13:40 06.01.2021
4877 Snow 0 1012 90 6000 2.1 150 13:18 06.01.2021
4878 Snow 0 1012 90 6000 2.1 150 12:45 06.01.2021
4879 Clouds -1 1012 86 9000 2.1 130 11:50 06.01.2021
4880 Clouds -1 1012 86 9000 2.1 130 11:24 06.01.2021
4881 Clouds -1 1012 86 10000 1.5 140 10:46 06.01.2021
4882 Clouds -2 1011 92 8000 1.5 140 09:53 06.01.2021
4883 Clouds -2 1011 92 8000 1 170 09:34 06.01.2021
4884 Clouds -2 1011 92 7000 0.53 219 08:55 06.01.2021
4885 Clouds -2 1010 92 8000 0.46 211 08:21 06.01.2021
4886 Clouds -2 1010 86 10000 1 110 07:54 06.01.2021
4887 Clouds -1 1010 80 10000 0.16 191 06:45 06.01.2021
4888 Clouds -1 1010 80 10000 2.1 240 05:32 06.01.2021
4889 Clouds -1 1010 80 10000 1 270 04:31 06.01.2021
4890 Clouds -1 1009 80 10000 3.1 310 02:45 06.01.2021
4891 Clouds -1 1009 80 10000 3.1 310 02:22 06.01.2021
4892 Clouds -1 1009 80 10000 2.6 340 00:29 06.01.2021
4893 Clouds -1 1009 86 10000 1.5 20 23:23 05.01.2021
4894 Clouds -1 1009 86 10000 1.5 20 22:41 05.01.2021
4895 Clouds -1 1009 86 10000 2.1 10 22:20 05.01.2021
4896 Clouds -1 1009 86 10000 2.1 10 21:52 05.01.2021
4897 Clouds 0 1009 96 10000 2.6 10 20:41 05.01.2021
4898 Clouds -1 1009 96 10000 2.6 10 20:23 05.01.2021
4899 Clouds -1 1009 96 10000 1.5 30 19:41 05.01.2021
4900 Clouds -1 1009 96 10000 1.5 10 19:21 05.01.2021
4901 Clouds 0 1009 96 9000 2.1 10 18:43 05.01.2021
4902 Clouds -1 1009 96 9000 2.1 10 18:24 05.01.2021
4903 Clouds -1 1009 96 9000 1.5 350 17:49 05.01.2021
4904 Clouds 0 1009 95 9000 1.5 350 17:27 05.01.2021
4905 Clouds 0 1009 95 9000 1.5 310 16:52 05.01.2021
4906 Clouds -1 1009 94 9000 2.1 290 16:21 05.01.2021
4907 Clouds -1 1009 94 7000 1.5 290 15:50 05.01.2021
4908 Clouds 0 1009 89 7000 2.1 290 14:57 05.01.2021
4909 Clouds 0 1009 89 7000 2.1 290 14:38 05.01.2021
4910 Clouds 0 1009 87 8000 1.5 0 13:49 05.01.2021
4911 Clouds 0 1009 86 8000 1.5 0 13:26 05.01.2021
4912 Clouds 0 1009 86 8000 1 0 12:49 05.01.2021
4913 Clouds -1 1009 89 8000 1 0 12:26 05.01.2021
4914 Clouds 0 1009 89 7000 1.28 27 11:39 05.01.2021
4915 Clouds -1 1009 92 7000 1 250 10:55 05.01.2021
4916 Clouds -1 1009 92 8000 0.5 0 10:36 05.01.2021
4917 Clouds -1 1009 86 7000 0.71 55 09:50 05.01.2021
4918 Clouds -1 1009 92 6000 1 110 09:29 05.01.2021
4919 Clouds -1 1009 92 6000 1 0 08:27 05.01.2021
4920 Clouds -1 1009 92 8000 1.5 150 07:46 05.01.2021
4921 Clouds -1 1009 86 8000 1 280 04:58 05.01.2021
4922 Clouds -1 1007 96 10000 1.5 360 00:59 05.01.2021
4923 Clouds -1 1007 96 10000 1.5 0 23:59 04.01.2021
4924 Clouds -1 1007 96 10000 1.5 0 23:36 04.01.2021
4925 Clouds -1 1007 95 10000 1.5 0 23:18 04.01.2021
4926 Clouds -1 1007 95 10000 1.5 0 22:41 04.01.2021
4927 Clouds -1 1007 95 10000 2.1 20 21:53 04.01.2021
4928 Clouds -1 1007 95 10000 2.1 20 21:35 04.01.2021
4929 Clouds -1 1007 94 10000 2.1 360 20:51 04.01.2021
4930 Clouds -1 1007 94 10000 2.1 360 20:31 04.01.2021
4931 Clouds -1 1007 94 10000 1.5 0 19:53 04.01.2021
4932 Clouds -1 1007 94 10000 1.5 0 19:28 04.01.2021
4933 Clouds -1 1007 95 10000 1.5 30 18:58 04.01.2021
4934 Clouds -1 1007 95 10000 2.1 40 18:25 04.01.2021
4935 Clouds -1 1007 95 10000 2.1 30 17:44 04.01.2021
4936 Clouds -1 1007 95 10000 2.1 30 17:25 04.01.2021
4937 Clouds -1 1007 95 10000 1.5 0 16:48 04.01.2021
4938 Clouds 0 1007 94 10000 1.5 0 16:27 04.01.2021
4939 Clouds 0 1007 94 10000 1 0 15:50 04.01.2021
4940 Clouds 0 1007 94 10000 1 0 15:31 04.01.2021
4941 Clouds 0 1007 91 10000 0.5 0 14:46 04.01.2021
4942 Clouds 0 1008 90 10000 1 190 13:48 04.01.2021
4943 Clouds 0 1009 90 10000 2.6 170 13:25 04.01.2021
4944 Clouds 0 1009 90 10000 1.5 0 12:44 04.01.2021
4945 Clouds 0 1009 91 10000 1.5 150 11:58 04.01.2021
4946 Clouds -1 1010 80 10000 1.5 100 11:29 04.01.2021
4947 Clouds -1 1010 80 10000 2.1 70 10:53 04.01.2021
4948 Clouds -1 1010 80 10000 2.6 80 10:29 04.01.2021
4949 Clouds -2 1010 86 10000 1.5 70 09:53 04.01.2021
4950 Clouds -2 1010 86 10000 2.1 70 09:22 04.01.2021
4951 Clouds -2 1010 92 10000 2.1 50 08:47 04.01.2021
4952 Clouds -2 1010 92 10000 1.5 70 08:18 04.01.2021
4953 Clouds -2 1010 92 9000 1 130 07:42 04.01.2021
4954 Clouds -2 1010 92 10000 1.5 160 05:33 04.01.2021
4955 Clouds -2 1010 92 10000 1 170 04:30 04.01.2021
4956 Clouds -3 1010 100 6000 0.5 0 00:47 04.01.2021
4957 Clouds -3 1010 100 6000 0.5 0 23:49 03.01.2021
4958 Clouds -3 1010 100 5000 1.5 170 23:24 03.01.2021
4959 Clouds -2 1010 100 8000 0.5 0 22:56 03.01.2021
4960 Clouds -2 1010 100 8000 1 160 22:33 03.01.2021
4961 Clouds -1 1010 92 8000 0.5 0 21:56 03.01.2021
4962 Clouds -1 1010 100 8000 0.5 0 21:29 03.01.2021
4963 Clouds -1 1010 100 10000 0.5 0 20:50 03.01.2021
4964 Clouds -1 1009 96 10000 0.5 0 20:32 03.01.2021
4965 Clouds -1 1009 96 10000 1 280 19:57 03.01.2021
4966 Clouds -1 1009 96 10000 0.5 260 19:35 03.01.2021
4967 Clouds -1 1009 95 10000 0.5 0 18:57 03.01.2021
4968 Clouds 0 1009 80 10000 1 320 18:38 03.01.2021
4969 Clouds 0 1009 80 10000 1 320 18:19 03.01.2021
4970 Clouds 0 1009 80 10000 1.5 310 17:45 03.01.2021
4971 Clouds 0 1009 80 10000 1.5 310 17:23 03.01.2021
4972 Clouds 0 1009 80 10000 2.1 330 16:42 03.01.2021
4973 Clouds 1 1009 80 10000 1.5 300 16:19 03.01.2021
4974 Clouds 1 1008 80 10000 1.5 310 15:46 03.01.2021
4975 Clouds 1 1008 80 10000 1.5 310 15:27 03.01.2021
4976 Clouds 1 1008 80 10000 1.5 310 14:52 03.01.2021
4977 Clouds 1 1008 80 10000 1.5 300 14:27 03.01.2021
4978 Clouds 1 1008 74 10000 1 270 13:41 03.01.2021
4979 Clouds 1 1008 74 10000 1 270 13:22 03.01.2021
4980 Clouds 0 1008 91 10000 1 0 12:24 03.01.2021
4981 Clouds 0 1008 91 10000 1.5 360 11:42 03.01.2021
4982 Clouds 0 1008 94 10000 1.5 360 11:24 03.01.2021
4983 Clouds -1 1008 94 10000 1.5 300 10:34 03.01.2021
4984 Clouds -1 1008 95 10000 1.5 290 09:55 03.01.2021
4985 Clouds -1 1008 100 9000 2.1 300 09:33 03.01.2021
4986 Clouds -1 1008 100 7000 2.1 290 08:59 03.01.2021
4987 Snow -1 1007 100 2500 2.1 270 07:33 03.01.2021
4988 Snow 0 1007 97 5000 1.5 280 05:53 03.01.2021
4989 Drizzle 0 1007 97 5000 2.1 280 02:27 03.01.2021
4990 Drizzle 0 1007 97 5000 2.1 280 02:27 03.01.2021
4991 Clouds -1 1007 97 10000 1 0 00:59 03.01.2021
4992 Clouds -1 1007 97 10000 2.1 260 23:54 02.01.2021
4993 Clouds 0 1007 97 10000 1.5 0 23:26 02.01.2021
4994 Clouds 0 1007 97 10000 1.5 0 22:50 02.01.2021
4995 Clouds 0 1007 97 10000 1.5 0 22:31 02.01.2021
4996 Clouds 0 1007 80 10000 1.5 0 21:49 02.01.2021
4997 Clouds 0 1007 80 10000 1.5 0 21:30 02.01.2021
4998 Clouds 0 1007 80 10000 1.5 0 20:49 02.01.2021
4999 Clouds 0 1007 80 10000 1.5 0 20:27 02.01.2021
5000 Clouds 0 1006 80 10000 1.5 0 19:49 02.01.2021
5001 Clouds 0 1006 80 10000 3.1 50 19:20 02.01.2021
5002 Clouds 0 1006 80 10000 3.6 60 18:52 02.01.2021
5003 Clouds 0 1006 80 10000 3.6 60 18:33 02.01.2021
5004 Clouds 0 1006 80 10000 2.1 0 17:49 02.01.2021
5005 Clouds 0 1006 80 10000 2.1 0 17:30 02.01.2021
5006 Snow 0 1007 86 10000 2.1 0 16:46 02.01.2021
5007 Clouds 0 1007 86 10000 2.1 0 16:22 02.01.2021
5008 Clouds 0 1007 86 10000 2.1 0 15:48 02.01.2021
5009 Clouds 0 1007 86 10000 2.1 0 15:28 02.01.2021
5010 Clouds 1 1006 86 10000 2.6 30 14:47 02.01.2021
5011 Clouds 1 1006 86 10000 2.6 30 14:24 02.01.2021
5012 Clouds 1 1007 86 10000 3.1 50 13:44 02.01.2021
5013 Clouds 1 1007 86 6000 3.1 40 12:59 02.01.2021
5014 Clouds 1 1007 86 10000 2.1 30 12:40 02.01.2021
5015 Clouds 1 1007 86 10000 2.6 0 12:19 02.01.2021
5016 Clouds 1 1007 86 10000 2.6 0 11:38 02.01.2021
5017 Clouds 1 1007 86 10000 3.1 50 11:20 02.01.2021
5018 Clouds 1 1007 86 10000 2.6 40 10:40 02.01.2021
5019 Clouds 1 1007 86 10000 2.6 40 10:21 02.01.2021
5020 Clouds 1 1007 86 10000 2.1 40 09:39 02.01.2021
5021 Clouds 0 1007 86 10000 1.5 30 09:19 02.01.2021
5022 Clouds 0 1007 86 10000 2.6 50 08:46 02.01.2021
5023 Clouds 0 1007 86 10000 3.6 50 08:19 02.01.2021
5024 Clouds 0 1007 86 10000 2.6 50 07:24 02.01.2021
5025 Clouds 0 1007 86 10000 2.6 50 06:57 02.01.2021
5026 Clouds 0 1007 97 10000 2.1 20 05:55 02.01.2021
5027 Clouds 0 1008 97 10000 1 0 01:58 02.01.2021
5028 Clouds 0 1008 97 10000 1.5 0 00:38 02.01.2021
5029 Clouds 0 1007 86 10000 2.1 330 23:58 01.01.2021
5030 Clouds 0 1007 97 10000 1.5 290 23:24 01.01.2021
5031 Clouds 0 1007 97 10000 1.5 290 22:57 01.01.2021
5032 Clouds 0 1007 97 10000 1.5 290 22:57 01.01.2021
5033 Clouds 0 1007 97 10000 1.5 0 22:37 01.01.2021
5034 Clouds 0 1007 97 10000 1.5 0 22:18 01.01.2021
5035 Clouds 0 1007 86 10000 2.1 320 21:42 01.01.2021
5036 Clouds 0 1007 97 10000 1 0 21:20 01.01.2021
5037 Clouds 0 1007 97 10000 1 0 20:50 01.01.2021
5038 Clouds 1 1007 86 10000 1 0 20:18 01.01.2021
5039 Clouds 1 1007 80 10000 1 0 19:42 01.01.2021
5040 Clouds 2 1007 80 10000 1 0 19:22 01.01.2021
5041 Clouds 2 1007 80 10000 2.1 330 18:46 01.01.2021
5042 Clouds 1 1007 80 10000 2.1 330 18:27 01.01.2021
5043 Clouds 1 1006 80 10000 1.5 0 17:48 01.01.2021
5044 Clouds 1 1006 80 10000 1.5 0 17:23 01.01.2021
5045 Clouds 1 1006 97 10000 1 0 16:51 01.01.2021
5046 Clouds 2 1006 93 10000 2.1 300 16:26 01.01.2021
5047 Clouds 2 1006 93 10000 2.1 300 15:42 01.01.2021
5048 Clouds 2 1005 93 10000 1.5 310 14:49 01.01.2021
5049 Clouds 2 1005 93 10000 1.5 290 14:28 01.01.2021
5050 Clouds 2 1006 93 10000 1.5 290 13:40 01.01.2021
5051 Clouds 1 1006 100 9000 1.5 280 12:57 01.01.2021
5052 Clouds 1 1006 100 6000 2.1 290 12:36 01.01.2021
5053 Mist 2 1006 100 4000 1.5 280 12:18 01.01.2021
5054 Snow 1 1006 100 3500 1.5 290 11:38 01.01.2021
5055 Fog 1 1006 100 1100 2.1 290 11:18 01.01.2021
5056 Fog 0 1006 90 650 0.5 0 10:34 01.01.2021
5057 Snow 0 1006 93 900 0.7 52 09:45 01.01.2021
5058 Snow 0 1006 97 900 0.58 105 08:52 01.01.2021
5059 Snow 0 1006 98 800 1 140 08:25 01.01.2021
5060 Snow 0 1005 97 600 1 230 04:52 01.01.2021
5061 Snow 0 1004 95 350 1 360 02:25 01.01.2021
5062 Snow 0 1004 95 4000 1 0 00:38 01.01.2021
5063 Snow 0 1004 93 7000 0.5 0 00:20 01.01.2021
5064 Clouds 0 1004 100 8000 0.5 0 23:22 31.12.2020
5065 Snow 0 1004 100 8000 0.5 0 22:56 31.12.2020
5066 Snow 0 1004 100 9000 0.5 0 22:37 31.12.2020
5067 Snow 0 1004 92 10000 1 270 22:19 31.12.2020
5068 Rain 0 1004 100 10000 1.5 0 21:44 31.12.2020
5069 Rain 0 1004 100 10000 1.5 0 21:21 31.12.2020
5070 Rain 0 1004 92 10000 2.1 100 20:47 31.12.2020
5071 Rain 0 1005 91 10000 1.5 0 19:59 31.12.2020
5072 Rain 0 1005 91 8000 1 0 19:38 31.12.2020
5073 Rain 0 1005 93 8000 1 0 19:20 31.12.2020
5074 Rain 1 1004 93 3500 2.1 140 18:42 31.12.2020
5075 Rain 1 1004 91 3500 2.1 140 18:23 31.12.2020
5076 Rain 1 1004 80 5000 1.5 150 17:42 31.12.2020
5077 Snow 1 1004 74 10000 0.5 0 17:21 31.12.2020
5078 Rain 2 1004 74 10000 0.5 0 16:40 31.12.2020
5079 Snow 2 1004 74 10000 0.5 0 16:21 31.12.2020
5080 Snow 2 1004 74 10000 0.5 0 16:21 31.12.2020
5081 Clouds 2 1004 74 10000 1 190 15:45 31.12.2020
5082 Clouds 3 1004 64 10000 1 0 15:21 31.12.2020
5083 Clouds 3 1004 64 10000 1 0 14:55 31.12.2020
5084 Clouds 2 1004 74 10000 1.5 300 14:37 31.12.2020
5085 Clouds 2 1005 69 10000 0.5 0 14:19 31.12.2020
5086 Clouds 2 1005 74 10000 1.5 170 13:38 31.12.2020
5087 Clouds 2 1005 80 10000 2.1 150 13:19 31.12.2020
5088 Clouds 2 1006 86 10000 2.6 130 12:53 31.12.2020
5089 Clouds 1 1006 86 10000 2.6 130 12:34 31.12.2020
5090 Clouds 1 1006 86 10000 1.5 120 11:51 31.12.2020
5091 Clouds 1 1006 80 10000 2.1 130 11:32 31.12.2020
5092 Clouds 0 1006 86 10000 2.1 100 10:49 31.12.2020
5093 Clouds 0 1006 91 10000 2.1 100 10:29 31.12.2020
5094 Clouds -1 1006 92 10000 2.6 120 09:56 31.12.2020
5095 Clouds -1 1006 92 10000 2.1 110 09:34 31.12.2020
5096 Snow -1 1007 100 10000 2.1 140 08:50 31.12.2020
5097 Snow -1 1007 100 10000 0.9 180 08:32 31.12.2020
5098 Clouds -2 1007 100 10000 1 150 07:57 31.12.2020
5099 Clouds -2 1007 100 10000 1.5 150 07:28 31.12.2020
5100 Clouds -2 1007 100 10000 0.5 0 05:30 31.12.2020
5101 Clouds -1 1008 100 10000 0.5 0 03:40 31.12.2020
5102 Clouds -1 1008 97 10000 1.5 110 02:45 31.12.2020
5103 Clouds -1 1008 97 10000 1.5 110 02:25 31.12.2020
5104 Clouds 0 1008 97 10000 0.5 0 01:43 31.12.2020
5105 Clouds 0 1008 97 10000 0.5 0 01:24 31.12.2020
5106 Clouds 0 1009 97 10000 0.5 0 00:44 31.12.2020
5107 Clouds 1 1009 97 10000 1.5 120 23:48 30.12.2020
5108 Clouds 1 1009 97 10000 0.5 0 23:19 30.12.2020
5109 Clouds 1 1009 97 10000 0.5 0 22:47 30.12.2020
5110 Clouds 1 1009 97 10000 0.5 0 22:47 30.12.2020
5111 Clouds 1 1009 97 10000 0.5 0 22:29 30.12.2020
5112 Clouds 1 1009 97 10000 1 0 21:39 30.12.2020
5113 Clouds 0 1009 97 10000 1.5 0 21:20 30.12.2020
5114 Clouds 0 1009 97 10000 1.5 0 20:48 30.12.2020
5115 Clouds 1 1008 100 10000 1 90 20:20 30.12.2020
5116 Clouds 1 1008 100 10000 1.5 150 19:40 30.12.2020
5117 Clouds 1 1008 100 10000 1.5 150 19:21 30.12.2020
5118 Clouds 1 1007 93 10000 0.5 0 18:46 30.12.2020
5119 Snow 1 1007 93 10000 0.5 0 18:27 30.12.2020
5120 Snow 1 1007 93 10000 2.1 280 17:51 30.12.2020
5121 Snow 1 1007 93 10000 2.1 280 17:32 30.12.2020
5122 Snow 2 1006 95 10000 2.1 240 16:56 30.12.2020
5123 Clouds 2 1006 95 10000 1 130 16:31 30.12.2020
5124 Clouds 3 1005 88 10000 1.5 130 15:47 30.12.2020
5125 Clouds 3 1005 84 10000 1.5 130 15:24 30.12.2020
5126 Clouds 4 1005 84 10000 1.5 170 14:44 30.12.2020
5127 Clouds 4 1005 81 10000 1.5 170 14:22 30.12.2020
5128 Clouds 3 1005 86 10000 2.1 130 13:33 30.12.2020
5129 Clouds 3 1005 81 10000 2.6 140 12:40 30.12.2020
5130 Clouds 2 1005 81 10000 1.5 150 12:20 30.12.2020
5131 Clouds 2 1005 81 10000 1.5 150 11:36 30.12.2020
5132 Clouds 1 1004 100 10000 2.1 120 11:18 30.12.2020
5133 Clouds 0 1004 100 10000 2.1 100 10:43 30.12.2020
5134 Clouds 0 1004 100 10000 2.1 100 10:25 30.12.2020
5135 Clouds 0 1004 100 10000 2.1 100 09:49 30.12.2020
5136 Snow 0 1003 97 4000 2.1 110 09:28 30.12.2020
5137 Snow 0 1002 97 10000 2.6 120 08:28 30.12.2020
5138 Snow 0 1001 96 10000 1 150 07:29 30.12.2020
5139 Snow 0 1001 96 10000 0.5 0 06:52 30.12.2020
5140 Snow 0 1001 96 10000 0.5 0 06:30 30.12.2020
5141 Snow 0 1001 96 10000 1 0 05:43 30.12.2020
5142 Snow 0 1001 96 10000 1 0 05:24 30.12.2020
5143 Snow 0 1004 96 10000 1.5 90 03:28 30.12.2020
5144 Snow 0 1000 96 10000 2.6 120 02:40 30.12.2020
5145 Snow 1 1000 100 10000 2.6 120 01:56 30.12.2020
5146 Snow 0 999 97 10000 2.6 120 01:33 30.12.2020
5147 Snow 1 999 100 10000 2.6 150 00:50 30.12.2020
5148 Snow 0 999 100 10000 2.6 150 00:30 30.12.2020
5149 Snow 1 1000 100 9000 1 0 23:54 29.12.2020
5150 Snow 1 999 100 9000 1 0 23:36 29.12.2020
5151 Snow 0 999 96 10000 0.5 0 22:58 29.12.2020
5152 Snow 1 999 100 10000 0.5 0 22:40 29.12.2020
5153 Clouds 1 999 100 10000 0.5 0 22:20 29.12.2020
5154 Clouds 1 999 100 10000 0.5 0 21:46 29.12.2020
5155 Clouds 1 999 100 10000 0.5 0 21:24 29.12.2020
5156 Clouds 1 998 93 10000 1.5 0 20:46 29.12.2020
5157 Clouds 1 998 93 10000 1.5 0 20:25 29.12.2020
5158 Snow 1 998 93 10000 3.1 270 19:47 29.12.2020
5159 Clouds 1 998 93 10000 3.1 270 19:23 29.12.2020
5160 Clouds 1 998 93 10000 4.6 270 18:54 29.12.2020
5161 Clouds 2 998 93 10000 4.6 270 18:31 29.12.2020
5162 Clouds 2 997 86 10000 3.6 280 17:56 29.12.2020
5163 Rain 2 997 86 10000 3.6 280 17:36 29.12.2020
5164 Rain 2 996 86 10000 3.1 280 17:18 29.12.2020
5165 Rain 3 996 80 10000 2.6 0 16:34 29.12.2020
5166 Clouds 4 995 80 10000 2.6 130 15:53 29.12.2020
5167 Clouds 4 995 80 10000 2.6 130 15:33 29.12.2020
5168 Clouds 4 994 84 10000 4.1 270 14:55 29.12.2020
5169 Rain 4 994 84 10000 4.1 270 14:36 29.12.2020
5170 Clouds 5 994 85 10000 4.1 280 14:18 29.12.2020
5171 Clouds 6 993 82 10000 4.1 270 13:26 29.12.2020
5172 Clouds 6 993 82 10000 4.1 270 12:59 29.12.2020
5173 Clear 5 993 79 10000 2.1 290 12:36 29.12.2020
5174 Clear 5 994 74 10000 1.5 340 12:18 29.12.2020
5175 Clear 4 994 74 10000 1.5 340 11:49 29.12.2020
5176 Clouds 4 993 76 10000 1.5 0 11:27 29.12.2020
5177 Clouds 3 992 69 10000 4.1 270 10:22 29.12.2020
5178 Clouds 3 991 65 10000 4.1 240 09:41 29.12.2020
5179 Clouds 4 990 60 10000 2.1 0 09:19 29.12.2020
5180 Clouds 4 990 56 10000 5.7 250 08:49 29.12.2020
5181 Clouds 4 989 56 10000 3.6 260 07:41 29.12.2020
5182 Clouds 4 989 56 10000 6.2 250 07:20 29.12.2020
5183 Clouds 4 988 56 10000 3.1 260 05:50 29.12.2020
5184 Clouds 3 985 64 10000 5.1 220 02:33 29.12.2020
5185 Clouds 2 984 96 10000 1.5 0 00:43 29.12.2020
5186 Clouds 2 984 86 10000 2.1 0 23:39 28.12.2020
5187 Snow 1 983 95 10000 1 0 22:56 28.12.2020
5188 Clouds 1 983 95 10000 1 0 22:20 28.12.2020
5189 Clouds 0 983 100 10000 1 0 21:41 28.12.2020
5190 Snow 0 982 100 10000 1 0 21:20 28.12.2020
5191 Snow 0 981 100 10000 1 0 20:40 28.12.2020
5192 Clouds 0 981 100 10000 1 0 20:21 28.12.2020
5193 Clouds 0 982 100 10000 1.5 170 19:42 28.12.2020
5194 Clouds 0 982 100 10000 1.5 170 19:22 28.12.2020
5195 Clouds -1 982 100 10000 1 0 18:49 28.12.2020
5196 Clouds -1 982 100 10000 1 0 18:28 28.12.2020
5197 Clear 0 982 100 10000 1.5 80 17:42 28.12.2020
5198 Clouds 1 983 96 10000 1.5 290 17:20 28.12.2020
5199 Clouds 2 983 86 10000 2.1 320 16:33 28.12.2020
5200 Clouds 1 983 86 10000 3.1 300 15:59 28.12.2020
5201 Clouds 1 983 86 10000 3.1 300 15:41 28.12.2020
5202 Snow 1 983 100 800 6.2 270 14:54 28.12.2020
5203 Clouds 2 982 76 7000 6.7 280 13:54 28.12.2020
5204 Snow 2 982 78 7000 6.7 280 13:25 28.12.2020
5205 Snow 1 982 93 10000 3.6 320 12:40 28.12.2020
5206 Snow 1 982 93 10000 2.6 90 12:20 28.12.2020
5207 Snow 1 982 100 7000 2.6 130 11:45 28.12.2020
5208 Snow 1 982 100 7000 2.6 130 11:23 28.12.2020
5209 Snow 1 981 100 10000 2.6 100 10:44 28.12.2020
5210 Clouds 1 981 100 10000 2.6 100 10:26 28.12.2020
5211 Clouds 0 980 90 6000 2.6 140 09:46 28.12.2020
5212 Snow 1 981 100 4100 2.1 90 09:19 28.12.2020
5213 Snow 0 980 97 10000 1 0 07:30 28.12.2020
5214 Snow 0 981 100 10000 0.5 0 06:48 28.12.2020
5215 Snow 0 982 92 10000 0.5 0 04:26 28.12.2020
5216 Snow 1 985 92 10000 1.5 150 01:57 28.12.2020
5217 Snow 1 985 86 10000 1.5 200 00:30 28.12.2020
5218 Snow 1 986 92 10000 2.1 90 23:46 27.12.2020
5219 Clouds 1 986 86 10000 2.6 90 23:19 27.12.2020
5220 Rain 1 987 86 10000 2.6 150 21:57 27.12.2020
5221 Rain 1 987 86 10000 2.6 150 21:57 27.12.2020
5222 Clouds 1 987 80 10000 2.1 160 21:26 27.12.2020
5223 Clouds 1 988 86 10000 2.6 120 20:45 27.12.2020
5224 Snow 1 990 86 10000 2.6 110 19:25 27.12.2020
5225 Snow 1 991 86 10000 2.6 110 18:57 27.12.2020
5226 Snow 1 992 80 10000 3.1 130 18:38 27.12.2020
5227 Snow 0 992 86 10000 2.1 140 18:19 27.12.2020
5228 Clouds 0 994 86 10000 1.5 120 17:43 27.12.2020
5229 Clouds 0 994 86 10000 1.5 120 17:22 27.12.2020
5230 Snow -1 995 80 10000 1.5 150 16:35 27.12.2020
5231 Clouds -1 996 74 10000 2.1 140 15:54 27.12.2020
5232 Clouds -1 997 79 10000 3.6 150 14:59 27.12.2020
5233 Clouds -1 997 79 10000 3.6 150 14:40 27.12.2020
5234 Clear -1 1000 79 10000 2.1 130 14:18 27.12.2020
5235 Clear -1 1001 79 10000 2.1 160 13:22 27.12.2020
5236 Clear -1 1003 79 10000 2.1 160 12:43 27.12.2020
5237 Clear -2 1004 79 10000 2.1 180 11:56 27.12.2020
5238 Clear -2 1005 85 10000 1.5 170 11:35 27.12.2020
5239 Clear -3 1007 92 10000 1.5 170 10:51 27.12.2020
5240 Clear -4 1007 92 10000 1.5 170 10:24 27.12.2020
5241 Clear -5 1008 92 10000 2.1 90 09:46 27.12.2020
5242 Clear -5 1009 92 10000 3.6 130 08:39 27.12.2020
5243 Clouds -5 1010 92 10000 2.1 120 08:18 27.12.2020
5244 Clouds -5 1011 92 10000 1.5 110 07:26 27.12.2020
5245 Clouds -4 1013 85 10000 2.6 100 05:44 27.12.2020
5246 Clear -4 1016 85 10000 3.1 120 03:33 27.12.2020
5247 Clear -4 1017 92 10000 2.1 110 02:45 27.12.2020
5248 Clear -4 1018 85 10000 2.1 150 01:33 27.12.2020
5249 Clear -4 1019 92 10000 2.6 100 23:57 26.12.2020
5250 Clear -4 1019 92 10000 2.6 100 23:27 26.12.2020
5251 Clear -4 1020 92 10000 1 0 22:49 26.12.2020
5252 Clear -4 1021 85 10000 2.1 90 22:21 26.12.2020
5253 Clear -3 1021 85 10000 2.1 100 21:57 26.12.2020
5254 Clear -3 1022 85 10000 2.1 110 21:38 26.12.2020
5255 Clear -3 1022 85 10000 2.6 90 21:19 26.12.2020
5256 Clear -3 1023 86 10000 2.6 130 20:41 26.12.2020
5257 Clear -3 1023 92 10000 1.5 100 20:18 26.12.2020
5258 Clear -3 1023 86 10000 1.5 130 19:26 26.12.2020
5259 Clouds -2 1023 79 10000 1 0 18:50 26.12.2020
5260 Clear -2 1023 79 10000 1 0 18:28 26.12.2020
5261 Clear -1 1023 68 10000 2.1 160 17:41 26.12.2020
5262 Clouds -1 1023 93 10000 3.1 140 17:20 26.12.2020
5263 Clear 0 1024 64 10000 3.6 140 16:36 26.12.2020
5264 Clear 1 1024 51 10000 3.1 90 15:27 26.12.2020
5265 Clear 2 1024 47 10000 1.5 180 14:51 26.12.2020
5266 Clouds 2 1024 47 10000 1.5 120 14:28 26.12.2020
5267 Clouds 1 1025 51 10000 1 130 13:51 26.12.2020
5268 Clouds 1 1025 50 10000 1.5 80 13:31 26.12.2020
5269 Clear 1 1025 51 10000 1.5 0 12:49 26.12.2020
5270 Clear 1 1025 51 10000 1.5 0 12:30 26.12.2020
5271 Clear 1 1025 59 10000 1 0 11:51 26.12.2020
5272 Clear 0 1025 91 10000 1.5 160 11:23 26.12.2020
5273 Clear 0 1026 74 10000 1 150 10:55 26.12.2020
5274 Clear -1 1026 80 10000 1 150 10:28 26.12.2020
5275 Clouds -2 1026 86 10000 1 0 09:52 26.12.2020
5276 Clear -3 1025 86 10000 1 80 09:31 26.12.2020
5277 Clouds -2 1025 79 10000 1.5 300 08:39 26.12.2020
5278 Clouds -3 1025 79 10000 1 350 07:56 26.12.2020
5279 Clouds -2 1025 79 10000 0.5 0 06:47 26.12.2020
5280 Clouds -1 1023 96 10000 2.6 340 03:53 26.12.2020
5281 Clouds -1 1023 97 10000 1 0 02:24 26.12.2020
5282 Clouds 0 1023 97 10000 3.1 0 00:28 26.12.2020
5283 Clouds 0 1022 64 10000 1 0 23:43 25.12.2020
5284 Clouds 0 1022 64 10000 1 0 23:25 25.12.2020
5285 Clouds 0 1022 69 10000 1.5 0 22:50 25.12.2020
5286 Clouds 0 1022 69 10000 1.5 0 22:23 25.12.2020
5287 Clouds 1 1021 69 10000 3.6 10 21:37 25.12.2020
5288 Snow 0 1021 69 10000 2.6 0 21:19 25.12.2020
5289 Snow 1 1020 69 10000 4.1 10 20:38 25.12.2020
5290 Snow 1 1020 69 10000 1.5 0 19:52 25.12.2020
5291 Snow 1 1019 69 10000 1.5 0 19:33 25.12.2020
5292 Snow 1 1019 74 10000 4.6 330 18:39 25.12.2020
5293 Snow 1 1019 74 10000 3.6 340 17:57 25.12.2020
5294 Snow 1 1019 74 10000 4.1 330 17:35 25.12.2020
5295 Clouds 2 1018 69 10000 2.6 360 16:48 25.12.2020
5296 Clouds 2 1018 69 10000 2.1 10 16:21 25.12.2020
5297 Clouds 2 1018 69 10000 2.1 10 15:46 25.12.2020
5298 Clouds 2 1018 69 10000 1.5 30 15:22 25.12.2020
5299 Clouds 2 1018 74 10000 2.1 10 14:31 25.12.2020
5300 Clouds 2 1018 74 10000 1.5 0 13:47 25.12.2020
5301 Clouds 2 1018 74 10000 1.5 0 13:26 25.12.2020
5302 Clouds 2 1018 80 10000 3 20 12:49 25.12.2020
5303 Clouds 2 1018 80 10000 2.43 11 12:27 25.12.2020
5304 Clouds 2 1019 100 10000 1 190 11:46 25.12.2020
5305 Snow 1 1019 100 10000 1 190 11:22 25.12.2020
5306 Snow 1 1018 100 10000 1.69 6 10:35 25.12.2020
5307 Snow 0 1018 100 10000 1.12 349 09:49 25.12.2020
5308 Snow -1 1017 95 10000 0.5 0 08:52 25.12.2020
5309 Snow 0 1017 100 10000 1 0 08:32 25.12.2020
5310 Snow 0 1017 100 10000 0.5 0 06:51 25.12.2020
5311 Snow 1 1017 100 10000 1 0 05:31 25.12.2020
5312 Clouds 2 1016 92 10000 1.5 270 02:21 25.12.2020
5313 Clouds 3 1015 80 10000 3.1 290 00:20 25.12.2020
5314 Clouds 3 1014 80 10000 4.6 280 23:30 24.12.2020
5315 Rain 4 1014 86 10000 4.1 280 22:54 24.12.2020
5316 Rain 4 1014 86 10000 4.1 280 22:54 24.12.2020
5317 Rain 4 1013 86 5414 5.7 280 22:24 24.12.2020
5318 Rain 4 1013 81 10000 5.7 260 21:45 24.12.2020
5319 Clouds 5 1013 81 10000 4.1 270 20:58 24.12.2020
5320 Rain 6 1012 75 10000 5.1 210 19:48 24.12.2020
5321 Rain 5 1012 87 10000 2.6 310 18:21 24.12.2020
5322 Rain 6 1012 87 10000 2.1 320 17:38 24.12.2020
5323 Rain 6 1012 75 10000 1.5 340 17:20 24.12.2020
5324 Rain 6 1012 75 10000 1.5 340 17:20 24.12.2020
5325 Rain 6 1012 75 10000 1.5 340 17:20 24.12.2020
5326 Rain 7 1012 75 10000 3.6 280 16:25 24.12.2020
5327 Rain 7 1013 70 10000 3.6 270 15:45 24.12.2020
5328 Rain 7 1013 70 10000 3.6 270 15:23 24.12.2020
5329 Rain 8 1013 61 10000 4.6 260 14:56 24.12.2020
5330 Clouds 8 1013 61 10000 4.6 260 14:25 24.12.2020
5331 Clouds 8 1013 57 10000 5.1 270 13:49 24.12.2020
5332 Rain 8 1013 57 10000 5.1 270 13:30 24.12.2020
5333 Rain 9 1014 62 10000 1.5 0 12:58 24.12.2020
5334 Clouds 9 1014 60 10000 3.6 260 12:38 24.12.2020
5335 Rain 9 1014 57 10000 6.7 270 12:18 24.12.2020
5336 Clear 8 1014 57 10000 5.7 270 11:38 24.12.2020
5337 Clouds 8 1014 57 10000 5.1 240 11:19 24.12.2020
5338 Clouds 8 1014 57 10000 5.1 240 10:43 24.12.2020
5339 Clouds 7 1015 65 10000 5.1 240 09:59 24.12.2020
5340 Clouds 7 1015 70 10000 6.2 230 09:40 24.12.2020
5341 Clouds 8 1015 61 10000 3.1 250 08:48 24.12.2020
5342 Clouds 7 1015 87 10000 2.6 180 07:54 24.12.2020
5343 Clouds 7 1015 93 10000 4.6 170 07:35 24.12.2020
5344 Clouds 7 1015 100 10000 2.6 130 06:23 24.12.2020
5345 Rain 7 1016 87 9000 4.6 260 03:29 24.12.2020
5346 Rain 8 1015 93 5000 6.2 280 01:48 24.12.2020
5347 Clouds 8 1015 100 10000 1.5 0 01:19 24.12.2020
5348 Clouds 10 1015 81 10000 2.1 300 00:23 24.12.2020
5349 Rain 9 1015 100 10000 1 0 23:59 23.12.2020
5350 Rain 9 1015 100 10000 1 0 23:39 23.12.2020
5351 Rain 9 1015 100 7000 0.5 0 23:20 23.12.2020
5352 Clouds 9 1015 100 7000 0.5 0 22:43 23.12.2020
5353 Rain 9 1015 100 10000 0.5 0 22:23 23.12.2020
5354 Clouds 9 1015 100 10000 1 0 21:43 23.12.2020
5355 Clouds 10 1015 100 10000 1 0 21:21 23.12.2020
5356 Drizzle 9 1015 100 10000 1 0 20:45 23.12.2020
5357 Drizzle 9 1015 100 10000 1 0 20:25 23.12.2020
5358 Clouds 10 1016 100 10000 1 0 19:45 23.12.2020
5359 Rain 10 1016 100 10000 1 0 19:23 23.12.2020
5360 Rain 10 1015 93 10000 1.5 130 18:56 23.12.2020
5361 Rain 10 1015 93 10000 1.5 130 18:35 23.12.2020
5362 Clouds 9 1016 100 10000 1 0 17:44 23.12.2020
5363 Clouds 10 1016 87 10000 0.5 0 17:24 23.12.2020
5364 Clouds 10 1016 87 10000 0.5 0 16:56 23.12.2020
5365 Clouds 10 1016 87 10000 0.5 0 16:37 23.12.2020
5366 Clouds 10 1016 87 10000 1 0 16:18 23.12.2020
5367 Clouds 10 1016 87 10000 1 0 15:40 23.12.2020
5368 Clouds 12 1017 76 10000 1.31 232 15:22 23.12.2020
5369 Clouds 12 1017 87 10000 1 170 14:52 23.12.2020
5370 Clouds 11 1017 87 10000 1 170 14:25 23.12.2020
5371 Clouds 10 1017 87 10000 1 0 13:58 23.12.2020
5372 Clouds 11 1017 87 10000 1 0 13:39 23.12.2020
5373 Clouds 10 1017 93 10000 0.5 0 13:18 23.12.2020
5374 Clouds 10 1018 93 10000 0.5 0 12:46 23.12.2020
5375 Clouds 10 1019 100 10000 1 0 12:21 23.12.2020
5376 Clouds 9 1019 100 10000 1.5 160 11:45 23.12.2020
5377 Clouds 8 1019 100 10000 1.5 0 10:58 23.12.2020
5378 Clear 5 1019 100 10000 1 120 10:40 23.12.2020
5379 Clouds 5 1019 100 10000 1 0 10:21 23.12.2020
5380 Fog 4 1019 100 10000 1.52 170 09:27 23.12.2020
5381 Clouds 4 1019 100 10000 0.5 0 08:42 23.12.2020
5382 Clouds 4 1020 100 10000 1 0 08:18 23.12.2020
5383 Clouds 5 1020 100 10000 0.5 0 07:21 23.12.2020
5384 Clouds 5 1020 100 10000 0.5 0 06:39 23.12.2020
5385 Clouds 6 1021 100 10000 0.5 0 05:26 23.12.2020
5386 Clouds 6 1021 100 10000 0.5 0 04:51 23.12.2020
5387 Clear 6 1022 100 10000 1 0 00:34 23.12.2020
5388 Clear 6 1022 100 10000 3.1 90 23:46 22.12.2020
5389 Clear 6 1022 100 10000 3.1 90 23:27 22.12.2020
5390 Clear 7 1023 93 10000 3.6 100 22:43 22.12.2020
5391 Clear 7 1023 93 10000 3.6 100 22:25 22.12.2020
5392 Clear 8 1023 93 10000 1 0 21:57 22.12.2020
5393 Clouds 8 1023 93 10000 3.6 90 21:38 22.12.2020
5394 Clouds 9 1023 87 10000 4.6 120 21:18 22.12.2020
5395 Clouds 10 1023 81 10000 1 0 20:43 22.12.2020
5396 Clouds 10 1023 81 10000 1 0 20:20 22.12.2020
5397 Clouds 10 1023 81 10000 3.1 110 19:42 22.12.2020
5398 Clouds 10 1023 76 10000 2.1 0 19:21 22.12.2020
5399 Clouds 11 1023 76 10000 2.1 0 18:48 22.12.2020
5400 Clouds 11 1023 76 10000 2.1 0 18:28 22.12.2020
5401 Clouds 12 1023 58 10000 3.1 270 17:50 22.12.2020
5402 Clouds 13 1023 58 10000 3.1 270 17:23 22.12.2020
5403 Clouds 11 1023 83 10000 3.6 280 16:54 22.12.2020
5404 Clouds 11 1023 83 10000 3.6 280 16:36 22.12.2020
5405 Clouds 12 1023 82 10000 0.5 0 16:18 22.12.2020
5406 Clouds 13 1023 82 10000 1 0 15:41 22.12.2020
5407 Clouds 13 1023 82 10000 1 0 15:18 22.12.2020
5408 Clouds 13 1023 81 10000 1 0 14:43 22.12.2020
5409 Clouds 12 1023 87 10000 0.5 0 14:25 22.12.2020
5410 Clouds 12 1024 81 10000 1 0 13:47 22.12.2020
5411 Clouds 12 1024 87 10000 0.5 0 13:19 22.12.2020
5412 Clouds 12 1024 87 10000 0.5 0 12:55 22.12.2020
5413 Clouds 12 1024 93 10000 1.5 170 12:37 22.12.2020
5414 Clouds 12 1025 93 10000 1.5 130 12:18 22.12.2020
5415 Clouds 11 1025 93 10000 1.5 130 11:40 22.12.2020
5416 Clouds 11 1024 100 10000 1.5 250 11:21 22.12.2020
5417 Clouds 11 1024 100 10000 1.5 250 10:54 22.12.2020
5418 Clouds 9 1024 100 10000 1.5 250 10:26 22.12.2020
5419 Clouds 9 1024 100 10000 2.6 100 09:58 22.12.2020
5420 Clouds 8 1024 100 10000 3.1 100 09:29 22.12.2020
5421 Clouds 8 1024 100 10000 2.6 100 08:54 22.12.2020
5422 Fog 8 1024 100 8000 1 0 08:34 22.12.2020
5423 Fog 7 1024 100 7000 1.5 160 07:57 22.12.2020
5424 Clouds 7 1024 100 7000 1 0 07:23 22.12.2020
5425 Clouds 7 1023 100 5000 1.5 0 05:51 22.12.2020
5426 Clouds 7 1023 100 10000 2.6 120 03:46 22.12.2020
5427 Clouds 7 1023 100 7000 1 0 01:44 22.12.2020
5428 Clouds 7 1023 100 9000 0.5 0 23:56 21.12.2020
5429 Clouds 7 1023 100 9000 0.5 0 23:38 21.12.2020
5430 Drizzle 7 1023 100 8000 1 0 23:18 21.12.2020
5431 Clouds 7 1023 100 6000 1 70 22:36 21.12.2020
5432 Clouds 7 1023 100 6000 1 70 22:36 21.12.2020
5433 Clouds 6 1022 100 10000 1 0 22:18 21.12.2020
5434 Clouds 6 1022 100 6000 1.5 130 21:42 21.12.2020
5435 Rain 6 1022 100 6000 1.5 130 21:24 21.12.2020
5436 Rain 6 1022 100 10000 1.5 170 20:42 21.12.2020
5437 Rain 6 1022 100 10000 1.5 170 20:20 21.12.2020
5438 Rain 6 1022 87 10000 1 310 19:46 21.12.2020
5439 Rain 6 1021 87 10000 1 0 19:20 21.12.2020
5440 Rain 6 1021 87 10000 1 0 18:55 21.12.2020
5441 Drizzle 6 1021 87 10000 1 0 18:36 21.12.2020
5442 Rain 6 1021 93 10000 2.1 110 18:18 21.12.2020
5443 Clouds 6 1021 87 10000 2.1 100 17:41 21.12.2020
5444 Clouds 6 1021 87 10000 2.1 100 17:22 21.12.2020
5445 Clouds 7 1021 87 10000 2.1 90 16:39 21.12.2020
5446 Clouds 7 1022 81 10000 2.1 130 16:18 21.12.2020
5447 Rain 7 1022 81 10000 2.1 130 15:41 21.12.2020
5448 Clouds 7 1022 81 10000 1 0 14:57 21.12.2020
5449 Clouds 7 1023 87 10000 2.1 120 14:22 21.12.2020
5450 Clouds 6 1024 93 10000 1 0 13:49 21.12.2020
5451 Clouds 6 1024 93 10000 1 0 13:31 21.12.2020
5452 Rain 6 1024 86 10000 2.6 110 12:47 21.12.2020
5453 Clouds 5 1024 86 10000 2.6 110 12:25 21.12.2020
5454 Rain 5 1025 100 10000 2.6 90 11:59 21.12.2020
5455 Rain 5 1025 100 10000 2.6 120 11:40 21.12.2020
5456 Rain 5 1025 100 10000 2.6 120 11:22 21.12.2020
5457 Rain 4 1025 100 10000 1 0 10:55 21.12.2020
5458 Rain 4 1025 100 10000 0.5 0 10:36 21.12.2020
5459 Clouds 4 1024 100 10000 0.5 0 09:51 21.12.2020
5460 Fog 4 1024 100 10000 2.1 130 09:27 21.12.2020
5461 Fog 4 1024 100 10000 0.5 0 08:58 21.12.2020
5462 Mist 4 1023 100 3300 1.5 120 08:18 21.12.2020
5463 Mist 4 1023 100 4900 1 0 06:47 21.12.2020
5464 Clouds 5 1024 100 10000 2.1 100 04:58 21.12.2020
5465 Mist 5 1025 100 2800 0.5 240 02:32 21.12.2020
5466 Clouds 5 1025 100 10000 2.1 100 00:35 21.12.2020
5467 Clouds 5 1025 100 9000 2.1 110 23:38 20.12.2020
5468 Clouds 5 1025 100 8000 1.5 120 23:19 20.12.2020
5469 Rain 5 1025 100 8000 1.5 120 22:42 20.12.2020
5470 Clouds 5 1025 100 8000 1.5 120 22:22 20.12.2020
5471 Clouds 5 1025 100 10000 1 0 21:40 20.12.2020
5472 Clouds 5 1025 100 10000 1 0 21:22 20.12.2020
5473 Drizzle 5 1024 100 10000 1 0 20:53 20.12.2020
5474 Rain 5 1024 100 10000 1.5 140 20:26 20.12.2020
5475 Clouds 5 1024 100 10000 1.5 0 19:56 20.12.2020
5476 Clouds 5 1023 93 8000 1 0 19:38 20.12.2020
5477 Clouds 5 1023 93 8000 1 0 19:19 20.12.2020
5478 Clouds 5 1023 93 10000 1 110 18:41 20.12.2020
5479 Clouds 5 1023 93 10000 1 110 18:22 20.12.2020
5480 Clouds 5 1022 87 10000 1 0 17:45 20.12.2020
5481 Clouds 6 1022 87 10000 1 0 17:27 20.12.2020
5482 Clouds 6 1022 87 10000 1 310 16:47 20.12.2020
5483 Clouds 6 1022 87 10000 1 310 16:27 20.12.2020
5484 Clouds 6 1022 81 10000 1 170 15:50 20.12.2020
5485 Clouds 7 1022 81 10000 1 170 15:25 20.12.2020
5486 Clouds 7 1021 87 10000 0.95 259 14:55 20.12.2020
5487 Clouds 6 1021 87 10000 0.5 0 14:34 20.12.2020
5488 Clouds 6 1021 86 10000 1 310 13:47 20.12.2020
5489 Clouds 6 1021 86 10000 1 310 13:28 20.12.2020
5490 Clouds 5 1022 93 10000 1 0 12:58 20.12.2020
5491 Clouds 4 1022 93 10000 0.5 0 12:39 20.12.2020
5492 Clouds 4 1022 93 10000 0.5 0 12:21 20.12.2020
5493 Clouds 3 1021 100 10000 1.5 140 11:44 20.12.2020
5494 Clouds 4 1021 100 10000 1.5 140 11:19 20.12.2020
5495 Clouds 2 1021 100 8000 2.1 130 10:45 20.12.2020
5496 Clouds 2 1021 100 8000 2.1 130 10:20 20.12.2020
5497 Rain 2 1021 100 6000 0.5 0 09:46 20.12.2020
5498 Clouds 2 1021 100 6000 0.5 0 09:27 20.12.2020
5499 Clouds 2 1021 100 6000 1 0 08:58 20.12.2020
5500 Clouds 1 1020 74 10000 1 0 08:39 20.12.2020
5501 Fog 1 1020 79 7000 0.5 0 07:27 20.12.2020
5502 Clouds 1 1020 81 5000 0.5 150 05:48 20.12.2020
5503 Clouds 2 1021 100 5000 0.5 0 02:20 20.12.2020
5504 Mist 2 1021 100 3900 1 110 00:38 20.12.2020
5505 Mist 2 1021 100 3000 0.5 0 23:21 19.12.2020
5506 Mist 2 1021 100 3000 0.5 0 22:57 19.12.2020
5507 Fog 2 1021 100 3700 1 0 22:39 19.12.2020
5508 Fog 2 1021 100 350 0.5 0 22:19 19.12.2020
5509 Fog 2 1021 100 800 0.5 0 21:43 19.12.2020
5510 Fog 2 1021 100 800 0.5 0 21:25 19.12.2020
5511 Mist 2 1021 100 4800 0.5 0 20:46 19.12.2020
5512 Clouds 3 1021 100 5000 1 0 20:22 19.12.2020
5513 Clouds 3 1021 100 5000 1 0 19:55 19.12.2020
5514 Clouds 3 1021 100 10000 2.6 120 19:36 19.12.2020
5515 Clouds 3 1021 100 10000 2.6 120 19:18 19.12.2020
5516 Clouds 4 1021 100 10000 1.5 150 18:31 19.12.2020
5517 Clouds 4 1020 100 10000 1 0 17:49 19.12.2020
5518 Clouds 4 1020 100 10000 1 0 17:29 19.12.2020
5519 Clouds 4 1020 100 10000 1 340 16:56 19.12.2020
5520 Clouds 4 1020 93 10000 0.5 0 16:37 19.12.2020
5521 Clouds 4 1019 100 10000 1 0 16:19 19.12.2020
5522 Clouds 4 1020 99 10000 0.72 272 15:47 19.12.2020
5523 Clouds 4 1020 100 10000 0.5 0 14:52 19.12.2020
5524 Clouds 6 1020 100 10000 1 0 14:26 19.12.2020
5525 Clouds 6 1020 100 7000 0.5 0 13:42 19.12.2020
5526 Clouds 5 1021 100 7000 1 0 13:21 19.12.2020
5527 Clouds 5 1021 100 2500 1 0 12:55 19.12.2020
5528 Clouds 5 1021 100 2500 1 0 12:37 19.12.2020
5529 Fog 4 1022 62 800 0.5 0 12:19 19.12.2020
5530 Fog 4 1022 100 250 0.5 0 11:42 19.12.2020
5531 Fog 1 1022 100 150 1 0 10:48 19.12.2020
5532 Fog 1 1022 100 150 1 0 10:29 19.12.2020
5533 Fog 0 1021 100 150 1 0 10:00 19.12.2020
5534 Fog 0 1021 100 150 1 0 09:40 19.12.2020
5535 Fog 0 1021 100 150 1 0 08:58 19.12.2020
5536 Fog -1 1021 100 150 1 0 08:18 19.12.2020
5537 Fog -1 1020 100 100 0.5 0 07:19 19.12.2020
5538 Fog -1 1020 100 100 0.5 0 06:44 19.12.2020
5539 Fog -1 1021 100 150 1 0 05:21 19.12.2020
5540 Fog 0 1021 100 250 0.5 0 03:40 19.12.2020
5541 Clouds 1 1022 81 7000 2.1 150 00:41 19.12.2020
5542 Clouds 1 1022 81 7000 2.1 150 00:41 19.12.2020
5543 Clouds 1 1022 80 7000 2.1 150 00:21 19.12.2020
5544 Clouds 1 1022 100 8000 1 140 23:49 18.12.2020
5545 Clouds 1 1022 100 8000 1 140 23:49 18.12.2020
5546 Clouds 1 1022 100 8000 1 140 23:25 18.12.2020
5547 Clouds 1 1022 100 8000 1 140 22:57 18.12.2020
5548 Clouds 2 1023 79 7000 1 0 22:38 18.12.2020
5549 Clear 2 1023 78 6000 1.19 155 22:19 18.12.2020
5550 Clear 2 1023 78 6000 1.19 155 21:41 18.12.2020
5551 Clear 2 1023 79 7000 1 0 21:22 18.12.2020
5552 Clear 2 1023 80 7000 1 0 20:25 18.12.2020
5553 Clear 2 1023 80 10000 0.5 0 19:49 18.12.2020
5554 Clear 2 1023 81 10000 0.5 0 19:24 18.12.2020
5555 Clear 3 1023 93 10000 0.5 0 18:47 18.12.2020
5556 Clear 4 1023 93 10000 0.5 0 18:28 18.12.2020
5557 Clear 4 1023 93 10000 0.5 0 17:52 18.12.2020
5558 Clear 5 1022 87 10000 1 250 17:21 18.12.2020
5559 Clear 6 1023 70 10000 1.5 220 16:48 18.12.2020
5560 Clear 7 1023 70 10000 1.5 220 16:22 18.12.2020
5561 Clear 8 1023 61 10000 2.1 150 15:54 18.12.2020
5562 Clouds 8 1023 61 10000 1.5 140 15:34 18.12.2020
5563 Clouds 8 1023 61 10000 1.5 140 14:58 18.12.2020
5564 Clouds 8 1023 61 10000 1 160 14:39 18.12.2020
5565 Clouds 8 1024 66 10000 1 0 14:19 18.12.2020
5566 Clouds 8 1025 61 10000 1.5 250 13:42 18.12.2020
5567 Clouds 8 1025 61 10000 1.5 250 13:23 18.12.2020
5568 Clouds 7 1025 75 10000 1.5 160 12:44 18.12.2020
5569 Clouds 5 1025 93 10000 1.5 170 11:31 18.12.2020
5570 Clouds 4 1025 100 10000 1 150 10:59 18.12.2020
5571 Clouds 4 1025 100 10000 1.5 0 10:37 18.12.2020
5572 Clouds 3 1025 100 10000 0.5 0 10:19 18.12.2020
5573 Clouds 2 1025 77 10000 2.1 120 09:38 18.12.2020
5574 Clouds 2 1025 81 10000 1.5 110 09:20 18.12.2020
5575 Clouds 2 1025 81 10000 1.5 110 08:52 18.12.2020
5576 Clouds 2 1025 82 10000 0.5 0 08:26 18.12.2020
5577 Clouds 1 1025 100 5000 0.5 0 07:20 18.12.2020
5578 Clouds 2 1025 100 6000 0.5 0 06:59 18.12.2020
5579 Clouds 2 1025 100 5000 0.5 0 06:22 18.12.2020
5580 Mist 2 1025 100 4200 1 0 05:33 18.12.2020
5581 Clouds 2 1025 100 10000 1 120 04:50 18.12.2020
5582 Clouds 4 1025 100 10000 0.5 0 01:49 18.12.2020
5583 Clouds 4 1025 100 10000 0.5 0 01:22 18.12.2020
5584 Clouds 4 1026 100 10000 2.6 120 23:57 17.12.2020
5585 Clouds 4 1026 100 10000 2.6 120 23:25 17.12.2020
5586 Clouds 4 1026 100 7000 1.5 140 22:50 17.12.2020
5587 Clouds 4 1026 100 7000 1.5 140 22:28 17.12.2020
5588 Clouds 4 1026 100 7000 1 80 21:47 17.12.2020
5589 Clouds 4 1026 100 7000 1 80 21:25 17.12.2020
5590 Clouds 4 1026 100 7000 1 230 20:59 17.12.2020
5591 Clouds 4 1026 100 7000 1 230 20:41 17.12.2020
5592 Clouds 4 1025 100 10000 0.5 320 20:18 17.12.2020
5593 Clouds 4 1025 100 9000 1 0 19:45 17.12.2020
5594 Clouds 4 1025 100 10000 1.5 140 19:23 17.12.2020
5595 Clouds 4 1025 100 7000 1.18 144 18:41 17.12.2020
5596 Clouds 4 1025 100 7000 0.97 148 18:23 17.12.2020
5597 Clouds 4 1025 100 7000 0.97 148 18:23 17.12.2020
5598 Clouds 5 1024 93 9000 1.5 0 17:53 17.12.2020
5599 Clouds 5 1024 93 9000 1.5 0 17:32 17.12.2020
5600 Clouds 5 1024 93 10000 1.5 0 16:45 17.12.2020
5601 Clouds 6 1024 93 10000 1.5 0 16:26 17.12.2020
5602 Clouds 7 1024 75 10000 1 0 15:52 17.12.2020
5603 Clouds 7 1024 75 10000 1 0 15:32 17.12.2020
5604 Clouds 7 1024 87 10000 1.5 0 14:55 17.12.2020
5605 Clouds 7 1024 87 10000 1.5 0 14:34 17.12.2020
5606 Clouds 6 1025 81 10000 1 0 13:58 17.12.2020
5607 Clouds 6 1025 86 10000 2.1 140 13:35 17.12.2020
5608 Clouds 5 1025 93 10000 2.1 130 12:49 17.12.2020
5609 Clouds 5 1025 93 10000 2.1 130 12:26 17.12.2020
5610 Clouds 5 1025 93 10000 3.1 120 11:45 17.12.2020
5611 Clouds 4 1025 93 10000 3.1 120 11:25 17.12.2020
5612 Clouds 4 1025 93 10000 3.1 120 10:56 17.12.2020
5613 Clouds 4 1025 100 9000 3.1 120 10:29 17.12.2020
5614 Clouds 3 1024 93 7000 3.1 130 09:31 17.12.2020
5615 Clouds 3 1024 93 7000 2.6 130 08:37 17.12.2020
5616 Clouds 3 1023 100 7000 3.6 150 07:40 17.12.2020
5617 Clouds 3 1023 100 7000 3.6 150 07:18 17.12.2020
5618 Clouds 3 1023 100 5000 3.6 150 06:44 17.12.2020
5619 Clouds 3 1023 100 5000 3.6 150 06:26 17.12.2020
5620 Mist 3 1021 100 4300 3.1 160 01:40 17.12.2020
5621 Clouds 3 1021 100 10000 2.1 240 23:57 16.12.2020
5622 Clouds 3 1021 100 10000 2.6 250 23:23 16.12.2020
5623 Clouds 3 1021 100 10000 2.6 250 22:58 16.12.2020
5624 Clouds 4 1020 100 5000 1.5 150 22:36 16.12.2020
5625 Clouds 4 1020 100 5000 1.5 150 21:54 16.12.2020
5626 Clouds 4 1020 100 6000 2.6 190 21:36 16.12.2020
5627 Clouds 4 1020 100 8000 2.1 190 20:59 16.12.2020
5628 Clouds 4 1020 93 10000 2.1 180 20:41 16.12.2020
5629 Clouds 4 1019 100 9000 1 160 20:19 16.12.2020
5630 Clouds 5 1019 100 8000 1.5 150 19:20 16.12.2020
5631 Clouds 5 1019 100 8000 1.5 150 18:57 16.12.2020
5632 Clouds 5 1019 100 8000 1.5 150 18:57 16.12.2020
5633 Clouds 5 1019 100 8000 1.5 150 18:57 16.12.2020
5634 Clouds 5 1019 100 10000 1.5 160 18:31 16.12.2020
5635 Clouds 5 1018 100 10000 1 0 17:57 16.12.2020
5636 Clouds 5 1018 100 10000 1 0 17:31 16.12.2020
5637 Clouds 5 1018 100 10000 1 0 16:42 16.12.2020
5638 Clouds 6 1018 93 10000 2.6 320 16:22 16.12.2020
5639 Clouds 6 1018 93 10000 2.6 320 16:22 16.12.2020
5640 Clouds 6 1018 93 10000 2.6 320 16:22 16.12.2020
5641 Clouds 6 1018 93 10000 2.6 320 15:51 16.12.2020
5642 Clouds 6 1018 93 10000 3.1 320 15:30 16.12.2020
5643 Clouds 5 1018 100 5000 2.6 330 14:51 16.12.2020
5644 Clouds 6 1018 100 5000 2.6 330 14:30 16.12.2020
5645 Mist 6 1018 100 5000 3.6 320 13:50 16.12.2020
5646 Clouds 6 1018 100 5000 2.1 280 13:31 16.12.2020
5647 Mist 5 1018 100 2500 0.5 0 12:56 16.12.2020
5648 Mist 5 1018 100 1500 1 0 12:37 16.12.2020
5649 Mist 5 1019 100 1200 1 0 11:43 16.12.2020
5650 Clouds 4 1019 100 2000 1.5 150 11:22 16.12.2020
5651 Mist 4 1019 100 3200 3.1 140 10:51 16.12.2020
5652 Mist 4 1019 100 3200 3.1 140 10:27 16.12.2020
5653 Mist 4 1019 100 2500 1.5 140 09:50 16.12.2020
5654 Mist 4 1019 100 2500 1.5 140 09:23 16.12.2020
5655 Fog 3 1018 100 3000 1.13 138 08:22 16.12.2020
5656 Fog 3 1017 100 3200 0.5 0 07:42 16.12.2020
5657 Fog 3 1017 100 550 1 0 07:19 16.12.2020
5658 Fog 4 1017 100 1200 1 110 03:35 16.12.2020
5659 Fog 4 1016 100 150 1 0 01:34 16.12.2020
5660 Fog 4 1016 100 350 1 0 23:46 15.12.2020
5661 Fog 4 1016 100 1000 0.5 0 22:59 15.12.2020
5662 Fog 4 1016 100 5000 1 0 22:38 15.12.2020
5663 Fog 4 1016 100 1000 0.5 0 22:19 15.12.2020
5664 Clouds 4 1016 100 9000 1.5 100 21:43 15.12.2020
5665 Clouds 4 1016 100 9000 2.1 100 21:21 15.12.2020
5666 Clouds 5 1016 100 9000 2.1 100 20:45 15.12.2020
5667 Clouds 5 1016 100 5000 2.6 120 20:26 15.12.2020
5668 Rain 5 1016 100 5000 2.6 120 19:53 15.12.2020
5669 Rain 5 1017 100 10000 3.1 110 19:30 15.12.2020
5670 Rain 5 1017 100 10000 1 100 18:39 15.12.2020
5671 Rain 5 1016 100 10000 0.5 70 18:21 15.12.2020
5672 Rain 5 1016 100 10000 0.85 64 17:46 15.12.2020
5673 Clouds 5 1016 100 10000 0.9 34 17:28 15.12.2020
5674 Rain 5 1016 100 10000 1 0 16:58 15.12.2020
5675 Rain 5 1016 100 10000 1 0 16:31 15.12.2020
5676 Rain 5 1016 93 9000 0.5 0 15:44 15.12.2020
5677 Clouds 6 1016 93 9000 0.5 0 15:25 15.12.2020
5678 Clouds 6 1015 93 10000 1.5 210 14:43 15.12.2020
5679 Clouds 6 1015 93 10000 1.5 0 14:21 15.12.2020
5680 Clouds 5 1014 93 10000 1 290 13:51 15.12.2020
5681 Rain 6 1014 93 10000 1 290 13:32 15.12.2020
5682 Drizzle 6 1014 100 10000 1 110 12:47 15.12.2020
5683 Clouds 4 1015 100 10000 1 170 12:20 15.12.2020
5684 Clouds 5 1015 100 10000 1 170 11:54 15.12.2020
5685 Clouds 4 1014 100 10000 1.14 166 11:26 15.12.2020
5686 Clouds 4 1014 100 10000 1 0 10:53 15.12.2020
5687 Rain 3 1014 100 10000 0.5 0 10:23 15.12.2020
5688 Rain 3 1014 100 10000 2.1 100 09:49 15.12.2020
5689 Rain 2 1014 100 10000 2.1 100 09:31 15.12.2020
5690 Clouds 2 1014 100 10000 1 0 08:47 15.12.2020
5691 Clouds 2 1014 100 10000 1 0 08:25 15.12.2020
5692 Clouds 2 1013 100 10000 1.39 109 07:49 15.12.2020
5693 Clouds 2 1013 100 10000 1 0 07:23 15.12.2020
5694 Clouds 2 1013 100 10000 1 0 06:27 15.12.2020
5695 Clouds 2 1013 100 10000 2.1 0 01:27 15.12.2020
5696 Rain 2 1014 100 10000 1 0 00:34 15.12.2020
5697 Rain 2 1014 100 10000 2.1 140 23:23 14.12.2020
5698 Clouds 1 1015 80 7000 1.5 0 22:48 14.12.2020
5699 Clouds 1 1015 85 7000 1.5 0 22:27 14.12.2020
5700 Fog 1 1014 85 9000 0.5 0 21:44 14.12.2020
5701 Clouds 1 1014 85 6000 0.5 0 21:20 14.12.2020
5702 Clouds 1 1014 85 6000 0.5 0 20:49 14.12.2020
5703 Clouds 1 1014 83 6000 0.5 0 20:29 14.12.2020
5704 Clear 2 1013 100 10000 1 120 19:50 14.12.2020
5705 Clear 2 1013 100 10000 1 150 19:28 14.12.2020
5706 Clouds 2 1013 93 10000 1 0 18:44 14.12.2020
5707 Clouds 3 1013 93 10000 1 0 18:24 14.12.2020
5708 Clouds 3 1013 93 10000 1 120 17:46 14.12.2020
5709 Clouds 4 1013 93 10000 1 120 17:23 14.12.2020
5710 Clouds 4 1013 86 10000 1 0 16:50 14.12.2020
5711 Clouds 5 1013 86 10000 1 0 16:28 14.12.2020
5712 Clouds 5 1014 81 10000 2.1 150 15:33 14.12.2020
5713 Clear 6 1014 75 10000 1.5 160 14:58 14.12.2020
5714 Clouds 5 1014 86 10000 2.6 140 14:40 14.12.2020
5715 Clouds 5 1014 86 10000 2.6 140 14:21 14.12.2020
5716 Clouds 5 1015 93 10000 1.5 0 13:41 14.12.2020
5717 Clouds 4 1015 86 10000 1.5 0 13:18 14.12.2020
5718 Clouds 5 1015 100 10000 2.1 150 12:50 14.12.2020
5719 Clear 3 1015 100 10000 1 0 12:24 14.12.2020
5720 Clouds 2 1016 73 10000 1 190 11:31 14.12.2020
5721 Clear 1 1015 100 10000 1 0 10:37 14.12.2020
5722 Clear 1 1015 100 10000 1 0 10:37 14.12.2020
5723 Clear 0 1015 100 10000 1 290 10:19 14.12.2020
5724 Clouds -1 1015 100 10000 0.5 0 09:29 14.12.2020
5725 Clouds -1 1014 100 10000 2.1 100 08:46 14.12.2020
5726 Clouds -1 1014 100 10000 2.1 100 08:27 14.12.2020
5727 Fog -1 1014 100 9000 0.5 0 07:27 14.12.2020
5728 Fog -1 1014 100 250 0.5 0 06:44 14.12.2020
5729 Mist 0 1014 100 3400 0.5 0 04:28 14.12.2020
5730 Fog 0 1014 100 250 1 90 02:26 14.12.2020
5731 Mist 1 1014 92 4800 1 0 00:54 14.12.2020
5732 Clouds 1 1014 100 9000 0.5 0 00:31 14.12.2020
5733 Clouds 1 1014 100 10000 2.6 110 23:46 13.12.2020
5734 Clouds 1 1014 100 10000 2.6 110 23:46 13.12.2020
5735 Clouds 2 1014 100 10000 2.6 110 23:24 13.12.2020
5736 Clouds 2 1014 100 7000 0.5 110 22:45 13.12.2020
5737 Clouds 2 1014 100 10000 1 90 22:18 13.12.2020
5738 Clouds 2 1014 100 10000 1 0 21:42 13.12.2020
5739 Clouds 2 1014 100 10000 1 0 21:22 13.12.2020
5740 Clouds 3 1014 100 10000 2.6 100 20:35 13.12.2020
5741 Clouds 3 1014 100 10000 1.5 100 19:51 13.12.2020
5742 Clouds 3 1014 100 10000 2.6 110 19:30 13.12.2020
5743 Clouds 3 1014 100 10000 2.1 100 18:58 13.12.2020
5744 Clouds 3 1014 100 10000 1.5 140 18:39 13.12.2020
5745 Clouds 4 1014 93 10000 2.1 120 18:19 13.12.2020
5746 Clouds 4 1013 86 10000 1.5 0 17:46 13.12.2020
5747 Clouds 4 1013 86 10000 1.5 0 17:20 13.12.2020
5748 Clouds 5 1013 81 10000 3.1 160 16:54 13.12.2020
5749 Clouds 5 1013 81 10000 3.1 160 16:54 13.12.2020
5750 Clouds 5 1013 81 10000 3.1 160 16:36 13.12.2020
5751 Clouds 5 1013 87 10000 3.1 150 15:56 13.12.2020
5752 Clouds 5 1013 81 10000 2.1 140 15:38 13.12.2020
5753 Clouds 6 1013 75 10000 2.1 140 15:18 13.12.2020
5754 Clouds 6 1013 81 10000 0.5 0 14:42 13.12.2020
5755 Clouds 6 1013 81 10000 0.5 0 14:18 13.12.2020
5756 Clouds 6 1013 87 10000 1 0 13:36 13.12.2020
5757 Clouds 6 1013 87 10000 1.5 100 13:18 13.12.2020
5758 Clouds 6 1013 87 10000 1.5 130 12:37 13.12.2020
5759 Clouds 5 1014 93 10000 2.1 120 12:18 13.12.2020
5760 Clouds 5 1014 100 10000 2.1 130 11:35 13.12.2020
5761 Clouds 4 1013 100 10000 1.5 100 10:47 13.12.2020
5762 Clouds 4 1013 100 10000 1.5 100 10:29 13.12.2020
5763 Clouds 3 1013 100 10000 1.5 80 09:51 13.12.2020
5764 Clouds 3 1013 100 10000 2.6 100 08:53 13.12.2020
5765 Clouds 3 1013 100 10000 2.6 100 08:32 13.12.2020
5766 Clouds 4 1012 100 10000 3.1 130 07:27 13.12.2020
5767 Rain 4 1010 100 6000 2.6 100 03:26 13.12.2020
5768 Rain 4 1009 100 7000 2.6 120 02:32 13.12.2020
5769 Rain 4 1009 100 6000 1 0 01:37 13.12.2020
5770 Rain 4 1008 100 3400 0.5 0 00:46 13.12.2020
5771 Rain 4 1007 100 7000 0.5 0 23:45 12.12.2020
5772 Rain 3 1007 100 7000 0.5 0 23:27 12.12.2020
5773 Clouds 4 1007 100 10000 2.1 100 22:37 12.12.2020
5774 Drizzle 3 1006 100 9000 3.1 120 21:49 12.12.2020
5775 Drizzle 3 1006 100 9000 3.1 120 21:31 12.12.2020
5776 Rain 3 1006 100 6000 2.6 100 20:48 12.12.2020
5777 Clouds 3 1006 100 6000 2.6 100 20:21 12.12.2020
5778 Clouds 3 1006 100 7000 2.1 90 19:54 12.12.2020
5779 Clouds 3 1006 100 7000 2.1 90 19:34 12.12.2020
5780 Clouds 3 1005 100 7000 3.1 110 18:58 12.12.2020
5781 Clouds 3 1005 100 7000 3.1 110 18:40 12.12.2020
5782 Mist 3 1005 100 4000 2.6 110 18:22 12.12.2020
5783 Clouds 3 1004 100 4200 2.1 110 17:41 12.12.2020
5784 Clouds 4 1003 100 4000 1 0 16:52 12.12.2020
5785 Mist 4 1002 100 4000 1.5 100 15:59 12.12.2020
5786 Mist 4 1002 100 4000 1.5 100 15:40 12.12.2020
5787 Clouds 4 1001 100 4500 1 90 14:54 12.12.2020
5788 Clouds 4 1001 100 3500 2.1 120 14:35 12.12.2020
5789 Drizzle 4 1000 100 3500 1 0 13:47 12.12.2020
5790 Rain 4 1000 100 3500 1 0 13:26 12.12.2020
5791 Drizzle 3 1000 100 4500 1.5 0 12:43 12.12.2020
5792 Clouds 3 999 100 4000 1.5 130 11:39 12.12.2020
5793 Clouds 2 999 100 4000 1 120 10:51 12.12.2020
5794 Rain 1 998 100 3000 2.6 130 09:31 12.12.2020
5795 Drizzle 1 997 87 4000 1 120 08:42 12.12.2020
5796 Rain 1 997 88 7000 2.1 110 02:28 12.12.2020
5797 Snow 0 996 100 8000 1.5 140 23:40 11.12.2020
5798 Clouds 0 997 100 9000 1.5 110 22:21 11.12.2020
5799 Clouds 0 997 100 10000 2.1 110 20:25 11.12.2020
5800 Snow 0 998 90 10000 1.5 150 17:39 11.12.2020
5801 Clouds 1 999 87 10000 2.6 130 14:40 11.12.2020
5802 Snow 0 999 86 10000 1 0 13:57 11.12.2020
5803 Snow 0 1000 92 10000 2.1 110 12:36 11.12.2020
5804 Clouds -1 1000 92 10000 2.1 110 11:57 11.12.2020
5805 Clouds -1 1000 92 10000 2.1 110 11:38 11.12.2020
5806 Clouds -1 1001 86 10000 1.5 120 10:41 11.12.2020
5807 Clouds -2 1001 92 10000 3.6 140 08:23 11.12.2020
5808 Clouds -2 1003 92 10000 2.6 140 05:38 11.12.2020
5809 Clouds -1 1003 86 10000 3.1 140 04:47 11.12.2020
5810 Clouds -2 1006 92 10000 3.1 120 01:32 11.12.2020
5811 Clouds -3 1007 100 9000 0.5 0 23:38 10.12.2020
5812 Clear -3 1006 100 10000 1 240 22:24 10.12.2020
5813 Clear -3 1006 100 10000 0.5 0 21:35 10.12.2020
5814 Clouds -2 1006 92 10000 1.5 280 20:39 10.12.2020
5815 Clouds -1 1006 96 10000 1.5 0 19:37 10.12.2020
5816 Clouds -1 1006 96 10000 2.1 190 18:50 10.12.2020
5817 Clouds -1 1005 96 10000 2.1 260 17:50 10.12.2020
5818 Clouds 0 1004 74 10000 1 0 16:25 10.12.2020
5819 Clouds 1 1004 80 10000 1 0 15:25 10.12.2020
5820 Clouds 1 1004 80 10000 1 0 14:48 10.12.2020
5821 Clouds 1 1004 80 10000 1 0 14:25 10.12.2020
5822 Clouds 1 1005 86 10000 1 0 12:38 10.12.2020
5823 Clouds 0 1005 83 9000 1 0 11:32 10.12.2020
5824 Clouds -2 1004 100 9000 0.37 88 08:47 10.12.2020
5825 Clouds -1 1004 100 9000 1 140 07:38 10.12.2020
5826 Clouds -1 1005 100 7000 0.5 0 06:41 10.12.2020
5827 Clouds -1 1007 100 9000 1 150 02:53 10.12.2020
5828 Clouds -1 1008 100 7000 1.5 130 01:58 10.12.2020
5829 Clouds 0 1009 97 7000 0.5 0 23:50 09.12.2020
5830 Snow 0 1010 98 6000 0.5 270 20:51 09.12.2020
5831 Snow 0 1010 98 6000 0.5 270 20:26 09.12.2020
5832 Snow 0 1010 98 3200 1.5 280 19:20 09.12.2020
5833 Snow 0 1009 98 1800 1 250 17:39 09.12.2020
5834 Snow 0 1009 96 1800 1.5 270 16:40 09.12.2020
5835 Snow 1 1009 91 1200 1 0 16:20 09.12.2020
5836 Snow 1 1008 100 3500 2.6 360 14:53 09.12.2020
5837 Snow 2 1008 100 7000 1 270 14:27 09.12.2020
5838 Clouds 1 1008 100 6000 0.5 0 13:51 09.12.2020
5839 Drizzle 1 1009 100 3000 1 0 13:18 09.12.2020
5840 Snow 1 1009 100 3000 1 0 12:43 09.12.2020
5841 Snow 1 1009 100 2500 1 160 11:46 09.12.2020
5842 Snow 1 1009 100 2200 0.5 0 10:31 09.12.2020
5843 Snow 0 1008 93 2700 1.5 0 08:45 09.12.2020
5844 Snow 0 1007 95 1700 0.5 140 07:42 09.12.2020
5845 Snow 0 1007 95 1500 0.5 0 05:42 09.12.2020
5846 Snow 0 1006 95 2000 1 160 02:59 09.12.2020
5847 Snow 0 1005 96 4400 0.5 300 01:21 09.12.2020
5848 Clouds 0 1005 96 6000 0.5 0 23:41 08.12.2020
5849 Clouds 0 1004 96 6000 2.1 130 22:43 08.12.2020
5850 Clouds 0 1004 92 7000 1.5 100 20:50 08.12.2020
5851 Clouds -1 1003 100 9000 2.1 140 19:32 08.12.2020
5852 Clouds 0 1003 95 10000 3.1 160 18:57 08.12.2020
5853 Clouds 0 1002 95 10000 2.1 140 17:31 08.12.2020
5854 Clouds 1 1000 86 10000 2.1 70 15:43 08.12.2020
5855 Clouds 2 1000 71 6000 1 0 13:59 08.12.2020
5856 Clouds 1 1000 72 6000 1 0 13:24 08.12.2020
5857 Clouds 1 1000 74 5000 2.1 290 12:24 08.12.2020
5858 Mist 0 1000 100 4500 0.5 0 11:39 08.12.2020
5859 Clouds 0 1000 100 3000 1 0 10:43 08.12.2020
5860 Mist 0 999 100 1500 2.1 180 09:47 08.12.2020
5861 Clouds -1 999 100 6000 1.5 170 07:50 08.12.2020
5862 Clouds 0 998 94 6000 1 0 06:33 08.12.2020
5863 Mist 0 999 96 4300 2.1 320 03:23 08.12.2020
5864 Mist 0 999 96 2900 0.5 0 00:46 08.12.2020
5865 Clouds 0 999 96 5000 1.5 340 23:50 07.12.2020
5866 Fog 0 1000 100 2500 1 0 22:33 07.12.2020
5867 Mist 0 1000 100 2900 1.11 82 21:49 07.12.2020
5868 Clouds 0 999 97 10000 1 0 19:46 07.12.2020
5869 Clouds 1 1000 100 6000 1 0 18:20 07.12.2020
5870 Clouds 2 1000 93 10000 1 0 17:26 07.12.2020
5871 Clouds 2 1000 100 10000 0.6 70 16:48 07.12.2020
5872 Clouds 3 1000 86 10000 1.5 150 15:26 07.12.2020
5873 Clouds 3 1000 93 10000 1.5 0 14:41 07.12.2020
5874 Clouds 3 1000 93 7000 2.1 130 13:43 07.12.2020
5875 Clouds 3 1001 93 8000 2.1 120 12:34 07.12.2020
5876 Clouds 2 1001 100 7000 2.6 140 11:43 07.12.2020
5877 Clouds 2 1001 100 4000 2.1 130 10:38 07.12.2020
5878 Clouds 1 1000 100 4000 1.5 210 09:40 07.12.2020
5879 Drizzle 1 1000 100 8000 1.5 90 07:51 07.12.2020
5880 Snow 1 999 100 6000 2.1 110 05:34 07.12.2020
5881 Snow 1 999 100 5000 2.6 130 04:46 07.12.2020
5882 Drizzle 1 998 100 3900 1.5 120 01:47 07.12.2020
5883 Mist 1 998 100 3400 0.5 0 22:53 06.12.2020
5884 Mist 1 998 100 3900 1 100 22:19 06.12.2020
5885 Snow 1 998 100 5000 1 110 20:52 06.12.2020
5886 Snow 1 998 100 4900 0.5 0 20:34 06.12.2020
5887 Snow 1 998 100 4600 2.1 130 19:43 06.12.2020
5888 Snow 2 998 100 7000 0.5 0 17:55 06.12.2020
5889 Clouds 2 998 100 7000 1 0 16:42 06.12.2020
5890 Clouds 3 998 93 6000 1 0 14:50 06.12.2020
5891 Clouds 2 999 100 4500 1.5 0 13:31 06.12.2020
5892 Clouds 2 999 100 3500 1.5 180 12:39 06.12.2020
5893 Mist 2 999 100 4000 1.5 150 11:55 06.12.2020
5894 Mist 2 999 100 3500 1 190 11:30 06.12.2020
5895 Snow 1 999 100 3500 1.5 130 10:42 06.12.2020
5896 Snow 1 999 94 2600 1 140 09:39 06.12.2020
5897 Snow 0 999 94 1200 0.4 185 08:22 06.12.2020
5898 Snow 0 998 94 1300 1 0 05:38 06.12.2020
5899 Snow 1 998 100 4000 0.31 183 00:57 06.12.2020
5900 Snow 1 998 100 3800 1.5 90 00:37 06.12.2020
5901 Snow 1 998 100 4300 1.5 110 00:19 06.12.2020
5902 Snow 1 998 100 4500 1.5 120 22:26 05.12.2020
5903 Snow 1 998 100 3100 0.5 0 21:58 05.12.2020
5904 Snow 1 998 100 3300 1 50 21:37 05.12.2020
5905 Snow 1 998 100 5000 1 0 21:19 05.12.2020
5906 Snow 1 998 100 4500 1 310 18:55 05.12.2020
5907 Snow 1 998 100 7000 1.5 310 17:57 05.12.2020
5908 Snow 1 998 100 9000 1.5 320 16:51 05.12.2020
5909 Clouds 2 998 100 8000 2.36 56 16:29 05.12.2020
5910 Snow 2 997 100 10000 0.5 0 15:36 05.12.2020
5911 Clouds 3 998 93 10000 1.65 26 14:24 05.12.2020
5912 Mist 1 998 100 3900 1 240 11:51 05.12.2020
5913 Clouds 0 998 90 5000 1.5 0 10:48 05.12.2020
5914 Clouds 0 998 90 5000 1.5 0 10:22 05.12.2020
5915 Mist 0 997 98 4700 0.5 0 07:48 05.12.2020
5916 Snow 0 996 94 5000 1 170 06:20 05.12.2020
5917 Snow 0 993 94 1600 1 0 02:45 05.12.2020
5918 Snow 1 990 94 1300 1 320 23:48 04.12.2020
5919 Snow 1 990 100 4100 1 240 21:59 04.12.2020
5920 Snow 1 989 100 10000 1.5 300 19:57 04.12.2020
5921 Snow 2 989 93 10000 3.1 310 18:47 04.12.2020
5922 Clouds 2 989 95 10000 1 310 17:54 04.12.2020
5923 Clouds 2 989 94 10000 1 310 17:24 04.12.2020
5924 Clouds 3 989 89 10000 1 0 15:35 04.12.2020
5925 Clouds 2 988 77 10000 1.5 190 13:39 04.12.2020
5926 Clouds 2 988 73 10000 1.5 190 13:21 04.12.2020
5927 Clouds 2 988 77 10000 1 240 12:47 04.12.2020
5928 Snow 1 989 76 10000 3.1 310 10:39 04.12.2020
5929 Snow 0 988 78 10000 0.96 233 09:41 04.12.2020
5930 Snow 1 990 85 10000 3.1 110 06:41 04.12.2020
5931 Snow 0 990 83 10000 1 190 05:40 04.12.2020
5932 Clouds 0 992 100 10000 2.1 120 01:54 04.12.2020
5933 Clouds 0 995 100 10000 2.1 120 22:52 03.12.2020
5934 Clouds 0 996 92 10000 1 0 22:18 03.12.2020
5935 Clouds 0 997 92 10000 1 0 20:48 03.12.2020
5936 Clouds 0 999 92 10000 2.1 140 19:27 03.12.2020
5937 Clouds 0 999 90 10000 0.5 0 18:49 03.12.2020
5938 Clouds 1 1001 69 10000 0.5 0 17:38 03.12.2020
5939 Clouds 1 1001 69 10000 1.5 0 17:18 03.12.2020
5940 Clouds 3 1003 64 10000 4.1 170 15:45 03.12.2020
5941 Clouds 4 1003 64 10000 4.1 170 15:27 03.12.2020
5942 Clouds 4 1004 60 10000 3.6 160 14:26 03.12.2020
5943 Clouds 4 1005 56 10000 2.1 180 13:36 03.12.2020
5944 Clouds 3 1006 64 10000 3.1 160 12:26 03.12.2020
5945 Clouds 2 1007 80 10000 5.1 170 11:24 03.12.2020
5946 Clouds -1 1009 92 10000 3.1 130 09:33 03.12.2020
5947 Clouds -2 1010 100 7000 1 0 05:23 03.12.2020
5948 Clouds 0 1011 96 10000 2.1 110 02:27 03.12.2020
5949 Clouds 0 1012 96 10000 1 150 00:48 03.12.2020
5950 Clouds 0 1013 96 10000 0.5 0 22:47 02.12.2020
5951 Clouds 1 1013 86 10000 0.5 0 22:25 02.12.2020
5952 Clouds 0 1013 86 10000 0.5 0 20:57 02.12.2020
5953 Clouds 0 1012 80 10000 1.5 200 20:39 02.12.2020
5954 Clouds 1 1012 80 10000 1.5 200 20:21 02.12.2020
5955 Clouds 1 1012 80 10000 1 0 18:33 02.12.2020
5956 Clouds 1 1012 80 10000 1 0 17:38 02.12.2020
5957 Clouds 1 1011 74 10000 1.5 0 17:19 02.12.2020
5958 Clouds 1 1011 80 10000 1.5 300 15:18 02.12.2020
5959 Clouds 1 1012 85 10000 5.1 20 11:52 02.12.2020
5960 Clouds 1 1013 92 10000 2.6 20 10:28 02.12.2020
5961 Clouds 1 1013 96 10000 1.5 0 08:40 02.12.2020
5962 Clouds 1 1014 93 10000 2.1 50 04:25 02.12.2020
5963 Clouds 0 1015 96 8000 1 0 22:21 01.12.2020
5964 Clouds 1 1015 100 10000 2.1 120 21:36 01.12.2020
5965 Clouds 1 1015 100 10000 1.5 80 19:35 01.12.2020
5966 Snow 1 1015 100 7000 1 150 17:58 01.12.2020
5967 Drizzle 2 1015 100 10000 1 0 16:36 01.12.2020
5968 Clouds 2 1016 86 10000 1.5 10 13:39 01.12.2020
5969 Snow 2 1016 93 10000 3.6 300 12:25 01.12.2020
5970 Rain 1 1016 100 4000 1.5 350 11:27 01.12.2020
5971 Snow 2 1016 100 2500 1.5 0 10:39 01.12.2020
5972 Rain 0 1016 92 3200 2.6 310 08:21 01.12.2020
5973 Rain 0 1018 91 2900 1.5 120 06:48 01.12.2020
5974 Clouds 0 1022 87 10000 1.5 0 01:53 01.12.2020
5975 Clouds 0 1022 87 10000 3.6 260 00:56 01.12.2020
5976 Clouds 0 1023 91 10000 3.1 260 23:21 30.11.2020
5977 Clouds 0 1024 91 10000 3.1 270 22:45 30.11.2020
5978 Clouds 0 1024 92 10000 3.1 270 22:25 30.11.2020
5979 Clouds 0 1025 93 10000 2.6 270 20:57 30.11.2020
5980 Clouds -1 1025 94 10000 1 0 19:42 30.11.2020
5981 Clouds 0 1025 95 10000 1 0 18:24 30.11.2020
5982 Clouds 0 1025 95 10000 1 0 17:48 30.11.2020
5983 Clouds 0 1025 80 10000 1 0 16:58 30.11.2020
5984 Clouds 0 1025 80 8000 1 260 16:38 30.11.2020
5985 Clouds 1 1024 86 8000 2.6 290 14:47 30.11.2020
5986 Clouds 1 1024 80 8000 1.5 170 13:53 30.11.2020
5987 Clouds 1 1024 80 8000 1.5 170 13:53 30.11.2020
5988 Clouds 1 1025 80 7000 1 0 12:27 30.11.2020
5989 Clouds 1 1025 86 7000 0.5 0 11:58 30.11.2020
5990 Clouds 0 1025 86 6000 1 0 10:28 30.11.2020
5991 Mist 0 1025 92 5000 2.1 300 09:51 30.11.2020
5992 Clouds 0 1023 96 7000 2.1 300 07:18 30.11.2020
5993 Clouds 0 1022 97 10000 2.6 280 00:54 30.11.2020
5994 Clouds 1 1022 86 10000 2.6 290 21:53 29.11.2020
5995 Clouds 1 1022 86 9000 3.1 290 21:32 29.11.2020
5996 Clouds 1 1021 97 9000 2.6 320 20:38 29.11.2020
5997 Clouds 1 1020 96 10000 2.6 20 17:48 29.11.2020
5998 Clouds 1 1020 89 10000 2.6 340 16:29 29.11.2020
5999 Clouds 2 1019 78 10000 2.1 0 13:24 29.11.2020
6000 Clouds 2 1019 82 10000 1.5 0 12:27 29.11.2020
6001 Clouds 1 1019 80 10000 2.98 41 10:54 29.11.2020
6002 Clouds 1 1018 95 8000 1 0 08:39 29.11.2020
6003 Clouds 0 1017 97 10000 1 0 06:33 29.11.2020
6004 Clouds 1 1017 96 10000 0.5 0 00:30 29.11.2020
6005 Clouds 1 1016 95 10000 1.5 140 22:57 28.11.2020
6006 Clouds 1 1016 94 10000 0.5 0 20:50 28.11.2020
6007 Clouds 1 1015 94 10000 1 0 19:51 28.11.2020
6008 Clouds 1 1015 93 10000 2.1 40 19:24 28.11.2020
6009 Clouds 1 1015 100 10000 1 0 18:51 28.11.2020
6010 Clouds 1 1015 100 5000 2.1 180 17:48 28.11.2020
6011 Clouds 1 1015 100 5000 1.5 230 16:44 28.11.2020
6012 Clouds 3 1015 100 3000 2.6 290 14:56 28.11.2020
6013 Clouds 3 1016 58 3000 2.6 320 13:27 28.11.2020
6014 Mist 2 1017 64 1300 0.5 0 10:57 28.11.2020
6015 Fog 0 1018 100 500 1.5 0 06:42 28.11.2020
6016 Fog 0 1018 100 600 0.5 0 03:33 28.11.2020
6017 Fog 0 1018 92 400 1 0 01:51 28.11.2020
6018 Fog 1 1019 88 300 1.5 0 23:18 27.11.2020
6019 Fog 1 1019 88 450 1 0 21:51 27.11.2020
6020 Fog 1 1019 100 700 1.5 210 20:37 27.11.2020
6021 Fog 1 1019 100 750 2.1 160 19:30 27.11.2020
6022 Mist 2 1019 100 1500 2.1 130 18:51 27.11.2020
6023 Mist 4 1019 100 4500 1 0 15:19 27.11.2020
6024 Mist 4 1019 100 3500 2.1 320 13:57 27.11.2020
6025 Mist 4 1020 100 2800 3.1 300 12:48 27.11.2020
6026 Mist 3 1020 52 1500 1.5 280 11:55 27.11.2020
6027 Mist 3 1021 56 1200 1 290 10:51 27.11.2020
6028 Fog 2 1021 100 700 1 0 10:24 27.11.2020
6029 Clouds 0 1021 89 10000 0.53 162 07:30 27.11.2020
6030 Clear 1 1023 87 10000 1.34 295 22:43 26.11.2020
6031 Clear 1 1023 87 10000 1.06 175 22:22 26.11.2020
6032 Fog 1 1022 100 250 0.5 0 21:39 26.11.2020
6033 Mist 2 1022 100 2000 1 0 19:48 26.11.2020
6034 Clouds 2 1022 100 5000 2.6 160 18:34 26.11.2020
6035 Clouds 4 1021 86 10000 1.5 270 16:32 26.11.2020
6036 Clouds 5 1023 80 10000 1.5 0 13:43 26.11.2020
6037 Clouds 5 1023 86 10000 1 0 12:49 26.11.2020
6038 Clouds 4 1023 93 10000 1 0 12:29 26.11.2020
6039 Fog 3 1024 100 500 1 0 10:38 26.11.2020
6040 Fog 2 1024 100 700 1 210 09:59 26.11.2020
6041 Fog 0 1024 100 1500 2.1 310 09:31 26.11.2020
6042 Mist 0 1023 100 1200 2.1 320 08:43 26.11.2020
6043 Clouds 0 1023 100 5000 2.6 310 07:49 26.11.2020
6044 Mist 1 1023 100 4400 1 0 00:46 26.11.2020
6045 Mist 1 1022 100 2000 0.5 260 21:36 25.11.2020
6046 Mist 1 1022 100 2500 1.5 0 20:19 25.11.2020
6047 Mist 1 1021 100 3000 2.1 100 18:58 25.11.2020
6048 Clouds 2 1021 100 5000 2.6 130 17:24 25.11.2020
6049 Mist 5 1021 93 5000 1 0 15:42 25.11.2020
6050 Clouds 5 1021 93 4000 2.1 340 14:42 25.11.2020
6051 Clouds 5 1021 100 5000 1 0 13:44 25.11.2020
6052 Clouds 4 1021 58 2000 1 0 12:30 25.11.2020
6053 Mist 4 1022 60 1500 0.5 0 11:21 25.11.2020
6054 Mist 0 1022 100 1500 1 0 09:20 25.11.2020
6055 Clouds 0 1021 100 1500 1 0 08:49 25.11.2020
6056 Mist 0 1021 100 3900 1.5 180 06:59 25.11.2020
6057 Mist 0 1021 87 1200 2.6 160 03:49 25.11.2020
6058 Fog 1 1022 88 1100 1.5 220 00:55 25.11.2020
6059 Fog 1 1022 87 350 2.1 220 23:59 24.11.2020
6060 Fog 1 1022 87 300 1.5 0 23:34 24.11.2020
6061 Fog 1 1022 100 450 1.5 210 22:38 24.11.2020
6062 Fog 1 1023 100 1100 1.5 190 21:31 24.11.2020
6063 Mist 1 1023 100 1500 2.1 200 20:51 24.11.2020
6064 Mist 2 1023 100 3000 1.5 210 19:47 24.11.2020
6065 Mist 2 1023 100 3000 4.1 330 17:31 24.11.2020
6066 Mist 2 1023 100 3000 3.6 320 16:56 24.11.2020
6067 Mist 2 1023 100 3000 3.6 300 16:36 24.11.2020
6068 Mist 3 1023 100 3000 3.6 300 15:55 24.11.2020
6069 Clouds 5 1023 100 4000 3.6 340 15:19 24.11.2020
6070 Mist 5 1024 100 4000 4.6 310 14:43 24.11.2020
6071 Mist 4 1025 100 2000 2.1 330 12:58 24.11.2020
6072 Mist 4 1025 100 1500 2.6 330 12:38 24.11.2020
6073 Mist 4 1025 100 2000 3.1 340 11:59 24.11.2020
6074 Fog 1 1025 100 7000 0.5 0 10:52 24.11.2020
6075 Fog 0 1026 100 6000 0.69 360 10:25 24.11.2020
6076 Fog 0 1026 100 6000 0.69 360 10:25 24.11.2020
6077 Fog -1 1026 100 5000 0.5 0 09:37 24.11.2020
6078 Fog -2 1026 100 750 0.5 0 08:33 24.11.2020
6079 Fog -2 1026 100 6000 0.5 0 04:50 24.11.2020
6080 Fog 0 1028 100 2700 0.5 0 23:35 23.11.2020
6081 Fog 1 1028 100 3700 0.5 0 21:47 23.11.2020
6082 Fog 1 1028 100 4800 1 0 21:20 23.11.2020
6083 Clouds 1 1028 88 5000 0.5 0 20:28 23.11.2020
6084 Clouds 1 1028 88 7000 1.01 71 19:53 23.11.2020
6085 Clear 4 1027 86 10000 1.08 68 17:29 23.11.2020
6086 Clear 5 1027 70 10000 1.5 310 16:55 23.11.2020
6087 Clear 8 1028 65 10000 2.6 290 14:50 23.11.2020
6088 Clear 8 1028 70 10000 1.5 280 13:56 23.11.2020
6089 Clear 7 1029 80 10000 1 0 12:40 23.11.2020
6090 Clear 6 1029 57 10000 1 300 11:57 23.11.2020
6091 Clear 5 1029 57 10000 0.5 0 11:37 23.11.2020
6092 Clouds 1 1029 66 10000 0.5 0 09:47 23.11.2020
6093 Clouds 0 1029 100 10000 1 0 08:51 23.11.2020
6094 Clouds -1 1029 100 10000 0.5 0 07:56 23.11.2020
6095 Clear 0 1028 100 10000 0.5 0 02:39 23.11.2020
6096 Clouds 0 1028 100 8000 0.5 0 23:51 22.11.2020
6097 Clear 0 1028 100 10000 0.5 0 22:23 22.11.2020
6098 Clear 1 1027 80 10000 1 300 21:24 22.11.2020
6099 Clear 1 1027 100 10000 1 130 20:20 22.11.2020
6100 Clear 1 1027 79 10000 0.21 234 19:23 22.11.2020
6101 Clear 2 1027 93 10000 0.5 0 18:23 22.11.2020
6102 Clear 5 1027 70 10000 2.1 200 16:26 22.11.2020
6103 Clear 7 1027 56 10000 1.5 0 15:25 22.11.2020
6104 Clear 7 1028 52 10000 1.5 0 13:27 22.11.2020
6105 Clear 6 1029 52 10000 1 270 12:43 22.11.2020
6106 Clear 5 1029 53 10000 1 270 11:54 22.11.2020
6107 Clear 3 1029 100 10000 1 0 10:51 22.11.2020
6108 Clear 0 1029 100 10000 1 0 10:33 22.11.2020
6109 Fog -3 1030 100 400 0.5 0 04:39 22.11.2020
6110 Fog -2 1030 100 6000 0.5 70 23:56 21.11.2020
6111 Clear -1 1031 100 6000 0.64 84 22:41 21.11.2020
6112 Clear -1 1031 100 6000 1.5 100 21:31 21.11.2020
6113 Clear -1 1031 100 9000 1 0 20:49 21.11.2020
6114 Clear -1 1031 100 7000 0.5 0 20:20 21.11.2020
6115 Clear 0 1031 100 9000 0.5 0 19:42 21.11.2020
6116 Clear 0 1031 93 10000 1 130 18:54 21.11.2020
6117 Clear 2 1030 80 10000 0.5 0 17:30 21.11.2020
6118 Clear 4 1031 65 10000 1 230 16:44 21.11.2020
6119 Clear 4 1031 60 10000 1.5 240 15:40 21.11.2020
6120 Clear 5 1031 60 10000 1.5 240 15:20 21.11.2020
6121 Clear 5 1031 68 10000 1 0 14:40 21.11.2020
6122 Clouds 3 1033 80 10000 1 0 12:44 21.11.2020
6123 Clouds 3 1033 80 10000 1 0 12:21 21.11.2020
6124 Clear 2 1033 73 10000 1 140 11:36 21.11.2020
6125 Clear 0 1033 100 8000 1 140 10:28 21.11.2020
6126 Fog -2 1033 100 200 0.5 0 08:52 21.11.2020
6127 Fog -3 1033 100 9000 1 0 08:19 21.11.2020
6128 Clear -2 1032 100 8000 1 340 05:42 21.11.2020
6129 Mist -1 1033 100 5000 0.5 0 01:59 21.11.2020
6130 Clear 0 1033 100 8000 1.5 320 00:21 21.11.2020
6131 Clear 0 1033 100 10000 0.5 0 22:43 20.11.2020
6132 Clear 1 1033 100 10000 1 0 21:44 20.11.2020
6133 Clear 1 1033 100 10000 1 0 21:44 20.11.2020
6134 Clear 1 1033 100 10000 1 0 21:21 20.11.2020
6135 Clear 2 1033 86 10000 0.5 0 19:55 20.11.2020
6136 Clouds 4 1033 80 10000 3.1 280 18:53 20.11.2020
6137 Clouds 4 1033 80 10000 3.1 340 17:58 20.11.2020
6138 Clouds 4 1032 80 10000 2.1 340 17:29 20.11.2020
6139 Clouds 5 1032 80 10000 2.6 350 16:40 20.11.2020
6140 Clouds 5 1032 75 10000 1.5 0 15:59 20.11.2020
6141 Clouds 5 1032 75 10000 2.6 350 15:34 20.11.2020
6142 Clouds 5 1031 93 10000 3.1 320 13:49 20.11.2020
6143 Clouds 5 1032 86 10000 3.1 360 13:19 20.11.2020
6144 Clouds 5 1032 81 10000 1 0 12:39 20.11.2020
6145 Clouds 5 1032 86 10000 1.5 340 11:48 20.11.2020
6146 Clouds 5 1032 86 10000 1.5 340 11:21 20.11.2020
6147 Clouds 4 1032 100 10000 1 230 09:45 20.11.2020
6148 Clouds 4 1031 100 7000 1.5 80 08:27 20.11.2020
6149 Rain 4 1031 100 10000 2.1 120 07:34 20.11.2020
6150 Clouds 4 1031 100 10000 1.5 130 03:45 20.11.2020
6151 Clouds 4 1031 86 10000 0.5 0 23:31 19.11.2020
6152 Clouds 4 1031 100 10000 1 0 22:27 19.11.2020
6153 Clouds 5 1031 80 10000 1.5 0 21:49 19.11.2020
6154 Clouds 4 1031 93 10000 1.89 236 20:41 19.11.2020
6155 Clouds 4 1031 93 10000 1.5 199 20:19 19.11.2020
6156 Clouds 4 1031 100 10000 1.5 90 19:25 19.11.2020
6157 Clouds 4 1030 86 10000 1.5 100 18:35 19.11.2020
6158 Clouds 6 1029 61 10000 3.6 280 17:18 19.11.2020
6159 Clouds 7 1028 70 10000 4.1 310 15:59 19.11.2020
6160 Clouds 8 1027 70 10000 4.6 300 15:28 19.11.2020
6161 Clouds 9 1026 93 10000 6.7 270 13:47 19.11.2020
6162 Drizzle 9 1026 100 6000 1 0 13:25 19.11.2020
6163 Rain 9 1026 100 4200 1.5 0 12:51 19.11.2020
6164 Clouds 9 1026 100 4200 1.5 0 12:25 19.11.2020
6165 Clouds 9 1025 93 10000 2.24 230 11:40 19.11.2020
6166 Rain 9 1025 100 10000 0.5 0 11:00 19.11.2020
6167 Clouds 8 1026 93 10000 0.5 0 10:28 19.11.2020
6168 Clouds 8 1026 100 10000 1.5 0 09:45 19.11.2020
6169 Clouds 8 1026 100 10000 1.5 0 09:26 19.11.2020
6170 Clouds 7 1026 100 10000 0.5 0 08:20 19.11.2020
6171 Clouds 5 1026 100 10000 2.6 320 06:49 19.11.2020
6172 Fog 4 1027 100 5000 0.5 0 01:46 19.11.2020
6173 Clear 4 1027 100 9000 0.5 0 00:29 19.11.2020
6174 Clear 5 1026 100 10000 1.5 0 23:30 18.11.2020
6175 Fog 5 1026 100 4100 0.5 0 22:40 18.11.2020
6176 Fog 5 1026 100 4100 0.5 0 22:21 18.11.2020
6177 Fog 5 1026 100 1000 1 0 21:40 18.11.2020
6178 Fog 5 1026 100 1000 1 0 21:20 18.11.2020
6179 Clear 6 1026 100 6000 0.5 0 19:50 18.11.2020
6180 Clear 6 1026 100 10000 1 0 19:28 18.11.2020
6181 Clear 5 1026 100 10000 0.5 0 18:57 18.11.2020
6182 Clear 6 1026 93 10000 1 0 18:38 18.11.2020
6183 Clear 8 1026 87 10000 0.5 0 17:37 18.11.2020
6184 Clear 8 1026 87 10000 0.5 0 17:37 18.11.2020
6185 Clear 11 1026 62 10000 1 210 16:24 18.11.2020
6186 Clear 11 1026 62 10000 1 210 15:57 18.11.2020
6187 Clear 12 1026 66 10000 1 0 14:41 18.11.2020
6188 Clear 10 1027 71 10000 1 0 13:45 18.11.2020
6189 Clear 10 1027 71 10000 1 0 13:20 18.11.2020
6190 Clear 9 1028 76 10000 1 0 12:42 18.11.2020
6191 Clear 7 1028 93 10000 0.5 0 11:35 18.11.2020
6192 Fog 5 1029 100 10000 0.5 0 10:32 18.11.2020
6193 Fog 5 1029 100 10000 0.5 0 09:57 18.11.2020
6194 Fog 1 1029 79 8000 1 0 07:54 18.11.2020
6195 Fog 0 1029 100 1000 0.5 0 06:34 18.11.2020
6196 Fog 3 1029 100 400 0.5 0 00:33 18.11.2020
6197 Fog 3 1029 100 5000 0.25 208 23:37 17.11.2020
6198 Clear 3 1029 100 10000 0.5 0 22:49 17.11.2020
6199 Clear 4 1029 100 10000 0.5 0 22:29 17.11.2020
6200 Clear 4 1029 100 10000 0.5 110 21:50 17.11.2020
6201 Clouds 4 1029 100 9000 0.5 0 21:30 17.11.2020
6202 Clear 4 1029 100 10000 1 130 20:50 17.11.2020
6203 Clear 4 1029 100 10000 1 130 20:50 17.11.2020
6204 Clouds 5 1029 81 10000 0.71 89 20:26 17.11.2020
6205 Clear 5 1029 100 10000 0.5 90 19:54 17.11.2020
6206 Clear 6 1029 93 10000 1 0 18:30 17.11.2020
6207 Clear 8 1029 76 10000 1 0 17:44 17.11.2020
6208 Clear 9 1029 76 10000 1 0 16:54 17.11.2020
6209 Clear 10 1028 62 10000 1.5 0 16:18 17.11.2020
6210 Clear 11 1028 62 10000 1.5 0 15:40 17.11.2020
6211 Clear 11 1028 62 10000 1.5 0 15:22 17.11.2020
6212 Clear 10 1028 62 10000 1.5 0 14:54 17.11.2020
6213 Clear 11 1029 62 10000 0.5 0 14:21 17.11.2020
6214 Clear 11 1029 66 10000 1 0 13:34 17.11.2020
6215 Clear 11 1030 66 10000 0.5 0 12:46 17.11.2020
6216 Clear 10 1030 70 10000 1.5 120 11:59 17.11.2020
6217 Clear 10 1030 76 10000 2.6 120 11:40 17.11.2020
6218 Clear 8 1030 100 10000 1.5 110 10:39 17.11.2020
6219 Clear 6 1030 100 10000 1.5 110 10:20 17.11.2020
6220 Clear 4 1030 100 10000 1.5 160 09:48 17.11.2020
6221 Fog 3 1029 100 10000 1 0 08:54 17.11.2020
6222 Fog 2 1029 100 10000 0.41 134 08:20 17.11.2020
6223 Fog 2 1028 100 10000 0.41 134 07:35 17.11.2020
6224 Clear 3 1028 100 10000 1 140 04:32 17.11.2020
6225 Clear 3 1027 100 10000 0.5 0 03:29 17.11.2020
6226 Clouds 4 1027 100 10000 1.5 160 02:29 17.11.2020
6227 Clouds 4 1027 100 10000 0.5 0 00:57 17.11.2020
6228 Clouds 5 1027 93 10000 0.5 0 23:57 16.11.2020
6229 Clouds 5 1027 100 10000 0.5 0 23:33 16.11.2020
6230 Clouds 5 1027 100 10000 1.5 0 22:59 16.11.2020
6231 Clouds 6 1027 93 10000 1 300 22:26 16.11.2020
6232 Clouds 6 1026 93 10000 1 10 21:56 16.11.2020
6233 Clouds 6 1026 87 10000 1 0 21:38 16.11.2020
6234 Clouds 6 1026 87 10000 1 0 21:19 16.11.2020
6235 Clouds 7 1026 81 10000 1 0 20:26 16.11.2020
6236 Clouds 7 1025 81 10000 2.1 300 19:53 16.11.2020
6237 Clouds 7 1025 81 10000 1 0 19:29 16.11.2020
6238 Clouds 8 1025 76 10000 1 0 18:50 16.11.2020
6239 Clouds 8 1024 76 10000 3.6 260 18:18 16.11.2020
6240 Clouds 9 1023 71 10000 5.7 280 17:28 16.11.2020
6241 Clouds 9 1023 71 10000 3.6 290 16:57 16.11.2020
6242 Clouds 9 1023 66 10000 1.5 310 16:39 16.11.2020
6243 Clouds 9 1023 66 10000 1.5 310 16:20 16.11.2020
6244 Clouds 10 1022 62 10000 4.1 240 15:43 16.11.2020
6245 Clouds 11 1022 62 10000 4.1 240 15:25 16.11.2020
6246 Clouds 11 1022 71 10000 3.1 260 14:47 16.11.2020
6247 Clouds 10 1022 87 10000 2.1 290 13:40 16.11.2020
6248 Clouds 11 1022 66 10000 3.1 270 12:45 16.11.2020
6249 Clouds 11 1022 66 10000 3.1 270 12:45 16.11.2020
6250 Clouds 10 1022 66 10000 3.1 270 12:45 16.11.2020
6251 Clouds 11 1022 66 10000 3.1 270 12:45 16.11.2020
6252 Clouds 10 1022 66 10000 3.1 270 12:25 16.11.2020
6253 Clouds 10 1021 66 10000 3.1 280 11:38 16.11.2020
6254 Clouds 9 1021 71 10000 1 0 11:20 16.11.2020
6255 Clouds 9 1021 76 10000 2.1 200 10:42 16.11.2020
6256 Clouds 9 1021 76 10000 2.1 200 10:24 16.11.2020
6257 Clouds 8 1020 76 10000 2.1 190 09:43 16.11.2020
6258 Clouds 8 1020 76 10000 2.1 190 09:22 16.11.2020
6259 Clouds 8 1020 100 10000 1 70 08:40 16.11.2020
6260 Clouds 7 1019 100 10000 1 0 07:44 16.11.2020
6261 Clouds 7 1019 100 10000 1 0 06:50 16.11.2020
6262 Clouds 7 1018 81 10000 1 0 05:57 16.11.2020
6263 Rain 8 1017 81 10000 4.1 260 04:37 16.11.2020
6264 Rain 10 1015 87 10000 4.1 150 02:29 16.11.2020
6265 Rain 11 1015 87 10000 5.7 180 01:41 16.11.2020
6266 Rain 10 1015 100 10000 4.6 330 23:54 15.11.2020
6267 Rain 12 1015 87 10000 3.6 310 23:22 15.11.2020
6268 Rain 12 1015 82 9000 4.6 290 22:48 15.11.2020
6269 Rain 12 1014 82 9000 5.1 280 22:21 15.11.2020
6270 Rain 11 1014 100 10000 2.6 320 21:44 15.11.2020
6271 Rain 11 1014 100 10000 2.6 320 21:24 15.11.2020
6272 Rain 9 1013 100 10000 1 0 20:41 15.11.2020
6273 Clear 9 1013 87 10000 1 0 20:19 15.11.2020
6274 Clear 9 1013 87 10000 1 0 19:48 15.11.2020
6275 Clear 9 1013 87 10000 1.5 0 19:22 15.11.2020
6276 Clear 8 1013 93 10000 1.5 0 18:57 15.11.2020
6277 Clear 8 1013 93 10000 1 0 18:39 15.11.2020
6278 Clear 8 1013 93 10000 1 0 18:19 15.11.2020
6279 Clear 9 1013 76 10000 1.5 0 17:44 15.11.2020
6280 Clear 10 1013 76 10000 1.5 0 17:24 15.11.2020
6281 Clear 11 1013 71 10000 1 180 16:46 15.11.2020
6282 Clear 12 1013 71 10000 1 180 16:21 15.11.2020
6283 Clear 13 1014 62 10000 1 230 15:50 15.11.2020
6284 Clear 14 1014 51 10000 1 0 15:28 15.11.2020
6285 Clear 14 1014 54 10000 1 270 14:58 15.11.2020
6286 Clear 13 1014 58 10000 1.5 300 14:30 15.11.2020
6287 Clear 13 1015 62 10000 2.6 310 13:56 15.11.2020
6288 Clear 13 1015 66 10000 1.5 0 13:36 15.11.2020
6289 Clear 13 1016 71 10000 0.58 296 12:51 15.11.2020
6290 Clear 12 1016 66 10000 1 0 12:23 15.11.2020
6291 Clouds 11 1017 81 10000 2.1 140 11:46 15.11.2020
6292 Clouds 11 1017 81 10000 2.1 140 11:20 15.11.2020
6293 Clear 9 1018 93 10000 1 0 10:54 15.11.2020
6294 Clouds 8 1018 100 10000 2.1 120 10:32 15.11.2020
6295 Clouds 6 1019 100 10000 3.1 110 09:58 15.11.2020
6296 Clouds 5 1019 100 10000 1.5 130 09:40 15.11.2020
6297 Clouds 5 1019 100 10000 2.1 130 09:18 15.11.2020
6298 Clouds 4 1019 100 10000 1 0 08:46 15.11.2020
6299 Clouds 3 1019 73 10000 1 0 07:47 15.11.2020
6300 Clouds 4 1019 100 5000 0.5 0 06:50 15.11.2020
6301 Clear 5 1019 100 10000 1 0 04:57 15.11.2020
6302 Clouds 5 1021 100 8000 0.5 0 02:31 15.11.2020
6303 Clear 3 1020 100 10000 1.5 110 00:42 15.11.2020
6304 Clear 4 1020 100 10000 1.5 110 00:24 15.11.2020
6305 Clear 3 1021 100 10000 1 140 23:30 14.11.2020
6306 Clear 4 1020 100 9000 0.5 0 22:46 14.11.2020
6307 Clear 4 1020 100 9000 0.5 0 22:27 14.11.2020
6308 Clear 4 1020 100 10000 0.5 0 21:40 14.11.2020
6309 Clear 5 1020 100 10000 0.5 0 21:21 14.11.2020
6310 Clear 5 1020 100 7000 0.81 190 20:48 14.11.2020
6311 Clear 6 1020 100 10000 0.5 0 20:26 14.11.2020
6312 Clear 6 1020 100 10000 0.5 0 19:46 14.11.2020
6313 Clear 6 1020 93 10000 0.5 170 19:28 14.11.2020
6314 Clear 7 1019 93 10000 1.01 167 18:43 14.11.2020
6315 Clear 8 1019 87 10000 0.86 176 18:23 14.11.2020
6316 Clear 8 1019 87 10000 0.86 176 17:49 14.11.2020
6317 Clear 10 1019 81 10000 0.68 204 17:31 14.11.2020
6318 Clear 11 1019 62 10000 2.1 240 16:56 14.11.2020
6319 Clear 11 1019 66 10000 2.1 230 16:36 14.11.2020
6320 Clear 12 1019 58 10000 1 280 16:18 14.11.2020
6321 Clear 13 1020 54 10000 1.5 300 15:44 14.11.2020
6322 Clear 13 1020 58 10000 2.1 310 15:18 14.11.2020
6323 Clear 14 1020 58 10000 2.1 300 14:38 14.11.2020
6324 Clear 14 1020 58 10000 2.1 300 14:20 14.11.2020
6325 Clear 13 1021 62 10000 1.5 0 13:40 14.11.2020
6326 Clear 13 1021 66 10000 1 0 13:21 14.11.2020
6327 Clear 12 1022 71 10000 1 0 12:43 14.11.2020
6328 Clear 12 1022 71 10000 1 0 12:23 14.11.2020
6329 Clear 11 1022 81 10000 0.5 0 11:41 14.11.2020
6330 Clear 10 1022 100 10000 0.5 0 11:22 14.11.2020
6331 Clear 9 1023 100 10000 0.5 0 10:41 14.11.2020
6332 Clear 8 1023 100 10000 0.5 0 10:23 14.11.2020
6333 Clear 7 1023 100 10000 1 0 09:45 14.11.2020
6334 Clear 6 1023 100 10000 1 0 09:27 14.11.2020
6335 Clouds 5 1023 100 10000 0.8 181 08:48 14.11.2020
6336 Fog 3 1023 100 10000 1.5 150 08:23 14.11.2020
6337 Clear 5 1023 100 10000 0.5 0 07:42 14.11.2020
6338 Clouds 3 1023 100 10000 0.5 0 07:21 14.11.2020
6339 Fog 5 1023 100 5000 0.5 0 06:29 14.11.2020
6340 Clouds 2 1023 100 6000 1 120 05:18 14.11.2020
6341 Clouds 4 1023 100 6000 0.5 0 03:28 14.11.2020
6342 Clouds 6 1023 100 10000 0.5 0 00:43 14.11.2020
6343 Fog 6 1023 100 5000 0.5 0 23:38 13.11.2020
6344 Fog 5 1023 100 5000 0.5 0 23:20 13.11.2020
6345 Fog 6 1023 100 7000 0.5 0 22:42 13.11.2020
6346 Fog 6 1023 100 7000 0.5 0 22:23 13.11.2020
6347 Mist 6 1023 100 4300 1.05 179 21:51 13.11.2020
6348 Mist 6 1023 100 4400 1 0 21:29 13.11.2020
6349 Clear 7 1022 100 10000 0.5 0 20:55 13.11.2020
6350 Clear 7 1022 100 10000 0.98 179 20:37 13.11.2020
6351 Clouds 7 1022 100 10000 1 280 20:18 13.11.2020
6352 Clouds 7 1022 100 10000 1.04 176 19:44 13.11.2020
6353 Clouds 7 1022 100 10000 1.04 176 19:44 13.11.2020
6354 Clouds 7 1022 100 10000 0.74 198 19:22 13.11.2020
6355 Clouds 8 1022 100 10000 0.5 0 18:49 13.11.2020
6356 Clouds 8 1022 93 10000 0.45 125 17:59 13.11.2020
6357 Clouds 9 1021 81 10000 0.45 125 17:36 13.11.2020
6358 Clouds 10 1021 76 10000 0.55 110 17:18 13.11.2020
6359 Clouds 11 1021 66 10000 1 230 16:42 13.11.2020
6360 Clouds 11 1021 66 10000 1 230 16:21 13.11.2020
6361 Clouds 13 1021 58 10000 1 0 15:41 13.11.2020
6362 Clouds 13 1021 58 10000 1 0 15:22 13.11.2020
6363 Clouds 13 1021 58 10000 2.1 310 14:39 13.11.2020
6364 Clear 13 1022 66 10000 1.5 260 14:19 13.11.2020
6365 Clear 13 1022 62 10000 1 0 13:37 13.11.2020
6366 Clouds 12 1023 66 10000 1 0 13:18 13.11.2020
6367 Clouds 12 1023 71 10000 1 0 12:43 13.11.2020
6368 Clouds 12 1023 71 10000 1 0 12:24 13.11.2020
6369 Clouds 11 1023 81 10000 1.03 281 11:48 13.11.2020
6370 Clouds 10 1023 81 10000 0.76 255 11:24 13.11.2020
6371 Clouds 10 1023 93 10000 0.5 0 10:54 13.11.2020
6372 Clouds 7 1023 87 10000 1.5 310 10:34 13.11.2020
6373 Clouds 6 1023 93 10000 1 0 09:53 13.11.2020
6374 Clouds 6 1023 100 10000 1.5 0 09:32 13.11.2020
6375 Clouds 6 1023 100 10000 1.5 0 09:32 13.11.2020
6376 Clouds 5 1023 100 10000 1.16 198 08:55 13.11.2020
6377 Clouds 3 1023 100 10000 0.5 0 08:32 13.11.2020
6378 Clouds 4 1023 100 10000 0.5 0 07:55 13.11.2020
6379 Clouds 4 1023 100 10000 0.5 0 07:36 13.11.2020
6380 Clouds 4 1023 100 10000 0.5 0 07:18 13.11.2020
6381 Clear 3 1023 100 10000 0.5 0 06:37 13.11.2020
6382 Clear 3 1022 100 10000 1.5 130 05:42 13.11.2020
6383 Clear 3 1023 100 10000 0.5 0 04:39 13.11.2020
6384 Clear 5 1023 100 10000 1 0 01:43 13.11.2020
6385 Clear 5 1023 100 10000 0.5 0 00:37 13.11.2020
6386 Clear 5 1023 100 10000 1 0 23:59 12.11.2020
6387 Clear 6 1023 100 10000 0.5 0 23:36 12.11.2020
6388 Clear 6 1023 100 10000 1.5 130 23:18 12.11.2020
6389 Clear 6 1023 100 10000 0.5 0 22:41 12.11.2020
6390 Clear 7 1023 100 10000 0.5 0 22:20 12.11.2020
6391 Clear 7 1022 100 10000 2.1 90 21:41 12.11.2020
6392 Clear 7 1022 100 10000 2.1 90 21:23 12.11.2020
6393 Clouds 8 1023 87 10000 2.6 120 20:45 12.11.2020
6394 Clouds 8 1023 87 10000 2.6 120 20:25 12.11.2020
6395 Clouds 9 1023 87 10000 3.1 120 19:58 12.11.2020
6396 Clouds 9 1023 87 10000 1 0 19:40 12.11.2020
6397 Clouds 9 1023 87 10000 1 0 19:21 12.11.2020
6398 Clouds 9 1022 81 10000 0.5 0 18:48 12.11.2020
6399 Clear 10 1022 81 10000 0.5 0 18:20 12.11.2020
6400 Clouds 11 1022 66 10000 1.5 140 17:43 12.11.2020
6401 Clouds 12 1022 66 10000 1.5 140 17:25 12.11.2020
6402 Clouds 14 1022 58 10000 1.5 0 16:46 12.11.2020
6403 Clouds 14 1022 58 10000 1.5 0 16:46 12.11.2020
6404 Clouds 14 1022 58 10000 1.5 0 16:24 12.11.2020
6405 Clouds 14 1022 51 10000 1.5 0 15:56 12.11.2020
6406 Clouds 14 1022 54 10000 1.5 0 15:31 12.11.2020
6407 Clouds 15 1022 62 10000 1.5 320 14:57 12.11.2020
6408 Clear 15 1022 62 10000 1 0 14:38 12.11.2020
6409 Clear 15 1022 62 10000 0.5 0 14:20 12.11.2020
6410 Clear 14 1023 62 10000 0.5 0 13:45 12.11.2020
6411 Clear 14 1023 62 10000 0.5 0 13:21 12.11.2020
6412 Clear 14 1023 66 10000 1 0 12:50 12.11.2020
6413 Clear 13 1023 71 10000 1.5 0 12:28 12.11.2020
6414 Clear 13 1024 71 10000 2.1 150 11:59 12.11.2020
6415 Clear 13 1024 76 10000 1.5 130 11:40 12.11.2020
6416 Clear 12 1024 81 10000 2.1 130 10:58 12.11.2020
6417 Clear 12 1024 87 10000 2.1 100 10:38 12.11.2020
6418 Clear 9 1024 87 10000 2.1 100 10:19 12.11.2020
6419 Clouds 7 1024 100 10000 2.6 100 09:40 12.11.2020
6420 Clouds 7 1023 93 10000 2.6 100 09:18 12.11.2020
6421 Clouds 6 1023 93 10000 2.1 110 08:40 12.11.2020
6422 Clouds 6 1023 93 10000 2.1 110 08:40 12.11.2020
6423 Clouds 6 1023 93 10000 2.1 110 08:21 12.11.2020
6424 Clear 6 1023 100 10000 3.1 100 07:56 12.11.2020
6425 Clouds 6 1023 93 10000 3.1 110 07:37 12.11.2020
6426 Clouds 6 1023 100 10000 1.5 70 06:54 12.11.2020
6427 Clouds 6 1022 93 10000 3.6 110 06:27 12.11.2020
6428 Clouds 8 1022 93 10000 3.1 130 03:50 12.11.2020
6429 Clouds 8 1022 93 10000 3.1 140 03:20 12.11.2020
6430 Clouds 9 1023 87 10000 1.5 140 00:45 12.11.2020
6431 Clouds 8 1023 87 10000 2.6 270 23:45 11.11.2020
6432 Clouds 8 1023 87 10000 2.6 270 23:25 11.11.2020
6433 Clouds 8 1023 87 10000 3.1 260 22:48 11.11.2020
6434 Clouds 8 1023 87 10000 2.6 280 22:24 11.11.2020
6435 Clouds 8 1023 87 10000 1 0 21:59 11.11.2020
6436 Clouds 8 1023 87 10000 1.5 0 21:40 11.11.2020
6437 Clouds 9 1023 87 10000 1.5 0 21:20 11.11.2020
6438 Clouds 9 1023 87 10000 1 0 20:54 11.11.2020
6439 Clouds 9 1023 81 10000 0.5 0 20:36 11.11.2020
6440 Clouds 9 1023 87 10000 0.5 0 20:18 11.11.2020
6441 Clouds 9 1023 87 10000 2.1 320 19:41 11.11.2020
6442 Clouds 9 1023 87 10000 2.1 320 19:22 11.11.2020
6443 Clouds 9 1023 81 10000 1.5 260 18:45 11.11.2020
6444 Clouds 9 1023 81 10000 1.5 260 18:26 11.11.2020
6445 Clouds 9 1023 87 10000 1.5 300 17:41 11.11.2020
6446 Clouds 9 1023 87 10000 1.5 300 17:21 11.11.2020
6447 Clouds 9 1023 87 10000 2.6 290 16:44 11.11.2020
6448 Clouds 10 1023 87 10000 2.6 290 16:25 11.11.2020
6449 Clouds 10 1023 87 10000 2.6 310 15:44 11.11.2020
6450 Clouds 10 1023 87 10000 2.6 310 15:24 11.11.2020
6451 Clouds 10 1023 87 10000 2.1 340 14:51 11.11.2020
6452 Clouds 11 1024 87 10000 2.6 310 14:31 11.11.2020
6453 Clouds 12 1024 87 10000 2.1 300 13:50 11.11.2020
6454 Clouds 11 1024 93 6000 1.5 0 13:32 11.11.2020
6455 Clouds 10 1025 100 6000 1 0 12:38 11.11.2020
6456 Clouds 10 1025 100 6000 1 0 12:20 11.11.2020
6457 Mist 9 1026 100 4000 1.5 140 11:47 11.11.2020
6458 Mist 7 1026 100 4000 1.5 140 11:25 11.11.2020
6459 Clouds 6 1026 100 2000 1.5 120 10:39 11.11.2020
6460 Clouds 7 1026 100 2000 1.5 120 10:20 11.11.2020
6461 Mist 6 1026 100 2000 2.6 110 09:44 11.11.2020
6462 Mist 6 1026 100 2000 2.6 110 09:24 11.11.2020
6463 Mist 6 1026 100 2800 2.1 150 08:46 11.11.2020
6464 Mist 6 1026 100 2800 2.1 150 08:27 11.11.2020
6465 Mist 5 1026 100 2700 2.6 160 07:49 11.11.2020
6466 Mist 5 1027 100 3900 1 100 06:33 11.11.2020
6467 Clouds 5 1027 100 6000 1 130 05:59 11.11.2020
6468 Fog 5 1028 100 450 1.5 230 02:48 11.11.2020
6469 Fog 6 1027 100 200 1 0 00:59 11.11.2020
6470 Fog 6 1027 100 200 0.5 0 00:26 11.11.2020
6471 Fog 6 1027 100 250 0.5 0 23:42 10.11.2020
6472 Fog 6 1027 100 250 0.5 0 23:23 10.11.2020
6473 Fog 6 1027 100 350 1 0 22:52 10.11.2020
6474 Fog 6 1027 100 400 1 0 22:27 10.11.2020
6475 Fog 6 1027 100 650 1.5 330 21:44 10.11.2020
6476 Fog 6 1027 100 650 1.5 330 21:25 10.11.2020
6477 Fog 6 1027 100 250 1.5 340 20:58 10.11.2020
6478 Fog 6 1027 100 200 0.5 0 20:40 10.11.2020
6479 Fog 7 1027 100 300 1 0 20:22 10.11.2020
6480 Fog 7 1027 100 300 1 0 19:47 10.11.2020
6481 Fog 7 1027 100 450 1 0 19:28 10.11.2020
6482 Mist 7 1027 100 1800 3.1 300 18:57 10.11.2020
6483 Mist 7 1026 100 1500 2.1 340 18:39 10.11.2020
6484 Mist 7 1026 100 2000 2.6 340 18:18 10.11.2020
6485 Clouds 8 1026 93 6000 2.6 330 17:42 10.11.2020
6486 Clouds 8 1026 93 6000 2.6 330 17:24 10.11.2020
6487 Clear 10 1026 87 10000 2.6 350 16:43 10.11.2020
6488 Clear 11 1026 87 10000 2.6 350 16:24 10.11.2020
6489 Clear 11 1025 87 10000 3.1 340 15:55 10.11.2020
6490 Clear 12 1025 81 10000 2.6 330 15:37 10.11.2020
6491 Clear 12 1025 81 10000 2.6 330 15:19 10.11.2020
6492 Clear 12 1026 81 10000 3.6 310 14:41 10.11.2020
6493 Clear 12 1026 81 10000 3.6 310 14:21 10.11.2020
6494 Clear 12 1026 87 10000 3.1 310 13:41 10.11.2020
6495 Clear 12 1026 87 10000 3.1 310 13:23 10.11.2020
6496 Clear 12 1026 81 10000 3.1 320 12:58 10.11.2020
6497 Clouds 10 1026 100 10000 1 0 12:38 10.11.2020
6498 Clouds 9 1026 100 10000 1 0 12:20 10.11.2020
6499 Clouds 8 1026 100 6000 1 0 11:38 10.11.2020
6500 Clouds 8 1026 100 6000 1 0 11:19 10.11.2020
6501 Fog 8 1026 100 350 2.1 310 10:42 10.11.2020
6502 Fog 7 1026 100 350 2.1 310 10:24 10.11.2020
6503 Fog 7 1026 100 200 0.5 0 09:49 10.11.2020
6504 Fog 5 1026 100 200 0.5 0 09:26 10.11.2020
6505 Fog 4 1026 100 200 0.5 0 08:57 10.11.2020
6506 Fog 4 1026 100 150 0.46 156 08:30 10.11.2020
6507 Fog 4 1026 100 100 1 170 07:47 10.11.2020
6508 Fog 4 1025 100 150 1 170 07:26 10.11.2020
6509 Fog 4 1025 100 150 1 160 06:58 10.11.2020
6510 Fog 4 1025 100 150 1 180 06:37 10.11.2020
6511 Fog 5 1025 100 150 1 0 05:27 10.11.2020
6512 Fog 5 1025 100 300 1 0 02:57 10.11.2020
6513 Fog 5 1025 100 200 0.51 166 01:38 10.11.2020
6514 Fog 5 1025 100 250 0.5 0 00:24 10.11.2020
6515 Fog 5 1025 100 350 0.5 0 23:42 09.11.2020
6516 Fog 5 1025 100 150 0.5 0 22:57 09.11.2020
6517 Fog 5 1025 100 5000 0.5 0 22:38 09.11.2020
6518 Fog 5 1025 100 5000 0.5 0 22:19 09.11.2020
6519 Fog 6 1025 100 3600 1 330 21:39 09.11.2020
6520 Fog 5 1025 100 3600 1 330 21:20 09.11.2020
6521 Clear 7 1024 100 6000 0.5 0 20:41 09.11.2020
6522 Clear 7 1024 100 6000 0.5 0 20:21 09.11.2020
6523 Clear 7 1024 100 10000 1 140 19:43 09.11.2020
6524 Clear 8 1024 100 10000 1 140 19:23 09.11.2020
6525 Clear 8 1024 100 10000 1 90 18:56 09.11.2020
6526 Clear 8 1024 100 10000 1 90 18:56 09.11.2020
6527 Clear 8 1024 100 10000 0.5 0 18:37 09.11.2020
6528 Clear 9 1023 93 10000 1 290 18:18 09.11.2020
6529 Clear 10 1023 76 10000 2.1 290 17:43 09.11.2020
6530 Clear 10 1023 76 10000 2.1 290 17:24 09.11.2020
6531 Clear 12 1023 72 10000 3.1 280 16:41 09.11.2020
6532 Clear 13 1023 67 10000 2.6 280 16:20 09.11.2020
6533 Clear 13 1023 63 10000 3.1 310 15:44 09.11.2020
6534 Clear 14 1023 63 10000 3.1 310 15:25 09.11.2020
6535 Clear 14 1023 67 10000 1 0 14:46 09.11.2020
6536 Clear 14 1023 67 10000 1 0 14:28 09.11.2020
6537 Clear 14 1024 62 10000 1 0 13:52 09.11.2020
6538 Clear 13 1024 66 10000 1 200 13:24 09.11.2020
6539 Clear 14 1024 71 10000 1 190 12:57 09.11.2020
6540 Clear 13 1024 71 10000 1.5 0 12:37 09.11.2020
6541 Clear 12 1025 76 10000 0.5 0 12:19 09.11.2020
6542 Clear 11 1025 87 10000 1 130 11:41 09.11.2020
6543 Clear 11 1025 87 10000 1 130 11:22 09.11.2020
6544 Fog 9 1025 100 10000 0.6 328 10:43 09.11.2020
6545 Fog 9 1025 100 10000 0.34 313 10:25 09.11.2020
6546 Fog 8 1025 100 8000 0.34 313 09:52 09.11.2020
6547 Fog 6 1025 100 3000 0.33 142 09:28 09.11.2020
6548 Fog 4 1025 100 150 0.5 0 08:45 09.11.2020
6549 Fog 4 1025 100 150 0.5 0 08:26 09.11.2020
6550 Fog 3 1024 100 1000 1 0 07:41 09.11.2020
6551 Fog 4 1024 100 1000 1 0 07:21 09.11.2020
6552 Fog 4 1024 100 200 0.5 0 06:48 09.11.2020
6553 Mist 6 1024 100 750 0.5 0 03:49 09.11.2020
6554 Clouds 6 1024 100 10000 1 0 01:55 09.11.2020
6555 Clear 6 1024 100 7000 0.5 0 01:37 09.11.2020
6556 Clouds 7 1024 100 10000 1 0 23:55 08.11.2020
6557 Clouds 7 1024 100 10000 0.53 207 23:37 08.11.2020
6558 Clouds 7 1024 100 9000 0.5 260 23:18 08.11.2020
6559 Clouds 7 1024 100 10000 1 0 22:41 08.11.2020
6560 Clouds 7 1024 100 10000 1 0 22:20 08.11.2020
6561 Clouds 7 1024 100 7000 0.5 0 21:42 08.11.2020
6562 Clouds 7 1024 100 10000 0.5 0 21:20 08.11.2020
6563 Clouds 7 1024 100 10000 0.5 0 20:55 08.11.2020
6564 Clouds 8 1024 100 10000 2.1 90 20:36 08.11.2020
6565 Clouds 8 1024 100 10000 2.6 90 20:18 08.11.2020
6566 Clouds 8 1024 100 10000 1 0 19:42 08.11.2020
6567 Clouds 9 1024 100 10000 1 0 19:21 08.11.2020
6568 Clouds 9 1024 93 10000 0.5 0 18:48 08.11.2020
6569 Clouds 9 1024 93 10000 0.5 0 18:48 08.11.2020
6570 Clouds 10 1024 87 10000 0.5 0 18:22 08.11.2020
6571 Clouds 10 1023 87 10000 1.5 290 17:58 08.11.2020
6572 Clouds 10 1023 87 10000 1.5 290 17:58 08.11.2020
6573 Clear 10 1023 81 10000 2.1 290 17:38 08.11.2020
6574 Clear 11 1024 76 10000 2.1 300 17:19 08.11.2020
6575 Clear 11 1024 76 10000 2.1 300 16:48 08.11.2020
6576 Clear 12 1024 71 10000 1 340 16:22 08.11.2020
6577 Clear 12 1023 67 10000 1.5 320 15:58 08.11.2020
6578 Clear 13 1023 62 10000 1.5 310 15:40 08.11.2020
6579 Clear 14 1023 62 10000 1.5 310 15:21 08.11.2020
6580 Clear 14 1024 62 10000 2.1 80 14:41 08.11.2020
6581 Clear 14 1024 62 10000 2.1 80 14:21 08.11.2020
6582 Clear 14 1024 71 10000 2.1 340 13:46 08.11.2020
6583 Clear 13 1025 76 10000 3.1 320 13:23 08.11.2020
6584 Clear 13 1025 76 10000 3.1 320 13:23 08.11.2020
6585 Clouds 12 1025 87 10000 1 0 12:44 08.11.2020
6586 Clouds 12 1025 87 10000 1 0 12:25 08.11.2020
6587 Clouds 11 1025 100 10000 2.1 310 11:58 08.11.2020
6588 Clouds 10 1026 100 8000 2.1 280 11:39 08.11.2020
6589 Clouds 10 1026 100 8000 2.1 280 11:20 08.11.2020
6590 Mist 10 1025 100 2500 1 0 10:50 08.11.2020
6591 Mist 9 1025 100 2500 1 0 10:19 08.11.2020
6592 Clouds 7 1025 100 1500 1.5 0 09:44 08.11.2020
6593 Clouds 6 1025 100 1500 1.5 0 09:24 08.11.2020
6594 Fog 6 1025 100 300 3.6 90 08:58 08.11.2020
6595 Rain 5 1025 100 500 4.1 90 08:39 08.11.2020
6596 Rain 5 1025 100 500 4.1 90 08:39 08.11.2020
6597 Mist 5 1025 100 1300 4.1 100 08:18 08.11.2020
6598 Mist 5 1025 100 1300 4.1 100 07:51 08.11.2020
6599 Fog 5 1025 100 400 2.6 120 07:21 08.11.2020
6600 Fog 5 1025 100 250 1.5 110 05:56 08.11.2020
6601 Fog 5 1025 100 200 2.1 150 05:31 08.11.2020
6602 Fog 6 1025 100 200 0.5 0 04:18 08.11.2020
6603 Fog 6 1025 100 250 0.5 0 01:50 08.11.2020
6604 Fog 6 1025 100 3700 1 200 01:18 08.11.2020
6605 Fog 6 1025 100 2100 0.5 0 00:27 08.11.2020
6606 Fog 6 1025 100 2100 0.5 0 00:27 08.11.2020
6607 Fog 6 1025 100 550 1.5 0 23:46 07.11.2020
6608 Fog 6 1025 100 550 1.5 0 23:28 07.11.2020
6609 Fog 6 1025 100 250 2.6 310 22:43 07.11.2020
6610 Fog 6 1025 100 200 2.1 310 22:25 07.11.2020
6611 Fog 6 1025 100 250 0.5 0 21:46 07.11.2020
6612 Fog 6 1025 100 250 0.5 0 21:22 07.11.2020
6613 Fog 6 1025 100 350 1.5 330 20:55 07.11.2020
6614 Mist 6 1025 100 3000 2.1 290 20:36 07.11.2020
6615 Clouds 7 1025 100 8000 2.6 310 20:18 07.11.2020
6616 Clouds 7 1025 100 6000 1 330 19:41 07.11.2020
6617 Clouds 7 1025 100 6000 1 330 19:22 07.11.2020
6618 Clouds 7 1025 100 10000 0.5 0 18:39 07.11.2020
6619 Clouds 7 1025 100 10000 0.5 0 18:21 07.11.2020
6620 Clouds 8 1025 87 10000 0.5 0 17:46 07.11.2020
6621 Clouds 9 1025 87 10000 0.5 0 17:26 07.11.2020
6622 Clouds 9 1025 87 10000 1.5 290 16:44 07.11.2020
6623 Clouds 10 1025 87 10000 1.5 290 16:24 07.11.2020
6624 Clear 11 1025 81 10000 2.1 310 15:48 07.11.2020
6625 Clear 10 1025 81 10000 2.6 290 15:24 07.11.2020
6626 Clear 11 1025 81 10000 1 0 14:58 07.11.2020
6627 Clear 11 1025 81 10000 1 0 14:58 07.11.2020
6628 Clouds 10 1025 100 10000 1 0 14:40 07.11.2020
6629 Clouds 9 1026 100 9000 0.87 19 14:19 07.11.2020
6630 Mist 9 1026 100 4000 0.5 0 13:39 07.11.2020
6631 Mist 9 1026 100 4000 0.5 0 13:21 07.11.2020
6632 Mist 9 1027 100 3000 0.68 343 12:35 07.11.2020
6633 Mist 9 1027 100 3000 0.68 343 12:35 07.11.2020
6634 Clouds 8 1027 100 2000 0.5 0 11:46 07.11.2020
6635 Clouds 8 1027 100 2000 0.5 0 11:25 07.11.2020
6636 Clouds 8 1027 100 1500 0.5 0 10:57 07.11.2020
6637 Mist 6 1028 100 1500 1 0 10:39 07.11.2020
6638 Fog 6 1028 100 650 1 0 10:20 07.11.2020
6639 Fog 8 1028 100 500 0.31 358 09:47 07.11.2020
6640 Fog 5 1028 100 500 0.08 118 09:21 07.11.2020
6641 Mist 5 1028 100 1000 1.5 250 08:47 07.11.2020
6642 Mist 5 1028 100 1000 1.5 250 08:28 07.11.2020
6643 Mist 5 1027 100 1400 2.1 240 07:48 07.11.2020
6644 Mist 5 1028 100 2600 1 0 06:50 07.11.2020
6645 Mist 5 1028 100 2600 0.5 0 05:48 07.11.2020
6646 Mist 5 1028 100 2900 0.5 0 03:26 07.11.2020
6647 Fog 5 1028 100 650 0.5 170 02:38 07.11.2020
6648 Fog 5 1029 100 450 1.5 150 01:27 07.11.2020
6649 Fog 5 1029 100 450 1.5 150 01:27 07.11.2020
6650 Fog 4 1029 100 400 1 100 00:37 07.11.2020
6651 Fog 4 1029 100 400 0.5 0 23:39 06.11.2020
6652 Fog 4 1029 100 6000 1 0 23:18 06.11.2020
6653 Fog 4 1029 100 5000 0.54 96 22:40 06.11.2020
6654 Fog 4 1029 100 2900 0.5 0 22:18 06.11.2020
6655 Fog 5 1029 100 7000 1 0 21:42 06.11.2020
6656 Fog 5 1029 100 7000 1 0 21:20 06.11.2020
6657 Clear 5 1029 100 10000 0.52 98 20:45 06.11.2020
6658 Clear 6 1029 100 10000 0.64 88 20:20 06.11.2020
6659 Clear 6 1029 100 10000 0.64 88 20:20 06.11.2020
6660 Clear 6 1029 100 10000 1.5 90 19:45 06.11.2020
6661 Clear 6 1029 100 10000 1.5 90 19:27 06.11.2020
6662 Clear 6 1029 100 10000 2.1 100 18:57 06.11.2020
6663 Clear 7 1029 93 10000 2.1 110 18:39 06.11.2020
6664 Clear 7 1029 93 10000 2.1 100 18:19 06.11.2020
6665 Clear 8 1029 87 10000 2.1 140 17:46 06.11.2020
6666 Clear 8 1029 87 10000 2.1 140 17:24 06.11.2020
6667 Clear 9 1029 76 10000 2.1 150 16:43 06.11.2020
6668 Clear 10 1029 76 10000 2.1 150 16:22 06.11.2020
6669 Clouds 10 1030 76 10000 2.1 200 15:47 06.11.2020
6670 Clouds 10 1030 76 10000 2.1 200 15:26 06.11.2020
6671 Clouds 11 1030 81 10000 2.1 130 14:50 06.11.2020
6672 Clouds 11 1031 81 10000 3.1 140 14:23 06.11.2020
6673 Clouds 11 1031 76 10000 2.6 130 13:42 06.11.2020
6674 Clouds 11 1031 81 10000 2.6 150 13:21 06.11.2020
6675 Clouds 11 1031 81 10000 3.1 160 12:43 06.11.2020
6676 Clouds 9 1031 81 10000 3.1 160 12:23 06.11.2020
6677 Clouds 8 1032 87 10000 3.1 160 11:40 06.11.2020
6678 Clouds 8 1031 87 10000 2.6 140 11:21 06.11.2020
6679 Clouds 8 1031 87 10000 2.1 140 10:37 06.11.2020
6680 Clouds 8 1031 87 10000 2.6 160 10:18 06.11.2020
6681 Clouds 8 1031 87 10000 2.1 160 09:44 06.11.2020
6682 Clouds 7 1031 87 10000 2.6 200 09:21 06.11.2020
6683 Clouds 7 1031 87 10000 2.1 200 08:48 06.11.2020
6684 Clouds 7 1031 87 10000 2.1 200 08:28 06.11.2020
6685 Clouds 8 1031 87 10000 1 0 07:46 06.11.2020
6686 Clouds 8 1031 87 10000 1 0 07:27 06.11.2020
6687 Clouds 8 1031 87 10000 1 0 06:48 06.11.2020
6688 Clouds 8 1031 87 10000 1.5 150 05:42 06.11.2020
6689 Clouds 8 1032 87 10000 1 110 02:53 06.11.2020
6690 Clouds 8 1032 93 10000 0.5 0 00:43 06.11.2020
6691 Clouds 8 1032 93 10000 0.5 0 00:18 06.11.2020
6692 Clouds 8 1032 93 10000 0.5 30 23:26 05.11.2020
6693 Clouds 8 1032 93 10000 1 0 22:50 05.11.2020
6694 Clouds 8 1032 93 10000 1 0 22:50 05.11.2020
6695 Clouds 8 1032 93 10000 1 0 22:26 05.11.2020
6696 Clouds 8 1032 87 10000 0.5 0 21:59 05.11.2020
6697 Clouds 8 1032 87 10000 1 0 21:41 05.11.2020
6698 Clouds 8 1032 87 10000 1 0 21:21 05.11.2020
6699 Clouds 8 1032 87 10000 1 0 20:44 05.11.2020
6700 Clouds 8 1032 87 10000 1 0 20:25 05.11.2020
6701 Clouds 8 1032 81 10000 1 0 19:57 05.11.2020
6702 Clouds 8 1032 81 10000 2.1 80 19:38 05.11.2020
6703 Clouds 8 1032 81 10000 2.1 100<